Su Yang Bo 001 — 000000 — position and weather

sailwx.info

Track history (hours):
 
Tides and Currents Weather Stations Pressure Air Temp Water Temp Dewpoint Dewpoint Depression Visibility Wind Speed Wind Dir Waves Ship Positions

Su Yang Bo 001

Last reported at 2017-Jun-27 18:58 UTC. Time now 2017-Jun-27 19:10 UTC.
Position N 31°40' E 121°13'.

Length 50 m.

Type: Towing. MMSI: 200002069.

Date/timePositionNaut miles runAvg speedWind from/ knotsBaromVisibWave heightAir tempDewpointWater temp
2017-Jun-27 18:58N 31°40' E 121°13'0162.0
2017-Jun-27 18:58N 31°40' E 121°13'032.4
2017-Jun-27 18:57N 31°40' E 121°14'025.9
2017-Jun-27 18:57N 31°40' E 121°14'141645.7
2017-Jun-27 18:56N 31°30' E 121°25'11872.2
2017-Jun-27 18:55N 31°24' E 121°36'10129.9
2017-Jun-27 18:51N 31°15' E 121°31'2982.5
2017-Jun-27 18:30N 31°40' E 121°14'4579.7
2017-Jun-27 18:29N 31°42' E 121°10'291607.9
2017-Jun-27 18:28N 31°24' E 121°36'25628.2
2017-Jun-27 18:26N 31°40' E 121°13'151374.3
2017-Jun-27 18:25N 31°30' E 121°25'1535.2
2017-Jun-27 18:01N 31°40' E 121°13'4114.9
2017-Jun-27 17:59N 31°42' E 121°10'18918.1
2017-Jun-27 17:57N 31°30' E 121°25'14629.8
2017-Jun-27 17:56N 31°40' E 121°14'25843.0
2017-Jun-27 17:54N 31°24' E 121°36'25114.6
2017-Jun-27 17:41N 31°40' E 121°14'0 1.3
2017-Jun-27 17:28N 31°40' E 121°14'1410203.4
2017-Jun-27 17:28N 31°30' E 121°25'185420.8
2017-Jun-27 17:27N 31°42' E 121°10'29619.0
2017-Jun-27 17:25N 31°24' E 121°36'251761.1
2017-Jun-27 17:24N 31°40' E 121°13'0 1.5
2017-Jun-27 17:08N 31°40' E 121°14'0 2.6
2017-Jun-27 16:59N 31°40' E 121°13'14273.1
2017-Jun-27 16:56N 31°30' E 121°25'11239.9
2017-Jun-27 16:54N 31°24' E 121°36'25538.7
2017-Jun-27 16:51N 31°40' E 121°14'0 7.1
2017-Jun-27 16:48N 31°40' E 121°14'14259.5
2017-Jun-27 16:45N 31°30' E 121°25'1863.8
2017-Jun-27 16:28N 31°42' E 121°10'18699.9
2017-Jun-27 16:27N 31°29' E 121°25'14301.2
2017-Jun-27 16:24N 31°40' E 121°14'25135.6
2017-Jun-27 16:13N 31°24' E 121°36'25285.3
2017-Jun-27 16:08N 31°40' E 121°13'0218.0
2017-Jun-27 16:08N 31°40' E 121°14'22241.3
2017-Jun-27 16:02N 31°24' E 121°31'22505.6
2017-Jun-27 15:59N 31°40' E 121°14'251754.4
2017-Jun-27 15:59N 31°24' E 121°36'41689.2
2017-Jun-27 15:58N 31°24' E 121°31'23339.9
2017-Jun-27 15:54N 31°40' E 121°13'1 7.6
2017-Jun-27 15:49N 31°40' E 121°14'14101.6
2017-Jun-27 15:40N 31°29' E 121°25'18352.3
2017-Jun-27 15:37N 31°42' E 121°10'513842616.1
2017-Jun-27 15:30N 58°51' E 005°46'51426170815.9
2017-Jun-27 15:30N 31°40' E 121°14'142389.3
2017-Jun-27 15:30N 31°30' E 121°25'11176.5
2017-Jun-27 15:26N 31°24' E 121°36'11194.1
2017-Jun-27 15:23N 31°29' E 121°25'15361.3
2017-Jun-27 15:20N 31°40' E 121°14'011.2
2017-Jun-27 15:18N 31°40' E 121°13'3285.7
2017-Jun-27 15:17N 31°42' E 121°10'478.3
2017-Jun-27 15:15N 31°40' E 121°13'532622269.5
2017-Jun-27 15:00N 44°06' E 009°52'5322304113.2
2017-Jun-27 14:59N 31°42' E 121°10'181086.4
2017-Jun-27 14:58N 31°29' E 121°25'112003.9
2017-Jun-27 14:58N 31°24' E 121°36'11715.7
2017-Jun-27 14:57N 31°30' E 121°25'14826.6
2017-Jun-27 14:56N 31°40' E 121°14'0 7.8
2017-Jun-27 14:54N 31°40' E 121°14'152.4
2017-Jun-27 14:53N 31°40' E 121°13'2555.7
2017-Jun-27 14:26N 31°24' E 121°36'1196.7
2017-Jun-27 14:19N 31°30' E 121°25'15236.9
2017-Jun-27 14:15N 31°40' E 121°13'0 1.2
2017-Jun-27 13:55N 31°40' E 121°14'155235.6
2017-Jun-27 13:55N 31°29' E 121°25'1489.8
2017-Jun-27 13:46N 31°40' E 121°14'9807.7
2017-Jun-27 13:45N 31°33' E 121°19'624.4
2017-Jun-27 13:30N 31°29' E 121°25'152686.2
2017-Jun-27 13:30N 31°40' E 121°13'015.8
2017-Jun-27 13:29N 31°40' E 121°14'142328.8
2017-Jun-27 13:28N 31°30' E 121°25'1816008.5
2017-Jun-27 13:28N 31°42' E 121°10'4507.9
2017-Jun-27 13:28N 31°40' E 121°14'255531.2
2017-Jun-27 13:27N 31°24' E 121°36'2554.2
2017-Jun-27 13:00N 31°40' E 121°14'011.2
2017-Jun-27 12:58N 31°40' E 121°13'255346.5
2017-Jun-27 12:58N 31°24' E 121°36'254657.1
2017-Jun-27 12:57N 31°40' E 121°14'14254.0
2017-Jun-27 12:54N 31°29' E 121°25'0 5.7
2017-Jun-27 12:50N 31°30' E 121°25'1544.2
2017-Jun-27 12:30N 31°40' E 121°13'251356.4
2017-Jun-27 12:29N 31°24' E 121°36'2514745.2
2017-Jun-27 12:29N 31°40' E 121°14'14201.5
2017-Jun-27 12:25N 31°30' E 121°25'0 8.6
2017-Jun-27 12:22N 31°29' E 121°25'1580.8
2017-Jun-27 12:11N 31°40' E 121°14'24211.3
2017-Jun-27 12:05N 31°24' E 121°34'220.3
2017-Jun-27 12:00N 31°24' E 121°36'11139.0
2017-Jun-27 11:55N 31°29' E 121°25'151277.0
2017-Jun-27 11:55N 31°40' E 121°14'014.4
2017-Jun-27 11:53N 31°40' E 121°14'111.1
2017-Jun-27 11:50N 31°40' E 121°13'25454.2
2017-Jun-27 11:46N 31°24' E 121°36'2594.3
2017-Jun-27 11:30N 31°40' E 121°14'251569.8
2017-Jun-27 11:29N 31°24' E 121°36'25431.6
2017-Jun-27 11:26N 31°40' E 121°14'14243.1
2017-Jun-27 11:23N 31°29' E 121°25'012.8
2017-Jun-27 11:21N 31°30' E 121°25'151877.9
2017-Jun-27 11:20N 31°40' E 121°13'29153.2
2017-Jun-27 11:09N 31°21' E 121°39'1 5.4
2017-Jun-27 10:59N 31°21' E 121°40'15628.2
2017-Jun-27 10:57N 31°29' E 121°25'11976.5
2017-Jun-27 10:57N 31°24' E 121°36'25324.5
2017-Jun-27 10:52N 31°40' E 121°13'046.3
2017-Jun-27 10:51N 31°40' E 121°14'0 8.0
2017-Jun-27 10:48N 31°40' E 121°13'1 8.5
2017-Jun-27 10:45N 31°40' E 121°14'25112.5
2017-Jun-27 10:31N 31°24' E 121°36'7373.3
2017-Jun-27 10:30N 31°19' E 121°42'74044.6
2017-Jun-27 10:30N 31°24' E 121°36'251373.0
2017-Jun-27 10:29N 31°40' E 121°14'254212.3
2017-Jun-27 10:29N 31°24' E 121°36'25979.0
2017-Jun-27 10:27N 31°40' E 121°13'15218.9
2017-Jun-27 10:23N 31°29' E 121°25'155234.1
2017-Jun-27 10:23N 31°40' E 121°14'1443.8
2017-Jun-27 10:04N 31°30' E 121°25'20355.3
2017-Jun-27 10:00N 31°18' E 121°44'203747.8
2017-Jun-27 10:00N 31°29' E 121°25'1552777.8
2017-Jun-27 10:00N 31°40' E 121°13'254130.4
2017-Jun-27 09:59N 31°24' E 121°36'252054.6
2017-Jun-27 09:59N 31°40' E 121°14'254978.8
2017-Jun-27 09:58N 31°24' E 121°36'11418.9
2017-Jun-27 09:57N 31°30' E 121°25'14986.2
2017-Jun-27 09:56N 31°40' E 121°14'0 0.7
2017-Jun-27 09:43N 31°40' E 121°14'36172.5
2017-Jun-27 09:30N 31°16' E 121°46'22528.1
2017-Jun-27 09:28N 31°30' E 121°25'13619.3
2017-Jun-27 09:27N 31°39' E 121°14'5595.7
2017-Jun-27 09:26N 31°42' E 121°10'18401.2
2017-Jun-27 09:23N 31°29' E 121°25'11362.8
2017-Jun-27 09:22N 31°24' E 121°36'25144.1
2017-Jun-27 09:11N 31°40' E 121°14'25389.7
2017-Jun-27 09:07N 31°24' E 121°36'535646015.4
2017-Jun-27 09:00N 44°06' E 009°52'53262396793.9
2017-Jun-27 09:00N 31°40' E 121°14'402452.7
2017-Jun-27 08:59N 31°14' E 121°48'351171.3
2017-Jun-27 08:58N 31°36' E 121°17'201989.5
2017-Jun-27 08:57N 31°24' E 121°36'0 3.2
2017-Jun-27 08:53N 31°24' E 121°36'293549.6
2017-Jun-27 08:52N 31°42' E 121°10'18175.3
2017-Jun-27 08:46N 31°30' E 121°25'14560.1
2017-Jun-27 08:45N 31°40' E 121°14'1 9.3
2017-Jun-27 08:41N 31°40' E 121°13'14310.4
2017-Jun-27 08:39N 31°29' E 121°25'28204.6
2017-Jun-27 08:30N 31°12' E 121°50'1720660.7
2017-Jun-27 08:30N 31°24' E 121°36'176162.6
2017-Jun-27 08:30N 31°34' E 121°20'51264.2
2017-Jun-27 08:30N 31°30' E 121°23'1104.1
2017-Jun-27 08:29N 31°30' E 121°25'14606.8
2017-Jun-27 08:28N 31°40' E 121°14'120.1
2017-Jun-27 08:26N 31°40' E 121°13'25325.4
2017-Jun-27 08:22N 31°24' E 121°36'329.4
2017-Jun-27 08:14N 31°21' E 121°38'32232.4
2017-Jun-27 08:06N 31°42' E 121°10'4124.1
2017-Jun-27 08:04N 31°40' E 121°14'334.9
2017-Jun-27 08:00N 31°38' E 121°15'94219.1
2017-Jun-27 07:59N 31°31' E 121°23'131518.8
2017-Jun-27 07:59N 31°24' E 121°36'156921.7
2017-Jun-27 07:59N 31°32' E 121°21'101479.8
2017-Jun-27 07:58N 31°40' E 121°13'463603.0
2017-Jun-27 07:58N 31°09' E 121°53'504464.4
2017-Jun-27 07:57N 31°42' E 121°10'29682.5
2017-Jun-27 07:54N 31°24' E 121°36'25649.7
2017-Jun-27 07:52N 31°40' E 121°14'14474.7
2017-Jun-27 07:50N 31°30' E 121°24'1852.5
2017-Jun-27 07:30N 31°42' E 121°10'295455.1
2017-Jun-27 07:30N 31°24' E 121°36'035.3
2017-Jun-27 07:30N 31°24' E 121°36'1922920.6
2017-Jun-27 07:30N 31°36' E 121°18'61962.4
2017-Jun-27 07:29N 31°40' E 121°13'164223.6
2017-Jun-27 07:29N 31°29' E 121°27'91998.4
2017-Jun-27 07:29N 31°34' E 121°19'422729.1
2017-Jun-27 07:28N 31°07' E 121°57'36182.6
2017-Jun-27 07:16N 31°30' E 121°25'141446.5
2017-Jun-27 07:16N 31°40' E 121°14'33397.4
2017-Jun-27 07:11N 31°10' E 121°28'20177.3
2017-Jun-27 07:04N 31°30' E 121°25'8144.9
2017-Jun-27 07:01N 31°35' E 121°17'3252.4
2017-Jun-27 07:00N 31°33' E 121°20'167196.2
2017-Jun-27 07:00N 31°24' E 121°36'11197.8
2017-Jun-27 06:56N 31°30' E 121°25'182607.3
2017-Jun-27 06:56N 31°42' E 121°10'291502.1
2017-Jun-27 06:55N 31°24' E 121°36'25201.5
2017-Jun-27 06:47N 31°40' E 121°14'14559.2
2017-Jun-27 06:46N 31°30' E 121°25'14301.7
2017-Jun-27 06:43N 31°40' E 121°13'315.0
2017-Jun-27 06:29N 31°37' E 121°16'116695.2
2017-Jun-27 06:29N 31°30' E 121°25'11489.2
2017-Jun-27 06:28N 31°24' E 121°36'13880.2
2017-Jun-27 06:27N 31°31' E 121°24'13570.0
2017-Jun-27 06:26N 31°24' E 121°36'291009.3
2017-Jun-27 06:24N 31°42' E 121°10'438.4
2017-Jun-27 06:18N 31°40' E 121°13'1447.8
2017-Jun-27 06:00N 31°30' E 121°25'226.6
2017-Jun-27 05:56N 31°29' E 121°27'91184.7
2017-Jun-27 05:56N 31°24' E 121°36'111938.0
2017-Jun-27 05:56N 31°15' E 121°29'11563.8
2017-Jun-27 05:54N 31°24' E 121°36'296851.7
2017-Jun-27 05:54N 31°42' E 121°10'1832.0
2017-Jun-27 05:20N 31°30' E 121°25'6292.7
2017-Jun-27 05:19N 31°26' E 121°30'2097.1
2017-Jun-27 05:07N 31°40' E 121°13'25846.2
2017-Jun-27 05:05N 31°24' E 121°36'25376.2
2017-Jun-27 05:01N 31°40' E 121°14'232201.7
2017-Jun-27 05:00N 31°25' E 121°33'81350.2
2017-Jun-27 05:00N 31°30' E 121°25'1139149.9
2017-Jun-27 05:00N 31°24' E 121°36'030.3
2017-Jun-27 04:59N 31°24' E 121°36'11131.4
2017-Jun-27 04:54N 31°30' E 121°25'14106.7
2017-Jun-27 04:46N 31°40' E 121°13'014.5
2017-Jun-27 04:45N 31°40' E 121°14'26107.1
2017-Jun-27 04:30N 31°23' E 121°36'146.8
2017-Jun-27 04:29N 31°24' E 121°36'3173.2
2017-Jun-27 04:28N 31°21' E 121°38'14528.7
2017-Jun-27 04:26N 31°29' E 121°25'11143.1
2017-Jun-27 04:22N 31°24' E 121°36'25733.6
2017-Jun-27 04:20N 31°40' E 121°14'0 8.1
2017-Jun-27 04:17N 31°40' E 121°13'29105.5
2017-Jun-27 04:00N 31°22' E 121°39'3924.6
2017-Jun-27 04:00N 31°24' E 121°36'252734.8
2017-Jun-27 04:00N 31°40' E 121°14'25505.7
2017-Jun-27 03:57N 31°24' E 121°36'11125.7
2017-Jun-27 03:52N 31°29' E 121°25'152630.1
2017-Jun-27 03:51N 31°40' E 121°13'2970.6
2017-Jun-27 03:27N 31°22' E 121°40'456.8
2017-Jun-27 03:23N 31°24' E 121°36'25255.8
2017-Jun-27 03:17N 31°40' E 121°14'15616.0
2017-Jun-27 03:15N 31°29' E 121°25'15279.8
2017-Jun-27 03:12N 31°40' E 121°13'2530237.9
2017-Jun-27 03:12N 31°24' E 121°36'1155.6
2017-Jun-27 03:00N 31°29' E 121°25'11306.0
2017-Jun-27 02:58N 31°24' E 121°36'4135.7
2017-Jun-27 02:57N 31°22' E 121°40'298638.9
2017-Jun-27 02:57N 31°40' E 121°14'0 7.3
2017-Jun-27 02:53N 31°40' E 121°13'251033.7
2017-Jun-27 02:51N 31°24' E 121°36'11103.2
2017-Jun-27 02:45N 31°30' E 121°25'2 8.0
2017-Jun-27 02:33N 31°28' E 121°26'16329.0
2017-Jun-27 02:30N 31°40' E 121°14'254300.2
2017-Jun-27 02:30N 31°24' E 121°36'3153.1
2017-Jun-27 02:29N 31°21' E 121°38'14618.8
2017-Jun-27 02:27N 31°29' E 121°25'151412.9
2017-Jun-27 02:27N 31°22' E 121°40'4242.0
2017-Jun-27 02:26N 31°24' E 121°36'25433.1
2017-Jun-27 02:22N 31°40' E 121°13'14108.6
2017-Jun-27 02:15N 31°30' E 121°24'13343.3
2017-Jun-27 02:15N 31°30' E 121°25'1145.1
2017-Jun-27 02:00N 31°24' E 121°36'3136.2
2017-Jun-27 01:59N 31°21' E 121°38'33076.0
2017-Jun-27 01:58N 31°24' E 121°36'4710.0
2017-Jun-27 01:58N 31°22' E 121°40'15297.2
2017-Jun-27 01:55N 31°29' E 121°25'15218.2
2017-Jun-27 01:51N 31°40' E 121°13'018.0
2017-Jun-27 01:50N 31°40' E 121°14'14368.5
2017-Jun-27 01:47N 31°30' E 121°25'1136.9
2017-Jun-27 01:30N 31°24' E 121°36'1119133.0
2017-Jun-27 01:30N 31°29' E 121°25'1119429.4
2017-Jun-27 01:29N 31°24' E 121°36'3552.4
2017-Jun-27 01:29N 31°21' E 121°38'235.8
2017-Jun-27 01:26N 31°22' E 121°40'15231.9
2017-Jun-27 01:22N 31°30' E 121°25'853.8
2017-Jun-27 01:13N 31°35' E 121°18'677.0
2017-Jun-27 01:08N 31°40' E 121°13'16108.6
2017-Jun-27 00:59N 31°29' E 121°26'1377.5
2017-Jun-27 00:59N 31°29' E 121°25'156542.6
2017-Jun-27 00:59N 31°40' E 121°14'25934.0
2017-Jun-27 00:58N 31°24' E 121°36'253753.6
2017-Jun-27 00:57N 31°40' E 121°13'283068.4
2017-Jun-27 00:57N 31°21' E 121°38'311599.8
2017-Jun-27 00:57N 31°24' E 121°36'4111.2
2017-Jun-27 00:55N 31°22' E 121°40'1666.3
2017-Jun-27 00:40N 31°30' E 121°23'1384.4
2017-Jun-27 00:31N 31°40' E 121°13'283375.2
2017-Jun-27 00:30N 31°21' E 121°38'161691.8
2017-Jun-27 00:29N 31°30' E 121°23'17257.0
2017-Jun-27 00:25N 31°22' E 121°40'4244.5
2017-Jun-27 00:25N 31°24' E 121°36'29495.1
2017-Jun-27 00:21N 31°42' E 121°10'29681.1
2017-Jun-27 00:19N 31°24' E 121°36'16115.6
2017-Jun-27 00:10N 31°32' E 121°20'0 1.2
2017-Jun-27 00:01N 31°32' E 121°20'201291.7
2017-Jun-27 00:00N 31°22' E 121°40'4344.9
2017-Jun-26 23:59N 31°24' E 121°36'3414.3
2017-Jun-26 23:58N 31°21' E 121°38'3219.0
2017-Jun-26 23:58N 31°24' E 121°36'25372.2
2017-Jun-26 23:54N 31°40' E 121°13'771.6
2017-Jun-26 23:48N 31°35' E 121°18'876.3
2017-Jun-26 23:42N 31°29' E 121°25'14367.0
2017-Jun-26 23:39N 31°40' E 121°14'29178.8
2017-Jun-26 23:30N 31°22' E 121°40'4373.6
2017-Jun-26 23:29N 31°24' E 121°36'010.0
2017-Jun-26 23:28N 31°24' E 121°36'36181.1
2017-Jun-26 23:28N 31°21' E 121°38'248659.3
2017-Jun-26 23:27N 31°36' E 121°16'10670.3
2017-Jun-26 23:27N 31°29' E 121°25'9473.3
2017-Jun-26 23:25N 31°36' E 121°17'547.9
2017-Jun-26 23:19N 31°40' E 121°14'0 2.1
2017-Jun-26 23:07N 31°40' E 121°13'29252.1
2017-Jun-26 23:00N 31°20' E 121°39'4995.2
2017-Jun-26 23:00N 31°24' E 121°36'3224.8
2017-Jun-26 22:59N 31°21' E 121°38'262780.0
2017-Jun-26 22:58N 31°38' E 121°14'287.4
2017-Jun-26 22:57N 31°40' E 121°13'25708.8
2017-Jun-26 22:55N 31°24' E 121°36'1168.1
2017-Jun-26 22:45N 31°30' E 121°25'0 3.6
2017-Jun-26 22:40N 31°29' E 121°25'0 0.0
2017-Jun-26 22:30N 31°29' E 121°25'1416361.9
2017-Jun-26 22:29N 31°21' E 121°38'367.9
2017-Jun-26 22:26N 31°24' E 121°36'43184.7
2017-Jun-26 22:26N 31°20' E 121°39'334.9
2017-Jun-26 22:21N 31°22' E 121°36'12143.3
2017-Jun-26 22:16N 31°30' E 121°25'1139.9
2017-Jun-26 22:00N 31°24' E 121°36'111825.3
2017-Jun-26 21:59N 31°29' E 121°25'127045.7
2017-Jun-26 21:59N 31°22' E 121°36'2135.2
2017-Jun-26 21:58N 31°21' E 121°38'130.8
2017-Jun-26 21:56N 31°20' E 121°39'1589.7
2017-Jun-26 21:46N 31°30' E 121°25'14936.5
2017-Jun-26 21:45N 31°40' E 121°13'0 3.9
2017-Jun-26 21:38N 31°40' E 121°14'28207.7
2017-Jun-26 21:30N 31°21' E 121°38'281078.1
2017-Jun-26 21:29N 31°40' E 121°13'142573.7
2017-Jun-26 21:28N 31°30' E 121°25'095.0
2017-Jun-26 21:28N 31°29' E 121°25'15339.4
2017-Jun-26 21:26N 31°20' E 121°39'464.2
2017-Jun-26 21:21N 31°24' E 121°36'1129.9
2017-Jun-26 21:00N 31°30' E 121°25'0 9.5
2017-Jun-26 20:58N 31°30' E 121°25'15862.8
2017-Jun-26 20:57N 31°20' E 121°39'1714.5
2017-Jun-26 20:57N 31°21' E 121°38'3149.2
2017-Jun-26 20:56N 31°24' E 121°36'25459.9
2017-Jun-26 20:52N 31°40' E 121°13'2566.8
2017-Jun-26 20:30N 31°24' E 121°36'3652.7
2017-Jun-26 20:29N 31°21' E 121°38'1178.2
2017-Jun-26 20:29N 31°20' E 121°39'15541.6
2017-Jun-26 20:27N 31°30' E 121°25'1123.0
2017-Jun-26 19:59N 31°24' E 121°36'4154.9
2017-Jun-26 19:58N 31°20' E 121°39'1329.8
2017-Jun-26 19:58N 31°21' E 121°38'289207.9
2017-Jun-26 19:57N 31°40' E 121°13'141103.8
2017-Jun-26 19:57N 31°30' E 121°25'1124.7
2017-Jun-26 19:30N 31°24' E 121°36'31236.2
2017-Jun-26 19:30N 31°21' E 121°38'282055.8
2017-Jun-26 19:29N 31°39' E 121°13'295243.9
2017-Jun-26 19:29N 31°20' E 121°39'15316.4
2017-Jun-26 19:26N 31°30' E 121°25'1431.3
2017-Jun-26 19:00N 31°21' E 121°38'398.1
2017-Jun-26 18:58N 31°24' E 121°36'4263.1
2017-Jun-26 18:57N 31°20' E 121°39'296221.7
2017-Jun-26 18:56N 31°39' E 121°13'14310.2
2017-Jun-26 18:54N 31°30' E 121°25'1537.6
2017-Jun-26 18:30N 31°20' E 121°39'15632.6
2017-Jun-26 18:28N 31°30' E 121°25'11244.6
2017-Jun-26 18:26N 31°24' E 121°36'3733.1
2017-Jun-26 18:25N 31°21' E 121°38'29280.4
2017-Jun-26 18:19N 31°41' E 121°13'1 3.6
2017-Jun-26 18:09N 31°40' E 121°13'25174.8
2017-Jun-26 18:00N 31°24' E 121°36'32488.6
2017-Jun-26 18:00N 31°21' E 121°38'1179.0
2017-Jun-26 18:00N 31°20' E 121°39'302195.1
2017-Jun-26 17:59N 31°41' E 121°13'116.0
2017-Jun-26 17:57N 31°40' E 121°13'267.3
2017-Jun-26 17:55N 31°41' E 121°11'144.7
2017-Jun-26 17:54N 31°41' E 121°10'171923.3
2017-Jun-26 17:53N 31°30' E 121°25'16452.1
2017-Jun-26 17:51N 31°41' E 121°11'2 6.2
2017-Jun-26 17:30N 31°39' E 121°13'1450254.0
2017-Jun-26 17:30N 31°30' E 121°25'121138.7
2017-Jun-26 17:30N 31°38' E 121°15'231443.7
2017-Jun-26 17:29N 31°24' E 121°36'3168.2
2017-Jun-26 17:27N 31°21' E 121°38'286763.4
2017-Jun-26 17:27N 31°40' E 121°13'281.2
2017-Jun-26 17:26N 31°39' E 121°14'28705.4
2017-Jun-26 17:24N 31°20' E 121°39'30193.8
2017-Jun-26 17:14N 31°41' E 121°13'624.3
2017-Jun-26 17:00N 31°36' E 121°17'231278.0
2017-Jun-26 16:59N 31°21' E 121°38'14971.8
2017-Jun-26 16:58N 31°30' E 121°25'81549.7
2017-Jun-26 16:58N 31°35' E 121°18'234078.4
2017-Jun-26 16:58N 31°20' E 121°39'24798.7
2017-Jun-26 16:56N 31°36' E 121°17'5277.8
2017-Jun-26 16:55N 31°40' E 121°13'255293.2
2017-Jun-26 16:55N 31°24' E 121°36'26178.1
2017-Jun-26 16:46N 31°41' E 121°13'15171.6
2017-Jun-26 16:41N 31°30' E 121°25'1482.6
2017-Jun-26 16:30N 31°40' E 121°13'83555.2
2017-Jun-26 16:30N 31°34' E 121°19'3209.5
2017-Jun-26 16:30N 31°32' E 121°21'182524.3
2017-Jun-26 16:29N 31°21' E 121°38'1416520.7
2017-Jun-26 16:29N 31°30' E 121°25'53862.5
2017-Jun-26 16:29N 31°33' E 121°20'20624.4
2017-Jun-26 16:27N 31°20' E 121°39'15346.8
2017-Jun-26 16:24N 31°30' E 121°25'11281.7
2017-Jun-26 16:22N 31°24' E 121°36'1029.2
2017-Jun-26 16:00N 31°29' E 121°25'31803.3
2017-Jun-26 16:00N 31°31' E 121°24'13960.5
2017-Jun-26 16:00N 31°24' E 121°36'147029.2
2017-Jun-26 15:59N 31°32' E 121°23'171403.6
2017-Jun-26 15:59N 31°21' E 121°38'123.6
2017-Jun-26 15:56N 31°20' E 121°39'292450.3
2017-Jun-26 15:55N 31°40' E 121°13'141481.3
2017-Jun-26 15:54N 31°30' E 121°25'12368.8
2017-Jun-26 15:53N 31°22' E 121°36'1288.7
2017-Jun-26 15:44N 31°30' E 121°25'1577.5
2017-Jun-26 15:33N 31°40' E 121°13'15257.0
2017-Jun-26 15:29N 31°30' E 121°26'15532.1
2017-Jun-26 15:28N 31°20' E 121°39'1425139.8
2017-Jun-26 15:28N 31°28' E 121°25'136576.4
2017-Jun-26 15:28N 31°21' E 121°38'281840.5
2017-Jun-26 15:27N 31°40' E 121°13'121.1
2017-Jun-26 15:25N 31°40' E 121°13'151274.3
2017-Jun-26 15:24N 31°30' E 121°25'021.6
2017-Jun-26 15:23N 31°29' E 121°25'11169.8
2017-Jun-26 15:19N 31°24' E 121°36'58213.9
2017-Jun-26 15:03N 32°02' E 120°45'479340.2
2017-Jun-26 15:03N 31°30' E 121°25'11274.9
2017-Jun-26 15:01N 31°24' E 121°36'2613126.7
2017-Jun-26 15:00N 31°40' E 121°13'3211540.8
2017-Jun-26 15:00N 32°02' E 120°45'617540.1
2017-Jun-26 15:00N 31°21' E 121°38'195.5
2017-Jun-26 14:59N 31°20' E 121°39'292341.4
2017-Jun-26 14:58N 31°40' E 121°13'1613976.1
2017-Jun-26 14:58N 31°28' E 121°25'338.3
2017-Jun-26 14:54N 31°28' E 121°28'4156.2
2017-Jun-26 14:53N 31°30' E 121°25'0 8.4
2017-Jun-26 14:51N 31°29' E 121°25'539.0
2017-Jun-26 14:42N 31°26' E 121°30'664.3
2017-Jun-26 14:37N 31°30' E 121°25'767.1
2017-Jun-26 14:31N 31°25' E 121°31'7542.4
2017-Jun-26 14:30N 31°21' E 121°38'29641.4
2017-Jun-26 14:27N 31°40' E 121°13'1 5.0
2017-Jun-26 14:19N 31°40' E 121°13'14170.3
2017-Jun-26 14:14N 31°30' E 121°25'0 3.5
2017-Jun-26 14:11N 31°30' E 121°25'1163.0
2017-Jun-26 14:00N 31°24' E 121°36'103584.2
2017-Jun-26 14:00N 31°28' E 121°25'67295.2
2017-Jun-26 14:00N 31°25' E 121°31'8249.7
2017-Jun-26 13:58N 31°20' E 121°39'15188.2
2017-Jun-26 13:53N 31°29' E 121°25'1539.6
2017-Jun-26 13:30N 31°40' E 121°13'162001.0
2017-Jun-26 13:30N 31°28' E 121°25'161552.5
2017-Jun-26 13:29N 31°40' E 121°13'25977.6
2017-Jun-26 13:28N 31°24' E 121°36'3151.3
2017-Jun-26 13:27N 31°23' E 121°38'71291.2
2017-Jun-26 13:26N 31°23' E 121°30'8534.4
2017-Jun-26 13:25N 31°29' E 121°25'14766.8
2017-Jun-26 13:24N 31°21' E 121°38'14350.9
2017-Jun-26 13:22N 31°30' E 121°24'1430.4
2017-Jun-26 12:55N 31°23' E 121°38'13903.3
2017-Jun-26 12:54N 31°28' E 121°25'131096.4
2017-Jun-26 12:53N 31°21' E 121°38'281234.7
2017-Jun-26 12:52N 31°40' E 121°13'251303.5
2017-Jun-26 12:51N 31°24' E 121°36'111742.9
2017-Jun-26 12:50N 31°29' E 121°25'151512.4
2017-Jun-26 12:50N 31°40' E 121°13'131214.4
2017-Jun-26 12:49N 31°30' E 121°23'17847.8
2017-Jun-26 12:48N 31°16' E 121°33'15110.2
2017-Jun-26 12:39N 31°30' E 121°25'13196.1
2017-Jun-26 12:35N 31°19' E 121°34'12104.8
2017-Jun-26 12:29N 31°28' E 121°25'175.5
2017-Jun-26 12:28N 31°29' E 121°25'152396.2
2017-Jun-26 12:27N 31°15' E 121°31'155566.0
2017-Jun-26 12:27N 31°30' E 121°25'14907.5
2017-Jun-26 12:26N 31°18' E 121°34'6411.9
2017-Jun-26 12:25N 31°24' E 121°36'3242.0
2017-Jun-26 12:25N 31°21' E 121°38'2113.7
2017-Jun-26 12:24N 31°23' E 121°38'287090.8
2017-Jun-26 12:23N 31°40' E 121°13'10831.1
2017-Jun-26 12:23N 31°32' E 121°21'1846.2
2017-Jun-26 12:00N 31°23' E 121°38'197793.2
2017-Jun-26 12:00N 31°33' E 121°19'17749.8
2017-Jun-26 11:58N 31°24' E 121°36'2589943.6
2017-Jun-26 11:58N 31°40' E 121°13'303800.6
2017-Jun-26 11:58N 31°15' E 121°32'162939.5
2017-Jun-26 11:57N 31°29' E 121°25'023.0
2017-Jun-26 11:57N 31°30' E 121°25'1346.4
2017-Jun-26 11:56N 31°28' E 121°25'135117.7
2017-Jun-26 11:56N 31°21' E 121°38'2 4.1
2017-Jun-26 11:29N 31°23' E 121°38'13716.9
2017-Jun-26 11:28N 31°28' E 121°25'137676.5
2017-Jun-26 11:28N 31°21' E 121°38'281137.9
2017-Jun-26 11:27N 31°40' E 121°13'2517988.7
2017-Jun-26 11:26N 31°24' E 121°36'11525.1
2017-Jun-26 11:25N 31°29' E 121°25'10178.8
2017-Jun-26 11:22N 31°36' E 121°17'25711.9
2017-Jun-26 11:20N 31°14' E 121°30'17343.9
2017-Jun-26 11:17N 31°30' E 121°25'0 1.2
2017-Jun-26 11:01N 31°29' E 121°25'139.2
2017-Jun-26 10:59N 31°28' E 121°25'10534.5
2017-Jun-26 10:58N 31°24' E 121°36'11729.3
2017-Jun-26 10:57N 31°30' E 121°25'14816.8
2017-Jun-26 10:56N 31°40' E 121°13'28894.5
2017-Jun-26 10:54N 31°23' E 121°38'14348.5
2017-Jun-26 10:51N 31°11' E 121°29'123369.5
2017-Jun-26 10:51N 31°21' E 121°38'29107.0
2017-Jun-26 10:35N 31°40' E 121°13'29317.7
2017-Jun-26 10:30N 31°21' E 121°38'141887.4
2017-Jun-26 10:29N 31°29' E 121°25'1871.0
2017-Jun-26 10:29N 31°28' E 121°25'19918.1
2017-Jun-26 10:28N 31°10' E 121°28'16178.4
2017-Jun-26 10:23N 31°23' E 121°38'353.1
2017-Jun-26 10:20N 31°24' E 121°36'25250.6
2017-Jun-26 10:14N 31°40' E 121°13'25111.6
2017-Jun-26 10:00N 31°24' E 121°36'018.9
2017-Jun-26 09:59N 31°24' E 121°36'11365.3
2017-Jun-26 09:58N 31°30' E 121°25'14281.7
2017-Jun-26 09:55N 31°21' E 121°38'13302.9
2017-Jun-26 09:52N 31°28' E 121°25'182.2
2017-Jun-26 09:51N 31°29' E 121°25'13123.7
2017-Jun-26 09:45N 31°23' E 121°38'19399.8
2017-Jun-26 09:42N 31°06' E 121°28'1993.6
2017-Jun-26 09:30N 31°23' E 121°38'202191.3
2017-Jun-26 09:29N 31°05' E 121°28'20694.1
2017-Jun-26 09:27N 31°24' E 121°36'10962.0
2017-Jun-26 09:27N 31°28' E 121°25'105117.7
2017-Jun-26 09:27N 31°24' E 121°36'395.5
2017-Jun-26 09:25N 31°21' E 121°38'28255.6
2017-Jun-26 09:18N 31°40' E 121°13'151282.2
2017-Jun-26 09:17N 31°29' E 121°25'1138.1
2017-Jun-26 09:00N 31°24' E 121°36'10385.2
2017-Jun-26 08:59N 31°28' E 121°25'13484.7
2017-Jun-26 08:57N 31°21' E 121°38'334.2
2017-Jun-26 08:52N 31°24' E 121°36'254132.9
2017-Jun-26 08:51N 31°40' E 121°13'1510505.1
2017-Jun-26 08:51N 31°30' E 121°25'131706.3
2017-Jun-26 08:51N 31°23' E 121°38'14110.8
2017-Jun-26 08:43N 31°30' E 121°25'1461.9
2017-Jun-26 08:30N 31°21' E 121°38'141208.4
2017-Jun-26 08:29N 31°29' E 121°25'137.8
2017-Jun-26 08:27N 31°28' E 121°25'161122.5
2017-Jun-26 08:26N 31°40' E 121°13'252908.6
2017-Jun-26 08:26N 31°24' E 121°36'079.5
2017-Jun-26 08:26N 31°24' E 121°36'216.1
2017-Jun-26 08:17N 31°23' E 121°38'2886.2
2017-Jun-26 07:57N 31°40' E 121°13'2518137.3
2017-Jun-26 07:57N 31°24' E 121°36'0 7.3
2017-Jun-26 07:56N 31°24' E 121°36'379.0
2017-Jun-26 07:53N 31°21' E 121°38'13357.1
2017-Jun-26 07:51N 31°28' E 121°25'13264.1
2017-Jun-26 07:48N 31°23' E 121°38'13493.4
2017-Jun-26 07:46N 31°30' E 121°25'0 2.4
2017-Jun-26 07:40N 31°30' E 121°25'15209.5
2017-Jun-26 07:36N 31°40' E 121°13'0 0.0
2017-Jun-26 07:31N 31°40' E 121°13'2622964.7
2017-Jun-26 07:30N 31°24' E 121°36'0773.0
2017-Jun-26 07:30N 31°24' E 121°36'3294.4
2017-Jun-26 07:30N 31°21' E 121°38'13187.3
2017-Jun-26 07:26N 31°28' E 121°25'13186.6
2017-Jun-26 07:22N 31°23' E 121°38'284520.1
2017-Jun-26 07:21N 31°40' E 121°13'14262.2
2017-Jun-26 07:18N 31°30' E 121°25'0 2.2
2017-Jun-26 07:11N 31°30' E 121°25'1164.2
2017-Jun-26 07:00N 31°24' E 121°36'3559.8
2017-Jun-26 07:00N 31°21' E 121°38'3656.9
2017-Jun-26 07:00N 31°24' E 121°36'261801.4
2017-Jun-26 06:59N 31°40' E 121°13'15857.0
2017-Jun-26 06:58N 31°30' E 121°25'131934.4
2017-Jun-26 06:57N 31°23' E 121°38'28856.1
2017-Jun-26 06:55N 31°40' E 121°13'2867.3
2017-Jun-26 06:30N 31°21' E 121°38'31175.5
2017-Jun-26 06:30N 31°24' E 121°36'256039.9
2017-Jun-26 06:30N 31°40' E 121°13'14352.6
2017-Jun-26 06:27N 31°30' E 121°25'13620.1
2017-Jun-26 06:26N 31°23' E 121°38'13674.1
2017-Jun-26 06:25N 31°28' E 121°25'10240.9
2017-Jun-26 06:23N 31°24' E 121°36'1026.1
2017-Jun-26 06:00N 31°28' E 121°25'13648.9
2017-Jun-26 05:59N 31°21' E 121°38'31068.7
2017-Jun-26 05:58N 31°24' E 121°36'012.8
2017-Jun-26 05:57N 31°24' E 121°36'398.7
2017-Jun-26 05:56N 31°23' E 121°38'13152.6
2017-Jun-26 05:51N 31°30' E 121°25'1493.4
2017-Jun-26 05:41N 31°40' E 121°13'1478.8
2017-Jun-26 05:30N 31°30' E 121°25'111464.2
2017-Jun-26 05:30N 31°24' E 121°36'034.4
2017-Jun-26 05:30N 31°24' E 121°36'255000.7
2017-Jun-26 05:29N 31°40' E 121°13'282922.9
2017-Jun-26 05:29N 31°23' E 121°38'2106.7
2017-Jun-26 05:28N 31°21' E 121°38'29118.1
2017-Jun-26 05:13N 31°41' E 121°13'15164.3
2017-Jun-26 05:08N 31°30' E 121°25'1190.6
2017-Jun-26 05:00N 31°24' E 121°36'11828.5
2017-Jun-26 05:00N 31°30' E 121°25'111796.4
2017-Jun-26 04:59N 31°24' E 121°36'2315.7
2017-Jun-26 04:59N 31°23' E 121°38'281258.1
2017-Jun-26 04:57N 31°40' E 121°13'28413.9
2017-Jun-26 04:53N 31°21' E 121°38'29198.4
2017-Jun-26 04:45N 31°41' E 121°13'16558.8
2017-Jun-26 04:43N 31°28' E 121°25'1 6.1
2017-Jun-26 04:30N 31°30' E 121°25'13883.5
2017-Jun-26 04:29N 31°22' E 121°38'1148.7
2017-Jun-26 04:29N 31°23' E 121°38'3127.4
2017-Jun-26 04:27N 31°24' E 121°36'258166.2
2017-Jun-26 04:27N 31°40' E 121°13'16203.1
2017-Jun-26 04:23N 31°28' E 121°25'13921.4
2017-Jun-26 04:22N 31°21' E 121°38'2987.0
2017-Jun-26 04:02N 31°40' E 121°13'30831.0
2017-Jun-26 04:00N 31°20' E 121°39'14667.9
2017-Jun-26 03:59N 31°28' E 121°25'16308.4
2017-Jun-26 03:56N 31°40' E 121°13'141990.3
2017-Jun-26 03:55N 31°30' E 121°25'11255.4
2017-Jun-26 03:53N 31°24' E 121°36'3165.4
2017-Jun-26 03:52N 31°23' E 121°38'214.4
2017-Jun-26 03:44N 31°21' E 121°38'14605.2
2017-Jun-26 03:43N 31°30' E 121°25'1567.0
2017-Jun-26 03:29N 31°20' E 121°39'116.8
2017-Jun-26 03:25N 31°21' E 121°38'13529.6
2017-Jun-26 03:24N 31°28' E 121°25'10484.0
2017-Jun-26 03:22N 31°24' E 121°36'3285.3
2017-Jun-26 03:22N 31°23' E 121°38'1490.0
2017-Jun-26 03:13N 31°30' E 121°25'14814.8
2017-Jun-26 03:12N 31°40' E 121°13'0 0.3
2017-Jun-26 03:00N 31°40' E 121°13'291237.5
2017-Jun-26 02:59N 31°20' E 121°39'4103.4
2017-Jun-26 02:56N 31°24' E 121°36'3247.7
2017-Jun-26 02:56N 31°23' E 121°38'23298.0
2017-Jun-26 02:56N 31°21' E 121°38'144911.3
2017-Jun-26 02:56N 31°29' E 121°25'112.4
2017-Jun-26 02:50N 31°28' E 121°25'1547.8
2017-Jun-26 02:30N 31°40' E 121°13'259995.3
2017-Jun-26 02:30N 31°24' E 121°36'3111.7
2017-Jun-26 02:29N 31°23' E 121°38'13550.8
2017-Jun-26 02:27N 31°29' E 121°25'146155.4
2017-Jun-26 02:27N 31°21' E 121°38'6310.7
2017-Jun-26 02:26N 31°24' E 121°31'8530.7
2017-Jun-26 02:25N 31°20' E 121°39'1465.4
2017-Jun-26 02:12N 31°28' E 121°25'1153.8
2017-Jun-26 02:00N 31°22' E 121°36'240.9
2017-Jun-26 01:58N 31°24' E 121°36'11498.9
2017-Jun-26 01:57N 31°29' E 121°25'15570.9
2017-Jun-26 01:55N 31°20' E 121°39'292022.8
2017-Jun-26 01:54N 31°40' E 121°13'281076.2
2017-Jun-26 01:53N 31°21' E 121°38'1195.7
2017-Jun-26 01:46N 31°27' E 121°28'844.8
2017-Jun-26 01:35N 31°33' E 121°20'1 8.9
2017-Jun-26 01:30N 31°33' E 121°19'2115056.1
2017-Jun-26 01:30N 31°20' E 121°39'17798.5
2017-Jun-26 01:29N 31°31' E 121°23'94138.0
2017-Jun-26 01:29N 31°25' E 121°31'7787.6
2017-Jun-26 01:28N 31°21' E 121°38'3136.3
2017-Jun-26 01:27N 31°24' E 121°36'253102.4
2017-Jun-26 01:26N 31°40' E 121°13'1477.0
2017-Jun-26 01:16N 31°30' E 121°24'415.6
2017-Jun-26 01:00N 31°32' E 121°20'72888.9
2017-Jun-26 01:00N 31°28' E 121°27'111136.0
2017-Jun-26 00:59N 31°21' E 121°38'378.4
2017-Jun-26 00:57N 31°23' E 121°35'253188.5
2017-Jun-26 00:56N 31°40' E 121°13'25283.8
2017-Jun-26 00:51N 31°24' E 121°36'11107.8
2017-Jun-26 00:45N 31°30' E 121°25'548.9
2017-Jun-26 00:38N 31°33' E 121°20'323.8
2017-Jun-26 00:30N 31°30' E 121°23'123721.4
2017-Jun-26 00:30N 31°24' E 121°35'4188.6
2017-Jun-26 00:29N 31°21' E 121°38'21573.0
2017-Jun-26 00:27N 31°34' E 121°19'18916.1
2017-Jun-26 00:26N 31°24' E 121°36'25491.6
2017-Jun-26 00:23N 31°40' E 121°13'148557.9
2017-Jun-26 00:23N 31°30' E 121°25'81496.9
2017-Jun-26 00:22N 31°35' E 121°18'291239.7
2017-Jun-26 00:21N 31°22' E 121°48'1 3.7
2017-Jun-26 00:00N 31°21' E 121°48'2899880.7
2017-Jun-26 00:00N 31°34' E 121°19'173183.7
2017-Jun-26 00:00N 31°24' E 121°35'217530.5
2017-Jun-26 00:00N 31°37' E 121°16'258820.2
2017-Jun-26 00:00N 31°21' E 121°38'3218.3
2017-Jun-25 23:59N 31°24' E 121°36'211274.9
2017-Jun-25 23:58N 31°37' E 121°16'497.4
2017-Jun-25 23:55N 31°40' E 121°13'16620.3
2017-Jun-25 23:54N 31°28' E 121°25'2154.3
2017-Jun-25 23:30N 31°20' E 121°48'93209.5
2017-Jun-25 23:30N 31°21' E 121°38'283124.8
2017-Jun-25 23:30N 31°39' E 121°13'243224.5
2017-Jun-25 23:29N 31°24' E 121°35'2177327.3
2017-Jun-25 23:29N 31°37' E 121°15'221685.9
2017-Jun-25 23:28N 31°24' E 121°36'251102.5
2017-Jun-25 23:27N 31°39' E 121°12'15202.1
2017-Jun-25 23:22N 31°28' E 121°25'2155.3
2017-Jun-25 23:00N 31°19' E 121°47'111002.4
2017-Jun-25 23:00N 31°24' E 121°35'41695.5
2017-Jun-25 22:59N 31°21' E 121°38'281214.3
2017-Jun-25 22:58N 31°39' E 121°13'42273.7
2017-Jun-25 22:58N 31°41' E 121°09'1126.7
2017-Jun-25 22:57N 31°41' E 121°11'2710899.6
2017-Jun-25 22:57N 31°24' E 121°36'108953.6
2017-Jun-25 22:57N 31°28' E 121°25'1651.8
2017-Jun-25 22:39N 31°40' E 121°13'25155.1
2017-Jun-25 22:30N 31°24' E 121°35'61043.9
2017-Jun-25 22:29N 31°22' E 121°42'6196.1
2017-Jun-25 22:28N 31°24' E 121°36'343.9
2017-Jun-25 22:23N 31°21' E 121°38'28700.8
2017-Jun-25 22:20N 31°39' E 121°13'111.6
2017-Jun-25 22:15N 31°40' E 121°13'14660.1
2017-Jun-25 22:14N 31°30' E 121°25'158.4
2017-Jun-25 22:13N 31°28' E 121°25'1153.3
2017-Jun-25 22:00N 31°23' E 121°37'1195.0
2017-Jun-25 21:59N 31°24' E 121°36'134.2
2017-Jun-25 21:58N 31°24' E 121°35'258022.4
2017-Jun-25 21:58N 31°40' E 121°13'142146.7
2017-Jun-25 21:58N 31°30' E 121°25'1123.7
2017-Jun-25 21:30N 31°24' E 121°36'3931.2
2017-Jun-25 21:30N 31°24' E 121°32'51160.5
2017-Jun-25 21:30N 31°21' E 121°38'444.6
2017-Jun-25 21:25N 31°24' E 121°35'1070.7
2017-Jun-25 21:16N 31°30' E 121°25'1140.3
2017-Jun-25 20:59N 31°24' E 121°36'1512.6
2017-Jun-25 20:59N 31°24' E 121°35'9787.3
2017-Jun-25 20:59N 31°28' E 121°25'13657.8
2017-Jun-25 20:58N 31°21' E 121°38'288447.8
2017-Jun-25 20:57N 31°40' E 121°13'1483.2
2017-Jun-25 20:47N 31°30' E 121°25'1470.1
2017-Jun-25 20:35N 31°40' E 121°14'24322.3
2017-Jun-25 20:30N 31°24' E 121°35'41361.9
2017-Jun-25 20:30N 31°21' E 121°38'3140.7
2017-Jun-25 20:29N 31°24' E 121°36'11334.0
2017-Jun-25 20:27N 31°30' E 121°25'1416920.9
2017-Jun-25 20:27N 31°40' E 121°14'15163.8
2017-Jun-25 20:21N 31°28' E 121°25'16316.8
2017-Jun-25 20:18N 31°40' E 121°13'2894.9
2017-Jun-25 20:00N 31°21' E 121°38'131587.8
2017-Jun-25 20:00N 31°28' E 121°25'9626.6
2017-Jun-25 19:59N 31°24' E 121°35'253044.9
2017-Jun-25 19:59N 31°40' E 121°13'2545026.4
2017-Jun-25 19:58N 31°24' E 121°36'111363.7
2017-Jun-25 19:58N 31°30' E 121°25'1022.3
2017-Jun-25 19:30N 31°24' E 121°35'4975.4
2017-Jun-25 19:30N 31°21' E 121°38'368.8
2017-Jun-25 19:27N 31°24' E 121°36'111594.6
2017-Jun-25 19:26N 31°30' E 121°25'1 9.8
2017-Jun-25 19:17N 31°28' E 121°25'932.8
2017-Jun-25 19:00N 31°24' E 121°35'4372.3
2017-Jun-25 19:00N 31°21' E 121°38'139209.4
2017-Jun-25 18:59N 31°28' E 121°25'10179.0
2017-Jun-25 18:56N 31°24' E 121°36'2558.5
2017-Jun-25 18:30N 31°40' E 121°13'252433.9
2017-Jun-25 18:30N 31°24' E 121°36'3222.5
2017-Jun-25 18:29N 31°21' E 121°38'4270.1
2017-Jun-25 18:28N 31°24' E 121°35'924.2
2017-Jun-25 18:05N 31°28' E 121°25'0 0.0
2017-Jun-25 18:00N 31°28' E 121°25'13719.5
2017-Jun-25 17:59N 31°21' E 121°38'3734.2
2017-Jun-25 17:58N 31°24' E 121°36'1 9.8
2017-Jun-25 17:55N 31°24' E 121°35'921.4
2017-Jun-25 17:29N 31°28' E 121°25'13868.8
2017-Jun-25 17:28N 31°21' E 121°38'3461.6
2017-Jun-25 17:27N 31°24' E 121°36'127.8
2017-Jun-25 17:26N 31°24' E 121°35'24373.4
2017-Jun-25 17:22N 31°40' E 121°13'7108.7
2017-Jun-25 17:19N 31°44' E 121°07'3 8.4
2017-Jun-25 16:59N 31°42' E 121°09'29900.2
2017-Jun-25 16:57N 31°24' E 121°35'437.6
2017-Jun-25 16:51N 31°21' E 121°38'13531.6
2017-Jun-25 16:50N 31°29' E 121°25'15273.3
2017-Jun-25 16:46N 31°40' E 121°13'252429.6
2017-Jun-25 16:46N 31°24' E 121°36'2599.1
2017-Jun-25 16:30N 31°40' E 121°13'151549.8
2017-Jun-25 16:30N 31°30' E 121°25'144987.5
2017-Jun-25 16:30N 31°21' E 121°38'452.6
2017-Jun-25 16:25N 31°24' E 121°35'24388.2
2017-Jun-25 16:22N 31°40' E 121°13'25491.2
2017-Jun-25 16:19N 31°24' E 121°36'1 1.9
2017-Jun-25 16:00N 31°24' E 121°35'2115138.5
2017-Jun-25 16:00N 31°37' E 121°16'117701.0
2017-Jun-25 16:00N 31°30' E 121°25'144252.9
2017-Jun-25 16:00N 31°40' E 121°13'14751.9
2017-Jun-25 15:59N 31°30' E 121°25'141873.2
2017-Jun-25 15:58N 31°21' E 121°38'330.4
2017-Jun-25 15:51N 31°24' E 121°36'1851.5
2017-Jun-25 15:30N 31°35' E 121°19'7274.4
2017-Jun-25 15:29N 31°40' E 121°13'281609.6
2017-Jun-25 15:28N 31°21' E 121°38'372.2
2017-Jun-25 15:25N 31°24' E 121°36'116634.0
2017-Jun-25 15:25N 31°30' E 121°25'0 3.6
2017-Jun-25 15:23N 31°30' E 121°25'10226.1
2017-Jun-25 15:20N 31°24' E 121°35'24129.2
2017-Jun-25 15:09N 31°40' E 121°14'1062.7
2017-Jun-25 15:00N 31°33' E 121°21'154440.3
2017-Jun-25 15:00N 31°24' E 121°35'4551.7
2017-Jun-25 14:59N 31°21' E 121°38'141676.2
2017-Jun-25 14:59N 31°30' E 121°25'14339.6
2017-Jun-25 14:56N 31°40' E 121°13'141831.2
2017-Jun-25 14:56N 31°30' E 121°25'11493.2
2017-Jun-25 14:54N 31°24' E 121°36'25947.3
2017-Jun-25 14:53N 31°40' E 121°14'1231.8
2017-Jun-25 14:30N 31°30' E 121°22'1266.1
2017-Jun-25 14:19N 31°40' E 121°14'14364.8
2017-Jun-25 14:17N 31°30' E 121°25'1139.0
2017-Jun-25 14:00N 31°24' E 121°36'332.9
2017-Jun-25 13:54N 31°21' E 121°38'0 0.0
2017-Jun-25 13:30N 31°21' E 121°38'3200.0
2017-Jun-25 13:29N 31°24' E 121°36'12758.2
2017-Jun-25 13:28N 31°30' E 121°23'1195.5
2017-Jun-25 13:27N 31°30' E 121°25'0 6.2
2017-Jun-25 13:26N 31°30' E 121°25'1431.7
2017-Jun-25 13:00N 31°21' E 121°38'152359.9
2017-Jun-25 13:00N 31°30' E 121°23'148.7
2017-Jun-25 12:58N 31°30' E 121°25'11118.8
2017-Jun-25 12:52N 31°24' E 121°36'111198.0
2017-Jun-25 12:52N 31°30' E 121°25'14215.4
2017-Jun-25 12:48N 31°40' E 121°14'24273.3
2017-Jun-25 12:43N 31°23' E 121°34'462.9
2017-Jun-25 12:38N 31°21' E 121°39'1 7.3
2017-Jun-25 12:30N 31°21' E 121°40'4467.1
2017-Jun-25 12:30N 31°22' E 121°36'132060.1
2017-Jun-25 12:29N 31°30' E 121°23'1 4.6
2017-Jun-25 12:13N 31°30' E 121°25'1139601.8
2017-Jun-25 12:13N 31°24' E 121°36'112196.9
2017-Jun-25 12:12N 31°30' E 121°25'216.4
2017-Jun-25 12:05N 31°30' E 121°23'12418.0
2017-Jun-25 12:03N 31°40' E 121°14'33665.2
2017-Jun-25 12:00N 31°18' E 121°43'22719.9
2017-Jun-25 11:58N 31°31' E 121°22'141141.8
2017-Jun-25 11:57N 31°24' E 121°36'111015.1
2017-Jun-25 11:57N 31°30' E 121°25'7537.4
2017-Jun-25 11:56N 31°25' E 121°31'211131.0
2017-Jun-25 11:55N 31°40' E 121°14'26317.9
2017-Jun-25 11:50N 31°22' E 121°36'13256.7
2017-Jun-25 11:47N 31°30' E 121°23'2484.6
2017-Jun-25 11:30N 31°16' E 121°46'287127.2
2017-Jun-25 11:30N 31°32' E 121°20'9488.1
2017-Jun-25 11:29N 31°27' E 121°28'8305.7
2017-Jun-25 11:27N 31°22' E 121°36'132387.6
2017-Jun-25 11:27N 31°30' E 121°23'1221997.5
2017-Jun-25 11:27N 31°24' E 121°36'11837.6
2017-Jun-25 11:26N 31°30' E 121°25'14257.5
2017-Jun-25 11:22N 31°40' E 121°14'1478.2
2017-Jun-25 11:12N 31°30' E 121°25'26137.7
2017-Jun-25 11:00N 31°13' E 121°48'262835.4
2017-Jun-25 11:00N 31°29' E 121°24'8353.5
2017-Jun-25 10:59N 31°35' E 121°18'197446.5
2017-Jun-25 10:58N 31°24' E 121°36'12956.9
2017-Jun-25 10:58N 31°30' E 121°23'131005.5
2017-Jun-25 10:57N 31°40' E 121°13'14856.1
2017-Jun-25 10:56N 31°30' E 121°25'5279.8
2017-Jun-25 10:55N 31°33' E 121°20'9114.1
2017-Jun-25 10:50N 31°40' E 121°14'1032.1
2017-Jun-25 10:30N 31°32' E 121°21'338441.0
2017-Jun-25 10:30N 31°11' E 121°51'294752.8
2017-Jun-25 10:30N 31°30' E 121°25'14684.0
2017-Jun-25 10:29N 31°40' E 121°14'13395.0
2017-Jun-25 10:27N 31°30' E 121°23'12152.3
2017-Jun-25 10:22N 31°24' E 121°36'1154.7
2017-Jun-25 10:10N 31°30' E 121°25'12369.4
2017-Jun-25 10:08N 31°38' E 121°14'540.1
2017-Jun-25 10:00N 31°34' E 121°18'398843.0
2017-Jun-25 10:00N 31°09' E 121°54'452923.8
2017-Jun-25 09:59N 31°39' E 121°13'121121.3
2017-Jun-25 09:59N 31°30' E 121°23'12633.7
2017-Jun-25 09:57N 31°39' E 121°13'241545.7
2017-Jun-25 09:56N 31°24' E 121°36'111037.7
2017-Jun-25 09:56N 31°30' E 121°25'14174.6
2017-Jun-25 09:51N 31°40' E 121°14'0 2.7
2017-Jun-25 09:40N 31°40' E 121°13'23253.6
2017-Jun-25 09:35N 31°24' E 121°33'20239.6
2017-Jun-25 09:30N 31°37' E 121°15'464832.5
2017-Jun-25 09:29N 31°08' E 121°56'492371.4
2017-Jun-25 09:28N 31°40' E 121°13'25865.1
2017-Jun-25 09:26N 31°24' E 121°36'2514842.8
2017-Jun-25 09:26N 31°40' E 121°14'13212.9
2017-Jun-25 09:23N 31°30' E 121°23'14693.0
2017-Jun-25 09:23N 31°30' E 121°25'0 2.3
2017-Jun-25 09:20N 31°30' E 121°25'1544.6
2017-Jun-25 09:00N 31°40' E 121°12'256085.0
2017-Jun-25 09:00N 31°24' E 121°36'12199.0
2017-Jun-25 08:56N 31°30' E 121°23'133366.9
2017-Jun-25 08:56N 31°40' E 121°13'143216.3
2017-Jun-25 08:56N 31°30' E 121°25'14140.5
2017-Jun-25 08:50N 31°40' E 121°14'14348.1
2017-Jun-25 08:47N 31°30' E 121°25'1859.9
2017-Jun-25 08:30N 31°42' E 121°09'18248.0
2017-Jun-25 08:25N 31°30' E 121°25'111036.1
2017-Jun-25 08:25N 31°24' E 121°36'252718.2
2017-Jun-25 08:24N 31°40' E 121°13'0 3.0
2017-Jun-25 08:18N 31°40' E 121°13'141661.0
2017-Jun-25 08:18N 31°30' E 121°25'231.1
2017-Jun-25 08:15N 31°30' E 121°23'1355.5
2017-Jun-25 08:00N 31°40' E 121°13'2232.7
2017-Jun-25 08:00N 31°41' E 121°11'152056.0
2017-Jun-25 07:59N 31°30' E 121°23'192594.4
2017-Jun-25 07:59N 31°43' E 121°07'21580.1
2017-Jun-25 07:57N 31°30' E 121°25'5117.8
2017-Jun-25 07:54N 31°33' E 121°20'16171.0
2017-Jun-25 07:48N 31°24' E 121°36'11246.5
2017-Jun-25 07:46N 31°30' E 121°25'1865.3
2017-Jun-25 07:29N 31°42' E 121°09'1866368.3
2017-Jun-25 07:29N 31°30' E 121°25'8245.0
2017-Jun-25 07:27N 31°35' E 121°18'6245.6
2017-Jun-25 07:25N 31°40' E 121°13'141605.2
2017-Jun-25 07:25N 31°30' E 121°25'1534.9
2017-Jun-25 07:25N 31°30' E 121°23'1236.7
2017-Jun-25 07:04N 31°24' E 121°36'25296.3
2017-Jun-25 06:59N 31°40' E 121°13'254038.9
2017-Jun-25 06:59N 31°24' E 121°36'22402.0
2017-Jun-25 06:56N 31°38' E 121°15'11227.3
2017-Jun-25 06:53N 31°30' E 121°25'121.1
2017-Jun-25 06:49N 31°30' E 121°23'1136.1
2017-Jun-25 06:30N 31°38' E 121°14'014.2
2017-Jun-25 06:29N 31°38' E 121°14'11377.2
2017-Jun-25 06:28N 31°30' E 121°23'12134.7
2017-Jun-25 06:22N 31°24' E 121°36'116640.6
2017-Jun-25 06:22N 31°30' E 121°25'1233.0
2017-Jun-25 05:59N 31°38' E 121°14'0 1.5
2017-Jun-25 05:57N 31°38' E 121°14'233504.4
2017-Jun-25 05:57N 31°24' E 121°36'11594.5
2017-Jun-25 05:56N 31°30' E 121°25'116.1
2017-Jun-25 05:51N 31°30' E 121°23'151.1
2017-Jun-25 05:49N 31°30' E 121°25'17195.5
2017-Jun-25 05:44N 31°41' E 121°10'311.3
2017-Jun-25 05:30N 31°40' E 121°13'143998.0
2017-Jun-25 05:30N 31°30' E 121°25'0 4.5
2017-Jun-25 05:29N 31°30' E 121°25'12324.3
2017-Jun-25 05:26N 31°38' E 121°14'211.3
2017-Jun-25 05:17N 31°40' E 121°13'3118668.3
2017-Jun-25 05:17N 31°11' E 121°28'19197.8
2017-Jun-25 05:11N 31°30' E 121°23'12125.9
2017-Jun-25 05:06N 31°24' E 121°36'22195.6
2017-Jun-25 04:59N 31°38' E 121°16'107093.9
2017-Jun-25 04:59N 31°30' E 121°23'112951.6
2017-Jun-25 04:59N 31°38' E 121°14'137.5
2017-Jun-25 04:57N 31°38' E 121°15'23227.0
2017-Jun-25 04:51N 31°24' E 121°36'23408.5
2017-Jun-25 04:47N 31°38' E 121°14'12497.5
2017-Jun-25 04:46N 31°30' E 121°25'17116.6
2017-Jun-25 04:37N 31°14' E 121°30'23164.6
2017-Jun-25 04:29N 31°35' E 121°19'5179.0
2017-Jun-25 04:27N 31°38' E 121°14'232213.0
2017-Jun-25 04:27N 31°24' E 121°36'11885.0
2017-Jun-25 04:26N 31°30' E 121°25'16880.2
2017-Jun-25 04:25N 31°15' E 121°29'23373.3
2017-Jun-25 04:21N 31°36' E 121°18'7165.7
2017-Jun-25 04:18N 31°30' E 121°23'1 4.7
2017-Jun-25 04:00N 31°30' E 121°25'6588.8
2017-Jun-25 04:00N 31°34' E 121°20'7355.1
2017-Jun-25 03:58N 31°38' E 121°14'112164.9
2017-Jun-25 03:58N 31°30' E 121°23'3122.0
2017-Jun-25 03:57N 31°32' E 121°22'14207.8
2017-Jun-25 03:53N 31°24' E 121°36'232554.3
2017-Jun-25 03:52N 31°38' E 121°14'28673.7
2017-Jun-25 03:50N 31°16' E 121°33'1857.3
2017-Jun-25 03:30N 31°32' E 121°23'391.9
2017-Jun-25 03:29N 31°30' E 121°25'12579.1
2017-Jun-25 03:29N 31°30' E 121°23'112296.5
2017-Jun-25 03:28N 31°38' E 121°14'12128.9
2017-Jun-25 03:22N 31°30' E 121°25'1294.2
2017-Jun-25 03:15N 31°38' E 121°14'23197.9
2017-Jun-25 03:07N 31°24' E 121°36'24194.3
2017-Jun-25 03:00N 31°38' E 121°14'12412.4
2017-Jun-25 02:58N 31°30' E 121°23'111.7
2017-Jun-25 02:51N 31°30' E 121°25'027.3
2017-Jun-25 02:51N 31°30' E 121°25'114386.8
2017-Jun-25 02:51N 31°24' E 121°36'23289.2
2017-Jun-25 02:46N 31°38' E 121°14'1347.0
2017-Jun-25 02:30N 31°30' E 121°25'2460.7
2017-Jun-25 02:29N 31°30' E 121°23'13898.7
2017-Jun-25 02:29N 31°40' E 121°13'256.4
2017-Jun-25 02:27N 31°38' E 121°14'2316884.5
2017-Jun-25 02:27N 31°24' E 121°36'2871.5
2017-Jun-25 02:03N 31°42' E 121°10'477.0
2017-Jun-25 02:00N 31°40' E 121°13'253332.8
2017-Jun-25 01:59N 31°24' E 121°36'11281.1
2017-Jun-25 01:57N 31°30' E 121°25'264.3
2017-Jun-25 01:56N 31°30' E 121°23'1656.1
2017-Jun-25 01:38N 31°42' E 121°10'4203.3
2017-Jun-25 01:37N 31°39' E 121°13'13118.1
2017-Jun-25 01:30N 31°30' E 121°25'141469.0
2017-Jun-25 01:30N 31°40' E 121°13'25804.9
2017-Jun-25 01:28N 31°24' E 121°36'28929.3
2017-Jun-25 01:26N 31°41' E 121°10'162297.5
2017-Jun-25 01:26N 31°30' E 121°23'1243.1
2017-Jun-25 01:09N 31°39' E 121°13'1 8.9
2017-Jun-25 01:00N 31°40' E 121°13'14260.6
2017-Jun-25 00:57N 31°30' E 121°24'155.1
2017-Jun-25 00:56N 31°30' E 121°25'141868.9
2017-Jun-25 00:56N 31°39' E 121°13'2577.7
2017-Jun-25 00:36N 31°24' E 121°36'11155.1
2017-Jun-25 00:32N 31°30' E 121°25'14359.1
2017-Jun-25 00:30N 31°40' E 121°13'252316.0
2017-Jun-25 00:29N 31°24' E 121°36'25671.1
2017-Jun-25 00:27N 31°39' E 121°13'146352.8
2017-Jun-25 00:27N 31°30' E 121°25'197.9
2017-Jun-25 00:26N 31°30' E 121°24'163688.0
2017-Jun-25 00:26N 31°41' E 121°10'17396.6
2017-Jun-25 00:24N 31°30' E 121°25'1436.1
2017-Jun-25 00:00N 31°40' E 121°13'14412.2
2017-Jun-24 23:58N 31°30' E 121°25'1143.1
2017-Jun-24 23:57N 31°30' E 121°24'11616.8
2017-Jun-24 23:56N 31°24' E 121°36'28453.0
2017-Jun-24 23:53N 31°41' E 121°10'17167.2
2017-Jun-24 23:47N 31°30' E 121°25'1 4.6
2017-Jun-24 23:38N 31°29' E 121°24'14103.0
2017-Jun-24 23:30N 31°40' E 121°13'143577.7
2017-Jun-24 23:30N 31°30' E 121°24'150.4
2017-Jun-24 23:28N 31°30' E 121°23'2384.3
2017-Jun-24 23:28N 31°30' E 121°25'029.4
2017-Jun-24 23:28N 31°30' E 121°25'11293.3
2017-Jun-24 23:25N 31°24' E 121°36'281533.0
2017-Jun-24 23:24N 31°41' E 121°10'3 6.6
2017-Jun-24 23:00N 31°40' E 121°13'3119.8
2017-Jun-24 22:58N 31°41' E 121°10'281117.4
2017-Jun-24 22:57N 31°24' E 121°36'11961.3
2017-Jun-24 22:56N 31°30' E 121°24'1465.8
2017-Jun-24 22:56N 31°30' E 121°25'010.2
2017-Jun-24 22:55N 31°30' E 121°25'1433.6
2017-Jun-24 22:30N 31°40' E 121°13'141176.0
2017-Jun-24 22:29N 31°30' E 121°25'11197.9
2017-Jun-24 22:26N 31°24' E 121°36'281873.6
2017-Jun-24 22:25N 31°41' E 121°10'16459.3
2017-Jun-24 22:23N 31°30' E 121°24'116.3
2017-Jun-24 22:21N 31°30' E 121°25'1 2.3
2017-Jun-24 22:00N 31°29' E 121°25'151358.9
2017-Jun-24 22:00N 31°40' E 121°13'14269.9
2017-Jun-24 21:56N 31°30' E 121°25'1715079.8
2017-Jun-24 21:56N 31°41' E 121°10'17863.9
2017-Jun-24 21:55N 31°30' E 121°25'111230.8
2017-Jun-24 21:55N 31°24' E 121°36'24186.6
2017-Jun-24 21:47N 31°39' E 121°14'1 4.5
2017-Jun-24 21:29N 31°40' E 121°13'172391.4
2017-Jun-24 21:29N 31°28' E 121°28'386.8
2017-Jun-24 21:27N 31°30' E 121°25'11717.0
2017-Jun-24 21:26N 31°24' E 121°36'1179.9
2017-Jun-24 21:18N 31°30' E 121°25'17143.6
2017-Jun-24 21:11N 31°41' E 121°10'1781.6
2017-Jun-24 20:58N 31°30' E 121°25'141616.2
2017-Jun-24 20:58N 31°40' E 121°13'201669.4
2017-Jun-24 20:57N 31°26' E 121°30'6226.5
2017-Jun-24 20:56N 31°24' E 121°36'2811034.8
2017-Jun-24 20:56N 31°41' E 121°10'1793.6
2017-Jun-24 20:45N 31°30' E 121°25'1145.8
2017-Jun-24 20:30N 31°24' E 121°36'276025.0
2017-Jun-24 20:30N 31°41' E 121°11'247801.9
2017-Jun-24 20:30N 31°25' E 121°32'221598.4
2017-Jun-24 20:29N 31°40' E 121°13'1412956.4
2017-Jun-24 20:29N 31°30' E 121°25'0 0.6
2017-Jun-24 20:20N 31°30' E 121°25'0 0.3
2017-Jun-24 20:00N 31°30' E 121°25'141126.0
2017-Jun-24 19:59N 31°40' E 121°13'24610.9
2017-Jun-24 19:57N 31°21' E 121°31'5302.9
2017-Jun-24 19:56N 31°24' E 121°36'11895.8
2017-Jun-24 19:55N 31°30' E 121°25'1282.6
2017-Jun-24 19:46N 31°22' E 121°36'2 8.0
2017-Jun-24 19:30N 31°24' E 121°36'11986.5
2017-Jun-24 19:30N 31°30' E 121°25'141126.2
2017-Jun-24 19:29N 31°40' E 121°13'1460.5
2017-Jun-24 19:15N 31°30' E 121°25'0 0.2
2017-Jun-24 19:00N 31°30' E 121°25'111588.0
2017-Jun-24 19:00N 31°24' E 121°36'252581.9
2017-Jun-24 18:59N 31°40' E 121°13'14103.0
2017-Jun-24 18:51N 31°30' E 121°25'0 0.2
2017-Jun-24 18:31N 31°30' E 121°25'11480.2
2017-Jun-24 18:29N 31°24' E 121°36'256456.6
2017-Jun-24 18:29N 31°40' E 121°13'14265.0
2017-Jun-24 18:26N 31°30' E 121°25'1294.1
2017-Jun-24 18:18N 31°22' E 121°36'1240.9
2017-Jun-24 18:00N 31°30' E 121°25'025.1
2017-Jun-24 18:00N 31°30' E 121°25'11191.7
2017-Jun-24 17:56N 31°24' E 121°36'252647.8
2017-Jun-24 17:56N 31°40' E 121°13'26198.7
2017-Jun-24 17:48N 31°22' E 121°36'2687.1
2017-Jun-24 17:30N 31°39' E 121°14'132857.6
2017-Jun-24 17:30N 31°30' E 121°25'11543.5
2017-Jun-24 17:29N 31°24' E 121°36'1123.0
2017-Jun-24 17:00N 31°30' E 121°25'92098.4
2017-Jun-24 17:00N 31°37' E 121°17'20262.9
2017-Jun-24 16:55N 31°24' E 121°36'2684.2
2017-Jun-24 16:37N 31°40' E 121°12'26244.1
2017-Jun-24 16:30N 31°24' E 121°36'167389.5
2017-Jun-24 16:30N 31°33' E 121°20'5129.6
2017-Jun-24 16:28N 31°30' E 121°25'13168.0
2017-Jun-24 16:23N 31°39' E 121°14'1230.5
2017-Jun-24 16:00N 31°31' E 121°24'9988.7
2017-Jun-24 16:00N 31°37' E 121°17'10665.8
2017-Jun-24 15:59N 31°30' E 121°25'11281.5
2017-Jun-24 15:56N 31°24' E 121°36'214.8
2017-Jun-24 15:48N 31°22' E 121°36'12102.9
2017-Jun-24 15:41N 31°30' E 121°25'635.1
2017-Jun-24 15:30N 31°34' E 121°20'92964.4
2017-Jun-24 15:30N 31°28' E 121°28'8175.2
2017-Jun-24 15:27N 31°24' E 121°36'11361.1
2017-Jun-24 15:26N 31°30' E 121°25'013.7
2017-Jun-24 15:25N 31°30' E 121°25'2 5.6
2017-Jun-24 15:00N 31°32' E 121°23'103450.9
2017-Jun-24 15:00N 31°25' E 121°31'450.0
2017-Jun-24 14:56N 31°24' E 121°36'113307.0
2017-Jun-24 14:55N 31°30' E 121°25'0 9.6
2017-Jun-24 14:55N 31°30' E 121°25'1228.3
2017-Jun-24 14:30N 31°23' E 121°36'1 2.0
2017-Jun-24 14:00N 31°24' E 121°36'117924.7
2017-Jun-24 14:00N 31°30' E 121°25'0 6.3
2017-Jun-24 13:59N 31°30' E 121°25'5533.7
2017-Jun-24 13:58N 31°26' E 121°29'10308.6
2017-Jun-24 13:56N 31°31' E 121°19'1635.3
2017-Jun-24 13:30N 31°24' E 121°36'162546.1
2017-Jun-24 13:29N 31°32' E 121°20'5108.9
2017-Jun-24 13:27N 31°30' E 121°25'0 1.4
2017-Jun-24 13:22N 31°30' E 121°25'0 0.8
2017-Jun-24 13:00N 31°29' E 121°25'111402.4
2017-Jun-24 12:59N 31°24' E 121°36'2058.4
2017-Jun-24 12:39N 31°36' E 121°17'962.8
2017-Jun-24 12:30N 31°30' E 121°25'1799.2
2017-Jun-24 12:30N 31°30' E 121°23'12595.6
2017-Jun-24 12:28N 31°24' E 121°36'22531.3
2017-Jun-24 12:26N 31°37' E 121°16'716.5
2017-Jun-24 12:00N 31°31' E 121°21'10954.9
2017-Jun-24 11:59N 31°39' E 121°13'25579.6
2017-Jun-24 11:56N 31°24' E 121°36'1141.7
2017-Jun-24 11:41N 31°30' E 121°25'636.0
2017-Jun-24 11:30N 31°33' E 121°19'6131.8
2017-Jun-24 11:28N 31°30' E 121°25'11597.1
2017-Jun-24 11:27N 31°24' E 121°36'412.3
2017-Jun-24 11:07N 31°22' E 121°40'431.4
2017-Jun-24 11:00N 31°24' E 121°36'20981.2
2017-Jun-24 10:59N 31°36' E 121°17'245046.3
2017-Jun-24 10:58N 31°22' E 121°40'1537.8
2017-Jun-24 10:35N 31°30' E 121°25'12143.1
2017-Jun-24 10:30N 31°38' E 121°15'126131.2
2017-Jun-24 10:30N 31°30' E 121°25'11596.7
2017-Jun-24 10:29N 31°24' E 121°36'474.6
2017-Jun-24 10:25N 31°22' E 121°40'825.0
2017-Jun-24 10:06N 31°23' E 121°31'23210.3
2017-Jun-24 10:00N 31°40' E 121°12'301374.4
2017-Jun-24 09:58N 31°22' E 121°40'15326.5
2017-Jun-24 09:56N 31°30' E 121°25'113282.9
2017-Jun-24 09:55N 31°24' E 121°36'0 0.0
2017-Jun-24 09:29N 31°24' E 121°36'44723.0
2017-Jun-24 09:29N 31°22' E 121°40'15478.1
2017-Jun-24 09:27N 31°30' E 121°25'19514.3
2017-Jun-24 09:24N 31°42' E 121°08'3477.5
2017-Jun-24 08:58N 31°22' E 121°40'481.4
2017-Jun-24 08:56N 31°24' E 121°36'11518.4
2017-Jun-24 08:54N 31°30' E 121°25'0 0.0
2017-Jun-24 08:24N 31°30' E 121°25'15576.0
2017-Jun-24 08:22N 31°22' E 121°40'449.4
2017-Jun-24 08:18N 31°24' E 121°36'2204.3
2017-Jun-24 08:17N 31°22' E 121°36'311.0
2017-Jun-24 07:58N 31°22' E 121°40'487.6
2017-Jun-24 07:56N 31°24' E 121°36'1134.7
2017-Jun-24 07:37N 31°30' E 121°25'15103.8
2017-Jun-24 07:28N 31°22' E 121°40'4425.1
2017-Jun-24 07:28N 31°24' E 121°36'1144.1
2017-Jun-24 07:13N 31°30' E 121°25'1153.4
2017-Jun-24 07:00N 31°24' E 121°36'61877.2
2017-Jun-24 07:00N 31°20' E 121°40'17230.6
2017-Jun-24 06:56N 31°30' E 121°25'1125.9
2017-Jun-24 06:30N 31°24' E 121°36'6164.9
2017-Jun-24 06:28N 31°20' E 121°40'1742.9
2017-Jun-24 06:05N 31°30' E 121°25'1195.2
2017-Jun-24 05:58N 31°24' E 121°36'6225.6
2017-Jun-24 05:56N 31°20' E 121°40'17479.5
2017-Jun-24 05:54N 31°30' E 121°25'0 0.0
2017-Jun-24 05:28N 31°30' E 121°25'11502.3
2017-Jun-24 05:27N 31°24' E 121°36'11270.5
2017-Jun-24 05:24N 31°14' E 121°29'11412.6
2017-Jun-24 05:22N 31°20' E 121°40'615.4
2017-Jun-24 04:59N 31°24' E 121°36'6172.4
2017-Jun-24 04:57N 31°20' E 121°40'92131.1
2017-Jun-24 04:57N 31°15' E 121°31'3774.0
2017-Jun-24 04:27N 31°45' E 121°06'332216.1
2017-Jun-24 04:26N 31°24' E 121°36'6487.0
2017-Jun-24 04:25N 31°20' E 121°40'3685.6
2017-Jun-24 04:00N 31°43' E 121°09'30461.7
2017-Jun-24 03:57N 31°24' E 121°36'6564.8
2017-Jun-24 03:56N 31°20' E 121°40'30208.6
2017-Jun-24 03:47N 31°39' E 121°13'1 4.4
2017-Jun-24 03:29N 31°40' E 121°12'32610.1
2017-Jun-24 03:26N 31°20' E 121°40'30546.2
2017-Jun-24 03:23N 31°39' E 121°13'24442.9
2017-Jun-24 03:20N 31°24' E 121°36'8583527.4
2017-Jun-24 03:05N 21°12' E 110°25'0 0.0
2017-Jun-24 03:00N 21°12' E 110°25'858181738.5
2017-Jun-24 03:00N 31°20' E 121°40'6195.0
2017-Jun-24 02:58N 31°24' E 121°36'229916.2
2017-Jun-24 02:58N 31°38' E 121°16'332.2
2017-Jun-24 02:54N 31°39' E 121°13'8542186.7
2017-Jun-24 02:30N 21°11' E 110°26'85599264.2
2017-Jun-24 02:30N 31°36' E 121°18'5228.7
2017-Jun-24 02:28N 31°39' E 121°13'148165.0
2017-Jun-24 02:28N 31°30' E 121°25'111044.6
2017-Jun-24 02:27N 31°24' E 121°36'6157.5
2017-Jun-24 02:25N 31°20' E 121°40'8572052.8
2017-Jun-24 02:00N 21°11' E 110°27'853192010.6
2017-Jun-24 02:00N 31°39' E 121°13'8748.7
2017-Jun-24 01:59N 31°33' E 121°20'22666.9
2017-Jun-24 01:57N 31°20' E 121°40'5263.4
2017-Jun-24 01:56N 31°22' E 121°36'228.3
2017-Jun-24 01:52N 31°24' E 121°36'425.7
2017-Jun-24 01:41N 31°24' E 121°31'424.8
2017-Jun-24 01:30N 31°24' E 121°36'856146694.7
2017-Jun-24 01:30N 21°12' E 110°28'85350334.5
2017-Jun-24 01:29N 31°32' E 121°23'19428.5
2017-Jun-24 01:26N 31°20' E 121°40'9274.5
2017-Jun-24 01:25N 31°24' E 121°32'22116.0
2017-Jun-24 01:13N 31°39' E 121°13'14147.8
2017-Jun-24 01:08N 31°30' E 121°25'16138.5
2017-Jun-24 01:01N 31°20' E 121°40'101099.5
2017-Jun-24 01:00N 31°25' E 121°30'7904.2
2017-Jun-24 01:00N 31°30' E 121°24'854219607.8
2017-Jun-24 00:59N 21°11' E 110°27'857171423.1
2017-Jun-24 00:59N 31°24' E 121°36'11126.3
2017-Jun-24 00:54N 31°30' E 121°25'1492.0
2017-Jun-24 00:45N 31°39' E 121°13'1356.6
2017-Jun-24 00:31N 31°30' E 121°25'154906.3
2017-Jun-24 00:30N 31°22' E 121°39'859237877.6
2017-Jun-24 00:30N 21°12' E 110°25'85524052.8
2017-Jun-24 00:28N 31°30' E 121°25'11458.2
2017-Jun-24 00:27N 31°24' E 121°36'25288.7
2017-Jun-24 00:21N 31°39' E 121°13'15176.4
2017-Jun-24 00:16N 31°28' E 121°26'1346.4
2017-Jun-23 23:59N 31°22' E 121°39'151458.3
2017-Jun-23 23:59N 31°29' E 121°25'85554953.5
2017-Jun-23 23:58N 21°12' E 110°25'85853276.4
2017-Jun-23 23:57N 31°24' E 121°36'1179.7
2017-Jun-23 23:48N 31°30' E 121°25'13110.8
2017-Jun-23 23:41N 31°39' E 121°13'14197.2
2017-Jun-23 23:37N 31°30' E 121°25'15132.1
2017-Jun-23 23:30N 31°22' E 121°39'859123699.3
2017-Jun-23 23:30N 21°12' E 110°25'85824140.9
2017-Jun-23 23:27N 31°24' E 121°36'144133.3
2017-Jun-23 23:27N 31°31' E 121°22'3144.0
2017-Jun-23 23:26N 31°30' E 121°25'13537.9
2017-Jun-23 23:25N 31°39' E 121°13'14228.7
2017-Jun-23 23:21N 31°30' E 121°25'616.1
2017-Jun-23 23:00N 31°33' E 121°19'8272.9
2017-Jun-23 22:58N 31°39' E 121°13'252262.2
2017-Jun-23 22:57N 31°24' E 121°36'4274.4
2017-Jun-23 22:57N 31°22' E 121°39'15634.9
2017-Jun-23 22:55N 31°30' E 121°25'0 4.0
2017-Jun-23 22:51N 31°30' E 121°25'538720349.3
2017-Jun-23 22:35N 49°18' W 123°03'538869022.0
2017-Jun-23 22:30N 31°35' E 121°17'82184.7
2017-Jun-23 22:30N 31°30' E 121°25'15870.5
2017-Jun-23 22:29N 31°22' E 121°39'5381210578.4
2017-Jun-23 22:28N 49°18' W 123°04'5382272897.5
2017-Jun-23 22:26N 31°24' E 121°36'11113.6
2017-Jun-23 22:21N 31°30' E 121°25'1132.2
2017-Jun-23 22:00N 31°24' E 121°36'457.5
2017-Jun-23 21:56N 31°22' E 121°39'5377523163.4
2017-Jun-23 21:56N 49°19' W 123°09'53811383755.7
2017-Jun-23 21:55N 31°30' E 121°25'1244311.7
2017-Jun-23 21:55N 31°38' E 121°14'1229.3
2017-Jun-23 21:30N 31°30' E 121°25'5381624863.7
2017-Jun-23 21:30N 49°18' W 123°10'5376297772.8
2017-Jun-23 21:29N 31°22' E 121°39'459.5
2017-Jun-23 21:25N 31°24' E 121°36'11135.0
2017-Jun-23 21:20N 31°30' E 121°25'537715611.6
2017-Jun-23 20:59N 49°19' W 123°15'5374716487.0
2017-Jun-23 20:59N 31°24' E 121°36'4154.2
2017-Jun-23 20:57N 31°22' E 121°39'15999.0
2017-Jun-23 20:56N 31°30' E 121°25'012.2
2017-Jun-23 20:55N 31°30' E 121°25'0 0.4
2017-Jun-23 20:31N 31°29' E 121°25'5375403107.5
2017-Jun-23 20:30N 49°20' W 123°17'5370623641.0
2017-Jun-23 20:29N 31°22' E 121°39'4199.0
2017-Jun-23 20:28N 31°24' E 121°36'1132.1
2017-Jun-23 20:08N 31°30' E 121°25'1590.1
2017-Jun-23 19:58N 31°22' E 121°39'472.3
2017-Jun-23 19:55N 31°24' E 121°36'10180.4
2017-Jun-23 19:51N 31°28' E 121°25'1 6.3
2017-Jun-23 19:39N 31°30' E 121°25'1168.1
2017-Jun-23 19:30N 31°24' E 121°36'4180.5
2017-Jun-23 19:28N 31°22' E 121°39'154423.0
2017-Jun-23 19:28N 31°30' E 121°25'120.9
2017-Jun-23 19:24N 31°28' E 121°25'20165.2
2017-Jun-23 19:17N 31°43' E 121°08'2061.4
2017-Jun-23 18:57N 31°28' E 121°25'10222.4
2017-Jun-23 18:55N 31°24' E 121°36'475.0
2017-Jun-23 18:52N 31°22' E 121°39'311565.9
2017-Jun-23 18:50N 31°41' E 121°11'3193.7
2017-Jun-23 18:30N 31°22' E 121°39'14416.6
2017-Jun-23 18:28N 31°28' E 121°25'10307.3
2017-Jun-23 18:26N 31°24' E 121°36'25289.4
2017-Jun-23 18:21N 31°39' E 121°13'2 6.0
2017-Jun-23 18:00N 31°38' E 121°15'133623.3
2017-Jun-23 18:00N 31°28' E 121°25'14211.9
2017-Jun-23 17:56N 31°22' E 121°39'420.0
2017-Jun-23 17:45N 31°24' E 121°36'1980.9
2017-Jun-23 17:30N 31°36' E 121°18'10659.6
2017-Jun-23 17:30N 31°28' E 121°25'10820.3
2017-Jun-23 17:29N 31°24' E 121°36'4391.3
2017-Jun-23 17:28N 31°22' E 121°39'2041.3
2017-Jun-23 16:59N 31°33' E 121°20'20525.8
2017-Jun-23 16:57N 31°22' E 121°39'4298.0
2017-Jun-23 16:56N 31°24' E 121°36'10129.8
2017-Jun-23 16:51N 31°28' E 121°25'3 9.0
2017-Jun-23 16:30N 31°31' E 121°23'3256.8
2017-Jun-23 16:29N 31°28' E 121°25'14289.8
2017-Jun-23 16:26N 31°22' E 121°39'4244.5
2017-Jun-23 16:26N 31°24' E 121°36'0 0.0
2017-Jun-23 15:57N 31°24' E 121°36'10563.9
2017-Jun-23 15:56N 31°28' E 121°25'2102.1
2017-Jun-23 15:55N 31°28' E 121°27'124336.8
2017-Jun-23 15:55N 31°22' E 121°39'4 8.8
2017-Jun-23 15:29N 31°24' E 121°36'5170.4
2017-Jun-23 15:27N 31°26' E 121°31'5665.9
2017-Jun-23 15:27N 31°28' E 121°25'147078.2
2017-Jun-23 15:27N 31°22' E 121°39'1431.7
2017-Jun-23 15:00N 31°28' E 121°25'145505.3
2017-Jun-23 15:00N 31°22' E 121°39'4318.5
2017-Jun-23 15:00N 31°24' E 121°36'1158.7
2017-Jun-23 14:59N 31°24' E 121°35'1 1.3
2017-Jun-23 14:00N 31°24' E 121°36'11968.4
2017-Jun-23 14:00N 31°30' E 121°25'155349.1
2017-Jun-23 14:00N 31°22' E 121°39'4391.2
2017-Jun-23 13:59N 31°19' E 121°43'33796.6
2017-Jun-23 13:57N 31°40' E 121°13'151182.9
2017-Jun-23 13:56N 31°28' E 121°25'17144.3
2017-Jun-23 13:49N 31°41' E 121°12'38126.1
2017-Jun-23 13:30N 31°16' E 121°46'221507.1
2017-Jun-23 13:30N 31°28' E 121°25'1715193.1
2017-Jun-23 13:29N 31°41' E 121°12'288.4
2017-Jun-23 13:28N 31°40' E 121°13'2914762.6
2017-Jun-23 13:28N 31°22' E 121°39'4428.3
2017-Jun-23 13:28N 31°24' E 121°36'115658.3
2017-Jun-23 13:28N 31°30' E 121°25'2758.1
2017-Jun-23 13:00N 31°13' E 121°49'4338318.2
2017-Jun-23 13:00N 31°41' E 121°12'1710131.4
2017-Jun-23 13:00N 31°28' E 121°25'14352.7
2017-Jun-23 12:57N 31°22' E 121°39'4623.6
2017-Jun-23 12:57N 31°24' E 121°36'11563.2
2017-Jun-23 12:56N 31°30' E 121°25'14150.8
2017-Jun-23 12:50N 31°40' E 121°13'30189.2
2017-Jun-23 12:41N 31°21' E 121°40'1589.0
2017-Jun-23 12:30N 31°10' E 121°53'131149.2
2017-Jun-23 12:30N 31°20' E 121°42'7218.7
2017-Jun-23 12:28N 31°24' E 121°36'4163.5
2017-Jun-23 12:26N 31°22' E 121°39'151607.0
2017-Jun-23 12:26N 31°30' E 121°25'148.4
2017-Jun-23 12:24N 31°28' E 121°25'15380.8
2017-Jun-23 12:22N 31°40' E 121°13'212.2
2017-Jun-23 12:14N 31°41' E 121°12'24340.5
2017-Jun-23 12:10N 31°24' E 121°31'1596.1
2017-Jun-23 12:01N 31°16' E 121°46'8240.0
2017-Jun-23 11:58N 31°22' E 121°39'41144.5
2017-Jun-23 11:58N 31°24' E 121°36'261867.6
2017-Jun-23 11:57N 31°41' E 121°12'17323.3
2017-Jun-23 11:54N 31°28' E 121°25'7748.5
2017-Jun-23 11:54N 31°22' E 121°30'221024.4
2017-Jun-23 11:52N 31°40' E 121°13'14519.7
2017-Jun-23 11:51N 31°30' E 121°25'2781.0
2017-Jun-23 11:30N 31°12' E 121°50'4315533.1
2017-Jun-23 11:30N 31°41' E 121°12'17345.4
2017-Jun-23 11:27N 31°28' E 121°25'148320.5
2017-Jun-23 11:27N 31°22' E 121°39'41263.0
2017-Jun-23 11:27N 31°24' E 121°36'25426.9
2017-Jun-23 11:24N 31°40' E 121°14'233551.9
2017-Jun-23 11:23N 31°24' E 121°32'8112.6
2017-Jun-23 11:19N 31°30' E 121°25'1 4.1
2017-Jun-23 11:00N 31°28' E 121°25'315555.1
2017-Jun-23 11:00N 31°09' E 121°54'227057.5
2017-Jun-23 11:00N 31°23' E 121°34'91259.3
2017-Jun-23 10:59N 31°28' E 121°26'9311.5
2017-Jun-23 10:57N 31°24' E 121°36'4239.5
2017-Jun-23 10:56N 31°22' E 121°39'308395.8
2017-Jun-23 10:56N 31°41' E 121°12'214.0
2017-Jun-23 10:49N 31°40' E 121°14'14136.5
2017-Jun-23 10:43N 31°30' E 121°25'1360.4
2017-Jun-23 10:31N 31°22' E 121°36'3439.2
2017-Jun-23 10:30N 31°22' E 121°39'14291.9
2017-Jun-23 10:27N 31°28' E 121°25'171351.2
2017-Jun-23 10:27N 31°41' E 121°12'263969.8
2017-Jun-23 10:26N 31°24' E 121°36'1347518.1
2017-Jun-23 10:26N 31°31' E 121°22'12720.6
2017-Jun-23 10:25N 31°40' E 121°14'5191851.7
2017-Jun-23 10:25N 31°06' E 121°58'2252.0
2017-Jun-23 10:00N 31°20' E 121°39'4726.3
2017-Jun-23 10:00N 31°24' E 121°36'4443.4
2017-Jun-23 09:59N 31°22' E 121°39'201217.6
2017-Jun-23 09:58N 31°32' E 121°20'696.9
2017-Jun-23 09:54N 31°28' E 121°25'17308.6
2017-Jun-23 09:51N 31°41' E 121°12'214.7
2017-Jun-23 09:45N 31°40' E 121°14'31132.3
2017-Jun-23 09:30N 31°19' E 121°41'3200.8
2017-Jun-23 09:29N 31°22' E 121°39'484.4
2017-Jun-23 09:27N 31°24' E 121°36'26680.3
2017-Jun-23 09:24N 31°41' E 121°12'7140.7
2017-Jun-23 09:21N 31°35' E 121°17'1066.0
2017-Jun-23 09:13N 31°28' E 121°25'1889.3
2017-Jun-23 09:00N 31°18' E 121°43'355744.6
2017-Jun-23 09:00N 31°41' E 121°12'224.1
2017-Jun-23 08:56N 31°40' E 121°13'251032.0
2017-Jun-23 08:55N 31°24' E 121°36'22555.4
2017-Jun-23 08:52N 31°37' E 121°15'26574.9
2017-Jun-23 08:49N 31°22' E 121°39'14276.3
2017-Jun-23 08:46N 31°28' E 121°25'0 0.0
2017-Jun-23 08:30N 31°28' E 121°25'173040.2
2017-Jun-23 08:30N 31°41' E 121°12'378323.8
2017-Jun-23 08:30N 31°17' E 121°45'7280.0
2017-Jun-23 08:28N 31°22' E 121°39'292724.2
2017-Jun-23 08:28N 31°40' E 121°13'112.3
2017-Jun-23 08:22N 31°40' E 121°12'251090.1
2017-Jun-23 08:21N 31°24' E 121°36'1156.3
2017-Jun-23 08:09N 31°30' E 121°25'21147.3
2017-Jun-23 08:00N 31°17' E 121°45'102033.4
2017-Jun-23 08:00N 31°24' E 121°36'4163.8
2017-Jun-23 07:59N 31°22' E 121°39'141715.9
2017-Jun-23 07:58N 31°28' E 121°25'1792.3
2017-Jun-23 07:47N 31°41' E 121°12'2694.4
2017-Jun-23 07:30N 31°24' E 121°36'63408.6
2017-Jun-23 07:30N 31°20' E 121°41'228.3
2017-Jun-23 07:26N 31°22' E 121°39'141244.0
2017-Jun-23 07:26N 31°28' E 121°25'17894.4
2017-Jun-23 07:24N 31°41' E 121°12'16270.3
2017-Jun-23 07:21N 31°30' E 121°25'1 3.6
2017-Jun-23 07:00N 31°28' E 121°25'14904.7
2017-Jun-23 06:59N 31°22' E 121°39'3189.7
2017-Jun-23 06:58N 31°22' E 121°36'281055.5
2017-Jun-23 06:57N 31°41' E 121°12'26302.4
2017-Jun-23 06:51N 31°24' E 121°36'0 0.0
2017-Jun-23 06:30N 31°24' E 121°36'91247.1
2017-Jun-23 06:29N 31°18' E 121°43'8345.1
2017-Jun-23 06:28N 31°22' E 121°35'271252.8
2017-Jun-23 06:26N 31°41' E 121°12'176787.1
2017-Jun-23 06:26N 31°28' E 121°25'14815.6
2017-Jun-23 06:25N 31°22' E 121°39'15105.4
2017-Jun-23 06:17N 31°30' E 121°25'2278.8
2017-Jun-23 06:00N 31°17' E 121°46'7199.4
2017-Jun-23 05:58N 31°22' E 121°39'30109410.6
2017-Jun-23 05:58N 31°41' E 121°12'281101.0
2017-Jun-23 05:57N 31°22' E 121°35'217.3
2017-Jun-23 05:50N 31°24' E 121°36'10320.5
2017-Jun-23 05:48N 31°28' E 121°25'1446.1
2017-Jun-23 05:30N 31°22' E 121°39'14236.1
2017-Jun-23 05:27N 31°28' E 121°25'10189.0
2017-Jun-23 05:24N 31°24' E 121°36'27770.3
2017-Jun-23 05:21N 31°41' E 121°12'28538.5
2017-Jun-23 05:18N 31°22' E 121°35'1234.7
2017-Jun-23 04:58N 31°29' E 121°25'11547.8
2017-Jun-23 04:57N 31°24' E 121°36'22255.2
2017-Jun-23 04:57N 31°22' E 121°35'28273.7
2017-Jun-23 04:51N 31°41' E 121°12'2773.7
2017-Jun-23 04:30N 31°24' E 121°36'4117.4
2017-Jun-23 04:28N 31°22' E 121°39'155501.3
2017-Jun-23 04:27N 31°30' E 121°24'121298.5
2017-Jun-23 04:27N 31°22' E 121°35'1253.8
2017-Jun-23 04:14N 31°30' E 121°25'16147.9
2017-Jun-23 04:07N 31°41' E 121°12'28173.8
2017-Jun-23 03:58N 31°22' E 121°35'3712.3
2017-Jun-23 03:57N 31°22' E 121°39'4806.3
2017-Jun-23 03:57N 31°24' E 121°36'232627.7
2017-Jun-23 03:57N 31°38' E 121°15'11194.9
2017-Jun-23 03:53N 31°30' E 121°24'15198.3
2017-Jun-23 03:49N 31°41' E 121°12'2 5.2
2017-Jun-23 03:30N 31°39' E 121°12'26528.4
2017-Jun-23 03:27N 31°22' E 121°35'285.1
2017-Jun-23 03:26N 31°24' E 121°36'11438.7
2017-Jun-23 03:24N 31°30' E 121°24'15874.6
2017-Jun-23 03:23N 31°41' E 121°12'3018204.5
2017-Jun-23 03:23N 31°22' E 121°39'3079.4
2017-Jun-23 03:00N 31°41' E 121°12'2105.8
2017-Jun-23 02:59N 31°41' E 121°09'29786.3
2017-Jun-23 02:57N 31°22' E 121°35'3118.7
2017-Jun-23 02:55N 31°22' E 121°39'15237.5
2017-Jun-23 02:51N 31°30' E 121°24'11877.0
2017-Jun-23 02:51N 31°24' E 121°36'2 5.5
2017-Jun-23 02:30N 31°22' E 121°36'35960.2
2017-Jun-23 02:30N 31°22' E 121°39'151443.6
2017-Jun-23 02:29N 31°30' E 121°24'11239.6
2017-Jun-23 02:26N 31°24' E 121°36'26354.5
2017-Jun-23 02:22N 31°41' E 121°12'431.8
2017-Jun-23 02:14N 31°43' E 121°08'30124.8
2017-Jun-23 02:00N 31°23' E 121°34'111070.6
2017-Jun-23 01:59N 31°30' E 121°24'151441.6
2017-Jun-23 01:59N 31°41' E 121°12'2264.4
2017-Jun-23 01:58N 31°42' E 121°10'32436.3
2017-Jun-23 01:54N 31°22' E 121°39'4380.8
2017-Jun-23 01:53N 31°24' E 121°36'1130.1
2017-Jun-23 01:30N 31°30' E 121°24'14874.7
2017-Jun-23 01:29N 31°40' E 121°13'1453.1
2017-Jun-23 01:29N 31°40' E 121°12'152235.0
2017-Jun-23 01:29N 31°30' E 121°25'151301.7
2017-Jun-23 01:28N 31°22' E 121°39'7125.2
2017-Jun-23 01:25N 31°24' E 121°31'24215.8
2017-Jun-23 01:18N 31°41' E 121°12'310.7
2017-Jun-23 00:59N 31°39' E 121°15'398.5
2017-Jun-23 00:57N 31°41' E 121°12'302056.4
2017-Jun-23 00:56N 31°22' E 121°39'2557.0
2017-Jun-23 00:30N 31°37' E 121°17'258899.5
2017-Jun-23 00:30N 31°22' E 121°39'15224.0
2017-Jun-23 00:26N 31°30' E 121°25'0103.7
2017-Jun-23 00:25N 31°30' E 121°24'15180.1
2017-Jun-23 00:20N 31°41' E 121°12'1544.3
2017-Jun-22 23:59N 31°30' E 121°24'8640.7
2017-Jun-22 23:59N 31°36' E 121°18'8895.9
2017-Jun-22 23:58N 31°41' E 121°12'30956.3
2017-Jun-22 23:56N 31°22' E 121°39'2144.7
2017-Jun-22 23:29N 31°34' E 121°20'10152.2
2017-Jun-22 23:25N 31°41' E 121°12'30323.5
2017-Jun-22 23:19N 31°22' E 121°39'151815.5
2017-Jun-22 23:19N 31°30' E 121°24'1489.9
2017-Jun-22 23:09N 31°40' E 121°14'1170.7
2017-Jun-22 23:00N 31°32' E 121°22'18330.1
2017-Jun-22 22:57N 31°22' E 121°39'292248.0
2017-Jun-22 22:56N 31°40' E 121°14'142624.1
2017-Jun-22 22:56N 31°30' E 121°24'15368.4
2017-Jun-22 22:53N 31°41' E 121°12'1437.4
2017-Jun-22 22:30N 31°30' E 121°24'163.8
2017-Jun-22 22:29N 31°30' E 121°24'15789.4
2017-Jun-22 22:28N 31°41' E 121°12'301123.9
2017-Jun-22 22:27N 31°22' E 121°39'29156.7
2017-Jun-22 22:16N 31°40' E 121°14'1349.6
2017-Jun-22 22:00N 31°30' E 121°24'13517.4
2017-Jun-22 21:58N 31°40' E 121°14'14398.9
2017-Jun-22 21:56N 31°30' E 121°24'15311.3
2017-Jun-22 21:53N 31°22' E 121°39'30851.7
2017-Jun-22 21:51N 31°41' E 121°12'16112.8
2017-Jun-22 21:43N 31°30' E 121°25'0 0.0
2017-Jun-22 21:30N 31°30' E 121°25'1517692.1
2017-Jun-22 21:30N 31°22' E 121°39'16331.8
2017-Jun-22 21:27N 31°30' E 121°24'1591.3
2017-Jun-22 21:27N 31°30' E 121°24'1518430.4
2017-Jun-22 21:27N 31°41' E 121°12'1129.8
2017-Jun-22 21:05N 31°32' E 121°20'0 5.6
2017-Jun-22 21:00N 31°33' E 121°20'11478.9
2017-Jun-22 20:59N 31°41' E 121°12'301626.9
2017-Jun-22 20:57N 31°22' E 121°39'161913.6
2017-Jun-22 20:57N 31°30' E 121°24'119.0
2017-Jun-22 20:54N 31°30' E 121°24'1538.3
2017-Jun-22 20:30N 31°41' E 121°12'234.2
2017-Jun-22 20:27N 31°40' E 121°14'294482.0
2017-Jun-22 20:27N 31°22' E 121°39'162208.0
2017-Jun-22 20:27N 31°30' E 121°24'141.6
2017-Jun-22 20:25N 31°30' E 121°24'0 4.2
2017-Jun-22 20:20N 31°30' E 121°25'1238.1
2017-Jun-22 20:00N 31°39' E 121°15'271169.1
2017-Jun-22 19:59N 31°22' E 121°39'1611483.7
2017-Jun-22 19:59N 31°30' E 121°24'15400.4
2017-Jun-22 19:56N 31°41' E 121°12'16144.0
2017-Jun-22 19:50N 31°30' E 121°25'0 1.3
2017-Jun-22 19:31N 31°30' E 121°24'10485.4
2017-Jun-22 19:30N 31°37' E 121°17'6536.8
2017-Jun-22 19:29N 31°41' E 121°12'301879.6
2017-Jun-22 19:28N 31°22' E 121°39'15365.5
2017-Jun-22 19:26N 31°30' E 121°24'110.8
2017-Jun-22 19:21N 31°30' E 121°24'164.0
2017-Jun-22 19:20N 31°30' E 121°25'1544.4
2017-Jun-22 19:00N 31°22' E 121°39'223497.9
2017-Jun-22 19:00N 31°35' E 121°18'181330.0
2017-Jun-22 18:59N 31°21' E 121°32'12557.1
2017-Jun-22 18:58N 31°30' E 121°24'1226.5
2017-Jun-22 18:57N 31°30' E 121°25'020.6
2017-Jun-22 18:56N 31°30' E 121°24'15345.6
2017-Jun-22 18:54N 31°41' E 121°12'536826399.2
2017-Jun-22 18:41N 49°27' W 123°23'536827685.6
2017-Jun-22 18:30N 31°33' E 121°21'20832.5
2017-Jun-22 18:28N 31°22' E 121°39'16631.0
2017-Jun-22 18:27N 31°30' E 121°24'9293.8
2017-Jun-22 18:25N 31°23' E 121°30'997.3
2017-Jun-22 18:20N 31°30' E 121°24'15387.4
2017-Jun-22 18:17N 31°41' E 121°12'2485.5
2017-Jun-22 18:00N 31°24' E 121°31'9310.7
2017-Jun-22 17:59N 31°30' E 121°24'162298.6
2017-Jun-22 17:58N 31°22' E 121°39'15229.0
2017-Jun-22 17:54N 31°30' E 121°25'1637.6
2017-Jun-22 17:29N 31°41' E 121°12'155244.7
2017-Jun-22 17:29N 31°30' E 121°24'73452.0
2017-Jun-22 17:29N 31°26' E 121°29'6422.7
2017-Jun-22 17:28N 31°30' E 121°25'155320.2
2017-Jun-22 17:28N 31°22' E 121°39'1557.3
2017-Jun-22 17:12N 31°30' E 121°24'1567.1
2017-Jun-22 16:58N 31°41' E 121°12'151415.3
2017-Jun-22 16:58N 31°30' E 121°24'1614416.6
2017-Jun-22 16:58N 31°22' E 121°39'1221512.9
2017-Jun-22 16:58N 31°28' E 121°27'285.2
2017-Jun-22 16:56N 31°26' E 121°30'690.1
2017-Jun-22 16:52N 31°30' E 121°24'1540.1
2017-Jun-22 16:29N 31°41' E 121°12'153745.0
2017-Jun-22 16:29N 31°30' E 121°24'2233.6
2017-Jun-22 16:28N 31°29' E 121°25'14381.0
2017-Jun-22 16:26N 31°22' E 121°39'1637.2
2017-Jun-22 16:00N 31°30' E 121°23'162139.4
2017-Jun-22 16:00N 31°22' E 121°39'16768.7
2017-Jun-22 15:59N 31°30' E 121°24'151690.8
2017-Jun-22 15:58N 31°41' E 121°12'1557.0
2017-Jun-22 15:42N 31°30' E 121°24'0 0.0
2017-Jun-22 15:30N 31°30' E 121°24'136.0
2017-Jun-22 15:29N 31°30' E 121°24'161921.4
2017-Jun-22 15:29N 31°22' E 121°39'30420.1
2017-Jun-22 15:24N 31°41' E 121°12'0 0.6
2017-Jun-22 15:00N 31°41' E 121°12'30885.0
2017-Jun-22 14:58N 31°22' E 121°39'16647.7
2017-Jun-22 14:57N 31°30' E 121°24'179.9
2017-Jun-22 14:56N 31°30' E 121°24'1227.7
2017-Jun-22 14:30N 31°39' E 121°15'5224.0
2017-Jun-22 14:29N 31°41' E 121°10'163771.0
2017-Jun-22 14:29N 31°30' E 121°24'16861.9
2017-Jun-22 14:28N 31°22' E 121°39'1465.1
2017-Jun-22 14:15N 31°11' E 121°28'29287.3
2017-Jun-22 14:09N 31°38' E 121°15'1268.1
2017-Jun-22 13:58N 31°30' E 121°24'920.3
2017-Jun-22 13:30N 31°37' E 121°17'4430.5
2017-Jun-22 13:30N 31°33' E 121°20'183161.0
2017-Jun-22 13:30N 31°22' E 121°36'9804.7
2017-Jun-22 13:29N 31°15' E 121°30'221895.3
2017-Jun-22 13:28N 31°35' E 121°19'656.8
2017-Jun-22 13:22N 31°30' E 121°24'110.9
2017-Jun-22 13:15N 31°30' E 121°25'727.1
2017-Jun-22 13:00N 31°34' E 121°19'2683.5
2017-Jun-22 13:00N 31°33' E 121°21'2446.9
2017-Jun-22 13:00N 31°31' E 121°22'15413.2
2017-Jun-22 12:58N 31°22' E 121°36'13780.5
2017-Jun-22 12:57N 31°30' E 121°24'122.1
2017-Jun-22 12:54N 31°30' E 121°25'0 1.1
2017-Jun-22 12:35N 31°30' E 121°24'339.5
2017-Jun-22 12:30N 31°32' E 121°22'162072.8
2017-Jun-22 12:30N 31°22' E 121°36'1140674.2
2017-Jun-22 12:30N 31°29' E 121°25'3129.9
2017-Jun-22 12:29N 31°31' E 121°22'353.2
2017-Jun-22 12:26N 31°30' E 121°25'0 4.0
2017-Jun-22 12:20N 31°30' E 121°24'1787.3
2017-Jun-22 12:20N 31°30' E 121°24'1 3.2
2017-Jun-22 12:00N 31°31' E 121°25'132580.1
2017-Jun-22 12:00N 31°22' E 121°36'14383.6
2017-Jun-22 11:58N 31°31' E 121°22'24489.8
2017-Jun-22 11:58N 31°30' E 121°25'146.9
2017-Jun-22 11:56N 31°30' E 121°24'117.5
2017-Jun-22 11:53N 31°30' E 121°24'291.3
2017-Jun-22 11:52N 31°28' E 121°25'1030.4
2017-Jun-22 11:32N 31°24' E 121°36'244.8
2017-Jun-22 11:30N 31°22' E 121°36'13282.3
2017-Jun-22 11:27N 31°30' E 121°24'24204.5
2017-Jun-22 11:27N 31°28' E 121°25'4533.0
2017-Jun-22 11:27N 31°31' E 121°22'2165.2
2017-Jun-22 11:26N 31°30' E 121°24'11199.2
2017-Jun-22 11:22N 31°24' E 121°36'442.8
2017-Jun-22 11:18N 31°25' E 121°32'0 2.8
2017-Jun-22 11:08N 31°25' E 121°31'429.3
2017-Jun-22 11:00N 31°24' E 121°36'2238.3
2017-Jun-22 11:00N 31°22' E 121°36'121058.1
2017-Jun-22 10:59N 31°30' E 121°24'2223.8
2017-Jun-22 10:59N 31°31' E 121°22'103600.3
2017-Jun-22 10:59N 31°25' E 121°32'9285.1
2017-Jun-22 10:57N 31°30' E 121°24'9388.6
2017-Jun-22 10:55N 31°24' E 121°32'442.2
2017-Jun-22 10:50N 31°27' E 121°29'24230.7
2017-Jun-22 10:43N 31°03' E 121°29'26524.6
2017-Jun-22 10:40N 31°28' E 121°25'0 0.0
2017-Jun-22 10:30N 31°28' E 121°25'7761.3
2017-Jun-22 10:30N 31°25' E 121°32'42287.0
2017-Jun-22 10:30N 31°22' E 121°36'12467.4
2017-Jun-22 10:28N 31°30' E 121°24'1140.3
2017-Jun-22 10:28N 31°30' E 121°24'172.9
2017-Jun-22 10:27N 31°31' E 121°22'131125.6
2017-Jun-22 10:26N 31°24' E 121°36'51148.3
2017-Jun-22 10:26N 31°26' E 121°30'614.8
2017-Jun-22 10:00N 31°30' E 121°24'1222220.9
2017-Jun-22 10:00N 31°22' E 121°36'121433.1
2017-Jun-22 10:00N 31°30' E 121°25'141.5
2017-Jun-22 09:58N 31°30' E 121°24'12308.0
2017-Jun-22 09:56N 31°24' E 121°36'13756.1
2017-Jun-22 09:55N 31°31' E 121°22'103601.6
2017-Jun-22 09:54N 31°25' E 121°32'7123.0
2017-Jun-22 09:51N 31°28' E 121°25'1447.7
2017-Jun-22 09:33N 31°15' E 121°32'18303.9
2017-Jun-22 09:30N 31°31' E 121°22'136914.1
2017-Jun-22 09:29N 31°24' E 121°36'2146.5
2017-Jun-22 09:29N 31°22' E 121°36'13404.2
2017-Jun-22 09:27N 31°30' E 121°24'14354.7
2017-Jun-22 09:27N 31°30' E 121°25'016.0
2017-Jun-22 09:25N 31°30' E 121°24'8342.6
2017-Jun-22 09:24N 31°25' E 121°32'1166.7
2017-Jun-22 09:14N 31°15' E 121°30'14118.9
2017-Jun-22 09:07N 31°29' E 121°25'0 5.1
2017-Jun-22 09:02N 31°28' E 121°25'11325.0
2017-Jun-22 09:00N 31°22' E 121°36'131588.3
2017-Jun-22 09:00N 31°30' E 121°24'9370.9
2017-Jun-22 08:58N 31°25' E 121°32'101029.4
2017-Jun-22 08:58N 31°31' E 121°22'3152.6
2017-Jun-22 08:57N 31°30' E 121°25'112318.6
2017-Jun-22 08:57N 31°24' E 121°36'11535.4
2017-Jun-22 08:55N 31°29' E 121°24'118.3
2017-Jun-22 08:53N 31°30' E 121°24'213.7
2017-Jun-22 08:46N 31°28' E 121°25'1 4.9
2017-Jun-22 08:31N 31°30' E 121°25'144997.0
2017-Jun-22 08:30N 31°22' E 121°38'1311519.5
2017-Jun-22 08:30N 31°28' E 121°25'2239.2
2017-Jun-22 08:30N 31°30' E 121°24'151461.9
2017-Jun-22 08:29N 31°17' E 121°34'9739.5
2017-Jun-22 08:29N 31°25' E 121°32'4115.3
2017-Jun-22 08:27N 31°24' E 121°36'134399.9
2017-Jun-22 08:26N 31°31' E 121°22'215.6
2017-Jun-22 08:20N 31°32' E 121°21'541.1
2017-Jun-22 08:12N 31°28' E 121°25'1473.9
2017-Jun-22 08:01N 31°15' E 121°31'146442.5
2017-Jun-22 08:00N 31°28' E 121°25'151983.4
2017-Jun-22 08:00N 31°22' E 121°41'5273.6
2017-Jun-22 07:59N 31°24' E 121°36'112138.6
2017-Jun-22 07:59N 31°30' E 121°24'62227.1
2017-Jun-22 07:58N 31°34' E 121°19'4175.6
2017-Jun-22 07:57N 31°31' E 121°22'11422.5
2017-Jun-22 07:56N 31°24' E 121°32'785.2
2017-Jun-22 07:51N 31°28' E 121°25'114.0
2017-Jun-22 07:45N 31°30' E 121°25'1 5.0
2017-Jun-22 07:29N 31°28' E 121°25'63160.0
2017-Jun-22 07:29N 31°32' E 121°20'214665.2
2017-Jun-22 07:28N 31°22' E 121°41'2615300.8
2017-Jun-22 07:28N 31°36' E 121°16'9533.3
2017-Jun-22 07:27N 31°30' E 121°24'11414.5
2017-Jun-22 07:26N 31°24' E 121°36'511.6
2017-Jun-22 07:00N 31°22' E 121°41'2382732.3
2017-Jun-22 07:00N 31°34' E 121°18'185018.5
2017-Jun-22 07:00N 31°24' E 121°36'102097.5
2017-Jun-22 07:00N 31°28' E 121°25'215.9
2017-Jun-22 06:53N 31°30' E 121°24'14142.5
2017-Jun-22 06:47N 31°39' E 121°12'1661.1
2017-Jun-22 06:32N 31°28' E 121°25'11360.6
2017-Jun-22 06:30N 31°36' E 121°16'9422.7
2017-Jun-22 06:29N 31°30' E 121°24'251.1
2017-Jun-22 06:27N 31°28' E 121°25'0 0.9
2017-Jun-22 06:19N 31°28' E 121°25'10254.6
2017-Jun-22 06:16N 31°24' E 121°36'51752.4
2017-Jun-22 06:16N 31°22' E 121°41'1660.3
2017-Jun-22 06:00N 31°30' E 121°24'1629072.1
2017-Jun-22 06:00N 31°22' E 121°41'28881.9
2017-Jun-22 05:58N 31°38' E 121°14'371680.3
2017-Jun-22 05:57N 31°03' E 121°29'224979.0
2017-Jun-22 05:57N 31°24' E 121°36'10563.6
2017-Jun-22 05:56N 31°28' E 121°25'0 2.5
2017-Jun-22 05:53N 31°28' E 121°25'0 0.3
2017-Jun-22 05:30N 31°28' E 121°25'10166.9
2017-Jun-22 05:27N 31°24' E 121°36'25974.0
2017-Jun-22 05:25N 31°40' E 121°12'393544.4
2017-Jun-22 05:25N 31°03' E 121°29'275448.7
2017-Jun-22 05:24N 31°30' E 121°24'16253.8
2017-Jun-22 05:20N 31°22' E 121°41'151475.7
2017-Jun-22 05:20N 31°28' E 121°25'1030.7
2017-Jun-22 05:00N 31°24' E 121°36'5415.7
2017-Jun-22 05:00N 31°22' E 121°41'323360.8
2017-Jun-22 04:59N 31°41' E 121°11'411154.1
2017-Jun-22 04:57N 31°03' E 121°29'269219.0
2017-Jun-22 04:57N 31°28' E 121°25'228.7
2017-Jun-22 04:53N 31°30' E 121°24'2 4.6
2017-Jun-22 04:29N 31°28' E 121°25'191837.1
2017-Jun-22 04:28N 31°41' E 121°09'175134.2
2017-Jun-22 04:28N 31°30' E 121°24'16203.7
2017-Jun-22 04:23N 31°22' E 121°41'5406.5
2017-Jun-22 04:22N 31°24' E 121°36'1024.0
2017-Jun-22 03:58N 31°28' E 121°25'10516.4
2017-Jun-22 03:57N 31°24' E 121°36'5194.3
2017-Jun-22 03:55N 31°22' E 121°41'16136.2
2017-Jun-22 03:48N 31°30' E 121°24'0 3.6
2017-Jun-22 03:41N 31°30' E 121°25'0 2.2
2017-Jun-22 03:29N 31°30' E 121°24'162256.3
2017-Jun-22 03:29N 31°22' E 121°41'15171.7
2017-Jun-22 03:24N 31°28' E 121°25'1097.1
2017-Jun-22 03:18N 31°24' E 121°36'45411936.4
2017-Jun-22 03:15N 24°30' E 118°04'4329433.3
2017-Jun-22 03:13N 31°03' E 121°29'27135.7
2017-Jun-22 03:00N 31°30' E 121°24'45322647.1
2017-Jun-22 02:59N 24°32' E 118°05'45220079.2
2017-Jun-22 02:58N 31°28' E 121°25'101484.6
2017-Jun-22 02:57N 31°24' E 121°36'571.4
2017-Jun-22 02:53N 31°22' E 121°41'1567.4
2017-Jun-22 02:40N 31°28' E 121°25'110.0
2017-Jun-22 02:32N 31°30' E 121°25'014.3
2017-Jun-22 02:30N 31°30' E 121°24'16359.9
2017-Jun-22 02:27N 31°22' E 121°41'5158.9
2017-Jun-22 02:26N 31°24' E 121°36'4516741.7
2017-Jun-22 02:22N 24°33' E 118°06'45112128.1
2017-Jun-22 02:19N 31°28' E 121°25'4511234.0
2017-Jun-22 01:57N 24°33' E 118°06'45150728.6
2017-Jun-22 01:57N 31°22' E 121°41'161956.2
2017-Jun-22 01:56N 31°30' E 121°24'11110.4
2017-Jun-22 01:50N 31°24' E 121°36'10190.5
2017-Jun-22 01:47N 31°28' E 121°25'1034.7
2017-Jun-22 01:30N 31°24' E 121°36'5213.2
2017-Jun-22 01:29N 31°22' E 121°41'15515.2
2017-Jun-22 01:27N 31°28' E 121°25'2374.1
2017-Jun-22 01:26N 31°30' E 121°24'214.6
2017-Jun-22 01:19N 31°28' E 121°25'1 2.0
2017-Jun-22 01:00N 31°29' E 121°25'144.1
2017-Jun-22 00:58N 31°30' E 121°24'11915.2
2017-Jun-22 00:58N 31°24' E 121°36'45130087.9
2017-Jun-22 00:57N 24°33' E 118°06'45118239.7
2017-Jun-22 00:55N 31°22' E 121°41'222093.4
2017-Jun-22 00:55N 31°31' E 121°17'4511122.2
2017-Jun-22 00:30N 24°32' E 118°05'45258149.8
2017-Jun-22 00:30N 31°31' E 121°19'4134.8
2017-Jun-22 00:28N 31°30' E 121°23'171197.6
2017-Jun-22 00:27N 31°22' E 121°41'571.4
2017-Jun-22 00:23N 31°24' E 121°36'116819.3
2017-Jun-22 00:23N 31°30' E 121°24'410.8
2017-Jun-22 00:00N 31°32' E 121°20'201593.0
2017-Jun-21 23:59N 31°22' E 121°41'16340.8
2017-Jun-21 23:56N 31°30' E 121°24'11175.8
2017-Jun-21 23:53N 31°24' E 121°36'1744.0
2017-Jun-21 23:29N 31°33' E 121°19'171596.2
2017-Jun-21 23:28N 31°24' E 121°36'5364.2
2017-Jun-21 23:28N 31°22' E 121°41'1581.6
2017-Jun-21 23:17N 31°28' E 121°25'255.7
2017-Jun-21 23:15N 31°30' E 121°24'0 2.6
2017-Jun-21 23:05N 31°30' E 121°25'0 4.8
2017-Jun-21 23:00N 31°30' E 121°24'2699.8
2017-Jun-21 23:00N 31°28' E 121°25'10490.1
2017-Jun-21 22:59N 31°24' E 121°36'5100.2
2017-Jun-21 22:56N 31°22' E 121°41'25740.3
2017-Jun-21 22:54N 31°36' E 121°17'2562.3
2017-Jun-21 22:30N 31°22' E 121°41'272619.7
2017-Jun-21 22:30N 31°37' E 121°15'223982.6
2017-Jun-21 22:29N 31°24' E 121°36'11799.2
2017-Jun-21 22:29N 31°30' E 121°24'258.1
2017-Jun-21 22:27N 31°28' E 121°25'1022.6
2017-Jun-21 22:00N 31°24' E 121°36'2522756.0
2017-Jun-21 22:00N 31°40' E 121°12'141814.2
2017-Jun-21 22:00N 31°30' E 121°24'16613.9
2017-Jun-21 21:58N 31°22' E 121°41'1513327.3
2017-Jun-21 21:58N 31°28' E 121°25'1 3.4
2017-Jun-21 21:34N 31°30' E 121°25'11118.0
2017-Jun-21 21:29N 31°24' E 121°36'11558.5
2017-Jun-21 21:27N 31°30' E 121°24'2190.2
2017-Jun-21 21:27N 31°28' E 121°25'15522.5
2017-Jun-21 21:25N 31°22' E 121°41'1673.2
2017-Jun-21 21:12N 31°30' E 121°25'1671.5
2017-Jun-21 20:59N 31°22' E 121°41'5730.2
2017-Jun-21 20:59N 31°24' E 121°36'10131.2
2017-Jun-21 20:54N 31°28' E 121°25'243.9
2017-Jun-21 20:52N 31°30' E 121°24'1641.1
2017-Jun-21 20:28N 31°22' E 121°41'565.0
2017-Jun-21 20:23N 31°24' E 121°36'1043.7
2017-Jun-21 20:10N 31°28' E 121°25'296.0
2017-Jun-21 20:09N 31°30' E 121°24'0 0.0
2017-Jun-21 19:59N 31°30' E 121°24'2130.0
2017-Jun-21 19:58N 31°28' E 121°25'15502.7
2017-Jun-21 19:56N 31°22' E 121°41'5762.9
2017-Jun-21 19:56N 31°24' E 121°36'511.4
2017-Jun-21 19:30N 31°22' E 121°41'5626.2
2017-Jun-21 19:30N 31°24' E 121°36'10153.6
2017-Jun-21 19:26N 31°28' E 121°25'243.6
2017-Jun-21 19:23N 31°30' E 121°24'1642.4
2017-Jun-21 19:00N 31°22' E 121°41'16401.9
2017-Jun-21 18:58N 31°30' E 121°24'11679.3
2017-Jun-21 18:57N 31°24' E 121°36'10942.0
2017-Jun-21 18:56N 31°28' E 121°25'1 3.5
2017-Jun-21 18:33N 31°30' E 121°25'117.1
2017-Jun-21 18:28N 31°28' E 121°25'15884.9
2017-Jun-21 18:27N 31°22' E 121°41'5211.8
2017-Jun-21 18:26N 31°24' E 121°36'1137.4
2017-Jun-21 18:07N 31°30' E 121°24'16136.0
2017-Jun-21 18:00N 31°22' E 121°41'16324.4
2017-Jun-21 17:57N 31°30' E 121°24'111507.9
2017-Jun-21 17:57N 31°24' E 121°36'10372.7
2017-Jun-21 17:55N 31°28' E 121°25'3 8.5
2017-Jun-21 17:35N 31°30' E 121°23'13135.1
2017-Jun-21 17:30N 31°24' E 121°36'13412.7
2017-Jun-21 17:28N 31°30' E 121°23'150.9
2017-Jun-21 17:26N 31°30' E 121°24'244.7
2017-Jun-21 17:24N 31°28' E 121°25'151516.5
2017-Jun-21 17:23N 31°22' E 121°41'16360.0
2017-Jun-21 17:21N 31°30' E 121°25'1 3.9
2017-Jun-21 17:00N 31°28' E 121°25'22196.8
2017-Jun-21 17:00N 31°30' E 121°24'162919.0
2017-Jun-21 16:59N 31°22' E 121°41'161296.1
2017-Jun-21 16:59N 31°30' E 121°25'11944.9
2017-Jun-21 16:58N 31°24' E 121°36'131263.9
2017-Jun-21 16:57N 31°30' E 121°23'1737.8
2017-Jun-21 16:30N 31°22' E 121°41'573.2
2017-Jun-21 16:26N 31°24' E 121°36'114576.0
2017-Jun-21 16:26N 31°30' E 121°24'132.6
2017-Jun-21 16:23N 31°30' E 121°23'327.3
2017-Jun-21 16:17N 31°28' E 121°25'1035.8
2017-Jun-21 16:00N 31°24' E 121°36'58740.1
2017-Jun-21 16:00N 31°22' E 121°41'15842.2
2017-Jun-21 15:59N 31°28' E 121°25'231.9
2017-Jun-21 15:56N 31°30' E 121°24'111.7
2017-Jun-21 15:49N 31°30' E 121°23'1339.1
2017-Jun-21 15:30N 31°24' E 121°36'11424.6
2017-Jun-21 15:28N 31°30' E 121°24'117.7
2017-Jun-21 15:24N 31°30' E 121°23'183505.5
2017-Jun-21 15:24N 31°22' E 121°41'1559.3
2017-Jun-21 15:09N 31°28' E 121°25'317.5
2017-Jun-21 14:59N 31°30' E 121°23'183505.5
2017-Jun-21 14:58N 31°22' E 121°41'164887.7
2017-Jun-21 14:58N 31°30' E 121°24'246.6
2017-Jun-21 14:56N 31°28' E 121°25'10184.6
2017-Jun-21 14:53N 31°24' E 121°36'2783.9
2017-Jun-21 14:33N 31°41' E 121°11'15136.4
2017-Jun-21 14:27N 31°30' E 121°24'1619550.8
2017-Jun-21 14:27N 31°22' E 121°41'15234.8
2017-Jun-21 14:23N 31°28' E 121°25'10404.8
2017-Jun-21 14:21N 31°24' E 121°36'13244.0
2017-Jun-21 14:18N 31°30' E 121°23'927.7
2017-Jun-21 13:58N 31°37' E 121°16'4 8.6
2017-Jun-21 13:29N 31°34' E 121°19'61172.6
2017-Jun-21 13:28N 31°30' E 121°24'11858.0
2017-Jun-21 13:27N 31°24' E 121°36'131014.0
2017-Jun-21 13:27N 31°30' E 121°23'183155.5
2017-Jun-21 13:26N 31°22' E 121°41'1564.6
2017-Jun-21 13:13N 31°28' E 121°25'419.3
2017-Jun-21 13:01N 31°31' E 121°22'1412322.2
2017-Jun-21 13:00N 31°24' E 121°36'11614.7
2017-Jun-21 12:59N 31°30' E 121°24'2257.5
2017-Jun-21 12:59N 31°28' E 121°25'369.8
2017-Jun-21 12:56N 31°30' E 121°23'18280.5
2017-Jun-21 12:53N 31°22' E 121°41'2383.4
2017-Jun-21 12:36N 31°35' E 121°18'751.2
2017-Jun-21 12:27N 31°30' E 121°24'1611732.7
2017-Jun-21 12:27N 31°22' E 121°41'245408.3
2017-Jun-21 12:27N 31°35' E 121°17'9416.7
2017-Jun-21 12:26N 31°29' E 121°25'11124.4
2017-Jun-21 12:21N 31°24' E 121°36'996.7
2017-Jun-21 12:15N 31°28' E 121°26'431.6
2017-Jun-21 12:08N 31°30' E 121°23'0 0.0
2017-Jun-21 12:00N 31°30' E 121°23'185737.2
2017-Jun-21 12:00N 31°22' E 121°41'273002.1
2017-Jun-21 11:59N 31°37' E 121°15'112432.1
2017-Jun-21 11:59N 31°29' E 121°24'120.2
2017-Jun-21 11:57N 31°30' E 121°24'113.2
2017-Jun-21 11:55N 31°29' E 121°24'111803.1
2017-Jun-21 11:54N 31°24' E 121°36'26176.3
2017-Jun-21 11:45N 31°40' E 121°12'32604.8
2017-Jun-21 11:42N 31°20' E 121°42'17635.3
2017-Jun-21 11:41N 31°28' E 121°25'18105.7
2017-Jun-21 11:30N 31°18' E 121°43'211595.8
2017-Jun-21 11:29N 31°30' E 121°23'134126.8
2017-Jun-21 11:29N 31°24' E 121°36'5971.1
2017-Jun-21 11:29N 31°22' E 121°41'182462.7
2017-Jun-21 11:28N 31°30' E 121°23'157.3
2017-Jun-21 11:27N 31°31' E 121°22'4158.5
2017-Jun-21 11:26N 31°28' E 121°25'177.5
2017-Jun-21 11:25N 31°30' E 121°25'131054.8
2017-Jun-21 11:24N 31°39' E 121°14'1371.3
2017-Jun-21 11:13N 31°30' E 121°24'1886.4
2017-Jun-21 11:01N 31°42' E 121°08'437767.6
2017-Jun-21 11:00N 31°15' E 121°47'147014.9
2017-Jun-21 11:00N 31°24' E 121°36'151286.3
2017-Jun-21 10:59N 31°31' E 121°21'3266.6
2017-Jun-21 10:59N 31°30' E 121°24'6621.8
2017-Jun-21 10:58N 31°34' E 121°19'7391.3
2017-Jun-21 10:57N 31°39' E 121°13'292411.3
2017-Jun-21 10:56N 31°22' E 121°41'17344.6
2017-Jun-21 10:53N 31°30' E 121°23'2250.9
2017-Jun-21 10:53N 31°30' E 121°25'133.5
2017-Jun-21 10:50N 31°28' E 121°25'720.8
2017-Jun-21 10:30N 31°33' E 121°19'354368.2
2017-Jun-21 10:29N 31°11' E 121°51'429549.1
2017-Jun-21 10:29N 31°39' E 121°13'292033.3
2017-Jun-21 10:28N 31°22' E 121°41'161290.6
2017-Jun-21 10:27N 31°30' E 121°24'069.2
2017-Jun-21 10:27N 31°30' E 121°25'182.5
2017-Jun-21 10:26N 31°28' E 121°25'10235.4
2017-Jun-21 10:24N 31°24' E 121°36'23260.6
2017-Jun-21 10:18N 31°38' E 121°14'11963.4
2017-Jun-21 10:18N 31°30' E 121°23'724.4
2017-Jun-21 10:00N 31°35' E 121°17'4275858.1
2017-Jun-21 10:00N 31°08' E 121°55'476769.5
2017-Jun-21 10:00N 31°39' E 121°13'24639.6
2017-Jun-21 09:57N 31°24' E 121°36'5921.1
2017-Jun-21 09:57N 31°22' E 121°41'2911537.0
2017-Jun-21 09:57N 31°39' E 121°13'133404.9
2017-Jun-21 09:57N 31°30' E 121°25'2241.3
2017-Jun-21 09:56N 31°30' E 121°23'1129.5
2017-Jun-21 09:56N 31°30' E 121°24'250.0
2017-Jun-21 09:54N 31°28' E 121°25'3 7.3
2017-Jun-21 09:30N 31°30' E 121°23'12321.4
2017-Jun-21 09:28N 31°39' E 121°13'14487.2
2017-Jun-21 09:28N 31°38' E 121°15'2812421.5
2017-Jun-21 09:28N 31°22' E 121°41'5230.4
2017-Jun-21 09:27N 31°24' E 121°36'11301.7
2017-Jun-21 09:24N 31°30' E 121°24'13240.6
2017-Jun-21 09:21N 31°39' E 121°13'2470.6
2017-Jun-21 09:00N 31°24' E 121°36'242058.1
2017-Jun-21 09:00N 31°39' E 121°13'133853.6
2017-Jun-21 09:00N 31°30' E 121°24'1260.4
2017-Jun-21 08:59N 31°30' E 121°23'14522.4
2017-Jun-21 08:58N 31°40' E 121°12'3122212.5
2017-Jun-21 08:58N 31°22' E 121°41'16486.0
2017-Jun-21 08:56N 31°30' E 121°25'13164.0
2017-Jun-21 08:51N 31°39' E 121°13'15117.1
2017-Jun-21 08:43N 31°28' E 121°25'1 5.1
2017-Jun-21 08:27N 31°30' E 121°25'023.3
2017-Jun-21 08:26N 31°30' E 121°24'1629118.2
2017-Jun-21 08:26N 31°22' E 121°41'1762896.2
2017-Jun-21 08:26N 31°30' E 121°23'132063.4
2017-Jun-21 08:26N 31°24' E 121°36'24122.6
2017-Jun-21 08:14N 31°39' E 121°13'44461.6
2017-Jun-21 08:08N 31°58' E 120°27'44280.2
2017-Jun-21 07:59N 31°39' E 121°13'131711.1
2017-Jun-21 07:59N 31°30' E 121°24'16710.3
2017-Jun-21 07:57N 31°22' E 121°41'5397.5
2017-Jun-21 07:56N 31°24' E 121°36'13237.7
2017-Jun-21 07:53N 31°30' E 121°23'239.3
2017-Jun-21 07:51N 31°30' E 121°25'1 6.0
2017-Jun-21 07:37N 31°28' E 121°25'1079.3
2017-Jun-21 07:29N 31°24' E 121°36'242619.9
2017-Jun-21 07:29N 31°39' E 121°13'13228.7
2017-Jun-21 07:26N 31°30' E 121°24'221.9
2017-Jun-21 07:21N 31°28' E 121°25'1541.1
2017-Jun-21 07:21N 31°30' E 121°25'16191.0
2017-Jun-21 07:16N 31°22' E 121°41'72490.8
2017-Jun-21 07:07N 31°58' E 120°27'552534.3
2017-Jun-21 07:05N 31°30' E 121°23'114.7
2017-Jun-21 07:00N 31°30' E 121°24'111314.0
2017-Jun-21 07:00N 31°24' E 121°36'242216.8
2017-Jun-21 06:59N 31°39' E 121°13'29476.8
2017-Jun-21 06:55N 31°22' E 121°41'171032.3
2017-Jun-21 06:54N 31°30' E 121°23'555342.5
2017-Jun-21 06:54N 31°58' E 120°27'57342.9
2017-Jun-21 06:44N 31°30' E 121°25'2 7.1
2017-Jun-21 06:30N 31°30' E 121°23'2109.7
2017-Jun-21 06:29N 31°30' E 121°25'162033.2
2017-Jun-21 06:28N 31°22' E 121°41'161041.1
2017-Jun-21 06:27N 31°30' E 121°24'11184.3
2017-Jun-21 06:24N 31°24' E 121°36'24193.8
2017-Jun-21 06:16N 31°39' E 121°13'45243.8
2017-Jun-21 06:05N 31°59' E 120°26'117.5
2017-Jun-21 06:01N 31°58' E 120°27'553350.4
2017-Jun-21 06:00N 31°30' E 121°23'5611815.9
2017-Jun-21 06:00N 31°59' E 120°27'4516062.6
2017-Jun-21 06:00N 31°39' E 121°13'443216.4
2017-Jun-21 05:59N 31°58' E 120°27'723178.5
2017-Jun-21 05:58N 31°22' E 121°41'164486.5
2017-Jun-21 05:58N 31°30' E 121°24'11324.9
2017-Jun-21 05:56N 31°24' E 121°36'11237.9
2017-Jun-21 05:53N 31°30' E 121°25'1561.9
2017-Jun-21 05:38N 31°40' E 121°13'25154.0
2017-Jun-21 05:28N 31°24' E 121°36'675783.8
2017-Jun-21 05:28N 31°58' E 120°27'558594.5
2017-Jun-21 05:27N 31°30' E 121°23'17567.2
2017-Jun-21 05:26N 31°22' E 121°41'16225.2
2017-Jun-21 05:21N 31°30' E 121°24'280.0
2017-Jun-21 05:20N 31°28' E 121°25'14150.9
2017-Jun-21 05:14N 31°39' E 121°13'13106.0
2017-Jun-21 05:07N 31°30' E 121°25'57505.3
2017-Jun-21 05:00N 31°58' E 120°27'73130730.0
2017-Jun-21 05:00N 31°21' E 121°41'5227.6
2017-Jun-21 04:59N 31°24' E 121°36'132389.2
2017-Jun-21 04:58N 31°30' E 121°23'249.3
2017-Jun-21 04:56N 31°30' E 121°25'0193.1
2017-Jun-21 04:56N 31°30' E 121°24'212.3
2017-Jun-21 04:48N 31°28' E 121°25'14525.7
2017-Jun-21 04:46N 31°39' E 121°13'30113.2
2017-Jun-21 04:30N 31°20' E 121°41'172176.6
2017-Jun-21 04:29N 31°30' E 121°25'13966.2
2017-Jun-21 04:29N 31°39' E 121°13'122092.2
2017-Jun-21 04:28N 31°30' E 121°23'3148.0
2017-Jun-21 04:27N 31°28' E 121°25'10342.6
2017-Jun-21 04:25N 31°24' E 121°36'11545.5
2017-Jun-21 04:24N 31°30' E 121°24'569619.7
2017-Jun-21 04:24N 31°58' E 120°27'44111.1
2017-Jun-21 04:00N 31°39' E 121°13'304915.1
2017-Jun-21 04:00N 31°19' E 121°41'19807.6
2017-Jun-21 03:58N 31°30' E 121°23'11112.0
2017-Jun-21 03:58N 31°30' E 121°24'56933.9
2017-Jun-21 03:55N 31°58' E 120°27'6726991.2
2017-Jun-21 03:55N 31°24' E 121°36'615.1
2017-Jun-21 03:30N 31°20' E 121°41'6131.5
2017-Jun-21 03:27N 31°24' E 121°36'241463.1
2017-Jun-21 03:27N 31°39' E 121°13'12394.6
2017-Jun-21 03:25N 31°30' E 121°23'155.7
2017-Jun-21 03:23N 31°30' E 121°24'56598.6
2017-Jun-21 03:18N 31°58' E 120°27'6702585.0
2017-Jun-21 03:02N 22°19' E 114°09'67516632.9
2017-Jun-21 03:00N 31°19' E 121°41'67571423.7
2017-Jun-21 02:59N 22°19' E 114°09'67471367.3
2017-Jun-21 02:59N 31°30' E 121°23'126933.2
2017-Jun-21 02:59N 31°39' E 121°13'13898.0
2017-Jun-21 02:58N 31°30' E 121°24'11129.5
2017-Jun-21 02:52N 31°24' E 121°36'2562.5
2017-Jun-21 02:29N 31°40' E 121°14'3110023.5
2017-Jun-21 02:29N 31°20' E 121°41'17813.5
2017-Jun-21 02:27N 31°30' E 121°24'11388.7
2017-Jun-21 02:26N 31°24' E 121°36'13319.2
2017-Jun-21 02:23N 31°30' E 121°23'674606648.6
2017-Jun-21 02:23N 22°19' E 114°09'6765982.5
2017-Jun-21 02:16N 31°38' E 121°15'2894.4
2017-Jun-21 01:58N 31°20' E 121°41'199571.7
2017-Jun-21 01:58N 31°30' E 121°23'11114.3
2017-Jun-21 01:58N 31°30' E 121°24'82984.7
2017-Jun-21 01:58N 31°36' E 121°18'203055.6
2017-Jun-21 01:58N 31°24' E 121°36'25128.0
2017-Jun-21 01:46N 31°40' E 121°14'30179.5
2017-Jun-21 01:36N 31°14' E 121°30'11113.6
2017-Jun-21 01:31N 31°20' E 121°41'6921.0
2017-Jun-21 01:30N 31°24' E 121°36'11361.4
2017-Jun-21 01:28N 31°30' E 121°24'147.9
2017-Jun-21 01:27N 31°30' E 121°23'121423.9
2017-Jun-21 01:26N 31°40' E 121°14'29415.4
2017-Jun-21 01:22N 31°15' E 121°29'18288.5
2017-Jun-21 01:18N 31°32' E 121°22'430.7
2017-Jun-21 01:10N 31°28' E 121°25'20106.5
2017-Jun-21 00:59N 31°22' E 121°47'341013.4
2017-Jun-21 00:57N 31°40' E 121°14'25345.1
2017-Jun-21 00:53N 31°24' E 121°36'111287.7
2017-Jun-21 00:52N 31°30' E 121°24'17773.1
2017-Jun-21 00:51N 31°20' E 121°41'18110.9
2017-Jun-21 00:41N 31°30' E 121°23'1364.3
2017-Jun-21 00:29N 31°40' E 121°14'131120.9
2017-Jun-21 00:28N 31°30' E 121°24'11177.6
2017-Jun-21 00:24N 31°24' E 121°36'13121.0
2017-Jun-21 00:18N 31°31' E 121°22'19123.8
2017-Jun-21 00:08N 31°20' E 121°41'0 0.7
2017-Jun-20 23:58N 31°20' E 121°41'65427.1
2017-Jun-20 23:58N 31°24' E 121°36'11245.1
2017-Jun-20 23:55N 31°30' E 121°24'1475.4
2017-Jun-20 23:44N 31°40' E 121°13'1362.6
2017-Jun-20 23:31N 31°30' E 121°23'122.7
2017-Jun-20 23:29N 31°31' E 121°22'14926.1
2017-Jun-20 23:28N 31°24' E 121°36'111234.7
2017-Jun-20 23:27N 31°30' E 121°24'172580.7
2017-Jun-20 23:27N 31°20' E 121°41'189500.1
2017-Jun-20 23:27N 31°30' E 121°23'1258.6
2017-Jun-20 23:14N 31°40' E 121°14'1349.7
2017-Jun-20 22:58N 31°30' E 121°24'123140.4
2017-Jun-20 22:58N 31°39' E 121°15'11276.0
2017-Jun-20 22:55N 31°30' E 121°23'13962.9
2017-Jun-20 22:54N 31°24' E 121°36'6116.3
2017-Jun-20 22:51N 31°20' E 121°41'19620.2
2017-Jun-20 22:49N 31°31' E 121°22'330.3
2017-Jun-20 22:44N 31°30' E 121°25'1142.7
2017-Jun-20 22:29N 31°37' E 121°16'988.6
2017-Jun-20 22:23N 31°30' E 121°23'2251.4
2017-Jun-20 22:23N 31°30' E 121°25'111513.9
2017-Jun-20 22:22N 31°24' E 121°36'11678.6
2017-Jun-20 22:21N 31°30' E 121°24'17817.7
2017-Jun-20 22:20N 31°20' E 121°40'19360.6
2017-Jun-20 22:17N 31°31' E 121°22'620.3
2017-Jun-20 22:00N 31°36' E 121°18'19467.9
2017-Jun-20 21:57N 31°24' E 121°36'61329.7
2017-Jun-20 21:57N 31°20' E 121°40'171917.2
2017-Jun-20 21:57N 31°30' E 121°24'016.5
2017-Jun-20 21:55N 31°30' E 121°25'323.9
2017-Jun-20 21:49N 31°31' E 121°22'310.3
2017-Jun-20 21:29N 31°34' E 121°20'6263.8
2017-Jun-20 21:28N 31°30' E 121°24'11231.5
2017-Jun-20 21:25N 31°24' E 121°36'114106.8
2017-Jun-20 21:25N 31°29' E 121°24'2512.0
2017-Jun-20 21:24N 31°31' E 121°22'19192.3
2017-Jun-20 21:18N 31°20' E 121°40'1777.2
2017-Jun-20 21:05N 31°30' E 121°25'16190.0
2017-Jun-20 21:00N 31°20' E 121°40'5354.6
2017-Jun-20 20:59N 31°24' E 121°36'14184.2
2017-Jun-20 20:55N 31°32' E 121°22'3161.3
2017-Jun-20 20:54N 31°30' E 121°25'015.9
2017-Jun-20 20:52N 31°30' E 121°24'435.4
2017-Jun-20 20:45N 31°32' E 121°21'257.5
2017-Jun-20 20:44N 31°31' E 121°22'2 7.8
2017-Jun-20 20:30N 31°31' E 121°24'17544.2
2017-Jun-20 20:29N 31°20' E 121°40'163174.8
2017-Jun-20 20:28N 31°30' E 121°25'3605.6
2017-Jun-20 20:28N 31°31' E 121°22'14338.4
2017-Jun-20 20:26N 31°24' E 121°36'11969.9
2017-Jun-20 20:25N 31°30' E 121°24'6401.9
2017-Jun-20 20:24N 31°34' E 121°19'4 9.8
2017-Jun-20 20:00N 31°31' E 121°22'19322.0
2017-Jun-20 19:56N 31°20' E 121°40'552.6
2017-Jun-20 19:50N 31°24' E 121°36'2610213.4
2017-Jun-20 19:50N 31°40' E 121°13'437.5
2017-Jun-20 19:44N 31°37' E 121°15'11371.3
2017-Jun-20 19:42N 31°30' E 121°24'426.6
2017-Jun-20 19:34N 31°28' E 121°28'871.8
2017-Jun-20 19:28N 31°24' E 121°36'141258.0
2017-Jun-20 19:27N 31°31' E 121°22'191518.7
2017-Jun-20 19:27N 31°20' E 121°40'12224.5
2017-Jun-20 19:23N 31°27' E 121°28'4117.9
2017-Jun-20 19:21N 31°30' E 121°24'614.5
2017-Jun-20 18:56N 31°26' E 121°30'53895.2
2017-Jun-20 18:56N 31°24' E 121°36'14681.4
2017-Jun-20 18:55N 31°31' E 121°22'19249.7
2017-Jun-20 18:50N 31°20' E 121°40'16127.0
2017-Jun-20 18:43N 31°30' E 121°24'1678.0
2017-Jun-20 18:30N 31°20' E 121°40'8426.0
2017-Jun-20 18:29N 31°25' E 121°32'8194.4
2017-Jun-20 18:26N 31°30' E 121°24'11786.4
2017-Jun-20 18:25N 31°24' E 121°36'14102.9
2017-Jun-20 18:17N 31°31' E 121°22'1446.8
2017-Jun-20 18:00N 31°24' E 121°36'5847.4
2017-Jun-20 18:00N 31°20' E 121°40'16110.8
2017-Jun-20 17:51N 31°30' E 121°24'251.0
2017-Jun-20 17:48N 31°31' E 121°22'318.7
2017-Jun-20 17:40N 31°30' E 121°25'1165.6
2017-Jun-20 17:30N 31°24' E 121°36'5249.9
2017-Jun-20 17:28N 31°20' E 121°40'16136.1
2017-Jun-20 17:21N 31°30' E 121°25'328.8
2017-Jun-20 17:16N 31°31' E 121°22'225.5
2017-Jun-20 17:10N 31°30' E 121°24'0 0.0
2017-Jun-20 17:00N 31°30' E 121°24'2169.9
2017-Jun-20 17:00N 31°31' E 121°22'14961.6
2017-Jun-20 16:59N 31°24' E 121°36'5461.9
2017-Jun-20 16:58N 31°20' E 121°40'1677.0
2017-Jun-20 16:45N 31°29' E 121°24'1 3.7
2017-Jun-20 16:30N 31°30' E 121°23'176063.9
2017-Jun-20 16:30N 31°21' E 121°40'5192.6
2017-Jun-20 16:29N 31°24' E 121°36'115111.7
2017-Jun-20 16:28N 31°30' E 121°24'258.2
2017-Jun-20 16:26N 31°31' E 121°22'1838.5
2017-Jun-20 15:58N 31°22' E 121°40'16235.8
2017-Jun-20 15:54N 31°30' E 121°24'41705.1
2017-Jun-20 15:54N 31°32' E 121°21'15169.4
2017-Jun-20 15:49N 31°24' E 121°36'1752.5
2017-Jun-20 15:30N 31°33' E 121°19'21834.7
2017-Jun-20 15:28N 31°22' E 121°40'4309.9
2017-Jun-20 15:27N 31°24' E 121°36'1152.2
2017-Jun-20 15:14N 31°30' E 121°24'1663.6
2017-Jun-20 14:59N 31°22' E 121°40'466.6
2017-Jun-20 14:55N 31°24' E 121°36'11400.1
2017-Jun-20 14:54N 31°30' E 121°24'7154.8
2017-Jun-20 14:51N 31°34' E 121°18'1850.9
2017-Jun-20 14:29N 31°24' E 121°36'2039.4
2017-Jun-20 13:59N 31°36' E 121°17'24348.3
2017-Jun-20 13:55N 31°22' E 121°40'16798.6
2017-Jun-20 13:53N 31°30' E 121°24'1639.3
2017-Jun-20 13:29N 31°22' E 121°40'473.7
2017-Jun-20 13:26N 31°24' E 121°36'111955.2
2017-Jun-20 13:25N 31°30' E 121°24'1071.0
2017-Jun-20 13:17N 31°37' E 121°16'520.3
2017-Jun-20 13:01N 31°41' E 121°11'27457.7
2017-Jun-20 12:57N 31°24' E 121°36'261890.6
2017-Jun-20 12:57N 31°41' E 121°12'311773.7
2017-Jun-20 12:56N 31°22' E 121°40'16298.4
2017-Jun-20 12:52N 31°30' E 121°24'10147.8
2017-Jun-20 12:48N 31°24' E 121°35'21875.9
2017-Jun-20 12:47N 31°38' E 121°15'1 3.4
2017-Jun-20 12:30N 31°39' E 121°15'22554.4
2017-Jun-20 12:28N 31°24' E 121°35'5234.7
2017-Jun-20 12:27N 31°22' E 121°40'286604.9
2017-Jun-20 12:26N 31°38' E 121°14'112.8
2017-Jun-20 12:21N 31°39' E 121°14'13583.3
2017-Jun-20 12:19N 31°30' E 121°24'11140.6
2017-Jun-20 12:14N 31°24' E 121°36'2080.9
2017-Jun-20 12:00N 31°36' E 121°17'19600.6
2017-Jun-20 11:58N 31°24' E 121°35'101034.3
2017-Jun-20 11:57N 31°30' E 121°24'131132.1
2017-Jun-20 11:57N 31°39' E 121°13'2429398.5
2017-Jun-20 11:57N 31°24' E 121°36'4861.6
2017-Jun-20 11:56N 31°22' E 121°40'25291.0
2017-Jun-20 11:51N 31°37' E 121°16'3 9.3
2017-Jun-20 11:30N 31°35' E 121°19'2777.7
2017-Jun-20 11:30N 31°34' E 121°20'161349.7
2017-Jun-20 11:29N 31°24' E 121°36'261471.6
2017-Jun-20 11:28N 31°40' E 121°12'15863.8
2017-Jun-20 11:27N 31°30' E 121°24'101861.2
2017-Jun-20 11:27N 31°24' E 121°35'51025.7
2017-Jun-20 11:27N 31°22' E 121°40'231392.7
2017-Jun-20 11:26N 31°35' E 121°18'629.1
2017-Jun-20 11:13N 31°30' E 121°23'1 5.0
2017-Jun-20 11:00N 31°31' E 121°23'1311881.2
2017-Jun-20 11:00N 31°24' E 121°36'155365.8
2017-Jun-20 11:00N 31°33' E 121°22'1106.1
2017-Jun-20 11:00N 31°33' E 121°20'20998.6
2017-Jun-20 10:58N 31°22' E 121°40'185402.1
2017-Jun-20 10:58N 31°31' E 121°22'135.5
2017-Jun-20 10:56N 31°30' E 121°23'12886.0
2017-Jun-20 10:56N 31°24' E 121°35'1081.9
2017-Jun-20 10:48N 31°30' E 121°24'19164.8
2017-Jun-20 10:41N 31°43' E 121°08'20108.8
2017-Jun-20 10:30N 31°30' E 121°26'191469.7
2017-Jun-20 10:30N 31°42' E 121°09'1628650.2
2017-Jun-20 10:30N 31°31' E 121°23'193.0
2017-Jun-20 10:29N 31°31' E 121°24'113598.0
2017-Jun-20 10:29N 31°24' E 121°35'10995.2
2017-Jun-20 10:28N 31°30' E 121°24'161373.4
2017-Jun-20 10:28N 31°22' E 121°40'17893.7
2017-Jun-20 10:26N 31°30' E 121°23'13808.4
2017-Jun-20 10:26N 31°24' E 121°36'1468.6
2017-Jun-20 10:14N 31°31' E 121°22'627.7
2017-Jun-20 10:00N 31°28' E 121°28'6158.3
2017-Jun-20 09:58N 31°31' E 121°22'131144.2
2017-Jun-20 09:57N 31°41' E 121°12'311080.5
2017-Jun-20 09:55N 31°22' E 121°40'17372.9
2017-Jun-20 09:53N 31°30' E 121°23'142.8
2017-Jun-20 09:51N 31°30' E 121°24'10964.9
2017-Jun-20 09:50N 31°24' E 121°35'112.3
2017-Jun-20 09:44N 31°24' E 121°36'1148.6
2017-Jun-20 09:31N 31°30' E 121°24'162807.6
2017-Jun-20 09:30N 31°22' E 121°40'9828.8
2017-Jun-20 09:30N 31°26' E 121°30'22711.5
2017-Jun-20 09:28N 31°41' E 121°12'262299.1
2017-Jun-20 09:27N 31°24' E 121°35'122248.7
2017-Jun-20 09:27N 31°31' E 121°22'14682.0
2017-Jun-20 09:25N 31°24' E 121°36'13144.3
2017-Jun-20 09:20N 31°30' E 121°23'0 0.0
2017-Jun-20 09:00N 31°30' E 121°23'1223.2
2017-Jun-20 09:00N 31°30' E 121°24'162447.3
2017-Jun-20 08:59N 31°22' E 121°40'71774.9
2017-Jun-20 08:59N 31°24' E 121°32'11760.3
2017-Jun-20 08:58N 31°31' E 121°22'13209.1
2017-Jun-20 08:54N 31°41' E 121°12'26364.2
2017-Jun-20 08:50N 31°24' E 121°35'1 7.3
2017-Jun-20 08:41N 31°24' E 121°36'27151.4
2017-Jun-20 08:30N 31°41' E 121°12'266582.0
2017-Jun-20 08:30N 31°24' E 121°35'123457.2
2017-Jun-20 08:30N 31°30' E 121°23'17858.6
2017-Jun-20 08:29N 31°22' E 121°40'7166.6
2017-Jun-20 08:26N 31°25' E 121°32'337.4
2017-Jun-20 08:20N 31°24' E 121°36'11215.8
2017-Jun-20 08:17N 31°30' E 121°24'1655.5
2017-Jun-20 08:00N 31°22' E 121°40'16489.6
2017-Jun-20 07:58N 31°30' E 121°24'1672.4
2017-Jun-20 07:58N 31°30' E 121°23'13180.4
2017-Jun-20 07:54N 31°24' E 121°36'1417.6
2017-Jun-20 07:54N 31°24' E 121°35'26853.1
2017-Jun-20 07:52N 31°41' E 121°12'1373.1
2017-Jun-20 07:41N 31°31' E 121°22'0 0.0
2017-Jun-20 07:29N 31°31' E 121°22'18186.2
2017-Jun-20 07:23N 31°22' E 121°40'31951.5
2017-Jun-20 07:21N 31°41' E 121°12'26395.4
2017-Jun-20 07:17N 31°24' E 121°35'10107.6
2017-Jun-20 07:12N 31°30' E 121°24'1673.0
2017-Jun-20 06:59N 31°22' E 121°40'31976.4
2017-Jun-20 06:57N 31°41' E 121°12'16161.0
2017-Jun-20 06:51N 31°30' E 121°24'220.7
2017-Jun-20 06:45N 31°31' E 121°22'149.1
2017-Jun-20 06:43N 31°30' E 121°23'12609.8
2017-Jun-20 06:42N 31°24' E 121°35'422.4
2017-Jun-20 06:30N 31°21' E 121°38'15426.1
2017-Jun-20 06:28N 31°30' E 121°24'233.6
2017-Jun-20 06:24N 31°31' E 121°22'13921.0
2017-Jun-20 06:23N 31°41' E 121°12'26135.7
2017-Jun-20 06:12N 31°24' E 121°35'1052.9
2017-Jun-20 06:00N 31°30' E 121°24'2268.2
2017-Jun-20 06:00N 31°31' E 121°22'131490.8
2017-Jun-20 05:59N 31°23' E 121°34'128.2
2017-Jun-20 05:57N 31°24' E 121°35'12188.5
2017-Jun-20 05:53N 31°30' E 121°23'14362.7
2017-Jun-20 05:51N 31°41' E 121°12'2264.5
2017-Jun-20 05:30N 31°25' E 121°30'91314.3
2017-Jun-20 05:30N 31°31' E 121°22'131187.6
2017-Jun-20 05:29N 31°24' E 121°35'1093.2
2017-Jun-20 05:23N 31°30' E 121°24'16338.6
2017-Jun-20 05:20N 31°41' E 121°12'1339.0
2017-Jun-20 04:59N 31°31' E 121°22'5269.7
2017-Jun-20 04:58N 31°28' E 121°27'3208.5
2017-Jun-20 04:57N 31°30' E 121°24'10449.2
2017-Jun-20 04:56N 31°24' E 121°35'26155.9
2017-Jun-20 04:46N 31°41' E 121°12'14147.1
2017-Jun-20 04:40N 31°30' E 121°23'1 5.9
2017-Jun-20 04:30N 31°30' E 121°24'1112807.4
2017-Jun-20 04:30N 31°24' E 121°35'12797.6
2017-Jun-20 04:29N 31°30' E 121°23'12339.4
2017-Jun-20 04:29N 31°30' E 121°24'16508.0
2017-Jun-20 04:27N 31°41' E 121°12'13145.9
2017-Jun-20 04:22N 31°31' E 121°22'1129.4
2017-Jun-20 04:00N 31°39' E 121°14'101118.2
2017-Jun-20 03:59N 31°32' E 121°21'1166.6
2017-Jun-20 03:59N 31°31' E 121°22'13217.4
2017-Jun-20 03:55N 31°24' E 121°35'121792.9
2017-Jun-20 03:55N 31°30' E 121°22'229.3
2017-Jun-20 03:51N 31°30' E 121°24'619.1
2017-Jun-20 03:30N 31°34' E 121°19'6431.0
2017-Jun-20 03:29N 31°30' E 121°24'10511.6
2017-Jun-20 03:28N 31°24' E 121°35'201413.3
2017-Jun-20 03:27N 31°37' E 121°16'8333.2
2017-Jun-20 03:26N 31°31' E 121°22'716.3
2017-Jun-20 03:00N 31°36' E 121°17'2212.9
2017-Jun-20 03:00N 31°35' E 121°19'594.3
2017-Jun-20 02:57N 31°31' E 121°22'220.6
2017-Jun-20 02:50N 31°30' E 121°24'1086.2
2017-Jun-20 02:43N 31°24' E 121°35'2295.7
2017-Jun-20 02:29N 31°38' E 121°15'9651.3
2017-Jun-20 02:29N 31°31' E 121°22'1131.8
2017-Jun-20 02:28N 31°32' E 121°21'1424300.2
2017-Jun-20 02:28N 31°24' E 121°35'10105.9
2017-Jun-20 02:22N 31°30' E 121°24'0 1.2
2017-Jun-20 02:00N 31°30' E 121°24'013.3
2017-Jun-20 01:58N 31°30' E 121°24'10828.2
2017-Jun-20 01:57N 31°24' E 121°35'22546.4
2017-Jun-20 01:54N 31°38' E 121°14'12182.8
2017-Jun-20 01:50N 31°29' E 121°24'1 6.0
2017-Jun-20 01:36N 31°30' E 121°23'1 8.6
2017-Jun-20 01:27N 31°30' E 121°24'12217.3
2017-Jun-20 01:24N 31°38' E 121°14'2163.4
2017-Jun-20 01:04N 31°24' E 121°32'21248.1
2017-Jun-20 00:59N 31°38' E 121°14'213273.1
2017-Jun-20 00:58N 31°24' E 121°32'9448.1
2017-Jun-20 00:57N 31°30' E 121°24'212.3
2017-Jun-20 00:48N 31°28' E 121°25'1653.1
2017-Jun-20 00:30N 31°40' E 121°12'14264.9
2017-Jun-20 00:27N 31°30' E 121°24'225.7
2017-Jun-20 00:23N 31°28' E 121°25'0 0.0
2017-Jun-19 23:58N 31°28' E 121°25'2102.0
2017-Jun-19 23:57N 31°30' E 121°24'15124.3
2017-Jun-19 23:49N 31°41' E 121°12'0 1.0
2017-Jun-19 23:29N 31°40' E 121°12'15313.8
2017-Jun-19 23:26N 31°30' E 121°24'222.5
2017-Jun-19 23:21N 31°28' E 121°25'5373182481.7
2017-Jun-19 23:19N 49°23' W 123°19'5373115137.4
2017-Jun-19 23:16N 31°30' E 121°23'537319921.3
2017-Jun-19 23:00N 49°21' W 123°20'5372205751.6
2017-Jun-19 22:58N 31°39' E 121°15'10285.1
2017-Jun-19 22:56N 31°31' E 121°22'4122.4
2017-Jun-19 22:54N 31°28' E 121°25'291.9
2017-Jun-19 22:53N 31°30' E 121°24'117.8
2017-Jun-19 22:50N 31°30' E 121°23'537416619.4
2017-Jun-19 22:31N 49°19' W 123°20'53731074583.0
2017-Jun-19 22:30N 31°30' E 121°24'9295.6
2017-Jun-19 22:28N 31°37' E 121°17'7185.3
2017-Jun-19 22:26N 31°31' E 121°22'410.4
2017-Jun-19 22:00N 31°35' E 121°19'4644.3
2017-Jun-19 22:00N 31°31' E 121°22'5375879530.8
2017-Jun-19 22:00N 49°18' W 123°20'5374102364.5
2017-Jun-19 21:56N 31°30' E 121°24'1592.0
2017-Jun-19 21:46N 31°41' E 121°12'24152.6
2017-Jun-19 21:37N 31°22' E 121°30'537743996.1
2017-Jun-19 21:30N 49°20' W 123°17'5376105173.5
2017-Jun-19 21:26N 31°31' E 121°22'243.7
2017-Jun-19 21:23N 31°30' E 121°24'15355.1
2017-Jun-19 21:21N 31°41' E 121°12'537815626.6
2017-Jun-19 21:00N 49°20' W 123°13'5379160027.5
2017-Jun-19 20:58N 31°31' E 121°22'2163.3
2017-Jun-19 20:57N 31°30' E 121°24'939.2
2017-Jun-19 20:43N 31°24' E 121°33'1151.3
2017-Jun-19 20:30N 31°31' E 121°22'13271.7
2017-Jun-19 20:27N 31°41' E 121°12'15194.3
2017-Jun-19 20:22N 31°30' E 121°24'10143.8
2017-Jun-19 20:18N 31°24' E 121°34'538234414.2
2017-Jun-19 20:09N 49°18' W 123°06'538584288.7
2017-Jun-19 20:05N 31°28' E 121°25'0 0.0
2017-Jun-19 20:00N 31°28' E 121°25'17806.8
2017-Jun-19 19:59N 31°41' E 121°12'15422.9
2017-Jun-19 19:56N 31°30' E 121°24'10322.0
2017-Jun-19 19:55N 31°24' E 121°34'1263.1
2017-Jun-19 19:43N 31°31' E 121°22'0 0.0
2017-Jun-19 19:30N 31°31' E 121°22'281.7
2017-Jun-19 19:28N 31°30' E 121°24'10142.1
2017-Jun-19 19:24N 31°24' E 121°34'251476.8
2017-Jun-19 19:23N 31°41' E 121°12'1330.9
2017-Jun-19 18:58N 31°31' E 121°22'1397.2
2017-Jun-19 18:49N 31°41' E 121°12'15307.8
2017-Jun-19 18:46N 31°30' E 121°24'12344.0
2017-Jun-19 18:46N 31°30' E 121°23'039.5
2017-Jun-19 18:46N 31°30' E 121°23'1180.9
2017-Jun-19 18:37N 31°24' E 121°34'435.9
2017-Jun-19 18:30N 31°22' E 121°30'241015.0
2017-Jun-19 18:29N 31°41' E 121°12'132970.4
2017-Jun-19 18:29N 31°31' E 121°22'210.4
2017-Jun-19 18:17N 31°32' E 121°20'390.9
2017-Jun-19 18:15N 31°30' E 121°23'178.1
2017-Jun-19 18:14N 31°30' E 121°24'10254.0
2017-Jun-19 18:12N 31°24' E 121°34'1048.0
2017-Jun-19 18:00N 31°30' E 121°24'2756.9
2017-Jun-19 18:00N 31°31' E 121°22'102510.1
2017-Jun-19 17:59N 31°24' E 121°31'238.5
2017-Jun-19 17:56N 31°24' E 121°34'8398.7
2017-Jun-19 17:55N 31°28' E 121°25'367.8
2017-Jun-19 17:52N 31°30' E 121°23'515.0
2017-Jun-19 17:30N 31°27' E 121°28'5289.5
2017-Jun-19 17:29N 31°30' E 121°23'197.7
2017-Jun-19 17:28N 31°30' E 121°24'577935.9
2017-Jun-19 17:28N 31°58' E 120°26'55702.2
2017-Jun-19 17:23N 31°31' E 121°22'12100.6
2017-Jun-19 17:16N 31°24' E 121°34'1037.8
2017-Jun-19 17:00N 31°29' E 121°24'1243.3
2017-Jun-19 17:00N 31°30' E 121°24'259.8
2017-Jun-19 16:58N 31°31' E 121°22'1184.0
2017-Jun-19 16:58N 31°30' E 121°23'112172.7
2017-Jun-19 16:57N 31°38' E 121°14'22880.3
2017-Jun-19 16:56N 31°24' E 121°34'25197.5
2017-Jun-19 16:48N 31°41' E 121°12'17632.2
2017-Jun-19 16:47N 31°28' E 121°25'620.8
2017-Jun-19 16:30N 31°32' E 121°20'11166.3
2017-Jun-19 16:26N 31°41' E 121°12'14811.3
2017-Jun-19 16:25N 31°30' E 121°23'136.9
2017-Jun-19 16:24N 31°31' E 121°22'2263.1
2017-Jun-19 16:23N 31°30' E 121°24'870.9
2017-Jun-19 16:17N 31°25' E 121°31'1657.6
2017-Jun-19 16:00N 31°35' E 121°17'9986.8
2017-Jun-19 16:00N 31°41' E 121°10'22454.5
2017-Jun-19 15:57N 31°26' E 121°29'7194.8
2017-Jun-19 15:55N 31°31' E 121°22'2455.0
2017-Jun-19 15:54N 31°30' E 121°24'1 4.7
2017-Jun-19 15:38N 31°30' E 121°23'1 8.3
2017-Jun-19 15:30N 31°31' E 121°22'187897.8
2017-Jun-19 15:30N 31°43' E 121°07'81669.7
2017-Jun-19 15:30N 31°38' E 121°14'11857.8
2017-Jun-19 15:29N 31°30' E 121°23'137.1
2017-Jun-19 15:27N 31°30' E 121°24'1 6.3
2017-Jun-19 15:21N 31°29' E 121°24'1644.7
2017-Jun-19 14:59N 31°41' E 121°11'132196.1
2017-Jun-19 14:59N 31°31' E 121°22'050.5
2017-Jun-19 14:59N 31°31' E 121°22'255.1
2017-Jun-19 14:56N 31°30' E 121°24'127.9
2017-Jun-19 14:53N 31°30' E 121°23'3209.4
2017-Jun-19 14:52N 31°28' E 121°25'719.1
2017-Jun-19 14:30N 31°33' E 121°19'14427.9
2017-Jun-19 14:28N 31°42' E 121°08'17214.4
2017-Jun-19 14:24N 31°31' E 121°22'1 2.5
2017-Jun-19 13:59N 31°30' E 121°23'1021.0
2017-Jun-19 13:30N 31°38' E 121°15'11165.6
2017-Jun-19 13:26N 31°30' E 121°24'1 8.0
2017-Jun-19 13:17N 31°30' E 121°23'1322.9
2017-Jun-19 12:44N 31°39' E 121°13'13288.9
2017-Jun-19 12:41N 31°30' E 121°23'1495.2
2017-Jun-19 12:41N 31°30' E 121°24'0 0.2
2017-Jun-19 12:28N 31°30' E 121°24'14111.7
2017-Jun-19 12:21N 31°39' E 121°13'13154.4
2017-Jun-19 12:16N 31°30' E 121°23'1338.3
2017-Jun-19 11:57N 31°39' E 121°13'14468.1
2017-Jun-19 11:55N 31°30' E 121°24'294.8
2017-Jun-19 11:54N 31°28' E 121°25'3147.5
2017-Jun-19 11:52N 31°30' E 121°23'1850.3
2017-Jun-19 11:31N 31°21' E 121°41'011.5
2017-Jun-19 11:30N 31°21' E 121°41'18119.4
2017-Jun-19 11:21N 31°30' E 121°23'110.0
2017-Jun-19 11:13N 31°30' E 121°24'1152.8
2017-Jun-19 11:00N 31°24' E 121°36'119605.4
2017-Jun-19 11:00N 31°17' E 121°45'23628.1
2017-Jun-19 10:58N 31°30' E 121°23'201394.0
2017-Jun-19 10:57N 31°45' E 121°06'854.5
2017-Jun-19 10:49N 31°39' E 121°13'14607.0
2017-Jun-19 10:48N 31°30' E 121°24'2794.6
2017-Jun-19 10:30N 31°13' E 121°49'45836.3
2017-Jun-19 10:27N 31°42' E 121°09'181360.9
2017-Jun-19 10:26N 31°30' E 121°24'1178.4
2017-Jun-19 10:18N 31°24' E 121°36'111657.6
2017-Jun-19 10:17N 31°30' E 121°25'14232.2
2017-Jun-19 10:14N 31°39' E 121°13'15110.0
2017-Jun-19 10:05N 31°28' E 121°25'3461.7
2017-Jun-19 10:05N 31°30' E 121°23'13191.3
2017-Jun-19 10:01N 31°40' E 121°12'161973.6
2017-Jun-19 10:00N 31°28' E 121°25'3311.8
2017-Jun-19 09:59N 31°30' E 121°23'171.5
2017-Jun-19 09:58N 31°30' E 121°24'333172.5
2017-Jun-19 09:58N 31°09' E 121°54'21155.2
2017-Jun-19 09:49N 31°24' E 121°36'1452.1
2017-Jun-19 09:34N 31°31' E 121°22'10164.8
2017-Jun-19 09:30N 31°38' E 121°15'232658.1
2017-Jun-19 09:30N 31°24' E 121°36'261997.4
2017-Jun-19 09:29N 31°07' E 121°58'361712.1
2017-Jun-19 09:28N 31°28' E 121°25'15196.3
2017-Jun-19 09:23N 31°39' E 121°13'14490.8
2017-Jun-19 09:21N 31°30' E 121°24'217.1
2017-Jun-19 09:13N 31°31' E 121°22'731.3
2017-Jun-19 09:00N 31°37' E 121°17'111758.8
2017-Jun-19 09:00N 31°28' E 121°25'10742.5
2017-Jun-19 08:59N 31°24' E 121°36'1436.2
2017-Jun-19 08:37N 31°31' E 121°22'113.8
2017-Jun-19 08:32N 31°30' E 121°23'5143.6
2017-Jun-19 08:30N 31°34' E 121°19'8141.2
2017-Jun-19 08:27N 31°28' E 121°25'223.5
2017-Jun-19 08:22N 31°30' E 121°24'11146.5
2017-Jun-19 08:18N 31°24' E 121°36'251303.9
2017-Jun-19 08:16N 31°39' E 121°13'12391.9
2017-Jun-19 08:15N 31°31' E 121°22'1 6.5
2017-Jun-19 08:05N 31°30' E 121°23'225.3
2017-Jun-19 08:00N 31°32' E 121°22'387.6
2017-Jun-19 07:58N 31°30' E 121°24'264.5
2017-Jun-19 07:56N 31°31' E 121°22'14272.6
2017-Jun-19 07:53N 31°24' E 121°36'132662.8
2017-Jun-19 07:52N 31°30' E 121°23'428.9
2017-Jun-19 07:44N 31°32' E 121°19'7155.7
2017-Jun-19 07:42N 31°28' E 121°25'312.7
2017-Jun-19 07:30N 31°31' E 121°24'1446.1
2017-Jun-19 07:29N 31°30' E 121°23'13151.4
2017-Jun-19 07:24N 31°24' E 121°36'11208.8
2017-Jun-19 07:21N 31°30' E 121°24'2251.1
2017-Jun-19 07:21N 31°28' E 121°25'445.6
2017-Jun-19 07:16N 31°31' E 121°22'0 0.0
2017-Jun-19 07:00N 31°31' E 121°22'4206.2
2017-Jun-19 06:59N 31°28' E 121°25'259.8
2017-Jun-19 06:57N 31°30' E 121°24'165.8
2017-Jun-19 06:56N 31°30' E 121°23'131052.2
2017-Jun-19 06:56N 31°24' E 121°36'8243.8
2017-Jun-19 06:54N 31°28' E 121°28'2 5.1
2017-Jun-19 06:29N 31°27' E 121°29'563.6
2017-Jun-19 06:24N 31°30' E 121°24'114.7
2017-Jun-19 06:19N 31°30' E 121°23'1 9.2
2017-Jun-19 06:13N 31°31' E 121°22'1371.5
2017-Jun-19 06:02N 31°41' E 121°12'22541.0
2017-Jun-19 06:00N 31°25' E 121°31'102325.2
2017-Jun-19 05:59N 31°31' E 121°22'248.0
2017-Jun-19 05:57N 31°30' E 121°24'1 5.7
2017-Jun-19 05:43N 31°30' E 121°23'320.8
2017-Jun-19 05:35N 31°28' E 121°25'221.3
2017-Jun-19 05:30N 31°30' E 121°24'232.7
2017-Jun-19 05:27N 31°28' E 121°25'8225.7
2017-Jun-19 05:25N 31°25' E 121°34'12368.3
2017-Jun-19 05:23N 31°31' E 121°22'117.1
2017-Jun-19 05:19N 31°30' E 121°23'1 3.2
2017-Jun-19 05:01N 31°31' E 121°22'12197.7
2017-Jun-19 04:57N 31°25' E 121°34'82129.5
2017-Jun-19 04:57N 31°28' E 121°25'250.0
2017-Jun-19 04:55N 31°30' E 121°24'160.3
2017-Jun-19 04:53N 31°30' E 121°23'410.1
2017-Jun-19 04:32N 31°32' E 121°19'6301.6
2017-Jun-19 04:30N 31°28' E 121°25'8143.9
2017-Jun-19 04:27N 31°25' E 121°34'11218.4
2017-Jun-19 04:24N 31°30' E 121°23'4626.1
2017-Jun-19 04:24N 31°32' E 121°19'3442.6
2017-Jun-19 04:23N 31°31' E 121°22'238.9
2017-Jun-19 04:20N 31°30' E 121°24'0 0.0
2017-Jun-19 04:00N 31°30' E 121°24'2179.0
2017-Jun-19 03:59N 31°31' E 121°22'118.0
2017-Jun-19 03:55N 31°30' E 121°23'388.6
2017-Jun-19 03:54N 31°28' E 121°25'859.4
2017-Jun-19 03:45N 31°25' E 121°34'1036.5
2017-Jun-19 03:29N 31°30' E 121°24'10133.1
2017-Jun-19 03:25N 31°25' E 121°34'12713.8
2017-Jun-19 03:24N 31°31' E 121°22'1445.9
2017-Jun-19 03:24N 31°30' E 121°23'319.9
2017-Jun-19 03:15N 31°28' E 121°25'2 7.1
2017-Jun-19 03:00N 31°30' E 121°24'119.9
2017-Jun-19 02:56N 31°30' E 121°23'11429.9
2017-Jun-19 02:55N 31°25' E 121°34'14167.5
2017-Jun-19 02:50N 31°32' E 121°20'1 4.0
2017-Jun-19 02:29N 31°33' E 121°19'5199.8
2017-Jun-19 02:28N 31°30' E 121°23'11898.0
2017-Jun-19 02:27N 31°25' E 121°34'823.4
2017-Jun-19 02:06N 31°28' E 121°25'2140.3
2017-Jun-19 02:05N 31°30' E 121°24'1070.7
2017-Jun-19 01:57N 31°25' E 121°34'10216.4
2017-Jun-19 01:54N 31°30' E 121°24'2516.5
2017-Jun-19 01:54N 31°28' E 121°25'3125.5
2017-Jun-19 01:53N 31°30' E 121°23'314.3
2017-Jun-19 01:41N 31°28' E 121°25'10211.2
2017-Jun-19 01:38N 31°36' E 121°17'953.0
2017-Jun-19 01:28N 31°30' E 121°24'196.9
2017-Jun-19 01:27N 31°30' E 121°23'82604.3
2017-Jun-19 01:27N 31°36' E 121°17'111308.8
2017-Jun-19 01:27N 31°28' E 121°25'87448.4
2017-Jun-19 01:27N 31°25' E 121°34'1125.4
2017-Jun-19 01:00N 31°30' E 121°23'91762.9
2017-Jun-19 01:00N 31°37' E 121°15'12424.2
2017-Jun-19 00:58N 31°28' E 121°25'8189.8
2017-Jun-19 00:56N 31°25' E 121°34'10253.6
2017-Jun-19 00:53N 31°30' E 121°24'146.4
2017-Jun-19 00:52N 31°30' E 121°23'1129.7
2017-Jun-19 00:30N 31°38' E 121°14'12633.0
2017-Jun-19 00:29N 31°30' E 121°24'10142.6
2017-Jun-19 00:25N 31°25' E 121°34'111900.8
2017-Jun-19 00:24N 31°30' E 121°23'0 1.2
2017-Jun-19 00:07N 31°30' E 121°23'1294.3
2017-Jun-18 23:59N 31°39' E 121°13'13501.4
2017-Jun-18 23:57N 31°30' E 121°24'10227.6
2017-Jun-18 23:55N 31°25' E 121°34'11458.8
2017-Jun-18 23:53N 31°30' E 121°23'31327.2
2017-Jun-18 23:53N 31°28' E 121°25'819.7
2017-Jun-18 23:28N 31°25' E 121°34'249691.7
2017-Jun-18 23:28N 31°40' E 121°12'6125367509.2
2017-Jun-18 23:27N 33°28' W 117°42'612169516.9
2017-Jun-18 23:21N 31°30' E 121°23'118.0
2017-Jun-18 23:17N 31°30' E 121°24'612120845.7
2017-Jun-18 23:00N 33°28' W 117°42'6121106444.1
2017-Jun-18 22:56N 31°30' E 121°24'10479.8
2017-Jun-18 22:55N 31°25' E 121°34'1139.8
2017-Jun-18 22:38N 31°30' E 121°23'0 3.4
2017-Jun-18 22:32N 31°30' E 121°23'131.4
2017-Jun-18 22:30N 31°30' E 121°24'6121595511.8
2017-Jun-18 22:30N 33°28' W 117°42'6121239530.9
2017-Jun-18 22:28N 31°30' E 121°23'11251.1
2017-Jun-18 22:26N 31°25' E 121°34'1147.6
2017-Jun-18 22:12N 31°30' E 121°23'0 0.0
2017-Jun-18 22:00N 31°30' E 121°23'1127.9
2017-Jun-18 21:59N 31°30' E 121°24'125.4
2017-Jun-18 21:56N 31°30' E 121°23'6121524695.6
2017-Jun-18 21:56N 33°28' W 117°42'61164403277.2
2017-Jun-18 21:56N 31°25' E 121°34'832.7
2017-Jun-18 21:41N 31°28' E 121°25'211.0
2017-Jun-18 21:30N 31°30' E 121°24'6118379756.6
2017-Jun-18 21:29N 33°28' W 117°44'6119194946.0
2017-Jun-18 21:27N 31°30' E 121°23'11392.6
2017-Jun-18 21:26N 31°25' E 121°34'890.3
2017-Jun-18 21:20N 31°28' E 121°25'1 3.6
2017-Jun-18 21:09N 31°29' E 121°25'2332.1
2017-Jun-18 21:09N 31°30' E 121°23'612243043.7
2017-Jun-18 21:00N 33°27' W 117°41'6116458698.4
2017-Jun-18 21:00N 31°25' E 121°34'111735.5
2017-Jun-18 20:59N 31°30' E 121°23'0138.0
2017-Jun-18 20:59N 31°30' E 121°23'34632.0
2017-Jun-18 20:59N 31°28' E 121°25'223.4
2017-Jun-18 20:54N 31°30' E 121°24'2 4.5
2017-Jun-18 20:30N 31°28' E 121°25'84254.8
2017-Jun-18 20:30N 31°25' E 121°34'111464.3
2017-Jun-18 20:29N 31°30' E 121°23'1450.3
2017-Jun-18 20:29N 31°30' E 121°24'2120.5
2017-Jun-18 20:28N 31°31' E 121°22'2 3.6
2017-Jun-18 20:00N 31°32' E 121°21'5421.7
2017-Jun-18 19:59N 31°28' E 121°25'2105.3
2017-Jun-18 19:58N 31°30' E 121°24'10106.2
2017-Jun-18 19:53N 31°25' E 121°34'24312.5
2017-Jun-18 19:48N 31°40' E 121°12'14454.7
2017-Jun-18 19:46N 31°30' E 121°23'516.5
2017-Jun-18 19:30N 31°33' E 121°19'15425.7
2017-Jun-18 19:28N 31°25' E 121°34'10182.4
2017-Jun-18 19:25N 31°30' E 121°24'121.8
2017-Jun-18 19:21N 31°30' E 121°23'11101.6
2017-Jun-18 19:15N 31°38' E 121°15'1 4.6
2017-Jun-18 19:00N 31°38' E 121°16'102063.4
2017-Jun-18 18:59N 31°30' E 121°23'11185.4
2017-Jun-18 18:56N 31°25' E 121°34'1093.4
2017-Jun-18 18:50N 31°30' E 121°24'0 0.0
2017-Jun-18 18:27N 31°30' E 121°24'101251.5
2017-Jun-18 18:27N 31°25' E 121°34'11177.9
2017-Jun-18 18:23N 31°30' E 121°23'76164.3
2017-Jun-18 18:23N 31°36' E 121°18'821.0
2017-Jun-18 18:00N 31°30' E 121°24'67349.5
2017-Jun-18 18:00N 31°34' E 121°19'16769.3
2017-Jun-18 17:59N 31°25' E 121°34'11238.0
2017-Jun-18 17:56N 31°30' E 121°23'2 5.3
2017-Jun-18 17:30N 31°32' E 121°21'13503.1
2017-Jun-18 17:29N 31°25' E 121°34'1056.9
2017-Jun-18 17:18N 31°30' E 121°24'1 2.9
2017-Jun-18 16:59N 31°31' E 121°24'101388.6
2017-Jun-18 16:59N 31°25' E 121°34'101208.3
2017-Jun-18 16:58N 31°30' E 121°24'1 5.1
2017-Jun-18 16:43N 31°30' E 121°23'1149.1
2017-Jun-18 16:30N 31°25' E 121°34'10171.8
2017-Jun-18 16:26N 31°30' E 121°24'221.1
2017-Jun-18 16:21N 31°28' E 121°25'318.8
2017-Jun-18 16:12N 31°30' E 121°23'1 5.8
2017-Jun-18 15:59N 31°30' E 121°24'247.7
2017-Jun-18 15:57N 31°28' E 121°25'8496.7
2017-Jun-18 15:56N 31°25' E 121°34'1197.9
2017-Jun-18 15:49N 31°30' E 121°23'1 4.0
2017-Jun-18 15:30N 31°30' E 121°24'259.2
2017-Jun-18 15:29N 31°28' E 121°25'8172.3
2017-Jun-18 15:26N 31°25' E 121°34'0 0.0
2017-Jun-18 15:00N 31°25' E 121°34'116.3
2017-Jun-18 14:58N 31°24' E 121°34'1058.4
2017-Jun-18 14:48N 31°30' E 121°24'2197.4
2017-Jun-18 14:48N 31°28' E 121°25'3102.3
2017-Jun-18 14:46N 31°30' E 121°23'1767.3
2017-Jun-18 14:31N 31°42' E 121°09'27261.8
2017-Jun-18 14:25N 31°25' E 121°34'2559.9
2017-Jun-18 14:00N 31°41' E 121°12'17862.4
2017-Jun-18 13:59N 31°28' E 121°25'81241.4
2017-Jun-18 13:59N 31°25' E 121°34'1096.2
2017-Jun-18 13:53N 31°30' E 121°24'1 4.7
2017-Jun-18 13:36N 31°30' E 121°23'11116.8
2017-Jun-18 13:31N 31°39' E 121°14'221934.7
2017-Jun-18 13:30N 31°25' E 121°34'10421.4
2017-Jun-18 13:28N 31°30' E 121°24'268.7
2017-Jun-18 13:27N 31°28' E 121°25'3659.9
2017-Jun-18 13:27N 31°30' E 121°23'0 0.0
2017-Jun-18 13:00N 31°30' E 121°23'8189.4
2017-Jun-18 12:57N 31°37' E 121°17'111470.2
2017-Jun-18 12:57N 31°28' E 121°25'2145.0
2017-Jun-18 12:56N 31°30' E 121°24'10172.4
2017-Jun-18 12:53N 31°25' E 121°34'1642.9
2017-Jun-18 12:30N 31°34' E 121°19'5175.1
2017-Jun-18 12:29N 31°30' E 121°23'110.4
2017-Jun-18 12:22N 31°30' E 121°24'10724.8
2017-Jun-18 12:21N 31°25' E 121°34'1337.6
2017-Jun-18 12:00N 31°31' E 121°21'236.7
2017-Jun-18 11:57N 31°30' E 121°23'133.3
2017-Jun-18 11:55N 31°30' E 121°24'112699.3
2017-Jun-18 11:55N 31°23' E 121°34'224.9
2017-Jun-18 11:50N 31°25' E 121°34'1030.9
2017-Jun-18 11:30N 31°30' E 121°23'142.6
2017-Jun-18 11:29N 31°30' E 121°24'10226.1
2017-Jun-18 11:27N 31°25' E 121°34'2374.1
2017-Jun-18 11:26N 31°23' E 121°34'1276.1
2017-Jun-18 11:16N 31°30' E 121°23'1244.5
2017-Jun-18 11:00N 31°23' E 121°34'11236.8
2017-Jun-18 10:57N 31°30' E 121°24'1017751.9
2017-Jun-18 10:57N 31°25' E 121°34'11264.7
2017-Jun-18 10:54N 31°29' E 121°23'118.3
2017-Jun-18 10:51N 31°30' E 121°23'1132.0
2017-Jun-18 10:30N 31°25' E 121°34'115702.3
2017-Jun-18 10:30N 31°30' E 121°23'119.2
2017-Jun-18 10:27N 31°29' E 121°23'12775.4
2017-Jun-18 10:26N 31°23' E 121°34'11900.1
2017-Jun-18 10:25N 31°30' E 121°24'2 4.3
2017-Jun-18 10:00N 31°28' E 121°25'8250.4
2017-Jun-18 09:58N 31°25' E 121°34'11928.3
2017-Jun-18 09:57N 31°30' E 121°23'12221.9
2017-Jun-18 09:54N 31°23' E 121°34'12925.9
2017-Jun-18 09:53N 31°30' E 121°24'171.7
2017-Jun-18 09:52N 31°29' E 121°23'119.5
2017-Jun-18 09:48N 31°30' E 121°24'3805772.9
2017-Jun-18 09:44N 37°50' E 121°31'3801609.6
2017-Jun-18 09:30N 31°30' E 121°24'136.8
2017-Jun-18 09:28N 31°29' E 121°23'115.6
2017-Jun-18 09:24N 31°30' E 121°23'11190.1
2017-Jun-18 09:21N 31°25' E 121°34'38663205.5
2017-Jun-18 09:20N 37°51' E 121°29'382994.9
2017-Jun-18 08:57N 31°28' E 121°25'260.7
2017-Jun-18 08:56N 31°30' E 121°24'3814901.9
2017-Jun-18 08:51N 37°51' E 121°26'387232017.0
2017-Jun-18 08:51N 31°25' E 121°34'11246.4
2017-Jun-18 08:48N 31°30' E 121°23'1 8.8
2017-Jun-18 08:41N 31°29' E 121°23'1 6.1
2017-Jun-18 08:28N 31°30' E 121°24'11602.5
2017-Jun-18 08:28N 31°29' E 121°23'2201.3
2017-Jun-18 08:27N 31°29' E 121°25'9262.3
2017-Jun-18 08:25N 31°25' E 121°34'10178.5
2017-Jun-18 08:22N 31°30' E 121°24'163.5
2017-Jun-18 08:21N 31°30' E 121°23'1 2.6
2017-Jun-18 07:58N 31°29' E 121°23'178.2
2017-Jun-18 07:58N 31°30' E 121°23'11108.6
2017-Jun-18 07:52N 31°25' E 121°34'10115.5
2017-Jun-18 07:46N 31°30' E 121°24'111.8
2017-Jun-18 07:43N 31°30' E 121°25'1 6.2
2017-Jun-18 07:29N 31°29' E 121°23'1762.5
2017-Jun-18 07:29N 31°30' E 121°24'127.2
2017-Jun-18 07:27N 31°30' E 121°25'197.8
2017-Jun-18 07:27N 31°30' E 121°23'11132.3
2017-Jun-18 07:22N 31°25' E 121°34'514.9
2017-Jun-18 07:01N 31°22' E 121°39'0 0.0
2017-Jun-18 07:00N 31°22' E 121°39'581.5
2017-Jun-18 06:56N 31°25' E 121°34'112117.2
2017-Jun-18 06:56N 31°29' E 121°23'184.3
2017-Jun-18 06:55N 31°30' E 121°23'116.9
2017-Jun-18 06:50N 31°30' E 121°25'110.9
2017-Jun-18 06:46N 31°30' E 121°24'0 2.2
2017-Jun-18 06:36N 31°30' E 121°24'1 5.7
2017-Jun-18 06:30N 31°30' E 121°25'1151.4
2017-Jun-18 06:29N 31°29' E 121°23'161256.3
2017-Jun-18 06:29N 31°22' E 121°39'16742.9
2017-Jun-18 06:27N 31°30' E 121°23'3820.7
2017-Jun-18 06:27N 31°32' E 121°20'4225.2
2017-Jun-18 06:26N 31°30' E 121°24'103391.3
2017-Jun-18 06:26N 31°25' E 121°34'1046.6
2017-Jun-18 06:13N 31°30' E 121°24'727.9
2017-Jun-18 05:58N 31°34' E 121°18'71244.2
2017-Jun-18 05:58N 31°30' E 121°24'0697.3
2017-Jun-18 05:58N 31°30' E 121°24'10234.9
2017-Jun-18 05:55N 31°25' E 121°34'11681.8
2017-Jun-18 05:54N 31°30' E 121°23'1204.2
2017-Jun-18 05:54N 31°30' E 121°25'1 5.3
2017-Jun-18 05:38N 31°29' E 121°23'1 8.4
2017-Jun-18 05:28N 31°30' E 121°24'10226.1
2017-Jun-18 05:26N 31°24' E 121°33'11498.0
2017-Jun-18 05:24N 31°30' E 121°23'1121.9
2017-Jun-18 05:24N 31°30' E 121°24'16132.0
2017-Jun-18 05:17N 31°22' E 121°39'827.8
2017-Jun-18 05:00N 31°23' E 121°30'83121.8
2017-Jun-18 05:00N 31°22' E 121°39'1731331.6
2017-Jun-18 05:00N 31°31' E 121°22'128.8
2017-Jun-18 04:57N 31°30' E 121°23'1879.6
2017-Jun-18 04:57N 31°29' E 121°23'153.7
2017-Jun-18 04:56N 31°30' E 121°24'3882320.4
2017-Jun-18 04:46N 37°58' E 120°56'3971547.0
2017-Jun-18 04:30N 31°22' E 121°39'16399.3
2017-Jun-18 04:28N 31°29' E 121°23'41717.7
2017-Jun-18 04:28N 31°33' E 121°20'460.3
2017-Jun-18 04:24N 31°30' E 121°24'3899666.2
2017-Jun-18 04:21N 37°59' E 120°53'3894219.2
2017-Jun-18 04:16N 31°30' E 121°23'1 3.5
2017-Jun-18 03:59N 31°29' E 121°23'1614174.1
2017-Jun-18 03:59N 31°22' E 121°39'16286.4
2017-Jun-18 03:56N 31°30' E 121°24'1121.9
2017-Jun-18 03:55N 31°30' E 121°23'61341.1
2017-Jun-18 03:55N 31°35' E 121°18'1645.4
2017-Jun-18 03:34N 31°22' E 121°30'40071980.2
2017-Jun-18 03:33N 38°00' E 120°45'4018637.5
2017-Jun-18 03:30N 31°22' E 121°39'1613961.4
2017-Jun-18 03:30N 31°30' E 121°24'39258728.5
2017-Jun-18 03:30N 38°00' E 120°45'385197888.0
2017-Jun-18 03:30N 31°37' E 121°16'9701.7
2017-Jun-18 03:29N 31°29' E 121°23'928.4
2017-Jun-18 03:09N 31°22' E 121°30'4022471.0
2017-Jun-18 02:59N 38°01' E 120°40'38481335.7
2017-Jun-18 02:59N 31°38' E 121°14'27887.0
2017-Jun-18 02:57N 31°22' E 121°39'163102.5
2017-Jun-18 02:57N 31°30' E 121°24'1050.4
2017-Jun-18 02:46N 31°22' E 121°30'4031540.8
2017-Jun-18 02:30N 38°02' E 120°36'4047771.5
2017-Jun-18 02:27N 31°22' E 121°39'161382.8
2017-Jun-18 02:26N 31°29' E 121°23'15461.1
2017-Jun-18 02:24N 31°40' E 121°11'15201.9
2017-Jun-18 02:20N 31°30' E 121°24'10292.3
2017-Jun-18 02:18N 31°22' E 121°30'1036277.0
2017-Jun-18 02:18N 31°30' E 121°23'1654.6
2017-Jun-18 02:00N 31°22' E 121°39'163102.5
2017-Jun-18 02:00N 31°30' E 121°24'150.8
2017-Jun-18 01:59N 31°29' E 121°23'1 2.2
2017-Jun-18 01:32N 31°30' E 121°23'16333.7
2017-Jun-18 01:29N 31°22' E 121°39'16981.9
2017-Jun-18 01:28N 31°30' E 121°24'124.9
2017-Jun-18 01:26N 31°29' E 121°23'115.0
2017-Jun-18 01:22N 31°30' E 121°23'1 1.7
2017-Jun-18 01:00N 31°30' E 121°24'1611185.0
2017-Jun-18 01:00N 31°22' E 121°39'162699.4
2017-Jun-18 01:00N 31°29' E 121°23'1632.2
2017-Jun-18 00:30N 31°22' E 121°39'16101.5
2017-Jun-18 00:21N 31°30' E 121°24'119.9
2017-Jun-18 00:19N 31°30' E 121°23'114.8
2017-Jun-18 00:15N 31°29' E 121°23'91770.9
2017-Jun-18 00:15N 31°23' E 121°30'829.7
2017-Jun-17 23:59N 31°22' E 121°39'16573.9
2017-Jun-17 23:57N 31°30' E 121°24'10114.3
2017-Jun-17 23:52N 31°24' E 121°32'1090.0
2017-Jun-17 23:45N 31°30' E 121°23'130.4
2017-Jun-17 23:43N 31°29' E 121°23'0 0.0
2017-Jun-17 23:30N 31°29' E 121°23'164722.2
2017-Jun-17 23:30N 31°22' E 121°39'16839.2
2017-Jun-17 23:29N 31°30' E 121°24'113.5
2017-Jun-17 23:26N 31°30' E 121°23'11238.1
2017-Jun-17 23:23N 31°25' E 121°33'614.6
2017-Jun-17 23:00N 31°22' E 121°39'6499.6
2017-Jun-17 23:00N 31°25' E 121°33'111459.4
2017-Jun-17 22:59N 31°30' E 121°23'1 5.4
2017-Jun-17 22:48N 31°29' E 121°23'151.1
2017-Jun-17 22:47N 31°30' E 121°24'1 1.8
2017-Jun-17 22:27N 31°30' E 121°23'1235.6
2017-Jun-17 22:27N 31°30' E 121°24'10536.3
2017-Jun-17 22:26N 31°25' E 121°33'10209.3
2017-Jun-17 22:23N 31°29' E 121°23'0 0.0
2017-Jun-17 22:00N 31°29' E 121°23'10377.2
2017-Jun-17 21:59N 31°25' E 121°33'11188.8
2017-Jun-17 21:55N 31°30' E 121°23'130.8
2017-Jun-17 21:54N 31°30' E 121°24'21138.4
2017-Jun-17 21:45N 31°45' E 121°06'31120.1
2017-Jun-17 21:30N 31°25' E 121°33'28559.1
2017-Jun-17 21:27N 31°43' E 121°08'194448.2
2017-Jun-17 21:26N 31°29' E 121°23'127.6
2017-Jun-17 21:24N 31°30' E 121°24'1 4.0
2017-Jun-17 21:15N 31°30' E 121°23'1455.2
2017-Jun-17 21:00N 31°41' E 121°12'141416.7
2017-Jun-17 20:59N 31°30' E 121°23'153.0
2017-Jun-17 20:58N 31°29' E 121°23'101248.7
2017-Jun-17 20:58N 31°25' E 121°33'2144.4
2017-Jun-17 20:30N 31°38' E 121°15'211045.1
2017-Jun-17 20:29N 31°25' E 121°33'10323.3
2017-Jun-17 20:27N 31°29' E 121°23'113.7
2017-Jun-17 20:22N 31°30' E 121°23'1 2.2
2017-Jun-17 20:06N 31°30' E 121°24'772.7
2017-Jun-17 20:00N 31°35' E 121°18'7173.0
2017-Jun-17 19:58N 31°30' E 121°24'114.0
2017-Jun-17 19:53N 31°29' E 121°23'1 5.0
2017-Jun-17 19:42N 31°30' E 121°23'0 0.0
2017-Jun-17 19:30N 31°30' E 121°23'170.8
2017-Jun-17 19:30N 31°30' E 121°24'31420.4
2017-Jun-17 19:30N 31°32' E 121°21'1386.1
2017-Jun-17 19:21N 31°25' E 121°33'10139.1
2017-Jun-17 19:16N 31°29' E 121°23'0 0.0
2017-Jun-17 19:00N 31°29' E 121°23'177.6
2017-Jun-17 18:59N 31°30' E 121°23'  
Track history (hours):
 
Tides and Currents Weather Stations Pressure Air Temp Water Temp Dewpoint Dewpoint Depression Visibility Wind Speed Wind Dir Waves Ship Positions

Su Yang Bo 001

Last reported at 2017-Jun-27 18:58 UTC. Time now 2017-Jun-27 19:10 UTC.
Position N 31°40' E 121°13'.

Length 50 m.

Type: Towing. MMSI: 200002069.

Date/timePositionNaut miles runAvg speedWind from/ knotsBaromVisibWave heightAir tempDewpointWater temp
2017-Jun-27 18:58N 31°40' E 121°13'0162.0
2017-Jun-27 18:58N 31°40' E 121°13'032.4
2017-Jun-27 18:57N 31°40' E 121°14'025.9
2017-Jun-27 18:57N 31°40' E 121°14'141645.7
2017-Jun-27 18:56N 31°30' E 121°25'11872.2
2017-Jun-27 18:55N 31°24' E 121°36'10129.9
2017-Jun-27 18:51N 31°15' E 121°31'2982.5
2017-Jun-27 18:30N 31°40' E 121°14'4579.7
2017-Jun-27 18:29N 31°42' E 121°10'291607.9
2017-Jun-27 18:28N 31°24' E 121°36'25628.2
2017-Jun-27 18:26N 31°40' E 121°13'151374.3
2017-Jun-27 18:25N 31°30' E 121°25'1535.2
2017-Jun-27 18:01N 31°40' E 121°13'4114.9
2017-Jun-27 17:59N 31°42' E 121°10'18918.1
2017-Jun-27 17:57N 31°30' E 121°25'14629.8
2017-Jun-27 17:56N 31°40' E 121°14'25843.0
2017-Jun-27 17:54N 31°24' E 121°36'25114.6
2017-Jun-27 17:41N 31°40' E 121°14'0 1.3
2017-Jun-27 17:28N 31°40' E 121°14'1410203.4
2017-Jun-27 17:28N 31°30' E 121°25'185420.8
2017-Jun-27 17:27N 31°42' E 121°10'29619.0
2017-Jun-27 17:25N 31°24' E 121°36'251761.1
2017-Jun-27 17:24N 31°40' E 121°13'0 1.5
2017-Jun-27 17:08N 31°40' E 121°14'0 2.6
2017-Jun-27 16:59N 31°40' E 121°13'14273.1
2017-Jun-27 16:56N 31°30' E 121°25'11239.9
2017-Jun-27 16:54N 31°24' E 121°36'25538.7
2017-Jun-27 16:51N 31°40' E 121°14'0 7.1
2017-Jun-27 16:48N 31°40' E 121°14'14259.5
2017-Jun-27 16:45N 31°30' E 121°25'1863.8
2017-Jun-27 16:28N 31°42' E 121°10'18699.9
2017-Jun-27 16:27N 31°29' E 121°25'14301.2
2017-Jun-27 16:24N 31°40' E 121°14'25135.6
2017-Jun-27 16:13N 31°24' E 121°36'25285.3
2017-Jun-27 16:08N 31°40' E 121°13'0218.0
2017-Jun-27 16:08N 31°40' E 121°14'22241.3
2017-Jun-27 16:02N 31°24' E 121°31'22505.6
2017-Jun-27 15:59N 31°40' E 121°14'251754.4
2017-Jun-27 15:59N 31°24' E 121°36'41689.2
2017-Jun-27 15:58N 31°24' E 121°31'23339.9
2017-Jun-27 15:54N 31°40' E 121°13'1 7.6
2017-Jun-27 15:49N 31°40' E 121°14'14101.6
2017-Jun-27 15:40N 31°29' E 121°25'18352.3
2017-Jun-27 15:37N 31°42' E 121°10'513842616.1
2017-Jun-27 15:30N 58°51' E 005°46'51426170815.9
2017-Jun-27 15:30N 31°40' E 121°14'142389.3
2017-Jun-27 15:30N 31°30' E 121°25'11176.5
2017-Jun-27 15:26N 31°24' E 121°36'11194.1
2017-Jun-27 15:23N 31°29' E 121°25'15361.3
2017-Jun-27 15:20N 31°40' E 121°14'011.2
2017-Jun-27 15:18N 31°40' E 121°13'3285.7
2017-Jun-27 15:17N 31°42' E 121°10'478.3
2017-Jun-27 15:15N 31°40' E 121°13'532622269.5
2017-Jun-27 15:00N 44°06' E 009°52'5322304113.2
2017-Jun-27 14:59N 31°42' E 121°10'181086.4
2017-Jun-27 14:58N 31°29' E 121°25'112003.9
2017-Jun-27 14:58N 31°24' E 121°36'11715.7
2017-Jun-27 14:57N 31°30' E 121°25'14826.6
2017-Jun-27 14:56N 31°40' E 121°14'0 7.8
2017-Jun-27 14:54N 31°40' E 121°14'152.4
2017-Jun-27 14:53N 31°40' E 121°13'2555.7
2017-Jun-27 14:26N 31°24' E 121°36'1196.7
2017-Jun-27 14:19N 31°30' E 121°25'15236.9
2017-Jun-27 14:15N 31°40' E 121°13'0 1.2
2017-Jun-27 13:55N 31°40' E 121°14'155235.6
2017-Jun-27 13:55N 31°29' E 121°25'1489.8
2017-Jun-27 13:46N 31°40' E 121°14'9807.7
2017-Jun-27 13:45N 31°33' E 121°19'624.4
2017-Jun-27 13:30N 31°29' E 121°25'152686.2
2017-Jun-27 13:30N 31°40' E 121°13'015.8
2017-Jun-27 13:29N 31°40' E 121°14'142328.8
2017-Jun-27 13:28N 31°30' E 121°25'1816008.5
2017-Jun-27 13:28N 31°42' E 121°10'4507.9
2017-Jun-27 13:28N 31°40' E 121°14'255531.2
2017-Jun-27 13:27N 31°24' E 121°36'2554.2
2017-Jun-27 13:00N 31°40' E 121°14'011.2
2017-Jun-27 12:58N 31°40' E 121°13'255346.5
2017-Jun-27 12:58N 31°24' E 121°36'254657.1
2017-Jun-27 12:57N 31°40' E 121°14'14254.0
2017-Jun-27 12:54N 31°29' E 121°25'0 5.7
2017-Jun-27 12:50N 31°30' E 121°25'1544.2
2017-Jun-27 12:30N 31°40' E 121°13'251356.4
2017-Jun-27 12:29N 31°24' E 121°36'2514745.2
2017-Jun-27 12:29N 31°40' E 121°14'14201.5
2017-Jun-27 12:25N 31°30' E 121°25'0 8.6
2017-Jun-27 12:22N 31°29' E 121°25'1580.8
2017-Jun-27 12:11N 31°40' E 121°14'24211.3
2017-Jun-27 12:05N 31°24' E 121°34'220.3
2017-Jun-27 12:00N 31°24' E 121°36'11139.0
2017-Jun-27 11:55N 31°29' E 121°25'151277.0
2017-Jun-27 11:55N 31°40' E 121°14'014.4
2017-Jun-27 11:53N 31°40' E 121°14'111.1
2017-Jun-27 11:50N 31°40' E 121°13'25454.2
2017-Jun-27 11:46N 31°24' E 121°36'2594.3
2017-Jun-27 11:30N 31°40' E 121°14'251569.8
2017-Jun-27 11:29N 31°24' E 121°36'25431.6
2017-Jun-27 11:26N 31°40' E 121°14'14243.1
2017-Jun-27 11:23N 31°29' E 121°25'012.8
2017-Jun-27 11:21N 31°30' E 121°25'151877.9
2017-Jun-27 11:20N 31°40' E 121°13'29153.2
2017-Jun-27 11:09N 31°21' E 121°39'1 5.4
2017-Jun-27 10:59N 31°21' E 121°40'15628.2
2017-Jun-27 10:57N 31°29' E 121°25'11976.5
2017-Jun-27 10:57N 31°24' E 121°36'25324.5
2017-Jun-27 10:52N 31°40' E 121°13'046.3
2017-Jun-27 10:51N 31°40' E 121°14'0 8.0
2017-Jun-27 10:48N 31°40' E 121°13'1 8.5
2017-Jun-27 10:45N 31°40' E 121°14'25112.5
2017-Jun-27 10:31N 31°24' E 121°36'7373.3
2017-Jun-27 10:30N 31°19' E 121°42'74044.6
2017-Jun-27 10:30N 31°24' E 121°36'251373.0
2017-Jun-27 10:29N 31°40' E 121°14'254212.3
2017-Jun-27 10:29N 31°24' E 121°36'25979.0
2017-Jun-27 10:27N 31°40' E 121°13'15218.9
2017-Jun-27 10:23N 31°29' E 121°25'155234.1
2017-Jun-27 10:23N 31°40' E 121°14'1443.8
2017-Jun-27 10:04N 31°30' E 121°25'20355.3
2017-Jun-27 10:00N 31°18' E 121°44'203747.8
2017-Jun-27 10:00N 31°29' E 121°25'1552777.8
2017-Jun-27 10:00N 31°40' E 121°13'254130.4
2017-Jun-27 09:59N 31°24' E 121°36'252054.6
2017-Jun-27 09:59N 31°40' E 121°14'254978.8
2017-Jun-27 09:58N 31°24' E 121°36'11418.9
2017-Jun-27 09:57N 31°30' E 121°25'14986.2
2017-Jun-27 09:56N 31°40' E 121°14'0 0.7
2017-Jun-27 09:43N 31°40' E 121°14'36172.5
2017-Jun-27 09:30N 31°16' E 121°46'22528.1
2017-Jun-27 09:28N 31°30' E 121°25'13619.3
2017-Jun-27 09:27N 31°39' E 121°14'5595.7
2017-Jun-27 09:26N 31°42' E 121°10'18401.2
2017-Jun-27 09:23N 31°29' E 121°25'11362.8
2017-Jun-27 09:22N 31°24' E 121°36'25144.1
2017-Jun-27 09:11N 31°40' E 121°14'25389.7
2017-Jun-27 09:07N 31°24' E 121°36'535646015.4
2017-Jun-27 09:00N 44°06' E 009°52'53262396793.9
2017-Jun-27 09:00N 31°40' E 121°14'402452.7
2017-Jun-27 08:59N 31°14' E 121°48'351171.3
2017-Jun-27 08:58N 31°36' E 121°17'201989.5
2017-Jun-27 08:57N 31°24' E 121°36'0 3.2
2017-Jun-27 08:53N 31°24' E 121°36'293549.6
2017-Jun-27 08:52N 31°42' E 121°10'18175.3
2017-Jun-27 08:46N 31°30' E 121°25'14560.1
2017-Jun-27 08:45N 31°40' E 121°14'1 9.3
2017-Jun-27 08:41N 31°40' E 121°13'14310.4
2017-Jun-27 08:39N 31°29' E 121°25'28204.6
2017-Jun-27 08:30N 31°12' E 121°50'1720660.7
2017-Jun-27 08:30N 31°24' E 121°36'176162.6
2017-Jun-27 08:30N 31°34' E 121°20'51264.2
2017-Jun-27 08:30N 31°30' E 121°23'1104.1
2017-Jun-27 08:29N 31°30' E 121°25'14606.8
2017-Jun-27 08:28N 31°40' E 121°14'120.1
2017-Jun-27 08:26N 31°40' E 121°13'25325.4
2017-Jun-27 08:22N 31°24' E 121°36'329.4
2017-Jun-27 08:14N 31°21' E 121°38'32232.4
2017-Jun-27 08:06N 31°42' E 121°10'4124.1
2017-Jun-27 08:04N 31°40' E 121°14'334.9
2017-Jun-27 08:00N 31°38' E 121°15'94219.1
2017-Jun-27 07:59N 31°31' E 121°23'131518.8
2017-Jun-27 07:59N 31°24' E 121°36'156921.7
2017-Jun-27 07:59N 31°32' E 121°21'101479.8
2017-Jun-27 07:58N 31°40' E 121°13'463603.0
2017-Jun-27 07:58N 31°09' E 121°53'504464.4
2017-Jun-27 07:57N 31°42' E 121°10'29682.5
2017-Jun-27 07:54N 31°24' E 121°36'25649.7
2017-Jun-27 07:52N 31°40' E 121°14'14474.7
2017-Jun-27 07:50N 31°30' E 121°24'1852.5
2017-Jun-27 07:30N 31°42' E 121°10'295455.1
2017-Jun-27 07:30N 31°24' E 121°36'035.3
2017-Jun-27 07:30N 31°24' E 121°36'1922920.6
2017-Jun-27 07:30N 31°36' E 121°18'61962.4
2017-Jun-27 07:29N 31°40' E 121°13'164223.6
2017-Jun-27 07:29N 31°29' E 121°27'91998.4
2017-Jun-27 07:29N 31°34' E 121°19'422729.1
2017-Jun-27 07:28N 31°07' E 121°57'36182.6
2017-Jun-27 07:16N 31°30' E 121°25'141446.5
2017-Jun-27 07:16N 31°40' E 121°14'33397.4
2017-Jun-27 07:11N 31°10' E 121°28'20177.3
2017-Jun-27 07:04N 31°30' E 121°25'8144.9
2017-Jun-27 07:01N 31°35' E 121°17'3252.4
2017-Jun-27 07:00N 31°33' E 121°20'167196.2
2017-Jun-27 07:00N 31°24' E 121°36'11197.8
2017-Jun-27 06:56N 31°30' E 121°25'182607.3
2017-Jun-27 06:56N 31°42' E 121°10'291502.1
2017-Jun-27 06:55N 31°24' E 121°36'25201.5
2017-Jun-27 06:47N 31°40' E 121°14'14559.2
2017-Jun-27 06:46N 31°30' E 121°25'14301.7
2017-Jun-27 06:43N 31°40' E 121°13'315.0
2017-Jun-27 06:29N 31°37' E 121°16'116695.2
2017-Jun-27 06:29N 31°30' E 121°25'11489.2
2017-Jun-27 06:28N 31°24' E 121°36'13880.2
2017-Jun-27 06:27N 31°31' E 121°24'13570.0
2017-Jun-27 06:26N 31°24' E 121°36'291009.3
2017-Jun-27 06:24N 31°42' E 121°10'438.4
2017-Jun-27 06:18N 31°40' E 121°13'1447.8
2017-Jun-27 06:00N 31°30' E 121°25'226.6
2017-Jun-27 05:56N 31°29' E 121°27'91184.7
2017-Jun-27 05:56N 31°24' E 121°36'111938.0
2017-Jun-27 05:56N 31°15' E 121°29'11563.8
2017-Jun-27 05:54N 31°24' E 121°36'296851.7
2017-Jun-27 05:54N 31°42' E 121°10'1832.0
2017-Jun-27 05:20N 31°30' E 121°25'6292.7
2017-Jun-27 05:19N 31°26' E 121°30'2097.1
2017-Jun-27 05:07N 31°40' E 121°13'25846.2
2017-Jun-27 05:05N 31°24' E 121°36'25376.2
2017-Jun-27 05:01N 31°40' E 121°14'232201.7
2017-Jun-27 05:00N 31°25' E 121°33'81350.2
2017-Jun-27 05:00N 31°30' E 121°25'1139149.9
2017-Jun-27 05:00N 31°24' E 121°36'030.3
2017-Jun-27 04:59N 31°24' E 121°36'11131.4
2017-Jun-27 04:54N 31°30' E 121°25'14106.7
2017-Jun-27 04:46N 31°40' E 121°13'014.5
2017-Jun-27 04:45N 31°40' E 121°14'26107.1
2017-Jun-27 04:30N 31°23' E 121°36'146.8
2017-Jun-27 04:29N 31°24' E 121°36'3173.2
2017-Jun-27 04:28N 31°21' E 121°38'14528.7
2017-Jun-27 04:26N 31°29' E 121°25'11143.1
2017-Jun-27 04:22N 31°24' E 121°36'25733.6
2017-Jun-27 04:20N 31°40' E 121°14'0 8.1
2017-Jun-27 04:17N 31°40' E 121°13'29105.5
2017-Jun-27 04:00N 31°22' E 121°39'3924.6
2017-Jun-27 04:00N 31°24' E 121°36'252734.8
2017-Jun-27 04:00N 31°40' E 121°14'25505.7
2017-Jun-27 03:57N 31°24' E 121°36'11125.7
2017-Jun-27 03:52N 31°29' E 121°25'152630.1
2017-Jun-27 03:51N 31°40' E 121°13'2970.6
2017-Jun-27 03:27N 31°22' E 121°40'456.8
2017-Jun-27 03:23N 31°24' E 121°36'25255.8
2017-Jun-27 03:17N 31°40' E 121°14'15616.0
2017-Jun-27 03:15N 31°29' E 121°25'15279.8
2017-Jun-27 03:12N 31°40' E 121°13'2530237.9
2017-Jun-27 03:12N 31°24' E 121°36'1155.6
2017-Jun-27 03:00N 31°29' E 121°25'11306.0
2017-Jun-27 02:58N 31°24' E 121°36'4135.7
2017-Jun-27 02:57N 31°22' E 121°40'298638.9
2017-Jun-27 02:57N 31°40' E 121°14'0 7.3
2017-Jun-27 02:53N 31°40' E 121°13'251033.7
2017-Jun-27 02:51N 31°24' E 121°36'11103.2
2017-Jun-27 02:45N 31°30' E 121°25'2 8.0
2017-Jun-27 02:33N 31°28' E 121°26'16329.0
2017-Jun-27 02:30N 31°40' E 121°14'254300.2
2017-Jun-27 02:30N 31°24' E 121°36'3153.1
2017-Jun-27 02:29N 31°21' E 121°38'14618.8
2017-Jun-27 02:27N 31°29' E 121°25'151412.9
2017-Jun-27 02:27N 31°22' E 121°40'4242.0
2017-Jun-27 02:26N 31°24' E 121°36'25433.1
2017-Jun-27 02:22N 31°40' E 121°13'14108.6
2017-Jun-27 02:15N 31°30' E 121°24'13343.3
2017-Jun-27 02:15N 31°30' E 121°25'1145.1
2017-Jun-27 02:00N 31°24' E 121°36'3136.2
2017-Jun-27 01:59N 31°21' E 121°38'33076.0
2017-Jun-27 01:58N 31°24' E 121°36'4710.0
2017-Jun-27 01:58N 31°22' E 121°40'15297.2
2017-Jun-27 01:55N 31°29' E 121°25'15218.2
2017-Jun-27 01:51N 31°40' E 121°13'018.0
2017-Jun-27 01:50N 31°40' E 121°14'14368.5
2017-Jun-27 01:47N 31°30' E 121°25'1136.9
2017-Jun-27 01:30N 31°24' E 121°36'1119133.0
2017-Jun-27 01:30N 31°29' E 121°25'1119429.4
2017-Jun-27 01:29N 31°24' E 121°36'3552.4
2017-Jun-27 01:29N 31°21' E 121°38'235.8
2017-Jun-27 01:26N 31°22' E 121°40'15231.9
2017-Jun-27 01:22N 31°30' E 121°25'853.8
2017-Jun-27 01:13N 31°35' E 121°18'677.0
2017-Jun-27 01:08N 31°40' E 121°13'16108.6
2017-Jun-27 00:59N 31°29' E 121°26'1377.5
2017-Jun-27 00:59N 31°29' E 121°25'156542.6
2017-Jun-27 00:59N 31°40' E 121°14'25934.0
2017-Jun-27 00:58N 31°24' E 121°36'253753.6
2017-Jun-27 00:57N 31°40' E 121°13'283068.4
2017-Jun-27 00:57N 31°21' E 121°38'311599.8
2017-Jun-27 00:57N 31°24' E 121°36'4111.2
2017-Jun-27 00:55N 31°22' E 121°40'1666.3
2017-Jun-27 00:40N 31°30' E 121°23'1384.4
2017-Jun-27 00:31N 31°40' E 121°13'283375.2
2017-Jun-27 00:30N 31°21' E 121°38'161691.8
2017-Jun-27 00:29N 31°30' E 121°23'17257.0
2017-Jun-27 00:25N 31°22' E 121°40'4244.5
2017-Jun-27 00:25N 31°24' E 121°36'29495.1
2017-Jun-27 00:21N 31°42' E 121°10'29681.1
2017-Jun-27 00:19N 31°24' E 121°36'16115.6
2017-Jun-27 00:10N 31°32' E 121°20'0 1.2
2017-Jun-27 00:01N 31°32' E 121°20'201291.7
2017-Jun-27 00:00N 31°22' E 121°40'4344.9
2017-Jun-26 23:59N 31°24' E 121°36'3414.3
2017-Jun-26 23:58N 31°21' E 121°38'3219.0
2017-Jun-26 23:58N 31°24' E 121°36'25372.2
2017-Jun-26 23:54N 31°40' E 121°13'771.6
2017-Jun-26 23:48N 31°35' E 121°18'876.3
2017-Jun-26 23:42N 31°29' E 121°25'14367.0
2017-Jun-26 23:39N 31°40' E 121°14'29178.8
2017-Jun-26 23:30N 31°22' E 121°40'4373.6
2017-Jun-26 23:29N 31°24' E 121°36'010.0
2017-Jun-26 23:28N 31°24' E 121°36'36181.1
2017-Jun-26 23:28N 31°21' E 121°38'248659.3
2017-Jun-26 23:27N 31°36' E 121°16'10670.3
2017-Jun-26 23:27N 31°29' E 121°25'9473.3
2017-Jun-26 23:25N 31°36' E 121°17'547.9
2017-Jun-26 23:19N 31°40' E 121°14'0 2.1
2017-Jun-26 23:07N 31°40' E 121°13'29252.1
2017-Jun-26 23:00N 31°20' E 121°39'4995.2
2017-Jun-26 23:00N 31°24' E 121°36'3224.8
2017-Jun-26 22:59N 31°21' E 121°38'262780.0
2017-Jun-26 22:58N 31°38' E 121°14'287.4
2017-Jun-26 22:57N 31°40' E 121°13'25708.8
2017-Jun-26 22:55N 31°24' E 121°36'1168.1
2017-Jun-26 22:45N 31°30' E 121°25'0 3.6
2017-Jun-26 22:40N 31°29' E 121°25'0 0.0
2017-Jun-26 22:30N 31°29' E 121°25'1416361.9
2017-Jun-26 22:29N 31°21' E 121°38'367.9
2017-Jun-26 22:26N 31°24' E 121°36'43184.7
2017-Jun-26 22:26N 31°20' E 121°39'334.9
2017-Jun-26 22:21N 31°22' E 121°36'12143.3
2017-Jun-26 22:16N 31°30' E 121°25'1139.9
2017-Jun-26 22:00N 31°24' E 121°36'111825.3
2017-Jun-26 21:59N 31°29' E 121°25'127045.7
2017-Jun-26 21:59N 31°22' E 121°36'2135.2
2017-Jun-26 21:58N 31°21' E 121°38'130.8
2017-Jun-26 21:56N 31°20' E 121°39'1589.7
2017-Jun-26 21:46N 31°30' E 121°25'14936.5
2017-Jun-26 21:45N 31°40' E 121°13'0 3.9
2017-Jun-26 21:38N 31°40' E 121°14'28207.7
2017-Jun-26 21:30N 31°21' E 121°38'281078.1
2017-Jun-26 21:29N 31°40' E 121°13'142573.7
2017-Jun-26 21:28N 31°30' E 121°25'095.0
2017-Jun-26 21:28N 31°29' E 121°25'15339.4
2017-Jun-26 21:26N 31°20' E 121°39'464.2
2017-Jun-26 21:21N 31°24' E 121°36'1129.9
2017-Jun-26 21:00N 31°30' E 121°25'0 9.5
2017-Jun-26 20:58N 31°30' E 121°25'15862.8
2017-Jun-26 20:57N 31°20' E 121°39'1714.5
2017-Jun-26 20:57N 31°21' E 121°38'3149.2
2017-Jun-26 20:56N 31°24' E 121°36'25459.9
2017-Jun-26 20:52N 31°40' E 121°13'2566.8
2017-Jun-26 20:30N 31°24' E 121°36'3652.7
2017-Jun-26 20:29N 31°21' E 121°38'1178.2
2017-Jun-26 20:29N 31°20' E 121°39'15541.6
2017-Jun-26 20:27N 31°30' E 121°25'1123.0
2017-Jun-26 19:59N 31°24' E 121°36'4154.9
2017-Jun-26 19:58N 31°20' E 121°39'1329.8
2017-Jun-26 19:58N 31°21' E 121°38'289207.9
2017-Jun-26 19:57N 31°40' E 121°13'141103.8
2017-Jun-26 19:57N 31°30' E 121°25'1124.7
2017-Jun-26 19:30N 31°24' E 121°36'31236.2
2017-Jun-26 19:30N 31°21' E 121°38'282055.8
2017-Jun-26 19:29N 31°39' E 121°13'295243.9
2017-Jun-26 19:29N 31°20' E 121°39'15316.4
2017-Jun-26 19:26N 31°30' E 121°25'1431.3
2017-Jun-26 19:00N 31°21' E 121°38'398.1
2017-Jun-26 18:58N 31°24' E 121°36'4263.1
2017-Jun-26 18:57N 31°20' E 121°39'296221.7
2017-Jun-26 18:56N 31°39' E 121°13'14310.2
2017-Jun-26 18:54N 31°30' E 121°25'1537.6
2017-Jun-26 18:30N 31°20' E 121°39'15632.6
2017-Jun-26 18:28N 31°30' E 121°25'11244.6
2017-Jun-26 18:26N 31°24' E 121°36'3733.1
2017-Jun-26 18:25N 31°21' E 121°38'29280.4
2017-Jun-26 18:19N 31°41' E 121°13'1 3.6
2017-Jun-26 18:09N 31°40' E 121°13'25174.8
2017-Jun-26 18:00N 31°24' E 121°36'32488.6
2017-Jun-26 18:00N 31°21' E 121°38'1179.0
2017-Jun-26 18:00N 31°20' E 121°39'302195.1
2017-Jun-26 17:59N 31°41' E 121°13'116.0
2017-Jun-26 17:57N 31°40' E 121°13'267.3
2017-Jun-26 17:55N 31°41' E 121°11'144.7
2017-Jun-26 17:54N 31°41' E 121°10'171923.3
2017-Jun-26 17:53N 31°30' E 121°25'16452.1
2017-Jun-26 17:51N 31°41' E 121°11'2 6.2
2017-Jun-26 17:30N 31°39' E 121°13'1450254.0
2017-Jun-26 17:30N 31°30' E 121°25'121138.7
2017-Jun-26 17:30N 31°38' E 121°15'231443.7
2017-Jun-26 17:29N 31°24' E 121°36'3168.2
2017-Jun-26 17:27N 31°21' E 121°38'286763.4
2017-Jun-26 17:27N 31°40' E 121°13'281.2
2017-Jun-26 17:26N 31°39' E 121°14'28705.4
2017-Jun-26 17:24N 31°20' E 121°39'30193.8
2017-Jun-26 17:14N 31°41' E 121°13'624.3
2017-Jun-26 17:00N 31°36' E 121°17'231278.0
2017-Jun-26 16:59N 31°21' E 121°38'14971.8
2017-Jun-26 16:58N 31°30' E 121°25'81549.7
2017-Jun-26 16:58N 31°35' E 121°18'234078.4
2017-Jun-26 16:58N 31°20' E 121°39'24798.7
2017-Jun-26 16:56N 31°36' E 121°17'5277.8
2017-Jun-26 16:55N 31°40' E 121°13'255293.2
2017-Jun-26 16:55N 31°24' E 121°36'26178.1
2017-Jun-26 16:46N 31°41' E 121°13'15171.6
2017-Jun-26 16:41N 31°30' E 121°25'1482.6
2017-Jun-26 16:30N 31°40' E 121°13'83555.2
2017-Jun-26 16:30N 31°34' E 121°19'3209.5
2017-Jun-26 16:30N 31°32' E 121°21'182524.3
2017-Jun-26 16:29N 31°21' E 121°38'1416520.7
2017-Jun-26 16:29N 31°30' E 121°25'53862.5
2017-Jun-26 16:29N 31°33' E 121°20'20624.4
2017-Jun-26 16:27N 31°20' E 121°39'15346.8
2017-Jun-26 16:24N 31°30' E 121°25'11281.7
2017-Jun-26 16:22N 31°24' E 121°36'1029.2
2017-Jun-26 16:00N 31°29' E 121°25'31803.3
2017-Jun-26 16:00N 31°31' E 121°24'13960.5
2017-Jun-26 16:00N 31°24' E 121°36'147029.2
2017-Jun-26 15:59N 31°32' E 121°23'171403.6
2017-Jun-26 15:59N 31°21' E 121°38'123.6
2017-Jun-26 15:56N 31°20' E 121°39'292450.3
2017-Jun-26 15:55N 31°40' E 121°13'141481.3
2017-Jun-26 15:54N 31°30' E 121°25'12368.8
2017-Jun-26 15:53N 31°22' E 121°36'1288.7
2017-Jun-26 15:44N 31°30' E 121°25'1577.5
2017-Jun-26 15:33N 31°40' E 121°13'15257.0
2017-Jun-26 15:29N 31°30' E 121°26'15532.1
2017-Jun-26 15:28N 31°20' E 121°39'1425139.8
2017-Jun-26 15:28N 31°28' E 121°25'136576.4
2017-Jun-26 15:28N 31°21' E 121°38'281840.5
2017-Jun-26 15:27N 31°40' E 121°13'121.1
2017-Jun-26 15:25N 31°40' E 121°13'151274.3
2017-Jun-26 15:24N 31°30' E 121°25'021.6
2017-Jun-26 15:23N 31°29' E 121°25'11169.8
2017-Jun-26 15:19N 31°24' E 121°36'58213.9
2017-Jun-26 15:03N 32°02' E 120°45'479340.2
2017-Jun-26 15:03N 31°30' E 121°25'11274.9
2017-Jun-26 15:01N 31°24' E 121°36'2613126.7
2017-Jun-26 15:00N 31°40' E 121°13'3211540.8
2017-Jun-26 15:00N 32°02' E 120°45'617540.1
2017-Jun-26 15:00N 31°21' E 121°38'195.5
2017-Jun-26 14:59N 31°20' E 121°39'292341.4
2017-Jun-26 14:58N 31°40' E 121°13'1613976.1
2017-Jun-26 14:58N 31°28' E 121°25'338.3
2017-Jun-26 14:54N 31°28' E 121°28'4156.2
2017-Jun-26 14:53N 31°30' E 121°25'0 8.4
2017-Jun-26 14:51N 31°29' E 121°25'539.0
2017-Jun-26 14:42N 31°26' E 121°30'664.3
2017-Jun-26 14:37N 31°30' E 121°25'767.1
2017-Jun-26 14:31N 31°25' E 121°31'7542.4
2017-Jun-26 14:30N 31°21' E 121°38'29641.4
2017-Jun-26 14:27N 31°40' E 121°13'1 5.0
2017-Jun-26 14:19N 31°40' E 121°13'14170.3
2017-Jun-26 14:14N 31°30' E 121°25'0 3.5
2017-Jun-26 14:11N 31°30' E 121°25'1163.0
2017-Jun-26 14:00N 31°24' E 121°36'103584.2
2017-Jun-26 14:00N 31°28' E 121°25'67295.2
2017-Jun-26 14:00N 31°25' E 121°31'8249.7
2017-Jun-26 13:58N 31°20' E 121°39'15188.2
2017-Jun-26 13:53N 31°29' E 121°25'1539.6
2017-Jun-26 13:30N 31°40' E 121°13'162001.0
2017-Jun-26 13:30N 31°28' E 121°25'161552.5
2017-Jun-26 13:29N 31°40' E 121°13'25977.6
2017-Jun-26 13:28N 31°24' E 121°36'3151.3
2017-Jun-26 13:27N 31°23' E 121°38'71291.2
2017-Jun-26 13:26N 31°23' E 121°30'8534.4
2017-Jun-26 13:25N 31°29' E 121°25'14766.8
2017-Jun-26 13:24N 31°21' E 121°38'14350.9
2017-Jun-26 13:22N 31°30' E 121°24'1430.4
2017-Jun-26 12:55N 31°23' E 121°38'13903.3
2017-Jun-26 12:54N 31°28' E 121°25'131096.4
2017-Jun-26 12:53N 31°21' E 121°38'281234.7
2017-Jun-26 12:52N 31°40' E 121°13'251303.5
2017-Jun-26 12:51N 31°24' E 121°36'111742.9
2017-Jun-26 12:50N 31°29' E 121°25'151512.4
2017-Jun-26 12:50N 31°40' E 121°13'131214.4
2017-Jun-26 12:49N 31°30' E 121°23'17847.8
2017-Jun-26 12:48N 31°16' E 121°33'15110.2
2017-Jun-26 12:39N 31°30' E 121°25'13196.1
2017-Jun-26 12:35N 31°19' E 121°34'12104.8
2017-Jun-26 12:29N 31°28' E 121°25'175.5
2017-Jun-26 12:28N 31°29' E 121°25'152396.2
2017-Jun-26 12:27N 31°15' E 121°31'155566.0
2017-Jun-26 12:27N 31°30' E 121°25'14907.5
2017-Jun-26 12:26N 31°18' E 121°34'6411.9
2017-Jun-26 12:25N 31°24' E 121°36'3242.0
2017-Jun-26 12:25N 31°21' E 121°38'2113.7
2017-Jun-26 12:24N 31°23' E 121°38'287090.8
2017-Jun-26 12:23N 31°40' E 121°13'10831.1
2017-Jun-26 12:23N 31°32' E 121°21'1846.2
2017-Jun-26 12:00N 31°23' E 121°38'197793.2
2017-Jun-26 12:00N 31°33' E 121°19'17749.8
2017-Jun-26 11:58N 31°24' E 121°36'2589943.6
2017-Jun-26 11:58N 31°40' E 121°13'303800.6
2017-Jun-26 11:58N 31°15' E 121°32'162939.5
2017-Jun-26 11:57N 31°29' E 121°25'023.0
2017-Jun-26 11:57N 31°30' E 121°25'1346.4
2017-Jun-26 11:56N 31°28' E 121°25'135117.7
2017-Jun-26 11:56N 31°21' E 121°38'2 4.1
2017-Jun-26 11:29N 31°23' E 121°38'13716.9
2017-Jun-26 11:28N 31°28' E 121°25'137676.5
2017-Jun-26 11:28N 31°21' E 121°38'281137.9
2017-Jun-26 11:27N 31°40' E 121°13'2517988.7
2017-Jun-26 11:26N 31°24' E 121°36'11525.1
2017-Jun-26 11:25N 31°29' E 121°25'10178.8
2017-Jun-26 11:22N 31°36' E 121°17'25711.9
2017-Jun-26 11:20N 31°14' E 121°30'17343.9
2017-Jun-26 11:17N 31°30' E 121°25'0 1.2
2017-Jun-26 11:01N 31°29' E 121°25'139.2
2017-Jun-26 10:59N 31°28' E 121°25'10534.5
2017-Jun-26 10:58N 31°24' E 121°36'11729.3
2017-Jun-26 10:57N 31°30' E 121°25'14816.8
2017-Jun-26 10:56N 31°40' E 121°13'28894.5
2017-Jun-26 10:54N 31°23' E 121°38'14348.5
2017-Jun-26 10:51N 31°11' E 121°29'123369.5
2017-Jun-26 10:51N 31°21' E 121°38'29107.0
2017-Jun-26 10:35N 31°40' E 121°13'29317.7
2017-Jun-26 10:30N 31°21' E 121°38'141887.4
2017-Jun-26 10:29N 31°29' E 121°25'1871.0
2017-Jun-26 10:29N 31°28' E 121°25'19918.1
2017-Jun-26 10:28N 31°10' E 121°28'16178.4
2017-Jun-26 10:23N 31°23' E 121°38'353.1
2017-Jun-26 10:20N 31°24' E 121°36'25250.6
2017-Jun-26 10:14N 31°40' E 121°13'25111.6
2017-Jun-26 10:00N 31°24' E 121°36'018.9
2017-Jun-26 09:59N 31°24' E 121°36'11365.3
2017-Jun-26 09:58N 31°30' E 121°25'14281.7
2017-Jun-26 09:55N 31°21' E 121°38'13302.9
2017-Jun-26 09:52N 31°28' E 121°25'182.2
2017-Jun-26 09:51N 31°29' E 121°25'13123.7
2017-Jun-26 09:45N 31°23' E 121°38'19399.8
2017-Jun-26 09:42N 31°06' E 121°28'1993.6
2017-Jun-26 09:30N 31°23' E 121°38'202191.3
2017-Jun-26 09:29N 31°05' E 121°28'20694.1
2017-Jun-26 09:27N 31°24' E 121°36'10962.0
2017-Jun-26 09:27N 31°28' E 121°25'105117.7
2017-Jun-26 09:27N 31°24' E 121°36'395.5
2017-Jun-26 09:25N 31°21' E 121°38'28255.6
2017-Jun-26 09:18N 31°40' E 121°13'151282.2
2017-Jun-26 09:17N 31°29' E 121°25'1138.1
2017-Jun-26 09:00N 31°24' E 121°36'10385.2
2017-Jun-26 08:59N 31°28' E 121°25'13484.7
2017-Jun-26 08:57N 31°21' E 121°38'334.2
2017-Jun-26 08:52N 31°24' E 121°36'254132.9
2017-Jun-26 08:51N 31°40' E 121°13'1510505.1
2017-Jun-26 08:51N 31°30' E 121°25'131706.3
2017-Jun-26 08:51N 31°23' E 121°38'14110.8
2017-Jun-26 08:43N 31°30' E 121°25'1461.9
2017-Jun-26 08:30N 31°21' E 121°38'141208.4
2017-Jun-26 08:29N 31°29' E 121°25'137.8
2017-Jun-26 08:27N 31°28' E 121°25'161122.5
2017-Jun-26 08:26N 31°40' E 121°13'252908.6
2017-Jun-26 08:26N 31°24' E 121°36'079.5
2017-Jun-26 08:26N 31°24' E 121°36'216.1
2017-Jun-26 08:17N 31°23' E 121°38'2886.2
2017-Jun-26 07:57N 31°40' E 121°13'2518137.3
2017-Jun-26 07:57N 31°24' E 121°36'0 7.3
2017-Jun-26 07:56N 31°24' E 121°36'379.0
2017-Jun-26 07:53N 31°21' E 121°38'13357.1
2017-Jun-26 07:51N 31°28' E 121°25'13264.1
2017-Jun-26 07:48N 31°23' E 121°38'13493.4
2017-Jun-26 07:46N 31°30' E 121°25'0 2.4
2017-Jun-26 07:40N 31°30' E 121°25'15209.5
2017-Jun-26 07:36N 31°40' E 121°13'0 0.0
2017-Jun-26 07:31N 31°40' E 121°13'2622964.7
2017-Jun-26 07:30N 31°24' E 121°36'0773.0
2017-Jun-26 07:30N 31°24' E 121°36'3294.4
2017-Jun-26 07:30N 31°21' E 121°38'13187.3
2017-Jun-26 07:26N 31°28' E 121°25'13186.6
2017-Jun-26 07:22N 31°23' E 121°38'284520.1
2017-Jun-26 07:21N 31°40' E 121°13'14262.2
2017-Jun-26 07:18N 31°30' E 121°25'0 2.2
2017-Jun-26 07:11N 31°30' E 121°25'1164.2
2017-Jun-26 07:00N 31°24' E 121°36'3559.8
2017-Jun-26 07:00N 31°21' E 121°38'3656.9
2017-Jun-26 07:00N 31°24' E 121°36'261801.4
2017-Jun-26 06:59N 31°40' E 121°13'15857.0
2017-Jun-26 06:58N 31°30' E 121°25'131934.4
2017-Jun-26 06:57N 31°23' E 121°38'28856.1
2017-Jun-26 06:55N 31°40' E 121°13'2867.3
2017-Jun-26 06:30N 31°21' E 121°38'31175.5
2017-Jun-26 06:30N 31°24' E 121°36'256039.9
2017-Jun-26 06:30N 31°40' E 121°13'14352.6
2017-Jun-26 06:27N 31°30' E 121°25'13620.1
2017-Jun-26 06:26N 31°23' E 121°38'13674.1
2017-Jun-26 06:25N 31°28' E 121°25'10240.9
2017-Jun-26 06:23N 31°24' E 121°36'1026.1
2017-Jun-26 06:00N 31°28' E 121°25'13648.9
2017-Jun-26 05:59N 31°21' E 121°38'31068.7
2017-Jun-26 05:58N 31°24' E 121°36'012.8
2017-Jun-26 05:57N 31°24' E 121°36'398.7
2017-Jun-26 05:56N 31°23' E 121°38'13152.6
2017-Jun-26 05:51N 31°30' E 121°25'1493.4
2017-Jun-26 05:41N 31°40' E 121°13'1478.8
2017-Jun-26 05:30N 31°30' E 121°25'111464.2
2017-Jun-26 05:30N 31°24' E 121°36'034.4
2017-Jun-26 05:30N 31°24' E 121°36'255000.7
2017-Jun-26 05:29N 31°40' E 121°13'282922.9
2017-Jun-26 05:29N 31°23' E 121°38'2106.7
2017-Jun-26 05:28N 31°21' E 121°38'29118.1
2017-Jun-26 05:13N 31°41' E 121°13'15164.3
2017-Jun-26 05:08N 31°30' E 121°25'1190.6
2017-Jun-26 05:00N 31°24' E 121°36'11828.5
2017-Jun-26 05:00N 31°30' E 121°25'111796.4
2017-Jun-26 04:59N 31°24' E 121°36'2315.7
2017-Jun-26 04:59N 31°23' E 121°38'281258.1
2017-Jun-26 04:57N 31°40' E 121°13'28413.9
2017-Jun-26 04:53N 31°21' E 121°38'29198.4
2017-Jun-26 04:45N 31°41' E 121°13'16558.8
2017-Jun-26 04:43N 31°28' E 121°25'1 6.1
2017-Jun-26 04:30N 31°30' E 121°25'13883.5
2017-Jun-26 04:29N 31°22' E 121°38'1148.7
2017-Jun-26 04:29N 31°23' E 121°38'3127.4
2017-Jun-26 04:27N 31°24' E 121°36'258166.2
2017-Jun-26 04:27N 31°40' E 121°13'16203.1
2017-Jun-26 04:23N 31°28' E 121°25'13921.4
2017-Jun-26 04:22N 31°21' E 121°38'2987.0
2017-Jun-26 04:02N 31°40' E 121°13'30831.0
2017-Jun-26 04:00N 31°20' E 121°39'14667.9
2017-Jun-26 03:59N 31°28' E 121°25'16308.4
2017-Jun-26 03:56N 31°40' E 121°13'141990.3
2017-Jun-26 03:55N 31°30' E 121°25'11255.4
2017-Jun-26 03:53N 31°24' E 121°36'3165.4
2017-Jun-26 03:52N 31°23' E 121°38'214.4
2017-Jun-26 03:44N 31°21' E 121°38'14605.2
2017-Jun-26 03:43N 31°30' E 121°25'1567.0
2017-Jun-26 03:29N 31°20' E 121°39'116.8
2017-Jun-26 03:25N 31°21' E 121°38'13529.6
2017-Jun-26 03:24N 31°28' E 121°25'10484.0
2017-Jun-26 03:22N 31°24' E 121°36'3285.3
2017-Jun-26 03:22N 31°23' E 121°38'1490.0
2017-Jun-26 03:13N 31°30' E 121°25'14814.8
2017-Jun-26 03:12N 31°40' E 121°13'0 0.3
2017-Jun-26 03:00N 31°40' E 121°13'291237.5
2017-Jun-26 02:59N 31°20' E 121°39'4103.4
2017-Jun-26 02:56N 31°24' E 121°36'3247.7
2017-Jun-26 02:56N 31°23' E 121°38'23298.0
2017-Jun-26 02:56N 31°21' E 121°38'144911.3
2017-Jun-26 02:56N 31°29' E 121°25'112.4
2017-Jun-26 02:50N 31°28' E 121°25'1547.8
2017-Jun-26 02:30N 31°40' E 121°13'259995.3
2017-Jun-26 02:30N 31°24' E 121°36'3111.7
2017-Jun-26 02:29N 31°23' E 121°38'13550.8
2017-Jun-26 02:27N 31°29' E 121°25'146155.4
2017-Jun-26 02:27N 31°21' E 121°38'6310.7
2017-Jun-26 02:26N 31°24' E 121°31'8530.7
2017-Jun-26 02:25N 31°20' E 121°39'1465.4
2017-Jun-26 02:12N 31°28' E 121°25'1153.8
2017-Jun-26 02:00N 31°22' E 121°36'240.9
2017-Jun-26 01:58N 31°24' E 121°36'11498.9
2017-Jun-26 01:57N 31°29' E 121°25'15570.9
2017-Jun-26 01:55N 31°20' E 121°39'292022.8
2017-Jun-26 01:54N 31°40' E 121°13'281076.2
2017-Jun-26 01:53N 31°21' E 121°38'1195.7
2017-Jun-26 01:46N 31°27' E 121°28'844.8
2017-Jun-26 01:35N 31°33' E 121°20'1 8.9
2017-Jun-26 01:30N 31°33' E 121°19'2115056.1
2017-Jun-26 01:30N 31°20' E 121°39'17798.5
2017-Jun-26 01:29N 31°31' E 121°23'94138.0
2017-Jun-26 01:29N 31°25' E 121°31'7787.6
2017-Jun-26 01:28N 31°21' E 121°38'3136.3
2017-Jun-26 01:27N 31°24' E 121°36'253102.4
2017-Jun-26 01:26N 31°40' E 121°13'1477.0
2017-Jun-26 01:16N 31°30' E 121°24'415.6
2017-Jun-26 01:00N 31°32' E 121°20'72888.9
2017-Jun-26 01:00N 31°28' E 121°27'111136.0
2017-Jun-26 00:59N 31°21' E 121°38'378.4
2017-Jun-26 00:57N 31°23' E 121°35'253188.5
2017-Jun-26 00:56N 31°40' E 121°13'25283.8
2017-Jun-26 00:51N 31°24' E 121°36'11107.8
2017-Jun-26 00:45N 31°30' E 121°25'548.9
2017-Jun-26 00:38N 31°33' E 121°20'323.8
2017-Jun-26 00:30N 31°30' E 121°23'123721.4
2017-Jun-26 00:30N 31°24' E 121°35'4188.6
2017-Jun-26 00:29N 31°21' E 121°38'21573.0
2017-Jun-26 00:27N 31°34' E 121°19'18916.1
2017-Jun-26 00:26N 31°24' E 121°36'25491.6
2017-Jun-26 00:23N 31°40' E 121°13'148557.9
2017-Jun-26 00:23N 31°30' E 121°25'81496.9
2017-Jun-26 00:22N 31°35' E 121°18'291239.7
2017-Jun-26 00:21N 31°22' E 121°48'1 3.7
2017-Jun-26 00:00N 31°21' E 121°48'2899880.7
2017-Jun-26 00:00N 31°34' E 121°19'173183.7
2017-Jun-26 00:00N 31°24' E 121°35'217530.5
2017-Jun-26 00:00N 31°37' E 121°16'258820.2
2017-Jun-26 00:00N 31°21' E 121°38'3218.3
2017-Jun-25 23:59N 31°24' E 121°36'211274.9
2017-Jun-25 23:58N 31°37' E 121°16'497.4
2017-Jun-25 23:55N 31°40' E 121°13'16620.3
2017-Jun-25 23:54N 31°28' E 121°25'2154.3
2017-Jun-25 23:30N 31°20' E 121°48'93209.5
2017-Jun-25 23:30N 31°21' E 121°38'283124.8
2017-Jun-25 23:30N 31°39' E 121°13'243224.5
2017-Jun-25 23:29N 31°24' E 121°35'2177327.3
2017-Jun-25 23:29N 31°37' E 121°15'221685.9
2017-Jun-25 23:28N 31°24' E 121°36'251102.5
2017-Jun-25 23:27N 31°39' E 121°12'15202.1
2017-Jun-25 23:22N 31°28' E 121°25'2155.3
2017-Jun-25 23:00N 31°19' E 121°47'111002.4
2017-Jun-25 23:00N 31°24' E 121°35'41695.5
2017-Jun-25 22:59N 31°21' E 121°38'281214.3
2017-Jun-25 22:58N 31°39' E 121°13'42273.7
2017-Jun-25 22:58N 31°41' E 121°09'1126.7
2017-Jun-25 22:57N 31°41' E 121°11'2710899.6
2017-Jun-25 22:57N 31°24' E 121°36'108953.6
2017-Jun-25 22:57N 31°28' E 121°25'1651.8
2017-Jun-25 22:39N 31°40' E 121°13'25155.1
2017-Jun-25 22:30N 31°24' E 121°35'61043.9
2017-Jun-25 22:29N 31°22' E 121°42'6196.1
2017-Jun-25 22:28N 31°24' E 121°36'343.9
2017-Jun-25 22:23N 31°21' E 121°38'28700.8
2017-Jun-25 22:20N 31°39' E 121°13'111.6
2017-Jun-25 22:15N 31°40' E 121°13'14660.1
2017-Jun-25 22:14N 31°30' E 121°25'158.4
2017-Jun-25 22:13N 31°28' E 121°25'1153.3
2017-Jun-25 22:00N 31°23' E 121°37'1195.0
2017-Jun-25 21:59N 31°24' E 121°36'134.2
2017-Jun-25 21:58N 31°24' E 121°35'258022.4
2017-Jun-25 21:58N 31°40' E 121°13'142146.7
2017-Jun-25 21:58N 31°30' E 121°25'1123.7
2017-Jun-25 21:30N 31°24' E 121°36'3931.2
2017-Jun-25 21:30N 31°24' E 121°32'51160.5
2017-Jun-25 21:30N 31°21' E 121°38'444.6
2017-Jun-25 21:25N 31°24' E 121°35'1070.7
2017-Jun-25 21:16N 31°30' E 121°25'1140.3
2017-Jun-25 20:59N 31°24' E 121°36'1512.6
2017-Jun-25 20:59N 31°24' E 121°35'9787.3
2017-Jun-25 20:59N 31°28' E 121°25'13657.8
2017-Jun-25 20:58N 31°21' E 121°38'288447.8
2017-Jun-25 20:57N 31°40' E 121°13'1483.2
2017-Jun-25 20:47N 31°30' E 121°25'1470.1
2017-Jun-25 20:35N 31°40' E 121°14'24322.3
2017-Jun-25 20:30N 31°24' E 121°35'41361.9
2017-Jun-25 20:30N 31°21' E 121°38'3140.7
2017-Jun-25 20:29N 31°24' E 121°36'11334.0
2017-Jun-25 20:27N 31°30' E 121°25'1416920.9
2017-Jun-25 20:27N 31°40' E 121°14'15163.8
2017-Jun-25 20:21N 31°28' E 121°25'16316.8
2017-Jun-25 20:18N 31°40' E 121°13'2894.9
2017-Jun-25 20:00N 31°21' E 121°38'131587.8
2017-Jun-25 20:00N 31°28' E 121°25'9626.6
2017-Jun-25 19:59N 31°24' E 121°35'253044.9
2017-Jun-25 19:59N 31°40' E 121°13'2545026.4
2017-Jun-25 19:58N 31°24' E 121°36'111363.7
2017-Jun-25 19:58N 31°30' E 121°25'1022.3
2017-Jun-25 19:30N 31°24' E 121°35'4975.4
2017-Jun-25 19:30N 31°21' E 121°38'368.8
2017-Jun-25 19:27N 31°24' E 121°36'111594.6
2017-Jun-25 19:26N 31°30' E 121°25'1 9.8
2017-Jun-25 19:17N 31°28' E 121°25'932.8
2017-Jun-25 19:00N 31°24' E 121°35'4372.3
2017-Jun-25 19:00N 31°21' E 121°38'139209.4
2017-Jun-25 18:59N 31°28' E 121°25'10179.0
2017-Jun-25 18:56N 31°24' E 121°36'2558.5
2017-Jun-25 18:30N 31°40' E 121°13'252433.9
2017-Jun-25 18:30N 31°24' E 121°36'3222.5
2017-Jun-25 18:29N 31°21' E 121°38'4270.1
2017-Jun-25 18:28N 31°24' E 121°35'924.2
2017-Jun-25 18:05N 31°28' E 121°25'0 0.0
2017-Jun-25 18:00N 31°28' E 121°25'13719.5
2017-Jun-25 17:59N 31°21' E 121°38'3734.2
2017-Jun-25 17:58N 31°24' E 121°36'1 9.8
2017-Jun-25 17:55N 31°24' E 121°35'921.4
2017-Jun-25 17:29N 31°28' E 121°25'13868.8
2017-Jun-25 17:28N 31°21' E 121°38'3461.6
2017-Jun-25 17:27N 31°24' E 121°36'127.8
2017-Jun-25 17:26N 31°24' E 121°35'24373.4
2017-Jun-25 17:22N 31°40' E 121°13'7108.7
2017-Jun-25 17:19N 31°44' E 121°07'3 8.4
2017-Jun-25 16:59N 31°42' E 121°09'29900.2
2017-Jun-25 16:57N 31°24' E 121°35'437.6
2017-Jun-25 16:51N 31°21' E 121°38'13531.6
2017-Jun-25 16:50N 31°29' E 121°25'15273.3
2017-Jun-25 16:46N 31°40' E 121°13'252429.6
2017-Jun-25 16:46N 31°24' E 121°36'2599.1
2017-Jun-25 16:30N 31°40' E 121°13'151549.8
2017-Jun-25 16:30N 31°30' E 121°25'144987.5
2017-Jun-25 16:30N 31°21' E 121°38'452.6
2017-Jun-25 16:25N 31°24' E 121°35'24388.2
2017-Jun-25 16:22N 31°40' E 121°13'25491.2
2017-Jun-25 16:19N 31°24' E 121°36'1 1.9
2017-Jun-25 16:00N 31°24' E 121°35'2115138.5
2017-Jun-25 16:00N 31°37' E 121°16'117701.0
2017-Jun-25 16:00N 31°30' E 121°25'144252.9
2017-Jun-25 16:00N 31°40' E 121°13'14751.9
2017-Jun-25 15:59N 31°30' E 121°25'141873.2
2017-Jun-25 15:58N 31°21' E 121°38'330.4
2017-Jun-25 15:51N 31°24' E 121°36'1851.5
2017-Jun-25 15:30N 31°35' E 121°19'7274.4
2017-Jun-25 15:29N 31°40' E 121°13'281609.6
2017-Jun-25 15:28N 31°21' E 121°38'372.2
2017-Jun-25 15:25N 31°24' E 121°36'116634.0
2017-Jun-25 15:25N 31°30' E 121°25'0 3.6
2017-Jun-25 15:23N 31°30' E 121°25'10226.1
2017-Jun-25 15:20N 31°24' E 121°35'24129.2
2017-Jun-25 15:09N 31°40' E 121°14'1062.7
2017-Jun-25 15:00N 31°33' E 121°21'154440.3
2017-Jun-25 15:00N 31°24' E 121°35'4551.7
2017-Jun-25 14:59N 31°21' E 121°38'141676.2
2017-Jun-25 14:59N 31°30' E 121°25'14339.6
2017-Jun-25 14:56N 31°40' E 121°13'141831.2
2017-Jun-25 14:56N 31°30' E 121°25'11493.2
2017-Jun-25 14:54N 31°24' E 121°36'25947.3
2017-Jun-25 14:53N 31°40' E 121°14'1231.8
2017-Jun-25 14:30N 31°30' E 121°22'1266.1
2017-Jun-25 14:19N 31°40' E 121°14'14364.8
2017-Jun-25 14:17N 31°30' E 121°25'1139.0
2017-Jun-25 14:00N 31°24' E 121°36'332.9
2017-Jun-25 13:54N 31°21' E 121°38'0 0.0
2017-Jun-25 13:30N 31°21' E 121°38'3200.0
2017-Jun-25 13:29N 31°24' E 121°36'12758.2
2017-Jun-25 13:28N 31°30' E 121°23'1195.5
2017-Jun-25 13:27N 31°30' E 121°25'0 6.2
2017-Jun-25 13:26N 31°30' E 121°25'1431.7
2017-Jun-25 13:00N 31°21' E 121°38'152359.9
2017-Jun-25 13:00N 31°30' E 121°23'148.7
2017-Jun-25 12:58N 31°30' E 121°25'11118.8
2017-Jun-25 12:52N 31°24' E 121°36'111198.0
2017-Jun-25 12:52N 31°30' E 121°25'14215.4
2017-Jun-25 12:48N 31°40' E 121°14'24273.3
2017-Jun-25 12:43N 31°23' E 121°34'462.9
2017-Jun-25 12:38N 31°21' E 121°39'1 7.3
2017-Jun-25 12:30N 31°21' E 121°40'4467.1
2017-Jun-25 12:30N 31°22' E 121°36'132060.1
2017-Jun-25 12:29N 31°30' E 121°23'1 4.6
2017-Jun-25 12:13N 31°30' E 121°25'1139601.8
2017-Jun-25 12:13N 31°24' E 121°36'112196.9
2017-Jun-25 12:12N 31°30' E 121°25'216.4
2017-Jun-25 12:05N 31°30' E 121°23'12418.0
2017-Jun-25 12:03N 31°40' E 121°14'33665.2
2017-Jun-25 12:00N 31°18' E 121°43'22719.9
2017-Jun-25 11:58N 31°31' E 121°22'141141.8
2017-Jun-25 11:57N 31°24' E 121°36'111015.1
2017-Jun-25 11:57N 31°30' E 121°25'7537.4
2017-Jun-25 11:56N 31°25' E 121°31'211131.0
2017-Jun-25 11:55N 31°40' E 121°14'26317.9
2017-Jun-25 11:50N 31°22' E 121°36'13256.7
2017-Jun-25 11:47N 31°30' E 121°23'2484.6
2017-Jun-25 11:30N 31°16' E 121°46'287127.2
2017-Jun-25 11:30N 31°32' E 121°20'9488.1
2017-Jun-25 11:29N 31°27' E 121°28'8305.7
2017-Jun-25 11:27N 31°22' E 121°36'132387.6
2017-Jun-25 11:27N 31°30' E 121°23'1221997.5
2017-Jun-25 11:27N 31°24' E 121°36'11837.6
2017-Jun-25 11:26N 31°30' E 121°25'14257.5
2017-Jun-25 11:22N 31°40' E 121°14'1478.2
2017-Jun-25 11:12N 31°30' E 121°25'26137.7
2017-Jun-25 11:00N 31°13' E 121°48'262835.4
2017-Jun-25 11:00N 31°29' E 121°24'8353.5
2017-Jun-25 10:59N 31°35' E 121°18'197446.5
2017-Jun-25 10:58N 31°24' E 121°36'12956.9
2017-Jun-25 10:58N 31°30' E 121°23'131005.5
2017-Jun-25 10:57N 31°40' E 121°13'14856.1
2017-Jun-25 10:56N 31°30' E 121°25'5279.8
2017-Jun-25 10:55N 31°33' E 121°20'9114.1
2017-Jun-25 10:50N 31°40' E 121°14'1032.1
2017-Jun-25 10:30N 31°32' E 121°21'338441.0
2017-Jun-25 10:30N 31°11' E 121°51'294752.8
2017-Jun-25 10:30N 31°30' E 121°25'14684.0
2017-Jun-25 10:29N 31°40' E 121°14'13395.0
2017-Jun-25 10:27N 31°30' E 121°23'12152.3
2017-Jun-25 10:22N 31°24' E 121°36'1154.7
2017-Jun-25 10:10N 31°30' E 121°25'12369.4
2017-Jun-25 10:08N 31°38' E 121°14'540.1
2017-Jun-25 10:00N 31°34' E 121°18'398843.0
2017-Jun-25 10:00N 31°09' E 121°54'452923.8
2017-Jun-25 09:59N 31°39' E 121°13'121121.3
2017-Jun-25 09:59N 31°30' E 121°23'12633.7
2017-Jun-25 09:57N 31°39' E 121°13'241545.7
2017-Jun-25 09:56N 31°24' E 121°36'111037.7
2017-Jun-25 09:56N 31°30' E 121°25'14174.6
2017-Jun-25 09:51N 31°40' E 121°14'0 2.7
2017-Jun-25 09:40N 31°40' E 121°13'23253.6
2017-Jun-25 09:35N 31°24' E 121°33'20239.6
2017-Jun-25 09:30N 31°37' E 121°15'464832.5
2017-Jun-25 09:29N 31°08' E 121°56'492371.4
2017-Jun-25 09:28N 31°40' E 121°13'25865.1
2017-Jun-25 09:26N 31°24' E 121°36'2514842.8
2017-Jun-25 09:26N 31°40' E 121°14'13212.9
2017-Jun-25 09:23N 31°30' E 121°23'14693.0
2017-Jun-25 09:23N 31°30' E 121°25'0 2.3
2017-Jun-25 09:20N 31°30' E 121°25'1544.6
2017-Jun-25 09:00N 31°40' E 121°12'256085.0
2017-Jun-25 09:00N 31°24' E 121°36'12199.0
2017-Jun-25 08:56N 31°30' E 121°23'133366.9
2017-Jun-25 08:56N 31°40' E 121°13'143216.3
2017-Jun-25 08:56N 31°30' E 121°25'14140.5
2017-Jun-25 08:50N 31°40' E 121°14'14348.1
2017-Jun-25 08:47N 31°30' E 121°25'1859.9
2017-Jun-25 08:30N 31°42' E 121°09'18248.0
2017-Jun-25 08:25N 31°30' E 121°25'111036.1
2017-Jun-25 08:25N 31°24' E 121°36'252718.2
2017-Jun-25 08:24N 31°40' E 121°13'0 3.0
2017-Jun-25 08:18N 31°40' E 121°13'141661.0
2017-Jun-25 08:18N 31°30' E 121°25'231.1
2017-Jun-25 08:15N 31°30' E 121°23'1355.5
2017-Jun-25 08:00N 31°40' E 121°13'2232.7
2017-Jun-25 08:00N 31°41' E 121°11'152056.0
2017-Jun-25 07:59N 31°30' E 121°23'192594.4
2017-Jun-25 07:59N 31°43' E 121°07'21580.1
2017-Jun-25 07:57N 31°30' E 121°25'5117.8
2017-Jun-25 07:54N 31°33' E 121°20'16171.0
2017-Jun-25 07:48N 31°24' E 121°36'11246.5
2017-Jun-25 07:46N 31°30' E 121°25'1865.3
2017-Jun-25 07:29N 31°42' E 121°09'1866368.3
2017-Jun-25 07:29N 31°30' E 121°25'8245.0
2017-Jun-25 07:27N 31°35' E 121°18'6245.6
2017-Jun-25 07:25N 31°40' E 121°13'141605.2
2017-Jun-25 07:25N 31°30' E 121°25'1534.9
2017-Jun-25 07:25N 31°30' E 121°23'1236.7
2017-Jun-25 07:04N 31°24' E 121°36'25296.3
2017-Jun-25 06:59N 31°40' E 121°13'254038.9
2017-Jun-25 06:59N 31°24' E 121°36'22402.0
2017-Jun-25 06:56N 31°38' E 121°15'11227.3
2017-Jun-25 06:53N 31°30' E 121°25'121.1
2017-Jun-25 06:49N 31°30' E 121°23'1136.1
2017-Jun-25 06:30N 31°38' E 121°14'014.2
2017-Jun-25 06:29N 31°38' E 121°14'11377.2
2017-Jun-25 06:28N 31°30' E 121°23'12134.7
2017-Jun-25 06:22N 31°24' E 121°36'116640.6
2017-Jun-25 06:22N 31°30' E 121°25'1233.0
2017-Jun-25 05:59N 31°38' E 121°14'0 1.5
2017-Jun-25 05:57N 31°38' E 121°14'233504.4
2017-Jun-25 05:57N 31°24' E 121°36'11594.5
2017-Jun-25 05:56N 31°30' E 121°25'116.1
2017-Jun-25 05:51N 31°30' E 121°23'151.1
2017-Jun-25 05:49N 31°30' E 121°25'17195.5
2017-Jun-25 05:44N 31°41' E 121°10'311.3
2017-Jun-25 05:30N 31°40' E 121°13'143998.0
2017-Jun-25 05:30N 31°30' E 121°25'0 4.5
2017-Jun-25 05:29N 31°30' E 121°25'12324.3
2017-Jun-25 05:26N 31°38' E 121°14'211.3
2017-Jun-25 05:17N 31°40' E 121°13'3118668.3
2017-Jun-25 05:17N 31°11' E 121°28'19197.8
2017-Jun-25 05:11N 31°30' E 121°23'12125.9
2017-Jun-25 05:06N 31°24' E 121°36'22195.6
2017-Jun-25 04:59N 31°38' E 121°16'107093.9
2017-Jun-25 04:59N 31°30' E 121°23'112951.6
2017-Jun-25 04:59N 31°38' E 121°14'137.5
2017-Jun-25 04:57N 31°38' E 121°15'23227.0
2017-Jun-25 04:51N 31°24' E 121°36'23408.5
2017-Jun-25 04:47N 31°38' E 121°14'12497.5
2017-Jun-25 04:46N 31°30' E 121°25'17116.6
2017-Jun-25 04:37N 31°14' E 121°30'23164.6
2017-Jun-25 04:29N 31°35' E 121°19'5179.0
2017-Jun-25 04:27N 31°38' E 121°14'232213.0
2017-Jun-25 04:27N 31°24' E 121°36'11885.0
2017-Jun-25 04:26N 31°30' E 121°25'16880.2
2017-Jun-25 04:25N 31°15' E 121°29'23373.3
2017-Jun-25 04:21N 31°36' E 121°18'7165.7
2017-Jun-25 04:18N 31°30' E 121°23'1 4.7
2017-Jun-25 04:00N 31°30' E 121°25'6588.8
2017-Jun-25 04:00N 31°34' E 121°20'7355.1
2017-Jun-25 03:58N 31°38' E 121°14'112164.9
2017-Jun-25 03:58N 31°30' E 121°23'3122.0
2017-Jun-25 03:57N 31°32' E 121°22'14207.8
2017-Jun-25 03:53N 31°24' E 121°36'232554.3
2017-Jun-25 03:52N 31°38' E 121°14'28673.7
2017-Jun-25 03:50N 31°16' E 121°33'1857.3
2017-Jun-25 03:30N 31°32' E 121°23'391.9
2017-Jun-25 03:29N 31°30' E 121°25'12579.1
2017-Jun-25 03:29N 31°30' E 121°23'112296.5
2017-Jun-25 03:28N 31°38' E 121°14'12128.9
2017-Jun-25 03:22N 31°30' E 121°25'1294.2
2017-Jun-25 03:15N 31°38' E 121°14'23197.9
2017-Jun-25 03:07N 31°24' E 121°36'24194.3
2017-Jun-25 03:00N 31°38' E 121°14'12412.4
2017-Jun-25 02:58N 31°30' E 121°23'111.7
2017-Jun-25 02:51N 31°30' E 121°25'027.3
2017-Jun-25 02:51N 31°30' E 121°25'114386.8
2017-Jun-25 02:51N 31°24' E 121°36'23289.2
2017-Jun-25 02:46N 31°38' E 121°14'1347.0
2017-Jun-25 02:30N 31°30' E 121°25'2460.7
2017-Jun-25 02:29N 31°30' E 121°23'13898.7
2017-Jun-25 02:29N 31°40' E 121°13'256.4
2017-Jun-25 02:27N 31°38' E 121°14'2316884.5
2017-Jun-25 02:27N 31°24' E 121°36'2871.5
2017-Jun-25 02:03N 31°42' E 121°10'477.0
2017-Jun-25 02:00N 31°40' E 121°13'253332.8
2017-Jun-25 01:59N 31°24' E 121°36'11281.1
2017-Jun-25 01:57N 31°30' E 121°25'264.3
2017-Jun-25 01:56N 31°30' E 121°23'1656.1
2017-Jun-25 01:38N 31°42' E 121°10'4203.3
2017-Jun-25 01:37N 31°39' E 121°13'13118.1
2017-Jun-25 01:30N 31°30' E 121°25'141469.0
2017-Jun-25 01:30N 31°40' E 121°13'25804.9
2017-Jun-25 01:28N 31°24' E 121°36'28929.3
2017-Jun-25 01:26N 31°41' E 121°10'162297.5
2017-Jun-25 01:26N 31°30' E 121°23'1243.1
2017-Jun-25 01:09N 31°39' E 121°13'1 8.9
2017-Jun-25 01:00N 31°40' E 121°13'14260.6
2017-Jun-25 00:57N 31°30' E 121°24'155.1
2017-Jun-25 00:56N 31°30' E 121°25'141868.9
2017-Jun-25 00:56N 31°39' E 121°13'2577.7
2017-Jun-25 00:36N 31°24' E 121°36'11155.1
2017-Jun-25 00:32N 31°30' E 121°25'14359.1
2017-Jun-25 00:30N 31°40' E 121°13'252316.0
2017-Jun-25 00:29N 31°24' E 121°36'25671.1
2017-Jun-25 00:27N 31°39' E 121°13'146352.8
2017-Jun-25 00:27N 31°30' E 121°25'197.9
2017-Jun-25 00:26N 31°30' E 121°24'163688.0
2017-Jun-25 00:26N 31°41' E 121°10'17396.6
2017-Jun-25 00:24N 31°30' E 121°25'1436.1
2017-Jun-25 00:00N 31°40' E 121°13'14412.2
2017-Jun-24 23:58N 31°30' E 121°25'1143.1
2017-Jun-24 23:57N 31°30' E 121°24'11616.8
2017-Jun-24 23:56N 31°24' E 121°36'28453.0
2017-Jun-24 23:53N 31°41' E 121°10'17167.2
2017-Jun-24 23:47N 31°30' E 121°25'1 4.6
2017-Jun-24 23:38N 31°29' E 121°24'14103.0
2017-Jun-24 23:30N 31°40' E 121°13'143577.7
2017-Jun-24 23:30N 31°30' E 121°24'150.4
2017-Jun-24 23:28N 31°30' E 121°23'2384.3
2017-Jun-24 23:28N 31°30' E 121°25'029.4
2017-Jun-24 23:28N 31°30' E 121°25'11293.3
2017-Jun-24 23:25N 31°24' E 121°36'281533.0
2017-Jun-24 23:24N 31°41' E 121°10'3 6.6
2017-Jun-24 23:00N 31°40' E 121°13'3119.8
2017-Jun-24 22:58N 31°41' E 121°10'281117.4
2017-Jun-24 22:57N 31°24' E 121°36'11961.3
2017-Jun-24 22:56N 31°30' E 121°24'1465.8
2017-Jun-24 22:56N 31°30' E 121°25'010.2
2017-Jun-24 22:55N 31°30' E 121°25'1433.6
2017-Jun-24 22:30N 31°40' E 121°13'141176.0
2017-Jun-24 22:29N 31°30' E 121°25'11197.9
2017-Jun-24 22:26N 31°24' E 121°36'281873.6
2017-Jun-24 22:25N 31°41' E 121°10'16459.3
2017-Jun-24 22:23N 31°30' E 121°24'116.3
2017-Jun-24 22:21N 31°30' E 121°25'1 2.3
2017-Jun-24 22:00N 31°29' E 121°25'151358.9
2017-Jun-24 22:00N 31°40' E 121°13'14269.9
2017-Jun-24 21:56N 31°30' E 121°25'1715079.8
2017-Jun-24 21:56N 31°41' E 121°10'17863.9
2017-Jun-24 21:55N 31°30' E 121°25'111230.8
2017-Jun-24 21:55N 31°24' E 121°36'24186.6
2017-Jun-24 21:47N 31°39' E 121°14'1 4.5
2017-Jun-24 21:29N 31°40' E 121°13'172391.4
2017-Jun-24 21:29N 31°28' E 121°28'386.8
2017-Jun-24 21:27N 31°30' E 121°25'11717.0
2017-Jun-24 21:26N 31°24' E 121°36'1179.9
2017-Jun-24 21:18N 31°30' E 121°25'17143.6
2017-Jun-24 21:11N 31°41' E 121°10'1781.6
2017-Jun-24 20:58N 31°30' E 121°25'141616.2
2017-Jun-24 20:58N 31°40' E 121°13'201669.4
2017-Jun-24 20:57N 31°26' E 121°30'6226.5
2017-Jun-24 20:56N 31°24' E 121°36'2811034.8
2017-Jun-24 20:56N 31°41' E 121°10'1793.6
2017-Jun-24 20:45N 31°30' E 121°25'1145.8
2017-Jun-24 20:30N 31°24' E 121°36'276025.0
2017-Jun-24 20:30N 31°41' E 121°11'247801.9
2017-Jun-24 20:30N 31°25' E 121°32'221598.4
2017-Jun-24 20:29N 31°40' E 121°13'1412956.4
2017-Jun-24 20:29N 31°30' E 121°25'0 0.6
2017-Jun-24 20:20N 31°30' E 121°25'0 0.3
2017-Jun-24 20:00N 31°30' E 121°25'141126.0
2017-Jun-24 19:59N 31°40' E 121°13'24610.9
2017-Jun-24 19:57N 31°21' E 121°31'5302.9
2017-Jun-24 19:56N 31°24' E 121°36'11895.8
2017-Jun-24 19:55N 31°30' E 121°25'1282.6
2017-Jun-24 19:46N 31°22' E 121°36'2 8.0
2017-Jun-24 19:30N 31°24' E 121°36'11986.5
2017-Jun-24 19:30N 31°30' E 121°25'141126.2
2017-Jun-24 19:29N 31°40' E 121°13'1460.5
2017-Jun-24 19:15N 31°30' E 121°25'0 0.2
2017-Jun-24 19:00N 31°30' E 121°25'111588.0
2017-Jun-24 19:00N 31°24' E 121°36'252581.9
2017-Jun-24 18:59N 31°40' E 121°13'14103.0
2017-Jun-24 18:51N 31°30' E 121°25'0 0.2
2017-Jun-24 18:31N 31°30' E 121°25'11480.2
2017-Jun-24 18:29N 31°24' E 121°36'256456.6
2017-Jun-24 18:29N 31°40' E 121°13'14265.0
2017-Jun-24 18:26N 31°30' E 121°25'1294.1
2017-Jun-24 18:18N 31°22' E 121°36'1240.9
2017-Jun-24 18:00N 31°30' E 121°25'025.1
2017-Jun-24 18:00N 31°30' E 121°25'11191.7
2017-Jun-24 17:56N 31°24' E 121°36'252647.8
2017-Jun-24 17:56N 31°40' E 121°13'26198.7
2017-Jun-24 17:48N 31°22' E 121°36'2687.1
2017-Jun-24 17:30N 31°39' E 121°14'132857.6
2017-Jun-24 17:30N 31°30' E 121°25'11543.5
2017-Jun-24 17:29N 31°24' E 121°36'1123.0
2017-Jun-24 17:00N 31°30' E 121°25'92098.4
2017-Jun-24 17:00N 31°37' E 121°17'20262.9
2017-Jun-24 16:55N 31°24' E 121°36'2684.2
2017-Jun-24 16:37N 31°40' E 121°12'26244.1
2017-Jun-24 16:30N 31°24' E 121°36'167389.5
2017-Jun-24 16:30N 31°33' E 121°20'5129.6
2017-Jun-24 16:28N 31°30' E 121°25'13168.0
2017-Jun-24 16:23N 31°39' E 121°14'1230.5
2017-Jun-24 16:00N 31°31' E 121°24'9988.7
2017-Jun-24 16:00N 31°37' E 121°17'10665.8
2017-Jun-24 15:59N 31°30' E 121°25'11281.5
2017-Jun-24 15:56N 31°24' E 121°36'214.8
2017-Jun-24 15:48N 31°22' E 121°36'12102.9
2017-Jun-24 15:41N 31°30' E 121°25'635.1
2017-Jun-24 15:30N 31°34' E 121°20'92964.4
2017-Jun-24 15:30N 31°28' E 121°28'8175.2
2017-Jun-24 15:27N 31°24' E 121°36'11361.1
2017-Jun-24 15:26N 31°30' E 121°25'013.7
2017-Jun-24 15:25N 31°30' E 121°25'2 5.6
2017-Jun-24 15:00N 31°32' E 121°23'103450.9
2017-Jun-24 15:00N 31°25' E 121°31'450.0
2017-Jun-24 14:56N 31°24' E 121°36'113307.0
2017-Jun-24 14:55N 31°30' E 121°25'0 9.6
2017-Jun-24 14:55N 31°30' E 121°25'1228.3
2017-Jun-24 14:30N 31°23' E 121°36'1 2.0
2017-Jun-24 14:00N 31°24' E 121°36'117924.7
2017-Jun-24 14:00N 31°30' E 121°25'0 6.3
2017-Jun-24 13:59N 31°30' E 121°25'5533.7
2017-Jun-24 13:58N 31°26' E 121°29'10308.6
2017-Jun-24 13:56N 31°31' E 121°19'1635.3
2017-Jun-24 13:30N 31°24' E 121°36'162546.1
2017-Jun-24 13:29N 31°32' E 121°20'5108.9
2017-Jun-24 13:27N 31°30' E 121°25'0 1.4
2017-Jun-24 13:22N 31°30' E 121°25'0 0.8
2017-Jun-24 13:00N 31°29' E 121°25'111402.4
2017-Jun-24 12:59N 31°24' E 121°36'2058.4
2017-Jun-24 12:39N 31°36' E 121°17'962.8
2017-Jun-24 12:30N 31°30' E 121°25'1799.2
2017-Jun-24 12:30N 31°30' E 121°23'12595.6
2017-Jun-24 12:28N 31°24' E 121°36'22531.3
2017-Jun-24 12:26N 31°37' E 121°16'716.5
2017-Jun-24 12:00N 31°31' E 121°21'10954.9
2017-Jun-24 11:59N 31°39' E 121°13'25579.6
2017-Jun-24 11:56N 31°24' E 121°36'1141.7
2017-Jun-24 11:41N 31°30' E 121°25'636.0
2017-Jun-24 11:30N 31°33' E 121°19'6131.8
2017-Jun-24 11:28N 31°30' E 121°25'11597.1
2017-Jun-24 11:27N 31°24' E 121°36'412.3
2017-Jun-24 11:07N 31°22' E 121°40'431.4
2017-Jun-24 11:00N 31°24' E 121°36'20981.2
2017-Jun-24 10:59N 31°36' E 121°17'245046.3
2017-Jun-24 10:58N 31°22' E 121°40'1537.8
2017-Jun-24 10:35N 31°30' E 121°25'12143.1
2017-Jun-24 10:30N 31°38' E 121°15'126131.2
2017-Jun-24 10:30N 31°30' E 121°25'11596.7
2017-Jun-24 10:29N 31°24' E 121°36'474.6
2017-Jun-24 10:25N 31°22' E 121°40'825.0
2017-Jun-24 10:06N 31°23' E 121°31'23210.3
2017-Jun-24 10:00N 31°40' E 121°12'301374.4
2017-Jun-24 09:58N 31°22' E 121°40'15326.5
2017-Jun-24 09:56N 31°30' E 121°25'113282.9
2017-Jun-24 09:55N 31°24' E 121°36'0 0.0
2017-Jun-24 09:29N 31°24' E 121°36'44723.0
2017-Jun-24 09:29N 31°22' E 121°40'15478.1
2017-Jun-24 09:27N 31°30' E 121°25'19514.3
2017-Jun-24 09:24N 31°42' E 121°08'3477.5
2017-Jun-24 08:58N 31°22' E 121°40'481.4
2017-Jun-24 08:56N 31°24' E 121°36'11518.4
2017-Jun-24 08:54N 31°30' E 121°25'0 0.0
2017-Jun-24 08:24N 31°30' E 121°25'15576.0
2017-Jun-24 08:22N 31°22' E 121°40'449.4
2017-Jun-24 08:18N 31°24' E 121°36'2204.3
2017-Jun-24 08:17N 31°22' E 121°36'311.0
2017-Jun-24 07:58N 31°22' E 121°40'487.6
2017-Jun-24 07:56N 31°24' E 121°36'1134.7
2017-Jun-24 07:37N 31°30' E 121°25'15103.8
2017-Jun-24 07:28N 31°22' E 121°40'4425.1
2017-Jun-24 07:28N 31°24' E 121°36'1144.1
2017-Jun-24 07:13N 31°30' E 121°25'1153.4
2017-Jun-24 07:00N 31°24' E 121°36'61877.2
2017-Jun-24 07:00N 31°20' E 121°40'17230.6
2017-Jun-24 06:56N 31°30' E 121°25'1125.9
2017-Jun-24 06:30N 31°24' E 121°36'6164.9
2017-Jun-24 06:28N 31°20' E 121°40'1742.9
2017-Jun-24 06:05N 31°30' E 121°25'1195.2
2017-Jun-24 05:58N 31°24' E 121°36'6225.6
2017-Jun-24 05:56N 31°20' E 121°40'17479.5
2017-Jun-24 05:54N 31°30' E 121°25'0 0.0
2017-Jun-24 05:28N 31°30' E 121°25'11502.3
2017-Jun-24 05:27N 31°24' E 121°36'11270.5
2017-Jun-24 05:24N 31°14' E 121°29'11412.6
2017-Jun-24 05:22N 31°20' E 121°40'615.4
2017-Jun-24 04:59N 31°24' E 121°36'6172.4
2017-Jun-24 04:57N 31°20' E 121°40'92131.1
2017-Jun-24 04:57N 31°15' E 121°31'3774.0
2017-Jun-24 04:27N 31°45' E 121°06'332216.1
2017-Jun-24 04:26N 31°24' E 121°36'6487.0
2017-Jun-24 04:25N 31°20' E 121°40'3685.6
2017-Jun-24 04:00N 31°43' E 121°09'30461.7
2017-Jun-24 03:57N 31°24' E 121°36'6564.8
2017-Jun-24 03:56N 31°20' E 121°40'30208.6
2017-Jun-24 03:47N 31°39' E 121°13'1 4.4
2017-Jun-24 03:29N 31°40' E 121°12'32610.1
2017-Jun-24 03:26N 31°20' E 121°40'30546.2
2017-Jun-24 03:23N 31°39' E 121°13'24442.9
2017-Jun-24 03:20N 31°24' E 121°36'8583527.4
2017-Jun-24 03:05N 21°12' E 110°25'0 0.0
2017-Jun-24 03:00N 21°12' E 110°25'858181738.5
2017-Jun-24 03:00N 31°20' E 121°40'6195.0
2017-Jun-24 02:58N 31°24' E 121°36'229916.2
2017-Jun-24 02:58N 31°38' E 121°16'332.2
2017-Jun-24 02:54N 31°39' E 121°13'8542186.7
2017-Jun-24 02:30N 21°11' E 110°26'85599264.2
2017-Jun-24 02:30N 31°36' E 121°18'5228.7
2017-Jun-24 02:28N 31°39' E 121°13'148165.0
2017-Jun-24 02:28N 31°30' E 121°25'111044.6
2017-Jun-24 02:27N 31°24' E 121°36'6157.5
2017-Jun-24 02:25N 31°20' E 121°40'8572052.8
2017-Jun-24 02:00N 21°11' E 110°27'853192010.6
2017-Jun-24 02:00N 31°39' E 121°13'8748.7
2017-Jun-24 01:59N 31°33' E 121°20'22666.9
2017-Jun-24 01:57N 31°20' E 121°40'5263.4
2017-Jun-24 01:56N 31°22' E 121°36'228.3
2017-Jun-24 01:52N 31°24' E 121°36'425.7
2017-Jun-24 01:41N 31°24' E 121°31'424.8
2017-Jun-24 01:30N 31°24' E 121°36'856146694.7
2017-Jun-24 01:30N 21°12' E 110°28'85350334.5
2017-Jun-24 01:29N 31°32' E 121°23'19428.5
2017-Jun-24 01:26N 31°20' E 121°40'9274.5
2017-Jun-24 01:25N 31°24' E 121°32'22116.0
2017-Jun-24 01:13N 31°39' E 121°13'14147.8
2017-Jun-24 01:08N 31°30' E 121°25'16138.5
2017-Jun-24 01:01N 31°20' E 121°40'101099.5
2017-Jun-24 01:00N 31°25' E 121°30'7904.2
2017-Jun-24 01:00N 31°30' E 121°24'854219607.8
2017-Jun-24 00:59N 21°11' E 110°27'857171423.1
2017-Jun-24 00:59N 31°24' E 121°36'11126.3
2017-Jun-24 00:54N 31°30' E 121°25'1492.0
2017-Jun-24 00:45N 31°39' E 121°13'1356.6
2017-Jun-24 00:31N 31°30' E 121°25'154906.3
2017-Jun-24 00:30N 31°22' E 121°39'859237877.6
2017-Jun-24 00:30N 21°12' E 110°25'85524052.8
2017-Jun-24 00:28N 31°30' E 121°25'11458.2
2017-Jun-24 00:27N 31°24' E 121°36'25288.7
2017-Jun-24 00:21N 31°39' E 121°13'15176.4
2017-Jun-24 00:16N 31°28' E 121°26'1346.4
2017-Jun-23 23:59N 31°22' E 121°39'151458.3
2017-Jun-23 23:59N 31°29' E 121°25'85554953.5
2017-Jun-23 23:58N 21°12' E 110°25'85853276.4
2017-Jun-23 23:57N 31°24' E 121°36'1179.7
2017-Jun-23 23:48N 31°30' E 121°25'13110.8
2017-Jun-23 23:41N 31°39' E 121°13'14197.2
2017-Jun-23 23:37N 31°30' E 121°25'15132.1
2017-Jun-23 23:30N 31°22' E 121°39'859123699.3
2017-Jun-23 23:30N 21°12' E 110°25'85824140.9
2017-Jun-23 23:27N 31°24' E 121°36'144133.3
2017-Jun-23 23:27N 31°31' E 121°22'3144.0
2017-Jun-23 23:26N 31°30' E 121°25'13537.9
2017-Jun-23 23:25N 31°39' E 121°13'14228.7
2017-Jun-23 23:21N 31°30' E 121°25'616.1
2017-Jun-23 23:00N 31°33' E 121°19'8272.9
2017-Jun-23 22:58N 31°39' E 121°13'252262.2
2017-Jun-23 22:57N 31°24' E 121°36'4274.4
2017-Jun-23 22:57N 31°22' E 121°39'15634.9
2017-Jun-23 22:55N 31°30' E 121°25'0 4.0
2017-Jun-23 22:51N 31°30' E 121°25'538720349.3
2017-Jun-23 22:35N 49°18' W 123°03'538869022.0
2017-Jun-23 22:30N 31°35' E 121°17'82184.7
2017-Jun-23 22:30N 31°30' E 121°25'15870.5
2017-Jun-23 22:29N 31°22' E 121°39'5381210578.4
2017-Jun-23 22:28N 49°18' W 123°04'5382272897.5
2017-Jun-23 22:26N 31°24' E 121°36'11113.6
2017-Jun-23 22:21N 31°30' E 121°25'1132.2
2017-Jun-23 22:00N 31°24' E 121°36'457.5
2017-Jun-23 21:56N 31°22' E 121°39'5377523163.4
2017-Jun-23 21:56N 49°19' W 123°09'53811383755.7
2017-Jun-23 21:55N 31°30' E 121°25'1244311.7
2017-Jun-23 21:55N 31°38' E 121°14'1229.3
2017-Jun-23 21:30N 31°30' E 121°25'5381624863.7
2017-Jun-23 21:30N 49°18' W 123°10'5376297772.8
2017-Jun-23 21:29N 31°22' E 121°39'459.5
2017-Jun-23 21:25N 31°24' E 121°36'11135.0
2017-Jun-23 21:20N 31°30' E 121°25'537715611.6
2017-Jun-23 20:59N 49°19' W 123°15'5374716487.0
2017-Jun-23 20:59N 31°24' E 121°36'4154.2
2017-Jun-23 20:57N 31°22' E 121°39'15999.0
2017-Jun-23 20:56N 31°30' E 121°25'012.2
2017-Jun-23 20:55N 31°30' E 121°25'0 0.4
2017-Jun-23 20:31N 31°29' E 121°25'5375403107.5
2017-Jun-23 20:30N 49°20' W 123°17'5370623641.0
2017-Jun-23 20:29N 31°22' E 121°39'4199.0
2017-Jun-23 20:28N 31°24' E 121°36'1132.1
2017-Jun-23 20:08N 31°30' E 121°25'1590.1
2017-Jun-23 19:58N 31°22' E 121°39'472.3
2017-Jun-23 19:55N 31°24' E 121°36'10180.4
2017-Jun-23 19:51N 31°28' E 121°25'1 6.3
2017-Jun-23 19:39N 31°30' E 121°25'1168.1
2017-Jun-23 19:30N 31°24' E 121°36'4180.5
2017-Jun-23 19:28N 31°22' E 121°39'154423.0
2017-Jun-23 19:28N 31°30' E 121°25'120.9
2017-Jun-23 19:24N 31°28' E 121°25'20165.2
2017-Jun-23 19:17N 31°43' E 121°08'2061.4
2017-Jun-23 18:57N 31°28' E 121°25'10222.4
2017-Jun-23 18:55N 31°24' E 121°36'475.0
2017-Jun-23 18:52N 31°22' E 121°39'311565.9
2017-Jun-23 18:50N 31°41' E 121°11'3193.7
2017-Jun-23 18:30N 31°22' E 121°39'14416.6
2017-Jun-23 18:28N 31°28' E 121°25'10307.3
2017-Jun-23 18:26N 31°24' E 121°36'25289.4
2017-Jun-23 18:21N 31°39' E 121°13'2 6.0
2017-Jun-23 18:00N 31°38' E 121°15'133623.3
2017-Jun-23 18:00N 31°28' E 121°25'14211.9
2017-Jun-23 17:56N 31°22' E 121°39'420.0
2017-Jun-23 17:45N 31°24' E 121°36'1980.9
2017-Jun-23 17:30N 31°36' E 121°18'10659.6
2017-Jun-23 17:30N 31°28' E 121°25'10820.3
2017-Jun-23 17:29N 31°24' E 121°36'4391.3
2017-Jun-23 17:28N 31°22' E 121°39'2041.3
2017-Jun-23 16:59N 31°33' E 121°20'20525.8
2017-Jun-23 16:57N 31°22' E 121°39'4298.0
2017-Jun-23 16:56N 31°24' E 121°36'10129.8
2017-Jun-23 16:51N 31°28' E 121°25'3 9.0
2017-Jun-23 16:30N 31°31' E 121°23'3256.8
2017-Jun-23 16:29N 31°28' E 121°25'14289.8
2017-Jun-23 16:26N 31°22' E 121°39'4244.5
2017-Jun-23 16:26N 31°24' E 121°36'0 0.0
2017-Jun-23 15:57N 31°24' E 121°36'10563.9
2017-Jun-23 15:56N 31°28' E 121°25'2102.1
2017-Jun-23 15:55N 31°28' E 121°27'124336.8
2017-Jun-23 15:55N 31°22' E 121°39'4 8.8
2017-Jun-23 15:29N 31°24' E 121°36'5170.4
2017-Jun-23 15:27N 31°26' E 121°31'5665.9
2017-Jun-23 15:27N 31°28' E 121°25'147078.2
2017-Jun-23 15:27N 31°22' E 121°39'1431.7
2017-Jun-23 15:00N 31°28' E 121°25'145505.3
2017-Jun-23 15:00N 31°22' E 121°39'4318.5
2017-Jun-23 15:00N 31°24' E 121°36'1158.7
2017-Jun-23 14:59N 31°24' E 121°35'1 1.3
2017-Jun-23 14:00N 31°24' E 121°36'11968.4
2017-Jun-23 14:00N 31°30' E 121°25'155349.1
2017-Jun-23 14:00N 31°22' E 121°39'4391.2
2017-Jun-23 13:59N 31°19' E 121°43'33796.6
2017-Jun-23 13:57N 31°40' E 121°13'151182.9
2017-Jun-23 13:56N 31°28' E 121°25'17144.3
2017-Jun-23 13:49N 31°41' E 121°12'38126.1
2017-Jun-23 13:30N 31°16' E 121°46'221507.1
2017-Jun-23 13:30N 31°28' E 121°25'1715193.1
2017-Jun-23 13:29N 31°41' E 121°12'288.4
2017-Jun-23 13:28N 31°40' E 121°13'2914762.6
2017-Jun-23 13:28N 31°22' E 121°39'4428.3
2017-Jun-23 13:28N 31°24' E 121°36'115658.3
2017-Jun-23 13:28N 31°30' E 121°25'2758.1
2017-Jun-23 13:00N 31°13' E 121°49'4338318.2
2017-Jun-23 13:00N 31°41' E 121°12'1710131.4
2017-Jun-23 13:00N 31°28' E 121°25'14352.7
2017-Jun-23 12:57N 31°22' E 121°39'4623.6
2017-Jun-23 12:57N 31°24' E 121°36'11563.2
2017-Jun-23 12:56N 31°30' E 121°25'14150.8
2017-Jun-23 12:50N 31°40' E 121°13'30189.2
2017-Jun-23 12:41N 31°21' E 121°40'1589.0
2017-Jun-23 12:30N 31°10' E 121°53'131149.2
2017-Jun-23 12:30N 31°20' E 121°42'7218.7
2017-Jun-23 12:28N 31°24' E 121°36'4163.5
2017-Jun-23 12:26N 31°22' E 121°39'151607.0
2017-Jun-23 12:26N 31°30' E 121°25'148.4
2017-Jun-23 12:24N 31°28' E 121°25'15380.8
2017-Jun-23 12:22N 31°40' E 121°13'212.2
2017-Jun-23 12:14N 31°41' E 121°12'24340.5
2017-Jun-23 12:10N 31°24' E 121°31'1596.1
2017-Jun-23 12:01N 31°16' E 121°46'8240.0
2017-Jun-23 11:58N 31°22' E 121°39'41144.5
2017-Jun-23 11:58N 31°24' E 121°36'261867.6
2017-Jun-23 11:57N 31°41' E 121°12'17323.3
2017-Jun-23 11:54N 31°28' E 121°25'7748.5
2017-Jun-23 11:54N 31°22' E 121°30'221024.4
2017-Jun-23 11:52N 31°40' E 121°13'14519.7
2017-Jun-23 11:51N 31°30' E 121°25'2781.0
2017-Jun-23 11:30N 31°12' E 121°50'4315533.1
2017-Jun-23 11:30N 31°41' E 121°12'17345.4
2017-Jun-23 11:27N 31°28' E 121°25'148320.5
2017-Jun-23 11:27N 31°22' E 121°39'41263.0
2017-Jun-23 11:27N 31°24' E 121°36'25426.9
2017-Jun-23 11:24N 31°40' E 121°14'233551.9
2017-Jun-23 11:23N 31°24' E 121°32'8112.6
2017-Jun-23 11:19N 31°30' E 121°25'1 4.1
2017-Jun-23 11:00N 31°28' E 121°25'315555.1
2017-Jun-23 11:00N 31°09' E 121°54'227057.5
2017-Jun-23 11:00N 31°23' E 121°34'91259.3
2017-Jun-23 10:59N 31°28' E 121°26'9311.5
2017-Jun-23 10:57N 31°24' E 121°36'4239.5
2017-Jun-23 10:56N 31°22' E 121°39'308395.8
2017-Jun-23 10:56N 31°41' E 121°12'214.0
2017-Jun-23 10:49N 31°40' E 121°14'14136.5
2017-Jun-23 10:43N 31°30' E 121°25'1360.4
2017-Jun-23 10:31N 31°22' E 121°36'3439.2
2017-Jun-23 10:30N 31°22' E 121°39'14291.9
2017-Jun-23 10:27N 31°28' E 121°25'171351.2
2017-Jun-23 10:27N 31°41' E 121°12'263969.8
2017-Jun-23 10:26N 31°24' E 121°36'1347518.1
2017-Jun-23 10:26N 31°31' E 121°22'12720.6
2017-Jun-23 10:25N 31°40' E 121°14'5191851.7
2017-Jun-23 10:25N 31°06' E 121°58'2252.0
2017-Jun-23 10:00N 31°20' E 121°39'4726.3
2017-Jun-23 10:00N 31°24' E 121°36'4443.4
2017-Jun-23 09:59N 31°22' E 121°39'201217.6
2017-Jun-23 09:58N 31°32' E 121°20'696.9
2017-Jun-23 09:54N 31°28' E 121°25'17308.6
2017-Jun-23 09:51N 31°41' E 121°12'214.7
2017-Jun-23 09:45N 31°40' E 121°14'31132.3
2017-Jun-23 09:30N 31°19' E 121°41'3200.8
2017-Jun-23 09:29N 31°22' E 121°39'484.4
2017-Jun-23 09:27N 31°24' E 121°36'26680.3
2017-Jun-23 09:24N 31°41' E 121°12'7140.7
2017-Jun-23 09:21N 31°35' E 121°17'1066.0
2017-Jun-23 09:13N 31°28' E 121°25'1889.3
2017-Jun-23 09:00N 31°18' E 121°43'355744.6
2017-Jun-23 09:00N 31°41' E 121°12'224.1
2017-Jun-23 08:56N 31°40' E 121°13'251032.0
2017-Jun-23 08:55N 31°24' E 121°36'22555.4
2017-Jun-23 08:52N 31°37' E 121°15'26574.9
2017-Jun-23 08:49N 31°22' E 121°39'14276.3
2017-Jun-23 08:46N 31°28' E 121°25'0 0.0
2017-Jun-23 08:30N 31°28' E 121°25'173040.2
2017-Jun-23 08:30N 31°41' E 121°12'378323.8
2017-Jun-23 08:30N 31°17' E 121°45'7280.0
2017-Jun-23 08:28N 31°22' E 121°39'292724.2
2017-Jun-23 08:28N 31°40' E 121°13'112.3
2017-Jun-23 08:22N 31°40' E 121°12'251090.1
2017-Jun-23 08:21N 31°24' E 121°36'1156.3
2017-Jun-23 08:09N 31°30' E 121°25'21147.3
2017-Jun-23 08:00N 31°17' E 121°45'102033.4
2017-Jun-23 08:00N 31°24' E 121°36'4163.8
2017-Jun-23 07:59N 31°22' E 121°39'141715.9
2017-Jun-23 07:58N 31°28' E 121°25'1792.3
2017-Jun-23 07:47N 31°41' E 121°12'2694.4
2017-Jun-23 07:30N 31°24' E 121°36'63408.6
2017-Jun-23 07:30N 31°20' E 121°41'228.3
2017-Jun-23 07:26N 31°22' E 121°39'141244.0
2017-Jun-23 07:26N 31°28' E 121°25'17894.4
2017-Jun-23 07:24N 31°41' E 121°12'16270.3
2017-Jun-23 07:21N 31°30' E 121°25'1 3.6
2017-Jun-23 07:00N 31°28' E 121°25'14904.7
2017-Jun-23 06:59N 31°22' E 121°39'3189.7
2017-Jun-23 06:58N 31°22' E 121°36'281055.5
2017-Jun-23 06:57N 31°41' E 121°12'26302.4
2017-Jun-23 06:51N 31°24' E 121°36'0 0.0
2017-Jun-23 06:30N 31°24' E 121°36'91247.1
2017-Jun-23 06:29N 31°18' E 121°43'8345.1
2017-Jun-23 06:28N 31°22' E 121°35'271252.8
2017-Jun-23 06:26N 31°41' E 121°12'176787.1
2017-Jun-23 06:26N 31°28' E 121°25'14815.6
2017-Jun-23 06:25N 31°22' E 121°39'15105.4
2017-Jun-23 06:17N 31°30' E 121°25'2278.8
2017-Jun-23 06:00N 31°17' E 121°46'7199.4
2017-Jun-23 05:58N 31°22' E 121°39'30109410.6
2017-Jun-23 05:58N 31°41' E 121°12'281101.0
2017-Jun-23 05:57N 31°22' E 121°35'217.3
2017-Jun-23 05:50N 31°24' E 121°36'10320.5
2017-Jun-23 05:48N 31°28' E 121°25'1446.1
2017-Jun-23 05:30N 31°22' E 121°39'14236.1
2017-Jun-23 05:27N 31°28' E 121°25'10189.0
2017-Jun-23 05:24N 31°24' E 121°36'27770.3
2017-Jun-23 05:21N 31°41' E 121°12'28538.5
2017-Jun-23 05:18N 31°22' E 121°35'1234.7
2017-Jun-23 04:58N 31°29' E 121°25'11547.8
2017-Jun-23 04:57N 31°24' E 121°36'22255.2
2017-Jun-23 04:57N 31°22' E 121°35'28273.7
2017-Jun-23 04:51N 31°41' E 121°12'2773.7
2017-Jun-23 04:30N 31°24' E 121°36'4117.4
2017-Jun-23 04:28N 31°22' E 121°39'155501.3
2017-Jun-23 04:27N 31°30' E 121°24'121298.5
2017-Jun-23 04:27N 31°22' E 121°35'1253.8
2017-Jun-23 04:14N 31°30' E 121°25'16147.9
2017-Jun-23 04:07N 31°41' E 121°12'28173.8
2017-Jun-23 03:58N 31°22' E 121°35'3712.3
2017-Jun-23 03:57N 31°22' E 121°39'4806.3
2017-Jun-23 03:57N 31°24' E 121°36'232627.7
2017-Jun-23 03:57N 31°38' E 121°15'11194.9
2017-Jun-23 03:53N 31°30' E 121°24'15198.3
2017-Jun-23 03:49N 31°41' E 121°12'2 5.2
2017-Jun-23 03:30N 31°39' E 121°12'26528.4
2017-Jun-23 03:27N 31°22' E 121°35'285.1
2017-Jun-23 03:26N 31°24' E 121°36'11438.7
2017-Jun-23 03:24N 31°30' E 121°24'15874.6
2017-Jun-23 03:23N 31°41' E 121°12'3018204.5
2017-Jun-23 03:23N 31°22' E 121°39'3079.4
2017-Jun-23 03:00N 31°41' E 121°12'2105.8
2017-Jun-23 02:59N 31°41' E 121°09'29786.3
2017-Jun-23 02:57N 31°22' E 121°35'3118.7
2017-Jun-23 02:55N 31°22' E 121°39'15237.5
2017-Jun-23 02:51N 31°30' E 121°24'11877.0
2017-Jun-23 02:51N 31°24' E 121°36'2 5.5
2017-Jun-23 02:30N 31°22' E 121°36'35960.2
2017-Jun-23 02:30N 31°22' E 121°39'151443.6
2017-Jun-23 02:29N 31°30' E 121°24'11239.6
2017-Jun-23 02:26N 31°24' E 121°36'26354.5
2017-Jun-23 02:22N 31°41' E 121°12'431.8
2017-Jun-23 02:14N 31°43' E 121°08'30124.8
2017-Jun-23 02:00N 31°23' E 121°34'111070.6
2017-Jun-23 01:59N 31°30' E 121°24'151441.6
2017-Jun-23 01:59N 31°41' E 121°12'2264.4
2017-Jun-23 01:58N 31°42' E 121°10'32436.3
2017-Jun-23 01:54N 31°22' E 121°39'4380.8
2017-Jun-23 01:53N 31°24' E 121°36'1130.1
2017-Jun-23 01:30N 31°30' E 121°24'14874.7
2017-Jun-23 01:29N 31°40' E 121°13'1453.1
2017-Jun-23 01:29N 31°40' E 121°12'152235.0
2017-Jun-23 01:29N 31°30' E 121°25'151301.7
2017-Jun-23 01:28N 31°22' E 121°39'7125.2
2017-Jun-23 01:25N 31°24' E 121°31'24215.8
2017-Jun-23 01:18N 31°41' E 121°12'310.7
2017-Jun-23 00:59N 31°39' E 121°15'398.5
2017-Jun-23 00:57N 31°41' E 121°12'302056.4
2017-Jun-23 00:56N 31°22' E 121°39'2557.0
2017-Jun-23 00:30N 31°37' E 121°17'258899.5
2017-Jun-23 00:30N 31°22' E 121°39'15224.0
2017-Jun-23 00:26N 31°30' E 121°25'0103.7
2017-Jun-23 00:25N 31°30' E 121°24'15180.1
2017-Jun-23 00:20N 31°41' E 121°12'1544.3
2017-Jun-22 23:59N 31°30' E 121°24'8640.7
2017-Jun-22 23:59N 31°36' E 121°18'8895.9
2017-Jun-22 23:58N 31°41' E 121°12'30956.3
2017-Jun-22 23:56N 31°22' E 121°39'2144.7
2017-Jun-22 23:29N 31°34' E 121°20'10152.2
2017-Jun-22 23:25N 31°41' E 121°12'30323.5
2017-Jun-22 23:19N 31°22' E 121°39'151815.5
2017-Jun-22 23:19N 31°30' E 121°24'1489.9
2017-Jun-22 23:09N 31°40' E 121°14'1170.7
2017-Jun-22 23:00N 31°32' E 121°22'18330.1
2017-Jun-22 22:57N 31°22' E 121°39'292248.0
2017-Jun-22 22:56N 31°40' E 121°14'142624.1
2017-Jun-22 22:56N 31°30' E 121°24'15368.4
2017-Jun-22 22:53N 31°41' E 121°12'1437.4
2017-Jun-22 22:30N 31°30' E 121°24'163.8
2017-Jun-22 22:29N 31°30' E 121°24'15789.4
2017-Jun-22 22:28N 31°41' E 121°12'301123.9
2017-Jun-22 22:27N 31°22' E 121°39'29156.7
2017-Jun-22 22:16N 31°40' E 121°14'1349.6
2017-Jun-22 22:00N 31°30' E 121°24'13517.4
2017-Jun-22 21:58N 31°40' E 121°14'14398.9
2017-Jun-22 21:56N 31°30' E 121°24'15311.3
2017-Jun-22 21:53N 31°22' E 121°39'30851.7
2017-Jun-22 21:51N 31°41' E 121°12'16112.8
2017-Jun-22 21:43N 31°30' E 121°25'0 0.0
2017-Jun-22 21:30N 31°30' E 121°25'1517692.1
2017-Jun-22 21:30N 31°22' E 121°39'16331.8
2017-Jun-22 21:27N 31°30' E 121°24'1591.3
2017-Jun-22 21:27N 31°30' E 121°24'1518430.4
2017-Jun-22 21:27N 31°41' E 121°12'1129.8
2017-Jun-22 21:05N 31°32' E 121°20'0 5.6
2017-Jun-22 21:00N 31°33' E 121°20'11478.9
2017-Jun-22 20:59N 31°41' E 121°12'301626.9
2017-Jun-22 20:57N 31°22' E 121°39'161913.6
2017-Jun-22 20:57N 31°30' E 121°24'119.0
2017-Jun-22 20:54N 31°30' E 121°24'1538.3
2017-Jun-22 20:30N 31°41' E 121°12'234.2
2017-Jun-22 20:27N 31°40' E 121°14'294482.0
2017-Jun-22 20:27N 31°22' E 121°39'162208.0
2017-Jun-22 20:27N 31°30' E 121°24'141.6
2017-Jun-22 20:25N 31°30' E 121°24'0 4.2
2017-Jun-22 20:20N 31°30' E 121°25'1238.1
2017-Jun-22 20:00N 31°39' E 121°15'271169.1
2017-Jun-22 19:59N 31°22' E 121°39'1611483.7
2017-Jun-22 19:59N 31°30' E 121°24'15400.4
2017-Jun-22 19:56N 31°41' E 121°12'16144.0
2017-Jun-22 19:50N 31°30' E 121°25'0 1.3
2017-Jun-22 19:31N 31°30' E 121°24'10485.4
2017-Jun-22 19:30N 31°37' E 121°17'6536.8
2017-Jun-22 19:29N 31°41' E 121°12'301879.6
2017-Jun-22 19:28N 31°22' E 121°39'15365.5
2017-Jun-22 19:26N 31°30' E 121°24'110.8
2017-Jun-22 19:21N 31°30' E 121°24'164.0
2017-Jun-22 19:20N 31°30' E 121°25'1544.4
2017-Jun-22 19:00N 31°22' E 121°39'223497.9
2017-Jun-22 19:00N 31°35' E 121°18'181330.0
2017-Jun-22 18:59N 31°21' E 121°32'12557.1
2017-Jun-22 18:58N 31°30' E 121°24'1226.5
2017-Jun-22 18:57N 31°30' E 121°25'020.6
2017-Jun-22 18:56N 31°30' E 121°24'15345.6
2017-Jun-22 18:54N 31°41' E 121°12'536826399.2
2017-Jun-22 18:41N 49°27' W 123°23'536827685.6
2017-Jun-22 18:30N 31°33' E 121°21'20832.5
2017-Jun-22 18:28N 31°22' E 121°39'16631.0
2017-Jun-22 18:27N 31°30' E 121°24'9293.8
2017-Jun-22 18:25N 31°23' E 121°30'997.3
2017-Jun-22 18:20N 31°30' E 121°24'15387.4
2017-Jun-22 18:17N 31°41' E 121°12'2485.5
2017-Jun-22 18:00N 31°24' E 121°31'9310.7
2017-Jun-22 17:59N 31°30' E 121°24'162298.6
2017-Jun-22 17:58N 31°22' E 121°39'15229.0
2017-Jun-22 17:54N 31°30' E 121°25'1637.6
2017-Jun-22 17:29N 31°41' E 121°12'155244.7
2017-Jun-22 17:29N 31°30' E 121°24'73452.0
2017-Jun-22 17:29N 31°26' E 121°29'6422.7
2017-Jun-22 17:28N 31°30' E 121°25'155320.2
2017-Jun-22 17:28N 31°22' E 121°39'1557.3
2017-Jun-22 17:12N 31°30' E 121°24'1567.1
2017-Jun-22 16:58N 31°41' E 121°12'151415.3
2017-Jun-22 16:58N 31°30' E 121°24'1614416.6
2017-Jun-22 16:58N 31°22' E 121°39'1221512.9
2017-Jun-22 16:58N 31°28' E 121°27'285.2
2017-Jun-22 16:56N 31°26' E 121°30'690.1
2017-Jun-22 16:52N 31°30' E 121°24'1540.1
2017-Jun-22 16:29N 31°41' E 121°12'153745.0
2017-Jun-22 16:29N 31°30' E 121°24'2233.6
2017-Jun-22 16:28N 31°29' E 121°25'14381.0
2017-Jun-22 16:26N 31°22' E 121°39'1637.2
2017-Jun-22 16:00N 31°30' E 121°23'162139.4
2017-Jun-22 16:00N 31°22' E 121°39'16768.7
2017-Jun-22 15:59N 31°30' E 121°24'151690.8
2017-Jun-22 15:58N 31°41' E 121°12'1557.0
2017-Jun-22 15:42N 31°30' E 121°24'0 0.0
2017-Jun-22 15:30N 31°30' E 121°24'136.0
2017-Jun-22 15:29N 31°30' E 121°24'161921.4
2017-Jun-22 15:29N 31°22' E 121°39'30420.1
2017-Jun-22 15:24N 31°41' E 121°12'0 0.6
2017-Jun-22 15:00N 31°41' E 121°12'30885.0
2017-Jun-22 14:58N 31°22' E 121°39'16647.7
2017-Jun-22 14:57N 31°30' E 121°24'179.9
2017-Jun-22 14:56N 31°30' E 121°24'1227.7
2017-Jun-22 14:30N 31°39' E 121°15'5224.0
2017-Jun-22 14:29N 31°41' E 121°10'163771.0
2017-Jun-22 14:29N 31°30' E 121°24'16861.9
2017-Jun-22 14:28N 31°22' E 121°39'1465.1
2017-Jun-22 14:15N 31°11' E 121°28'29287.3
2017-Jun-22 14:09N 31°38' E 121°15'1268.1
2017-Jun-22 13:58N 31°30' E 121°24'920.3
2017-Jun-22 13:30N 31°37' E 121°17'4430.5
2017-Jun-22 13:30N 31°33' E 121°20'183161.0
2017-Jun-22 13:30N 31°22' E 121°36'9804.7
2017-Jun-22 13:29N 31°15' E 121°30'221895.3
2017-Jun-22 13:28N 31°35' E 121°19'656.8
2017-Jun-22 13:22N 31°30' E 121°24'110.9
2017-Jun-22 13:15N 31°30' E 121°25'727.1
2017-Jun-22 13:00N 31°34' E 121°19'2683.5
2017-Jun-22 13:00N 31°33' E 121°21'2446.9
2017-Jun-22 13:00N 31°31' E 121°22'15413.2
2017-Jun-22 12:58N 31°22' E 121°36'13780.5
2017-Jun-22 12:57N 31°30' E 121°24'122.1
2017-Jun-22 12:54N 31°30' E 121°25'0 1.1
2017-Jun-22 12:35N 31°30' E 121°24'339.5
2017-Jun-22 12:30N 31°32' E 121°22'162072.8
2017-Jun-22 12:30N 31°22' E 121°36'1140674.2
2017-Jun-22 12:30N 31°29' E 121°25'3129.9
2017-Jun-22 12:29N 31°31' E 121°22'353.2
2017-Jun-22 12:26N 31°30' E 121°25'0 4.0
2017-Jun-22 12:20N 31°30' E 121°24'1787.3
2017-Jun-22 12:20N 31°30' E 121°24'1 3.2
2017-Jun-22 12:00N 31°31' E 121°25'132580.1
2017-Jun-22 12:00N 31°22' E 121°36'14383.6
2017-Jun-22 11:58N 31°31' E 121°22'24489.8
2017-Jun-22 11:58N 31°30' E 121°25'146.9
2017-Jun-22 11:56N 31°30' E 121°24'117.5
2017-Jun-22 11:53N 31°30' E 121°24'291.3
2017-Jun-22 11:52N 31°28' E 121°25'1030.4
2017-Jun-22 11:32N 31°24' E 121°36'244.8
2017-Jun-22 11:30N 31°22' E 121°36'13282.3
2017-Jun-22 11:27N 31°30' E 121°24'24204.5
2017-Jun-22 11:27N 31°28' E 121°25'4533.0
2017-Jun-22 11:27N 31°31' E 121°22'2165.2
2017-Jun-22 11:26N 31°30' E 121°24'11199.2
2017-Jun-22 11:22N 31°24' E 121°36'442.8
2017-Jun-22 11:18N 31°25' E 121°32'0 2.8
2017-Jun-22 11:08N 31°25' E 121°31'429.3
2017-Jun-22 11:00N 31°24' E 121°36'2238.3
2017-Jun-22 11:00N 31°22' E 121°36'121058.1
2017-Jun-22 10:59N 31°30' E 121°24'2223.8
2017-Jun-22 10:59N 31°31' E 121°22'103600.3
2017-Jun-22 10:59N 31°25' E 121°32'9285.1
2017-Jun-22 10:57N 31°30' E 121°24'9388.6
2017-Jun-22 10:55N 31°24' E 121°32'442.2
2017-Jun-22 10:50N 31°27' E 121°29'24230.7
2017-Jun-22 10:43N 31°03' E 121°29'26524.6
2017-Jun-22 10:40N 31°28' E 121°25'0 0.0
2017-Jun-22 10:30N 31°28' E 121°25'7761.3
2017-Jun-22 10:30N 31°25' E 121°32'42287.0
2017-Jun-22 10:30N 31°22' E 121°36'12467.4
2017-Jun-22 10:28N 31°30' E 121°24'1140.3
2017-Jun-22 10:28N 31°30' E 121°24'172.9
2017-Jun-22 10:27N 31°31' E 121°22'131125.6
2017-Jun-22 10:26N 31°24' E 121°36'51148.3
2017-Jun-22 10:26N 31°26' E 121°30'614.8
2017-Jun-22 10:00N 31°30' E 121°24'1222220.9
2017-Jun-22 10:00N 31°22' E 121°36'121433.1
2017-Jun-22 10:00N 31°30' E 121°25'141.5
2017-Jun-22 09:58N 31°30' E 121°24'12308.0
2017-Jun-22 09:56N 31°24' E 121°36'13756.1
2017-Jun-22 09:55N 31°31' E 121°22'103601.6
2017-Jun-22 09:54N 31°25' E 121°32'7123.0
2017-Jun-22 09:51N 31°28' E 121°25'1447.7
2017-Jun-22 09:33N 31°15' E 121°32'18303.9
2017-Jun-22 09:30N 31°31' E 121°22'136914.1
2017-Jun-22 09:29N 31°24' E 121°36'2146.5
2017-Jun-22 09:29N 31°22' E 121°36'13404.2
2017-Jun-22 09:27N 31°30' E 121°24'14354.7
2017-Jun-22 09:27N 31°30' E 121°25'016.0
2017-Jun-22 09:25N 31°30' E 121°24'8342.6
2017-Jun-22 09:24N 31°25' E 121°32'1166.7
2017-Jun-22 09:14N 31°15' E 121°30'14118.9
2017-Jun-22 09:07N 31°29' E 121°25'0 5.1
2017-Jun-22 09:02N 31°28' E 121°25'11325.0
2017-Jun-22 09:00N 31°22' E 121°36'131588.3
2017-Jun-22 09:00N 31°30' E 121°24'9370.9
2017-Jun-22 08:58N 31°25' E 121°32'101029.4
2017-Jun-22 08:58N 31°31' E 121°22'3152.6
2017-Jun-22 08:57N 31°30' E 121°25'112318.6
2017-Jun-22 08:57N 31°24' E 121°36'11535.4
2017-Jun-22 08:55N 31°29' E 121°24'118.3
2017-Jun-22 08:53N 31°30' E 121°24'213.7
2017-Jun-22 08:46N 31°28' E 121°25'1 4.9
2017-Jun-22 08:31N 31°30' E 121°25'144997.0
2017-Jun-22 08:30N 31°22' E 121°38'1311519.5
2017-Jun-22 08:30N 31°28' E 121°25'2239.2
2017-Jun-22 08:30N 31°30' E 121°24'151461.9
2017-Jun-22 08:29N 31°17' E 121°34'9739.5
2017-Jun-22 08:29N 31°25' E 121°32'4115.3
2017-Jun-22 08:27N 31°24' E 121°36'134399.9
2017-Jun-22 08:26N 31°31' E 121°22'215.6
2017-Jun-22 08:20N 31°32' E 121°21'541.1
2017-Jun-22 08:12N 31°28' E 121°25'1473.9
2017-Jun-22 08:01N 31°15' E 121°31'146442.5
2017-Jun-22 08:00N 31°28' E 121°25'151983.4
2017-Jun-22 08:00N 31°22' E 121°41'5273.6
2017-Jun-22 07:59N 31°24' E 121°36'112138.6
2017-Jun-22 07:59N 31°30' E 121°24'62227.1
2017-Jun-22 07:58N 31°34' E 121°19'4175.6
2017-Jun-22 07:57N 31°31' E 121°22'11422.5
2017-Jun-22 07:56N 31°24' E 121°32'785.2
2017-Jun-22 07:51N 31°28' E 121°25'114.0
2017-Jun-22 07:45N 31°30' E 121°25'1 5.0
2017-Jun-22 07:29N 31°28' E 121°25'63160.0
2017-Jun-22 07:29N 31°32' E 121°20'214665.2
2017-Jun-22 07:28N 31°22' E 121°41'2615300.8
2017-Jun-22 07:28N 31°36' E 121°16'9533.3
2017-Jun-22 07:27N 31°30' E 121°24'11414.5
2017-Jun-22 07:26N 31°24' E 121°36'511.6
2017-Jun-22 07:00N 31°22' E 121°41'2382732.3
2017-Jun-22 07:00N 31°34' E 121°18'185018.5
2017-Jun-22 07:00N 31°24' E 121°36'102097.5
2017-Jun-22 07:00N 31°28' E 121°25'215.9
2017-Jun-22 06:53N 31°30' E 121°24'14142.5
2017-Jun-22 06:47N 31°39' E 121°12'1661.1
2017-Jun-22 06:32N 31°28' E 121°25'11360.6
2017-Jun-22 06:30N 31°36' E 121°16'9422.7
2017-Jun-22 06:29N 31°30' E 121°24'251.1
2017-Jun-22 06:27N 31°28' E 121°25'0 0.9
2017-Jun-22 06:19N 31°28' E 121°25'10254.6
2017-Jun-22 06:16N 31°24' E 121°36'51752.4
2017-Jun-22 06:16N 31°22' E 121°41'1660.3
2017-Jun-22 06:00N 31°30' E 121°24'1629072.1
2017-Jun-22 06:00N 31°22' E 121°41'28881.9
2017-Jun-22 05:58N 31°38' E 121°14'371680.3
2017-Jun-22 05:57N 31°03' E 121°29'224979.0
2017-Jun-22 05:57N 31°24' E 121°36'10563.6
2017-Jun-22 05:56N 31°28' E 121°25'0 2.5
2017-Jun-22 05:53N 31°28' E 121°25'0 0.3
2017-Jun-22 05:30N 31°28' E 121°25'10166.9
2017-Jun-22 05:27N 31°24' E 121°36'25974.0
2017-Jun-22 05:25N 31°40' E 121°12'393544.4
2017-Jun-22 05:25N 31°03' E 121°29'275448.7
2017-Jun-22 05:24N 31°30' E 121°24'16253.8
2017-Jun-22 05:20N 31°22' E 121°41'151475.7
2017-Jun-22 05:20N 31°28' E 121°25'1030.7
2017-Jun-22 05:00N 31°24' E 121°36'5415.7
2017-Jun-22 05:00N 31°22' E 121°41'323360.8
2017-Jun-22 04:59N 31°41' E 121°11'411154.1
2017-Jun-22 04:57N 31°03' E 121°29'269219.0
2017-Jun-22 04:57N 31°28' E 121°25'228.7
2017-Jun-22 04:53N 31°30' E 121°24'2 4.6
2017-Jun-22 04:29N 31°28' E 121°25'191837.1
2017-Jun-22 04:28N 31°41' E 121°09'175134.2
2017-Jun-22 04:28N 31°30' E 121°24'16203.7
2017-Jun-22 04:23N 31°22' E 121°41'5406.5
2017-Jun-22 04:22N 31°24' E 121°36'1024.0
2017-Jun-22 03:58N 31°28' E 121°25'10516.4
2017-Jun-22 03:57N 31°24' E 121°36'5194.3
2017-Jun-22 03:55N 31°22' E 121°41'16136.2
2017-Jun-22 03:48N 31°30' E 121°24'0 3.6
2017-Jun-22 03:41N 31°30' E 121°25'0 2.2
2017-Jun-22 03:29N 31°30' E 121°24'162256.3
2017-Jun-22 03:29N 31°22' E 121°41'15171.7
2017-Jun-22 03:24N 31°28' E 121°25'1097.1
2017-Jun-22 03:18N 31°24' E 121°36'45411936.4
2017-Jun-22 03:15N 24°30' E 118°04'4329433.3
2017-Jun-22 03:13N 31°03' E 121°29'27135.7
2017-Jun-22 03:00N 31°30' E 121°24'45322647.1
2017-Jun-22 02:59N 24°32' E 118°05'45220079.2
2017-Jun-22 02:58N 31°28' E 121°25'101484.6
2017-Jun-22 02:57N 31°24' E 121°36'571.4
2017-Jun-22 02:53N 31°22' E 121°41'1567.4
2017-Jun-22 02:40N 31°28' E 121°25'110.0
2017-Jun-22 02:32N 31°30' E 121°25'014.3
2017-Jun-22 02:30N 31°30' E 121°24'16359.9
2017-Jun-22 02:27N 31°22' E 121°41'5158.9
2017-Jun-22 02:26N 31°24' E 121°36'4516741.7
2017-Jun-22 02:22N 24°33' E 118°06'45112128.1
2017-Jun-22 02:19N 31°28' E 121°25'4511234.0
2017-Jun-22 01:57N 24°33' E 118°06'45150728.6
2017-Jun-22 01:57N 31°22' E 121°41'161956.2
2017-Jun-22 01:56N 31°30' E 121°24'11110.4
2017-Jun-22 01:50N 31°24' E 121°36'10190.5
2017-Jun-22 01:47N 31°28' E 121°25'1034.7
2017-Jun-22 01:30N 31°24' E 121°36'5213.2
2017-Jun-22 01:29N 31°22' E 121°41'15515.2
2017-Jun-22 01:27N 31°28' E 121°25'2374.1
2017-Jun-22 01:26N 31°30' E 121°24'214.6
2017-Jun-22 01:19N 31°28' E 121°25'1 2.0
2017-Jun-22 01:00N 31°29' E 121°25'144.1
2017-Jun-22 00:58N 31°30' E 121°24'11915.2
2017-Jun-22 00:58N 31°24' E 121°36'45130087.9
2017-Jun-22 00:57N 24°33' E 118°06'45118239.7
2017-Jun-22 00:55N 31°22' E 121°41'222093.4
2017-Jun-22 00:55N 31°31' E 121°17'4511122.2
2017-Jun-22 00:30N 24°32' E 118°05'45258149.8
2017-Jun-22 00:30N 31°31' E 121°19'4134.8
2017-Jun-22 00:28N 31°30' E 121°23'171197.6
2017-Jun-22 00:27N 31°22' E 121°41'571.4
2017-Jun-22 00:23N 31°24' E 121°36'116819.3
2017-Jun-22 00:23N 31°30' E 121°24'410.8
2017-Jun-22 00:00N 31°32' E 121°20'201593.0
2017-Jun-21 23:59N 31°22' E 121°41'16340.8
2017-Jun-21 23:56N 31°30' E 121°24'11175.8
2017-Jun-21 23:53N 31°24' E 121°36'1744.0
2017-Jun-21 23:29N 31°33' E 121°19'171596.2
2017-Jun-21 23:28N 31°24' E 121°36'5364.2
2017-Jun-21 23:28N 31°22' E 121°41'1581.6
2017-Jun-21 23:17N 31°28' E 121°25'255.7
2017-Jun-21 23:15N 31°30' E 121°24'0 2.6
2017-Jun-21 23:05N 31°30' E 121°25'0 4.8
2017-Jun-21 23:00N 31°30' E 121°24'2699.8
2017-Jun-21 23:00N 31°28' E 121°25'10490.1
2017-Jun-21 22:59N 31°24' E 121°36'5100.2
2017-Jun-21 22:56N 31°22' E 121°41'25740.3
2017-Jun-21 22:54N 31°36' E 121°17'2562.3
2017-Jun-21 22:30N 31°22' E 121°41'272619.7
2017-Jun-21 22:30N 31°37' E 121°15'223982.6
2017-Jun-21 22:29N 31°24' E 121°36'11799.2
2017-Jun-21 22:29N 31°30' E 121°24'258.1
2017-Jun-21 22:27N 31°28' E 121°25'1022.6
2017-Jun-21 22:00N 31°24' E 121°36'2522756.0
2017-Jun-21 22:00N 31°40' E 121°12'141814.2
2017-Jun-21 22:00N 31°30' E 121°24'16613.9
2017-Jun-21 21:58N 31°22' E 121°41'1513327.3
2017-Jun-21 21:58N 31°28' E 121°25'1 3.4
2017-Jun-21 21:34N 31°30' E 121°25'11118.0
2017-Jun-21 21:29N 31°24' E 121°36'11558.5
2017-Jun-21 21:27N 31°30' E 121°24'2190.2
2017-Jun-21 21:27N 31°28' E 121°25'15522.5
2017-Jun-21 21:25N 31°22' E 121°41'1673.2
2017-Jun-21 21:12N 31°30' E 121°25'1671.5
2017-Jun-21 20:59N 31°22' E 121°41'5730.2
2017-Jun-21 20:59N 31°24' E 121°36'10131.2
2017-Jun-21 20:54N 31°28' E 121°25'243.9
2017-Jun-21 20:52N 31°30' E 121°24'1641.1
2017-Jun-21 20:28N 31°22' E 121°41'565.0
2017-Jun-21 20:23N 31°24' E 121°36'1043.7
2017-Jun-21 20:10N 31°28' E 121°25'296.0
2017-Jun-21 20:09N 31°30' E 121°24'0 0.0
2017-Jun-21 19:59N 31°30' E 121°24'2130.0
2017-Jun-21 19:58N 31°28' E 121°25'15502.7
2017-Jun-21 19:56N 31°22' E 121°41'5762.9
2017-Jun-21 19:56N 31°24' E 121°36'511.4
2017-Jun-21 19:30N 31°22' E 121°41'5626.2
2017-Jun-21 19:30N 31°24' E 121°36'10153.6
2017-Jun-21 19:26N 31°28' E 121°25'243.6
2017-Jun-21 19:23N 31°30' E 121°24'1642.4
2017-Jun-21 19:00N 31°22' E 121°41'16401.9
2017-Jun-21 18:58N 31°30' E 121°24'11679.3
2017-Jun-21 18:57N 31°24' E 121°36'10942.0
2017-Jun-21 18:56N 31°28' E 121°25'1 3.5
2017-Jun-21 18:33N 31°30' E 121°25'117.1
2017-Jun-21 18:28N 31°28' E 121°25'15884.9
2017-Jun-21 18:27N 31°22' E 121°41'5211.8
2017-Jun-21 18:26N 31°24' E 121°36'1137.4
2017-Jun-21 18:07N 31°30' E 121°24'16136.0
2017-Jun-21 18:00N 31°22' E 121°41'16324.4
2017-Jun-21 17:57N 31°30' E 121°24'111507.9
2017-Jun-21 17:57N 31°24' E 121°36'10372.7
2017-Jun-21 17:55N 31°28' E 121°25'3 8.5
2017-Jun-21 17:35N 31°30' E 121°23'13135.1
2017-Jun-21 17:30N 31°24' E 121°36'13412.7
2017-Jun-21 17:28N 31°30' E 121°23'150.9
2017-Jun-21 17:26N 31°30' E 121°24'244.7
2017-Jun-21 17:24N 31°28' E 121°25'151516.5
2017-Jun-21 17:23N 31°22' E 121°41'16360.0
2017-Jun-21 17:21N 31°30' E 121°25'1 3.9
2017-Jun-21 17:00N 31°28' E 121°25'22196.8
2017-Jun-21 17:00N 31°30' E 121°24'162919.0
2017-Jun-21 16:59N 31°22' E 121°41'161296.1
2017-Jun-21 16:59N 31°30' E 121°25'11944.9
2017-Jun-21 16:58N 31°24' E 121°36'131263.9
2017-Jun-21 16:57N 31°30' E 121°23'1737.8
2017-Jun-21 16:30N 31°22' E 121°41'573.2
2017-Jun-21 16:26N 31°24' E 121°36'114576.0
2017-Jun-21 16:26N 31°30' E 121°24'132.6
2017-Jun-21 16:23N 31°30' E 121°23'327.3
2017-Jun-21 16:17N 31°28' E 121°25'1035.8
2017-Jun-21 16:00N 31°24' E 121°36'58740.1
2017-Jun-21 16:00N 31°22' E 121°41'15842.2
2017-Jun-21 15:59N 31°28' E 121°25'231.9
2017-Jun-21 15:56N 31°30' E 121°24'111.7
2017-Jun-21 15:49N 31°30' E 121°23'1339.1
2017-Jun-21 15:30N 31°24' E 121°36'11424.6
2017-Jun-21 15:28N 31°30' E 121°24'117.7
2017-Jun-21 15:24N 31°30' E 121°23'183505.5
2017-Jun-21 15:24N 31°22' E 121°41'1559.3
2017-Jun-21 15:09N 31°28' E 121°25'317.5
2017-Jun-21 14:59N 31°30' E 121°23'183505.5
2017-Jun-21 14:58N 31°22' E 121°41'164887.7
2017-Jun-21 14:58N 31°30' E 121°24'246.6
2017-Jun-21 14:56N 31°28' E 121°25'10184.6
2017-Jun-21 14:53N 31°24' E 121°36'2783.9
2017-Jun-21 14:33N 31°41' E 121°11'15136.4
2017-Jun-21 14:27N 31°30' E 121°24'1619550.8
2017-Jun-21 14:27N 31°22' E 121°41'15234.8
2017-Jun-21 14:23N 31°28' E 121°25'10404.8
2017-Jun-21 14:21N 31°24' E 121°36'13244.0
2017-Jun-21 14:18N 31°30' E 121°23'927.7
2017-Jun-21 13:58N 31°37' E 121°16'4 8.6
2017-Jun-21 13:29N 31°34' E 121°19'61172.6
2017-Jun-21 13:28N 31°30' E 121°24'11858.0
2017-Jun-21 13:27N 31°24' E 121°36'131014.0
2017-Jun-21 13:27N 31°30' E 121°23'183155.5
2017-Jun-21 13:26N 31°22' E 121°41'1564.6
2017-Jun-21 13:13N 31°28' E 121°25'419.3
2017-Jun-21 13:01N 31°31' E 121°22'1412322.2
2017-Jun-21 13:00N 31°24' E 121°36'11614.7
2017-Jun-21 12:59N 31°30' E 121°24'2257.5
2017-Jun-21 12:59N 31°28' E 121°25'369.8
2017-Jun-21 12:56N 31°30' E 121°23'18280.5
2017-Jun-21 12:53N 31°22' E 121°41'2383.4
2017-Jun-21 12:36N 31°35' E 121°18'751.2
2017-Jun-21 12:27N 31°30' E 121°24'1611732.7
2017-Jun-21 12:27N 31°22' E 121°41'245408.3
2017-Jun-21 12:27N 31°35' E 121°17'9416.7
2017-Jun-21 12:26N 31°29' E 121°25'11124.4
2017-Jun-21 12:21N 31°24' E 121°36'996.7
2017-Jun-21 12:15N 31°28' E 121°26'431.6
2017-Jun-21 12:08N 31°30' E 121°23'0 0.0
2017-Jun-21 12:00N 31°30' E 121°23'185737.2
2017-Jun-21 12:00N 31°22' E 121°41'273002.1
2017-Jun-21 11:59N 31°37' E 121°15'112432.1
2017-Jun-21 11:59N 31°29' E 121°24'120.2
2017-Jun-21 11:57N 31°30' E 121°24'113.2
2017-Jun-21 11:55N 31°29' E 121°24'111803.1
2017-Jun-21 11:54N 31°24' E 121°36'26176.3
2017-Jun-21 11:45N 31°40' E 121°12'32604.8
2017-Jun-21 11:42N 31°20' E 121°42'17635.3
2017-Jun-21 11:41N 31°28' E 121°25'18105.7
2017-Jun-21 11:30N 31°18' E 121°43'211595.8
2017-Jun-21 11:29N 31°30' E 121°23'134126.8
2017-Jun-21 11:29N 31°24' E 121°36'5971.1
2017-Jun-21 11:29N 31°22' E 121°41'182462.7
2017-Jun-21 11:28N 31°30' E 121°23'157.3
2017-Jun-21 11:27N 31°31' E 121°22'4158.5
2017-Jun-21 11:26N 31°28' E 121°25'177.5
2017-Jun-21 11:25N 31°30' E 121°25'131054.8
2017-Jun-21 11:24N 31°39' E 121°14'1371.3
2017-Jun-21 11:13N 31°30' E 121°24'1886.4
2017-Jun-21 11:01N 31°42' E 121°08'437767.6
2017-Jun-21 11:00N 31°15' E 121°47'147014.9
2017-Jun-21 11:00N 31°24' E 121°36'151286.3
2017-Jun-21 10:59N 31°31' E 121°21'3266.6
2017-Jun-21 10:59N 31°30' E 121°24'6621.8
2017-Jun-21 10:58N 31°34' E 121°19'7391.3
2017-Jun-21 10:57N 31°39' E 121°13'292411.3
2017-Jun-21 10:56N 31°22' E 121°41'17344.6
2017-Jun-21 10:53N 31°30' E 121°23'2250.9
2017-Jun-21 10:53N 31°30' E 121°25'133.5
2017-Jun-21 10:50N 31°28' E 121°25'720.8
2017-Jun-21 10:30N 31°33' E 121°19'354368.2
2017-Jun-21 10:29N 31°11' E 121°51'429549.1
2017-Jun-21 10:29N 31°39' E 121°13'292033.3
2017-Jun-21 10:28N 31°22' E 121°41'161290.6
2017-Jun-21 10:27N 31°30' E 121°24'069.2
2017-Jun-21 10:27N 31°30' E 121°25'182.5
2017-Jun-21 10:26N 31°28' E 121°25'10235.4
2017-Jun-21 10:24N 31°24' E 121°36'23260.6
2017-Jun-21 10:18N 31°38' E 121°14'11963.4
2017-Jun-21 10:18N 31°30' E 121°23'724.4
2017-Jun-21 10:00N 31°35' E 121°17'4275858.1
2017-Jun-21 10:00N 31°08' E 121°55'476769.5
2017-Jun-21 10:00N 31°39' E 121°13'24639.6
2017-Jun-21 09:57N 31°24' E 121°36'5921.1
2017-Jun-21 09:57N 31°22' E 121°41'2911537.0
2017-Jun-21 09:57N 31°39' E 121°13'133404.9
2017-Jun-21 09:57N 31°30' E 121°25'2241.3
2017-Jun-21 09:56N 31°30' E 121°23'1129.5
2017-Jun-21 09:56N 31°30' E 121°24'250.0
2017-Jun-21 09:54N 31°28' E 121°25'3 7.3
2017-Jun-21 09:30N 31°30' E 121°23'12321.4
2017-Jun-21 09:28N 31°39' E 121°13'14487.2
2017-Jun-21 09:28N 31°38' E 121°15'2812421.5
2017-Jun-21 09:28N 31°22' E 121°41'5230.4
2017-Jun-21 09:27N 31°24' E 121°36'11301.7
2017-Jun-21 09:24N 31°30' E 121°24'13240.6
2017-Jun-21 09:21N 31°39' E 121°13'2470.6
2017-Jun-21 09:00N 31°24' E 121°36'242058.1
2017-Jun-21 09:00N 31°39' E 121°13'133853.6
2017-Jun-21 09:00N 31°30' E 121°24'1260.4
2017-Jun-21 08:59N 31°30' E 121°23'14522.4
2017-Jun-21 08:58N 31°40' E 121°12'3122212.5
2017-Jun-21 08:58N 31°22' E 121°41'16486.0
2017-Jun-21 08:56N 31°30' E 121°25'13164.0
2017-Jun-21 08:51N 31°39' E 121°13'15117.1
2017-Jun-21 08:43N 31°28' E 121°25'1 5.1
2017-Jun-21 08:27N 31°30' E 121°25'023.3
2017-Jun-21 08:26N 31°30' E 121°24'1629118.2
2017-Jun-21 08:26N 31°22' E 121°41'1762896.2
2017-Jun-21 08:26N 31°30' E 121°23'132063.4
2017-Jun-21 08:26N 31°24' E 121°36'24122.6
2017-Jun-21 08:14N 31°39' E 121°13'44461.6
2017-Jun-21 08:08N 31°58' E 120°27'44280.2
2017-Jun-21 07:59N 31°39' E 121°13'131711.1
2017-Jun-21 07:59N 31°30' E 121°24'16710.3
2017-Jun-21 07:57N 31°22' E 121°41'5397.5
2017-Jun-21 07:56N 31°24' E 121°36'13237.7
2017-Jun-21 07:53N 31°30' E 121°23'239.3
2017-Jun-21 07:51N 31°30' E 121°25'1 6.0
2017-Jun-21 07:37N 31°28' E 121°25'1079.3
2017-Jun-21 07:29N 31°24' E 121°36'242619.9
2017-Jun-21 07:29N 31°39' E 121°13'13228.7
2017-Jun-21 07:26N 31°30' E 121°24'221.9
2017-Jun-21 07:21N 31°28' E 121°25'1541.1
2017-Jun-21 07:21N 31°30' E 121°25'16191.0
2017-Jun-21 07:16N 31°22' E 121°41'72490.8
2017-Jun-21 07:07N 31°58' E 120°27'552534.3
2017-Jun-21 07:05N 31°30' E 121°23'114.7
2017-Jun-21 07:00N 31°30' E 121°24'111314.0
2017-Jun-21 07:00N 31°24' E 121°36'242216.8
2017-Jun-21 06:59N 31°39' E 121°13'29476.8
2017-Jun-21 06:55N 31°22' E 121°41'171032.3
2017-Jun-21 06:54N 31°30' E 121°23'555342.5
2017-Jun-21 06:54N 31°58' E 120°27'57342.9
2017-Jun-21 06:44N 31°30' E 121°25'2 7.1
2017-Jun-21 06:30N 31°30' E 121°23'2109.7
2017-Jun-21 06:29N 31°30' E 121°25'162033.2
2017-Jun-21 06:28N 31°22' E 121°41'161041.1
2017-Jun-21 06:27N 31°30' E 121°24'11184.3
2017-Jun-21 06:24N 31°24' E 121°36'24193.8
2017-Jun-21 06:16N 31°39' E 121°13'45243.8
2017-Jun-21 06:05N 31°59' E 120°26'117.5
2017-Jun-21 06:01N 31°58' E 120°27'553350.4
2017-Jun-21 06:00N 31°30' E 121°23'5611815.9
2017-Jun-21 06:00N 31°59' E 120°27'4516062.6
2017-Jun-21 06:00N 31°39' E 121°13'443216.4
2017-Jun-21 05:59N 31°58' E 120°27'723178.5
2017-Jun-21 05:58N 31°22' E 121°41'164486.5
2017-Jun-21 05:58N 31°30' E 121°24'11324.9
2017-Jun-21 05:56N 31°24' E 121°36'11237.9
2017-Jun-21 05:53N 31°30' E 121°25'1561.9
2017-Jun-21 05:38N 31°40' E 121°13'25154.0
2017-Jun-21 05:28N 31°24' E 121°36'675783.8
2017-Jun-21 05:28N 31°58' E 120°27'558594.5
2017-Jun-21 05:27N 31°30' E 121°23'17567.2
2017-Jun-21 05:26N 31°22' E 121°41'16225.2
2017-Jun-21 05:21N 31°30' E 121°24'280.0
2017-Jun-21 05:20N 31°28' E 121°25'14150.9
2017-Jun-21 05:14N 31°39' E 121°13'13106.0
2017-Jun-21 05:07N 31°30' E 121°25'57505.3
2017-Jun-21 05:00N 31°58' E 120°27'73130730.0
2017-Jun-21 05:00N 31°21' E 121°41'5227.6
2017-Jun-21 04:59N 31°24' E 121°36'132389.2
2017-Jun-21 04:58N 31°30' E 121°23'249.3
2017-Jun-21 04:56N 31°30' E 121°25'0193.1
2017-Jun-21 04:56N 31°30' E 121°24'212.3
2017-Jun-21 04:48N 31°28' E 121°25'14525.7
2017-Jun-21 04:46N 31°39' E 121°13'30113.2
2017-Jun-21 04:30N 31°20' E 121°41'172176.6
2017-Jun-21 04:29N 31°30' E 121°25'13966.2
2017-Jun-21 04:29N 31°39' E 121°13'122092.2
2017-Jun-21 04:28N 31°30' E 121°23'3148.0
2017-Jun-21 04:27N 31°28' E 121°25'10342.6
2017-Jun-21 04:25N 31°24' E 121°36'11545.5
2017-Jun-21 04:24N 31°30' E 121°24'569619.7
2017-Jun-21 04:24N 31°58' E 120°27'44111.1
2017-Jun-21 04:00N 31°39' E 121°13'304915.1
2017-Jun-21 04:00N 31°19' E 121°41'19807.6
2017-Jun-21 03:58N 31°30' E 121°23'11112.0
2017-Jun-21 03:58N 31°30' E 121°24'56933.9
2017-Jun-21 03:55N 31°58' E 120°27'6726991.2
2017-Jun-21 03:55N 31°24' E 121°36'615.1
2017-Jun-21 03:30N 31°20' E 121°41'6131.5
2017-Jun-21 03:27N 31°24' E 121°36'241463.1
2017-Jun-21 03:27N 31°39' E 121°13'12394.6
2017-Jun-21 03:25N 31°30' E 121°23'155.7
2017-Jun-21 03:23N 31°30' E 121°24'56598.6
2017-Jun-21 03:18N 31°58' E 120°27'6702585.0
2017-Jun-21 03:02N 22°19' E 114°09'67516632.9
2017-Jun-21 03:00N 31°19' E 121°41'67571423.7
2017-Jun-21 02:59N 22°19' E 114°09'67471367.3
2017-Jun-21 02:59N 31°30' E 121°23'126933.2
2017-Jun-21 02:59N 31°39' E 121°13'13898.0
2017-Jun-21 02:58N 31°30' E 121°24'11129.5
2017-Jun-21 02:52N 31°24' E 121°36'2562.5
2017-Jun-21 02:29N 31°40' E 121°14'3110023.5
2017-Jun-21 02:29N 31°20' E 121°41'17813.5
2017-Jun-21 02:27N 31°30' E 121°24'11388.7
2017-Jun-21 02:26N 31°24' E 121°36'13319.2
2017-Jun-21 02:23N 31°30' E 121°23'674606648.6
2017-Jun-21 02:23N 22°19' E 114°09'6765982.5
2017-Jun-21 02:16N 31°38' E 121°15'2894.4
2017-Jun-21 01:58N 31°20' E 121°41'199571.7
2017-Jun-21 01:58N 31°30' E 121°23'11114.3
2017-Jun-21 01:58N 31°30' E 121°24'82984.7
2017-Jun-21 01:58N 31°36' E 121°18'203055.6
2017-Jun-21 01:58N 31°24' E 121°36'25128.0
2017-Jun-21 01:46N 31°40' E 121°14'30179.5
2017-Jun-21 01:36N 31°14' E 121°30'11113.6
2017-Jun-21 01:31N 31°20' E 121°41'6921.0
2017-Jun-21 01:30N 31°24' E 121°36'11361.4
2017-Jun-21 01:28N 31°30' E 121°24'147.9
2017-Jun-21 01:27N 31°30' E 121°23'121423.9
2017-Jun-21 01:26N 31°40' E 121°14'29415.4
2017-Jun-21 01:22N 31°15' E 121°29'18288.5
2017-Jun-21 01:18N 31°32' E 121°22'430.7
2017-Jun-21 01:10N 31°28' E 121°25'20106.5
2017-Jun-21 00:59N 31°22' E 121°47'341013.4
2017-Jun-21 00:57N 31°40' E 121°14'25345.1
2017-Jun-21 00:53N 31°24' E 121°36'111287.7
2017-Jun-21 00:52N 31°30' E 121°24'17773.1
2017-Jun-21 00:51N 31°20' E 121°41'18110.9
2017-Jun-21 00:41N 31°30' E 121°23'1364.3
2017-Jun-21 00:29N 31°40' E 121°14'131120.9
2017-Jun-21 00:28N 31°30' E 121°24'11177.6
2017-Jun-21 00:24N 31°24' E 121°36'13121.0
2017-Jun-21 00:18N 31°31' E 121°22'19123.8
2017-Jun-21 00:08N 31°20' E 121°41'0 0.7
2017-Jun-20 23:58N 31°20' E 121°41'65427.1
2017-Jun-20 23:58N 31°24' E 121°36'11245.1
2017-Jun-20 23:55N 31°30' E 121°24'1475.4
2017-Jun-20 23:44N 31°40' E 121°13'1362.6
2017-Jun-20 23:31N 31°30' E 121°23'122.7
2017-Jun-20 23:29N 31°31' E 121°22'14926.1
2017-Jun-20 23:28N 31°24' E 121°36'111234.7
2017-Jun-20 23:27N 31°30' E 121°24'172580.7
2017-Jun-20 23:27N 31°20' E 121°41'189500.1
2017-Jun-20 23:27N 31°30' E 121°23'1258.6
2017-Jun-20 23:14N 31°40' E 121°14'1349.7
2017-Jun-20 22:58N 31°30' E 121°24'123140.4
2017-Jun-20 22:58N 31°39' E 121°15'11276.0
2017-Jun-20 22:55N 31°30' E 121°23'13962.9
2017-Jun-20 22:54N 31°24' E 121°36'6116.3
2017-Jun-20 22:51N 31°20' E 121°41'19620.2
2017-Jun-20 22:49N 31°31' E 121°22'330.3
2017-Jun-20 22:44N 31°30' E 121°25'1142.7
2017-Jun-20 22:29N 31°37' E 121°16'988.6
2017-Jun-20 22:23N 31°30' E 121°23'2251.4
2017-Jun-20 22:23N 31°30' E 121°25'111513.9
2017-Jun-20 22:22N 31°24' E 121°36'11678.6
2017-Jun-20 22:21N 31°30' E 121°24'17817.7
2017-Jun-20 22:20N 31°20' E 121°40'19360.6
2017-Jun-20 22:17N 31°31' E 121°22'620.3
2017-Jun-20 22:00N 31°36' E 121°18'19467.9
2017-Jun-20 21:57N 31°24' E 121°36'61329.7
2017-Jun-20 21:57N 31°20' E 121°40'171917.2
2017-Jun-20 21:57N 31°30' E 121°24'016.5
2017-Jun-20 21:55N 31°30' E 121°25'323.9
2017-Jun-20 21:49N 31°31' E 121°22'310.3
2017-Jun-20 21:29N 31°34' E 121°20'6263.8
2017-Jun-20 21:28N 31°30' E 121°24'11231.5
2017-Jun-20 21:25N 31°24' E 121°36'114106.8
2017-Jun-20 21:25N 31°29' E 121°24'2512.0
2017-Jun-20 21:24N 31°31' E 121°22'19192.3
2017-Jun-20 21:18N 31°20' E 121°40'1777.2
2017-Jun-20 21:05N 31°30' E 121°25'16190.0
2017-Jun-20 21:00N 31°20' E 121°40'5354.6
2017-Jun-20 20:59N 31°24' E 121°36'14184.2
2017-Jun-20 20:55N 31°32' E 121°22'3161.3
2017-Jun-20 20:54N 31°30' E 121°25'015.9
2017-Jun-20 20:52N 31°30' E 121°24'435.4
2017-Jun-20 20:45N 31°32' E 121°21'257.5
2017-Jun-20 20:44N 31°31' E 121°22'2 7.8
2017-Jun-20 20:30N 31°31' E 121°24'17544.2
2017-Jun-20 20:29N 31°20' E 121°40'163174.8
2017-Jun-20 20:28N 31°30' E 121°25'3605.6
2017-Jun-20 20:28N 31°31' E 121°22'14338.4
2017-Jun-20 20:26N 31°24' E 121°36'11969.9
2017-Jun-20 20:25N 31°30' E 121°24'6401.9
2017-Jun-20 20:24N 31°34' E 121°19'4 9.8
2017-Jun-20 20:00N 31°31' E 121°22'19322.0
2017-Jun-20 19:56N 31°20' E 121°40'552.6
2017-Jun-20 19:50N 31°24' E 121°36'2610213.4
2017-Jun-20 19:50N 31°40' E 121°13'437.5
2017-Jun-20 19:44N 31°37' E 121°15'11371.3
2017-Jun-20 19:42N 31°30' E 121°24'426.6
2017-Jun-20 19:34N 31°28' E 121°28'871.8
2017-Jun-20 19:28N 31°24' E 121°36'141258.0
2017-Jun-20 19:27N 31°31' E 121°22'191518.7
2017-Jun-20 19:27N 31°20' E 121°40'12224.5
2017-Jun-20 19:23N 31°27' E 121°28'4117.9
2017-Jun-20 19:21N 31°30' E 121°24'614.5
2017-Jun-20 18:56N 31°26' E 121°30'53895.2
2017-Jun-20 18:56N 31°24' E 121°36'14681.4
2017-Jun-20 18:55N 31°31' E 121°22'19249.7
2017-Jun-20 18:50N 31°20' E 121°40'16127.0
2017-Jun-20 18:43N 31°30' E 121°24'1678.0
2017-Jun-20 18:30N 31°20' E 121°40'8426.0
2017-Jun-20 18:29N 31°25' E 121°32'8194.4
2017-Jun-20 18:26N 31°30' E 121°24'11786.4
2017-Jun-20 18:25N 31°24' E 121°36'14102.9
2017-Jun-20 18:17N 31°31' E 121°22'1446.8
2017-Jun-20 18:00N 31°24' E 121°36'5847.4
2017-Jun-20 18:00N 31°20' E 121°40'16110.8
2017-Jun-20 17:51N 31°30' E 121°24'251.0
2017-Jun-20 17:48N 31°31' E 121°22'318.7
2017-Jun-20 17:40N 31°30' E 121°25'1165.6
2017-Jun-20 17:30N 31°24' E 121°36'5249.9
2017-Jun-20 17:28N 31°20' E 121°40'16136.1
2017-Jun-20 17:21N 31°30' E 121°25'328.8
2017-Jun-20 17:16N 31°31' E 121°22'225.5
2017-Jun-20 17:10N 31°30' E 121°24'0 0.0
2017-Jun-20 17:00N 31°30' E 121°24'2169.9
2017-Jun-20 17:00N 31°31' E 121°22'14961.6
2017-Jun-20 16:59N 31°24' E 121°36'5461.9
2017-Jun-20 16:58N 31°20' E 121°40'1677.0
2017-Jun-20 16:45N 31°29' E 121°24'1 3.7
2017-Jun-20 16:30N 31°30' E 121°23'176063.9
2017-Jun-20 16:30N 31°21' E 121°40'5192.6
2017-Jun-20 16:29N 31°24' E 121°36'115111.7
2017-Jun-20 16:28N 31°30' E 121°24'258.2
2017-Jun-20 16:26N 31°31' E 121°22'1838.5
2017-Jun-20 15:58N 31°22' E 121°40'16235.8
2017-Jun-20 15:54N 31°30' E 121°24'41705.1
2017-Jun-20 15:54N 31°32' E 121°21'15169.4
2017-Jun-20 15:49N 31°24' E 121°36'1752.5
2017-Jun-20 15:30N 31°33' E 121°19'21834.7
2017-Jun-20 15:28N 31°22' E 121°40'4309.9
2017-Jun-20 15:27N 31°24' E 121°36'1152.2
2017-Jun-20 15:14N 31°30' E 121°24'1663.6
2017-Jun-20 14:59N 31°22' E 121°40'466.6
2017-Jun-20 14:55N 31°24' E 121°36'11400.1
2017-Jun-20 14:54N 31°30' E 121°24'7154.8
2017-Jun-20 14:51N 31°34' E 121°18'1850.9
2017-Jun-20 14:29N 31°24' E 121°36'2039.4
2017-Jun-20 13:59N 31°36' E 121°17'24348.3
2017-Jun-20 13:55N 31°22' E 121°40'16798.6
2017-Jun-20 13:53N 31°30' E 121°24'1639.3
2017-Jun-20 13:29N 31°22' E 121°40'473.7
2017-Jun-20 13:26N 31°24' E 121°36'111955.2
2017-Jun-20 13:25N 31°30' E 121°24'1071.0
2017-Jun-20 13:17N 31°37' E 121°16'520.3
2017-Jun-20 13:01N 31°41' E 121°11'27457.7
2017-Jun-20 12:57N 31°24' E 121°36'261890.6
2017-Jun-20 12:57N 31°41' E 121°12'311773.7
2017-Jun-20 12:56N 31°22' E 121°40'16298.4
2017-Jun-20 12:52N 31°30' E 121°24'10147.8
2017-Jun-20 12:48N 31°24' E 121°35'21875.9
2017-Jun-20 12:47N 31°38' E 121°15'1 3.4
2017-Jun-20 12:30N 31°39' E 121°15'22554.4
2017-Jun-20 12:28N 31°24' E 121°35'5234.7
2017-Jun-20 12:27N 31°22' E 121°40'286604.9
2017-Jun-20 12:26N 31°38' E 121°14'112.8
2017-Jun-20 12:21N 31°39' E 121°14'13583.3
2017-Jun-20 12:19N 31°30' E 121°24'11140.6
2017-Jun-20 12:14N 31°24' E 121°36'2080.9
2017-Jun-20 12:00N 31°36' E 121°17'19600.6
2017-Jun-20 11:58N 31°24' E 121°35'101034.3
2017-Jun-20 11:57N 31°30' E 121°24'131132.1
2017-Jun-20 11:57N 31°39' E 121°13'2429398.5
2017-Jun-20 11:57N 31°24' E 121°36'4861.6
2017-Jun-20 11:56N 31°22' E 121°40'25291.0
2017-Jun-20 11:51N 31°37' E 121°16'3 9.3
2017-Jun-20 11:30N 31°35' E 121°19'2777.7
2017-Jun-20 11:30N 31°34' E 121°20'161349.7
2017-Jun-20 11:29N 31°24' E 121°36'261471.6
2017-Jun-20 11:28N 31°40' E 121°12'15863.8
2017-Jun-20 11:27N 31°30' E 121°24'101861.2
2017-Jun-20 11:27N 31°24' E 121°35'51025.7
2017-Jun-20 11:27N 31°22' E 121°40'231392.7
2017-Jun-20 11:26N 31°35' E 121°18'629.1
2017-Jun-20 11:13N 31°30' E 121°23'1 5.0
2017-Jun-20 11:00N 31°31' E 121°23'1311881.2
2017-Jun-20 11:00N 31°24' E 121°36'155365.8
2017-Jun-20 11:00N 31°33' E 121°22'1106.1
2017-Jun-20 11:00N 31°33' E 121°20'20998.6
2017-Jun-20 10:58N 31°22' E 121°40'185402.1
2017-Jun-20 10:58N 31°31' E 121°22'135.5
2017-Jun-20 10:56N 31°30' E 121°23'12886.0
2017-Jun-20 10:56N 31°24' E 121°35'1081.9
2017-Jun-20 10:48N 31°30' E 121°24'19164.8
2017-Jun-20 10:41N 31°43' E 121°08'20108.8
2017-Jun-20 10:30N 31°30' E 121°26'191469.7
2017-Jun-20 10:30N 31°42' E 121°09'1628650.2
2017-Jun-20 10:30N 31°31' E 121°23'193.0
2017-Jun-20 10:29N 31°31' E 121°24'113598.0
2017-Jun-20 10:29N 31°24' E 121°35'10995.2
2017-Jun-20 10:28N 31°30' E 121°24'161373.4
2017-Jun-20 10:28N 31°22' E 121°40'17893.7
2017-Jun-20 10:26N 31°30' E 121°23'13808.4
2017-Jun-20 10:26N 31°24' E 121°36'1468.6
2017-Jun-20 10:14N 31°31' E 121°22'627.7
2017-Jun-20 10:00N 31°28' E 121°28'6158.3
2017-Jun-20 09:58N 31°31' E 121°22'131144.2
2017-Jun-20 09:57N 31°41' E 121°12'311080.5
2017-Jun-20 09:55N 31°22' E 121°40'17372.9
2017-Jun-20 09:53N 31°30' E 121°23'142.8
2017-Jun-20 09:51N 31°30' E 121°24'10964.9
2017-Jun-20 09:50N 31°24' E 121°35'112.3
2017-Jun-20 09:44N 31°24' E 121°36'1148.6
2017-Jun-20 09:31N 31°30' E 121°24'162807.6
2017-Jun-20 09:30N 31°22' E 121°40'9828.8
2017-Jun-20 09:30N 31°26' E 121°30'22711.5
2017-Jun-20 09:28N 31°41' E 121°12'262299.1
2017-Jun-20 09:27N 31°24' E 121°35'122248.7
2017-Jun-20 09:27N 31°31' E 121°22'14682.0
2017-Jun-20 09:25N 31°24' E 121°36'13144.3
2017-Jun-20 09:20N 31°30' E 121°23'0 0.0
2017-Jun-20 09:00N 31°30' E 121°23'1223.2
2017-Jun-20 09:00N 31°30' E 121°24'162447.3
2017-Jun-20 08:59N 31°22' E 121°40'71774.9
2017-Jun-20 08:59N 31°24' E 121°32'11760.3
2017-Jun-20 08:58N 31°31' E 121°22'13209.1
2017-Jun-20 08:54N 31°41' E 121°12'26364.2
2017-Jun-20 08:50N 31°24' E 121°35'1 7.3
2017-Jun-20 08:41N 31°24' E 121°36'27151.4
2017-Jun-20 08:30N 31°41' E 121°12'266582.0
2017-Jun-20 08:30N 31°24' E 121°35'123457.2
2017-Jun-20 08:30N 31°30' E 121°23'17858.6
2017-Jun-20 08:29N 31°22' E 121°40'7166.6
2017-Jun-20 08:26N 31°25' E 121°32'337.4
2017-Jun-20 08:20N 31°24' E 121°36'11215.8
2017-Jun-20 08:17N 31°30' E 121°24'1655.5
2017-Jun-20 08:00N 31°22' E 121°40'16489.6
2017-Jun-20 07:58N 31°30' E 121°24'1672.4
2017-Jun-20 07:58N 31°30' E 121°23'13180.4
2017-Jun-20 07:54N 31°24' E 121°36'1417.6
2017-Jun-20 07:54N 31°24' E 121°35'26853.1
2017-Jun-20 07:52N 31°41' E 121°12'1373.1
2017-Jun-20 07:41N 31°31' E 121°22'0 0.0
2017-Jun-20 07:29N 31°31' E 121°22'18186.2
2017-Jun-20 07:23N 31°22' E 121°40'31951.5
2017-Jun-20 07:21N 31°41' E 121°12'26395.4
2017-Jun-20 07:17N 31°24' E 121°35'10107.6
2017-Jun-20 07:12N 31°30' E 121°24'1673.0
2017-Jun-20 06:59N 31°22' E 121°40'31976.4
2017-Jun-20 06:57N 31°41' E 121°12'16161.0
2017-Jun-20 06:51N 31°30' E 121°24'220.7
2017-Jun-20 06:45N 31°31' E 121°22'149.1
2017-Jun-20 06:43N 31°30' E 121°23'12609.8
2017-Jun-20 06:42N 31°24' E 121°35'422.4
2017-Jun-20 06:30N 31°21' E 121°38'15426.1
2017-Jun-20 06:28N 31°30' E 121°24'233.6
2017-Jun-20 06:24N 31°31' E 121°22'13921.0
2017-Jun-20 06:23N 31°41' E 121°12'26135.7
2017-Jun-20 06:12N 31°24' E 121°35'1052.9
2017-Jun-20 06:00N 31°30' E 121°24'2268.2
2017-Jun-20 06:00N 31°31' E 121°22'131490.8
2017-Jun-20 05:59N 31°23' E 121°34'128.2
2017-Jun-20 05:57N 31°24' E 121°35'12188.5
2017-Jun-20 05:53N 31°30' E 121°23'14362.7
2017-Jun-20 05:51N 31°41' E 121°12'2264.5
2017-Jun-20 05:30N 31°25' E 121°30'91314.3
2017-Jun-20 05:30N 31°31' E 121°22'131187.6
2017-Jun-20 05:29N 31°24' E 121°35'1093.2
2017-Jun-20 05:23N 31°30' E 121°24'16338.6
2017-Jun-20 05:20N 31°41' E 121°12'1339.0
2017-Jun-20 04:59N 31°31' E 121°22'5269.7
2017-Jun-20 04:58N 31°28' E 121°27'3208.5
2017-Jun-20 04:57N 31°30' E 121°24'10449.2
2017-Jun-20 04:56N 31°24' E 121°35'26155.9
2017-Jun-20 04:46N 31°41' E 121°12'14147.1
2017-Jun-20 04:40N 31°30' E 121°23'1 5.9
2017-Jun-20 04:30N 31°30' E 121°24'1112807.4
2017-Jun-20 04:30N 31°24' E 121°35'12797.6
2017-Jun-20 04:29N 31°30' E 121°23'12339.4
2017-Jun-20 04:29N 31°30' E 121°24'16508.0
2017-Jun-20 04:27N 31°41' E 121°12'13145.9
2017-Jun-20 04:22N 31°31' E 121°22'1129.4
2017-Jun-20 04:00N 31°39' E 121°14'101118.2
2017-Jun-20 03:59N 31°32' E 121°21'1166.6
2017-Jun-20 03:59N 31°31' E 121°22'13217.4
2017-Jun-20 03:55N 31°24' E 121°35'121792.9
2017-Jun-20 03:55N 31°30' E 121°22'229.3
2017-Jun-20 03:51N 31°30' E 121°24'619.1
2017-Jun-20 03:30N 31°34' E 121°19'6431.0
2017-Jun-20 03:29N 31°30' E 121°24'10511.6
2017-Jun-20 03:28N 31°24' E 121°35'201413.3
2017-Jun-20 03:27N 31°37' E 121°16'8333.2
2017-Jun-20 03:26N 31°31' E 121°22'716.3
2017-Jun-20 03:00N 31°36' E 121°17'2212.9
2017-Jun-20 03:00N 31°35' E 121°19'594.3
2017-Jun-20 02:57N 31°31' E 121°22'220.6
2017-Jun-20 02:50N 31°30' E 121°24'1086.2
2017-Jun-20 02:43N 31°24' E 121°35'2295.7
2017-Jun-20 02:29N 31°38' E 121°15'9651.3
2017-Jun-20 02:29N 31°31' E 121°22'1131.8
2017-Jun-20 02:28N 31°32' E 121°21'1424300.2
2017-Jun-20 02:28N 31°24' E 121°35'10105.9
2017-Jun-20 02:22N 31°30' E 121°24'0 1.2
2017-Jun-20 02:00N 31°30' E 121°24'013.3
2017-Jun-20 01:58N 31°30' E 121°24'10828.2
2017-Jun-20 01:57N 31°24' E 121°35'22546.4
2017-Jun-20 01:54N 31°38' E 121°14'12182.8
2017-Jun-20 01:50N 31°29' E 121°24'1 6.0
2017-Jun-20 01:36N 31°30' E 121°23'1 8.6
2017-Jun-20 01:27N 31°30' E 121°24'12217.3
2017-Jun-20 01:24N 31°38' E 121°14'2163.4
2017-Jun-20 01:04N 31°24' E 121°32'21248.1
2017-Jun-20 00:59N 31°38' E 121°14'213273.1
2017-Jun-20 00:58N 31°24' E 121°32'9448.1
2017-Jun-20 00:57N 31°30' E 121°24'212.3
2017-Jun-20 00:48N 31°28' E 121°25'1653.1
2017-Jun-20 00:30N 31°40' E 121°12'14264.9
2017-Jun-20 00:27N 31°30' E 121°24'225.7
2017-Jun-20 00:23N 31°28' E 121°25'0 0.0
2017-Jun-19 23:58N 31°28' E 121°25'2102.0
2017-Jun-19 23:57N 31°30' E 121°24'15124.3
2017-Jun-19 23:49N 31°41' E 121°12'0 1.0
2017-Jun-19 23:29N 31°40' E 121°12'15313.8
2017-Jun-19 23:26N 31°30' E 121°24'222.5
2017-Jun-19 23:21N 31°28' E 121°25'5373182481.7
2017-Jun-19 23:19N 49°23' W 123°19'5373115137.4
2017-Jun-19 23:16N 31°30' E 121°23'537319921.3
2017-Jun-19 23:00N 49°21' W 123°20'5372205751.6
2017-Jun-19 22:58N 31°39' E 121°15'10285.1
2017-Jun-19 22:56N 31°31' E 121°22'4122.4
2017-Jun-19 22:54N 31°28' E 121°25'291.9
2017-Jun-19 22:53N 31°30' E 121°24'117.8
2017-Jun-19 22:50N 31°30' E 121°23'537416619.4
2017-Jun-19 22:31N 49°19' W 123°20'53731074583.0
2017-Jun-19 22:30N 31°30' E 121°24'9295.6
2017-Jun-19 22:28N 31°37' E 121°17'7185.3
2017-Jun-19 22:26N 31°31' E 121°22'410.4
2017-Jun-19 22:00N 31°35' E 121°19'4644.3
2017-Jun-19 22:00N 31°31' E 121°22'5375879530.8
2017-Jun-19 22:00N 49°18' W 123°20'5374102364.5
2017-Jun-19 21:56N 31°30' E 121°24'1592.0
2017-Jun-19 21:46N 31°41' E 121°12'24152.6
2017-Jun-19 21:37N 31°22' E 121°30'537743996.1
2017-Jun-19 21:30N 49°20' W 123°17'5376105173.5
2017-Jun-19 21:26N 31°31' E 121°22'243.7
2017-Jun-19 21:23N 31°30' E 121°24'15355.1
2017-Jun-19 21:21N 31°41' E 121°12'537815626.6
2017-Jun-19 21:00N 49°20' W 123°13'5379160027.5
2017-Jun-19 20:58N 31°31' E 121°22'2163.3
2017-Jun-19 20:57N 31°30' E 121°24'939.2
2017-Jun-19 20:43N 31°24' E 121°33'1151.3
2017-Jun-19 20:30N 31°31' E 121°22'13271.7
2017-Jun-19 20:27N 31°41' E 121°12'15194.3
2017-Jun-19 20:22N 31°30' E 121°24'10143.8
2017-Jun-19 20:18N 31°24' E 121°34'538234414.2
2017-Jun-19 20:09N 49°18' W 123°06'538584288.7
2017-Jun-19 20:05N 31°28' E 121°25'0 0.0
2017-Jun-19 20:00N 31°28' E 121°25'17806.8
2017-Jun-19 19:59N 31°41' E 121°12'15422.9
2017-Jun-19 19:56N 31°30' E 121°24'10322.0
2017-Jun-19 19:55N 31°24' E 121°34'1263.1
2017-Jun-19 19:43N 31°31' E 121°22'0 0.0
2017-Jun-19 19:30N 31°31' E 121°22'281.7
2017-Jun-19 19:28N 31°30' E 121°24'10142.1
2017-Jun-19 19:24N 31°24' E 121°34'251476.8
2017-Jun-19 19:23N 31°41' E 121°12'1330.9
2017-Jun-19 18:58N 31°31' E 121°22'1397.2
2017-Jun-19 18:49N 31°41' E 121°12'15307.8
2017-Jun-19 18:46N 31°30' E 121°24'12344.0
2017-Jun-19 18:46N 31°30' E 121°23'039.5
2017-Jun-19 18:46N 31°30' E 121°23'1180.9
2017-Jun-19 18:37N 31°24' E 121°34'435.9
2017-Jun-19 18:30N 31°22' E 121°30'241015.0
2017-Jun-19 18:29N 31°41' E 121°12'132970.4
2017-Jun-19 18:29N 31°31' E 121°22'210.4
2017-Jun-19 18:17N 31°32' E 121°20'390.9
2017-Jun-19 18:15N 31°30' E 121°23'178.1
2017-Jun-19 18:14N 31°30' E 121°24'10254.0
2017-Jun-19 18:12N 31°24' E 121°34'1048.0
2017-Jun-19 18:00N 31°30' E 121°24'2756.9
2017-Jun-19 18:00N 31°31' E 121°22'102510.1
2017-Jun-19 17:59N 31°24' E 121°31'238.5
2017-Jun-19 17:56N 31°24' E 121°34'8398.7
2017-Jun-19 17:55N 31°28' E 121°25'367.8
2017-Jun-19 17:52N 31°30' E 121°23'515.0
2017-Jun-19 17:30N 31°27' E 121°28'5289.5
2017-Jun-19 17:29N 31°30' E 121°23'197.7
2017-Jun-19 17:28N 31°30' E 121°24'577935.9
2017-Jun-19 17:28N 31°58' E 120°26'55702.2
2017-Jun-19 17:23N 31°31' E 121°22'12100.6
2017-Jun-19 17:16N 31°24' E 121°34'1037.8
2017-Jun-19 17:00N 31°29' E 121°24'1243.3
2017-Jun-19 17:00N 31°30' E 121°24'259.8
2017-Jun-19 16:58N 31°31' E 121°22'1184.0
2017-Jun-19 16:58N 31°30' E 121°23'112172.7
2017-Jun-19 16:57N 31°38' E 121°14'22880.3
2017-Jun-19 16:56N 31°24' E 121°34'25197.5
2017-Jun-19 16:48N 31°41' E 121°12'17632.2
2017-Jun-19 16:47N 31°28' E 121°25'620.8
2017-Jun-19 16:30N 31°32' E 121°20'11166.3
2017-Jun-19 16:26N 31°41' E 121°12'14811.3
2017-Jun-19 16:25N 31°30' E 121°23'136.9
2017-Jun-19 16:24N 31°31' E 121°22'2263.1
2017-Jun-19 16:23N 31°30' E 121°24'870.9
2017-Jun-19 16:17N 31°25' E 121°31'1657.6
2017-Jun-19 16:00N 31°35' E 121°17'9986.8
2017-Jun-19 16:00N 31°41' E 121°10'22454.5
2017-Jun-19 15:57N 31°26' E 121°29'7194.8
2017-Jun-19 15:55N 31°31' E 121°22'2455.0
2017-Jun-19 15:54N 31°30' E 121°24'1 4.7
2017-Jun-19 15:38N 31°30' E 121°23'1 8.3
2017-Jun-19 15:30N 31°31' E 121°22'187897.8
2017-Jun-19 15:30N 31°43' E 121°07'81669.7
2017-Jun-19 15:30N 31°38' E 121°14'11857.8
2017-Jun-19 15:29N 31°30' E 121°23'137.1
2017-Jun-19 15:27N 31°30' E 121°24'1 6.3
2017-Jun-19 15:21N 31°29' E 121°24'1644.7
2017-Jun-19 14:59N 31°41' E 121°11'132196.1
2017-Jun-19 14:59N 31°31' E 121°22'050.5
2017-Jun-19 14:59N 31°31' E 121°22'255.1
2017-Jun-19 14:56N 31°30' E 121°24'127.9
2017-Jun-19 14:53N 31°30' E 121°23'3209.4
2017-Jun-19 14:52N 31°28' E 121°25'719.1
2017-Jun-19 14:30N 31°33' E 121°19'14427.9
2017-Jun-19 14:28N 31°42' E 121°08'17214.4
2017-Jun-19 14:24N 31°31' E 121°22'1 2.5
2017-Jun-19 13:59N 31°30' E 121°23'1021.0
2017-Jun-19 13:30N 31°38' E 121°15'11165.6
2017-Jun-19 13:26N 31°30' E 121°24'1 8.0
2017-Jun-19 13:17N 31°30' E 121°23'1322.9
2017-Jun-19 12:44N 31°39' E 121°13'13288.9
2017-Jun-19 12:41N 31°30' E 121°23'1495.2
2017-Jun-19 12:41N 31°30' E 121°24'0 0.2
2017-Jun-19 12:28N 31°30' E 121°24'14111.7
2017-Jun-19 12:21N 31°39' E 121°13'13154.4
2017-Jun-19 12:16N 31°30' E 121°23'1338.3
2017-Jun-19 11:57N 31°39' E 121°13'14468.1
2017-Jun-19 11:55N 31°30' E 121°24'294.8
2017-Jun-19 11:54N 31°28' E 121°25'3147.5
2017-Jun-19 11:52N 31°30' E 121°23'1850.3
2017-Jun-19 11:31N 31°21' E 121°41'011.5
2017-Jun-19 11:30N 31°21' E 121°41'18119.4
2017-Jun-19 11:21N 31°30' E 121°23'110.0
2017-Jun-19 11:13N 31°30' E 121°24'1152.8
2017-Jun-19 11:00N 31°24' E 121°36'119605.4
2017-Jun-19 11:00N 31°17' E 121°45'23628.1
2017-Jun-19 10:58N 31°30' E 121°23'201394.0
2017-Jun-19 10:57N 31°45' E 121°06'854.5
2017-Jun-19 10:49N 31°39' E 121°13'14607.0
2017-Jun-19 10:48N 31°30' E 121°24'2794.6
2017-Jun-19 10:30N 31°13' E 121°49'45836.3
2017-Jun-19 10:27N 31°42' E 121°09'181360.9
2017-Jun-19 10:26N 31°30' E 121°24'1178.4
2017-Jun-19 10:18N 31°24' E 121°36'111657.6
2017-Jun-19 10:17N 31°30' E 121°25'14232.2
2017-Jun-19 10:14N 31°39' E 121°13'15110.0
2017-Jun-19 10:05N 31°28' E 121°25'3461.7
2017-Jun-19 10:05N 31°30' E 121°23'13191.3
2017-Jun-19 10:01N 31°40' E 121°12'161973.6
2017-Jun-19 10:00N 31°28' E 121°25'3311.8
2017-Jun-19 09:59N 31°30' E 121°23'171.5
2017-Jun-19 09:58N 31°30' E 121°24'333172.5
2017-Jun-19 09:58N 31°09' E 121°54'21155.2
2017-Jun-19 09:49N 31°24' E 121°36'1452.1
2017-Jun-19 09:34N 31°31' E 121°22'10164.8
2017-Jun-19 09:30N 31°38' E 121°15'232658.1
2017-Jun-19 09:30N 31°24' E 121°36'261997.4
2017-Jun-19 09:29N 31°07' E 121°58'361712.1
2017-Jun-19 09:28N 31°28' E 121°25'15196.3
2017-Jun-19 09:23N 31°39' E 121°13'14490.8
2017-Jun-19 09:21N 31°30' E 121°24'217.1
2017-Jun-19 09:13N 31°31' E 121°22'731.3
2017-Jun-19 09:00N 31°37' E 121°17'111758.8
2017-Jun-19 09:00N 31°28' E 121°25'10742.5
2017-Jun-19 08:59N 31°24' E 121°36'1436.2
2017-Jun-19 08:37N 31°31' E 121°22'113.8
2017-Jun-19 08:32N 31°30' E 121°23'5143.6
2017-Jun-19 08:30N 31°34' E 121°19'8141.2
2017-Jun-19 08:27N 31°28' E 121°25'223.5
2017-Jun-19 08:22N 31°30' E 121°24'11146.5
2017-Jun-19 08:18N 31°24' E 121°36'251303.9
2017-Jun-19 08:16N 31°39' E 121°13'12391.9
2017-Jun-19 08:15N 31°31' E 121°22'1 6.5
2017-Jun-19 08:05N 31°30' E 121°23'225.3
2017-Jun-19 08:00N 31°32' E 121°22'387.6
2017-Jun-19 07:58N 31°30' E 121°24'264.5
2017-Jun-19 07:56N 31°31' E 121°22'14272.6
2017-Jun-19 07:53N 31°24' E 121°36'132662.8
2017-Jun-19 07:52N 31°30' E 121°23'428.9
2017-Jun-19 07:44N 31°32' E 121°19'7155.7
2017-Jun-19 07:42N 31°28' E 121°25'312.7
2017-Jun-19 07:30N 31°31' E 121°24'1446.1
2017-Jun-19 07:29N 31°30' E 121°23'13151.4
2017-Jun-19 07:24N 31°24' E 121°36'11208.8
2017-Jun-19 07:21N 31°30' E 121°24'2251.1
2017-Jun-19 07:21N 31°28' E 121°25'445.6
2017-Jun-19 07:16N 31°31' E 121°22'0 0.0
2017-Jun-19 07:00N 31°31' E 121°22'4206.2
2017-Jun-19 06:59N 31°28' E 121°25'259.8
2017-Jun-19 06:57N 31°30' E 121°24'165.8
2017-Jun-19 06:56N 31°30' E 121°23'131052.2
2017-Jun-19 06:56N 31°24' E 121°36'8243.8
2017-Jun-19 06:54N 31°28' E 121°28'2 5.1
2017-Jun-19 06:29N 31°27' E 121°29'563.6
2017-Jun-19 06:24N 31°30' E 121°24'114.7
2017-Jun-19 06:19N 31°30' E 121°23'1 9.2
2017-Jun-19 06:13N 31°31' E 121°22'1371.5
2017-Jun-19 06:02N 31°41' E 121°12'22541.0
2017-Jun-19 06:00N 31°25' E 121°31'102325.2
2017-Jun-19 05:59N 31°31' E 121°22'248.0
2017-Jun-19 05:57N 31°30' E 121°24'1 5.7
2017-Jun-19 05:43N 31°30' E 121°23'320.8
2017-Jun-19 05:35N 31°28' E 121°25'221.3
2017-Jun-19 05:30N 31°30' E 121°24'232.7
2017-Jun-19 05:27N 31°28' E 121°25'8225.7
2017-Jun-19 05:25N 31°25' E 121°34'12368.3
2017-Jun-19 05:23N 31°31' E 121°22'117.1
2017-Jun-19 05:19N 31°30' E 121°23'1 3.2
2017-Jun-19 05:01N 31°31' E 121°22'12197.7
2017-Jun-19 04:57N 31°25' E 121°34'82129.5
2017-Jun-19 04:57N 31°28' E 121°25'250.0
2017-Jun-19 04:55N 31°30' E 121°24'160.3
2017-Jun-19 04:53N 31°30' E 121°23'410.1
2017-Jun-19 04:32N 31°32' E 121°19'6301.6
2017-Jun-19 04:30N 31°28' E 121°25'8143.9
2017-Jun-19 04:27N 31°25' E 121°34'11218.4
2017-Jun-19 04:24N 31°30' E 121°23'4626.1
2017-Jun-19 04:24N 31°32' E 121°19'3442.6
2017-Jun-19 04:23N 31°31' E 121°22'238.9
2017-Jun-19 04:20N 31°30' E 121°24'0 0.0
2017-Jun-19 04:00N 31°30' E 121°24'2179.0
2017-Jun-19 03:59N 31°31' E 121°22'118.0
2017-Jun-19 03:55N 31°30' E 121°23'388.6
2017-Jun-19 03:54N 31°28' E 121°25'859.4
2017-Jun-19 03:45N 31°25' E 121°34'1036.5
2017-Jun-19 03:29N 31°30' E 121°24'10133.1
2017-Jun-19 03:25N 31°25' E 121°34'12713.8
2017-Jun-19 03:24N 31°31' E 121°22'1445.9
2017-Jun-19 03:24N 31°30' E 121°23'319.9
2017-Jun-19 03:15N 31°28' E 121°25'2 7.1
2017-Jun-19 03:00N 31°30' E 121°24'119.9
2017-Jun-19 02:56N 31°30' E 121°23'11429.9
2017-Jun-19 02:55N 31°25' E 121°34'14167.5
2017-Jun-19 02:50N 31°32' E 121°20'1 4.0
2017-Jun-19 02:29N 31°33' E 121°19'5199.8
2017-Jun-19 02:28N 31°30' E 121°23'11898.0
2017-Jun-19 02:27N 31°25' E 121°34'823.4
2017-Jun-19 02:06N 31°28' E 121°25'2140.3
2017-Jun-19 02:05N 31°30' E 121°24'1070.7
2017-Jun-19 01:57N 31°25' E 121°34'10216.4
2017-Jun-19 01:54N 31°30' E 121°24'2516.5
2017-Jun-19 01:54N 31°28' E 121°25'3125.5
2017-Jun-19 01:53N 31°30' E 121°23'314.3
2017-Jun-19 01:41N 31°28' E 121°25'10211.2
2017-Jun-19 01:38N 31°36' E 121°17'953.0
2017-Jun-19 01:28N 31°30' E 121°24'196.9
2017-Jun-19 01:27N 31°30' E 121°23'82604.3
2017-Jun-19 01:27N 31°36' E 121°17'111308.8
2017-Jun-19 01:27N 31°28' E 121°25'87448.4
2017-Jun-19 01:27N 31°25' E 121°34'1125.4
2017-Jun-19 01:00N 31°30' E 121°23'91762.9
2017-Jun-19 01:00N 31°37' E 121°15'12424.2
2017-Jun-19 00:58N 31°28' E 121°25'8189.8
2017-Jun-19 00:56N 31°25' E 121°34'10253.6
2017-Jun-19 00:53N 31°30' E 121°24'146.4
2017-Jun-19 00:52N 31°30' E 121°23'1129.7
2017-Jun-19 00:30N 31°38' E 121°14'12633.0
2017-Jun-19 00:29N 31°30' E 121°24'10142.6
2017-Jun-19 00:25N 31°25' E 121°34'111900.8
2017-Jun-19 00:24N 31°30' E 121°23'0 1.2
2017-Jun-19 00:07N 31°30' E 121°23'1294.3
2017-Jun-18 23:59N 31°39' E 121°13'13501.4
2017-Jun-18 23:57N 31°30' E 121°24'10227.6
2017-Jun-18 23:55N 31°25' E 121°34'11458.8
2017-Jun-18 23:53N 31°30' E 121°23'31327.2
2017-Jun-18 23:53N 31°28' E 121°25'819.7
2017-Jun-18 23:28N 31°25' E 121°34'249691.7
2017-Jun-18 23:28N 31°40' E 121°12'6125367509.2
2017-Jun-18 23:27N 33°28' W 117°42'612169516.9
2017-Jun-18 23:21N 31°30' E 121°23'118.0
2017-Jun-18 23:17N 31°30' E 121°24'612120845.7
2017-Jun-18 23:00N 33°28' W 117°42'6121106444.1
2017-Jun-18 22:56N 31°30' E 121°24'10479.8
2017-Jun-18 22:55N 31°25' E 121°34'1139.8
2017-Jun-18 22:38N 31°30' E 121°23'0 3.4
2017-Jun-18 22:32N 31°30' E 121°23'131.4
2017-Jun-18 22:30N 31°30' E 121°24'6121595511.8
2017-Jun-18 22:30N 33°28' W 117°42'6121239530.9
2017-Jun-18 22:28N 31°30' E 121°23'11251.1
2017-Jun-18 22:26N 31°25' E 121°34'1147.6
2017-Jun-18 22:12N 31°30' E 121°23'0 0.0
2017-Jun-18 22:00N 31°30' E 121°23'1127.9
2017-Jun-18 21:59N 31°30' E 121°24'125.4
2017-Jun-18 21:56N 31°30' E 121°23'6121524695.6
2017-Jun-18 21:56N 33°28' W 117°42'61164403277.2
2017-Jun-18 21:56N 31°25' E 121°34'832.7
2017-Jun-18 21:41N 31°28' E 121°25'211.0
2017-Jun-18 21:30N 31°30' E 121°24'6118379756.6
2017-Jun-18 21:29N 33°28' W 117°44'6119194946.0
2017-Jun-18 21:27N 31°30' E 121°23'11392.6
2017-Jun-18 21:26N 31°25' E 121°34'890.3
2017-Jun-18 21:20N 31°28' E 121°25'1 3.6
2017-Jun-18 21:09N 31°29' E 121°25'2332.1
2017-Jun-18 21:09N 31°30' E 121°23'612243043.7
2017-Jun-18 21:00N 33°27' W 117°41'6116458698.4
2017-Jun-18 21:00N 31°25' E 121°34'111735.5
2017-Jun-18 20:59N 31°30' E 121°23'0138.0
2017-Jun-18 20:59N 31°30' E 121°23'34632.0
2017-Jun-18 20:59N 31°28' E 121°25'223.4
2017-Jun-18 20:54N 31°30' E 121°24'2 4.5
2017-Jun-18 20:30N 31°28' E 121°25'84254.8
2017-Jun-18 20:30N 31°25' E 121°34'111464.3
2017-Jun-18 20:29N 31°30' E 121°23'1450.3
2017-Jun-18 20:29N 31°30' E 121°24'2120.5
2017-Jun-18 20:28N 31°31' E 121°22'2 3.6
2017-Jun-18 20:00N 31°32' E 121°21'5421.7
2017-Jun-18 19:59N 31°28' E 121°25'2105.3
2017-Jun-18 19:58N 31°30' E 121°24'10106.2
2017-Jun-18 19:53N 31°25' E 121°34'24312.5
2017-Jun-18 19:48N 31°40' E 121°12'14454.7
2017-Jun-18 19:46N 31°30' E 121°23'516.5
2017-Jun-18 19:30N 31°33' E 121°19'15425.7
2017-Jun-18 19:28N 31°25' E 121°34'10182.4
2017-Jun-18 19:25N 31°30' E 121°24'121.8
2017-Jun-18 19:21N 31°30' E 121°23'11101.6
2017-Jun-18 19:15N 31°38' E 121°15'1 4.6
2017-Jun-18 19:00N 31°38' E 121°16'102063.4
2017-Jun-18 18:59N 31°30' E 121°23'11185.4
2017-Jun-18 18:56N 31°25' E 121°34'1093.4
2017-Jun-18 18:50N 31°30' E 121°24'0 0.0
2017-Jun-18 18:27N 31°30' E 121°24'101251.5
2017-Jun-18 18:27N 31°25' E 121°34'11177.9
2017-Jun-18 18:23N 31°30' E 121°23'76164.3
2017-Jun-18 18:23N 31°36' E 121°18'821.0
2017-Jun-18 18:00N 31°30' E 121°24'67349.5
2017-Jun-18 18:00N 31°34' E 121°19'16769.3
2017-Jun-18 17:59N 31°25' E 121°34'11238.0
2017-Jun-18 17:56N 31°30' E 121°23'2 5.3
2017-Jun-18 17:30N 31°32' E 121°21'13503.1
2017-Jun-18 17:29N 31°25' E 121°34'1056.9
2017-Jun-18 17:18N 31°30' E 121°24'1 2.9
2017-Jun-18 16:59N 31°31' E 121°24'101388.6
2017-Jun-18 16:59N 31°25' E 121°34'101208.3
2017-Jun-18 16:58N 31°30' E 121°24'1 5.1
2017-Jun-18 16:43N 31°30' E 121°23'1149.1
2017-Jun-18 16:30N 31°25' E 121°34'10171.8
2017-Jun-18 16:26N 31°30' E 121°24'221.1
2017-Jun-18 16:21N 31°28' E 121°25'318.8
2017-Jun-18 16:12N 31°30' E 121°23'1 5.8
2017-Jun-18 15:59N 31°30' E 121°24'247.7
2017-Jun-18 15:57N 31°28' E 121°25'8496.7
2017-Jun-18 15:56N 31°25' E 121°34'1197.9
2017-Jun-18 15:49N 31°30' E 121°23'1 4.0
2017-Jun-18 15:30N 31°30' E 121°24'259.2
2017-Jun-18 15:29N 31°28' E 121°25'8172.3
2017-Jun-18 15:26N 31°25' E 121°34'0 0.0
2017-Jun-18 15:00N 31°25' E 121°34'116.3
2017-Jun-18 14:58N 31°24' E 121°34'1058.4
2017-Jun-18 14:48N 31°30' E 121°24'2197.4
2017-Jun-18 14:48N 31°28' E 121°25'3102.3
2017-Jun-18 14:46N 31°30' E 121°23'1767.3
2017-Jun-18 14:31N 31°42' E 121°09'27261.8
2017-Jun-18 14:25N 31°25' E 121°34'2559.9
2017-Jun-18 14:00N 31°41' E 121°12'17862.4
2017-Jun-18 13:59N 31°28' E 121°25'81241.4
2017-Jun-18 13:59N 31°25' E 121°34'1096.2
2017-Jun-18 13:53N 31°30' E 121°24'1 4.7
2017-Jun-18 13:36N 31°30' E 121°23'11116.8
2017-Jun-18 13:31N 31°39' E 121°14'221934.7
2017-Jun-18 13:30N 31°25' E 121°34'10421.4
2017-Jun-18 13:28N 31°30' E 121°24'268.7
2017-Jun-18 13:27N 31°28' E 121°25'3659.9
2017-Jun-18 13:27N 31°30' E 121°23'0 0.0
2017-Jun-18 13:00N 31°30' E 121°23'8189.4
2017-Jun-18 12:57N 31°37' E 121°17'111470.2
2017-Jun-18 12:57N 31°28' E 121°25'2145.0
2017-Jun-18 12:56N 31°30' E 121°24'10172.4
2017-Jun-18 12:53N 31°25' E 121°34'1642.9
2017-Jun-18 12:30N 31°34' E 121°19'5175.1
2017-Jun-18 12:29N 31°30' E 121°23'110.4
2017-Jun-18 12:22N 31°30' E 121°24'10724.8
2017-Jun-18 12:21N 31°25' E 121°34'1337.6
2017-Jun-18 12:00N 31°31' E 121°21'236.7
2017-Jun-18 11:57N 31°30' E 121°23'133.3
2017-Jun-18 11:55N 31°30' E 121°24'112699.3
2017-Jun-18 11:55N 31°23' E 121°34'224.9
2017-Jun-18 11:50N 31°25' E 121°34'1030.9
2017-Jun-18 11:30N 31°30' E 121°23'142.6
2017-Jun-18 11:29N 31°30' E 121°24'10226.1
2017-Jun-18 11:27N 31°25' E 121°34'2374.1
2017-Jun-18 11:26N 31°23' E 121°34'1276.1
2017-Jun-18 11:16N 31°30' E 121°23'1244.5
2017-Jun-18 11:00N 31°23' E 121°34'11236.8
2017-Jun-18 10:57N 31°30' E 121°24'1017751.9
2017-Jun-18 10:57N 31°25' E 121°34'11264.7
2017-Jun-18 10:54N 31°29' E 121°23'118.3
2017-Jun-18 10:51N 31°30' E 121°23'1132.0
2017-Jun-18 10:30N 31°25' E 121°34'115702.3
2017-Jun-18 10:30N 31°30' E 121°23'119.2
2017-Jun-18 10:27N 31°29' E 121°23'12775.4
2017-Jun-18 10:26N 31°23' E 121°34'11900.1
2017-Jun-18 10:25N 31°30' E 121°24'2 4.3
2017-Jun-18 10:00N 31°28' E 121°25'8250.4
2017-Jun-18 09:58N 31°25' E 121°34'11928.3
2017-Jun-18 09:57N 31°30' E 121°23'12221.9
2017-Jun-18 09:54N 31°23' E 121°34'12925.9
2017-Jun-18 09:53N 31°30' E 121°24'171.7
2017-Jun-18 09:52N 31°29' E 121°23'119.5
2017-Jun-18 09:48N 31°30' E 121°24'3805772.9
2017-Jun-18 09:44N 37°50' E 121°31'3801609.6
2017-Jun-18 09:30N 31°30' E 121°24'136.8
2017-Jun-18 09:28N 31°29' E 121°23'115.6
2017-Jun-18 09:24N 31°30' E 121°23'11190.1
2017-Jun-18 09:21N 31°25' E 121°34'38663205.5
2017-Jun-18 09:20N 37°51' E 121°29'382994.9
2017-Jun-18 08:57N 31°28' E 121°25'260.7
2017-Jun-18 08:56N 31°30' E 121°24'3814901.9
2017-Jun-18 08:51N 37°51' E 121°26'387232017.0
2017-Jun-18 08:51N 31°25' E 121°34'11246.4
2017-Jun-18 08:48N 31°30' E 121°23'1 8.8
2017-Jun-18 08:41N 31°29' E 121°23'1 6.1
2017-Jun-18 08:28N 31°30' E 121°24'11602.5
2017-Jun-18 08:28N 31°29' E 121°23'2201.3
2017-Jun-18 08:27N 31°29' E 121°25'9262.3
2017-Jun-18 08:25N 31°25' E 121°34'10178.5
2017-Jun-18 08:22N 31°30' E 121°24'163.5
2017-Jun-18 08:21N 31°30' E 121°23'1 2.6
2017-Jun-18 07:58N 31°29' E 121°23'178.2
2017-Jun-18 07:58N 31°30' E 121°23'11108.6
2017-Jun-18 07:52N 31°25' E 121°34'10115.5
2017-Jun-18 07:46N 31°30' E 121°24'111.8
2017-Jun-18 07:43N 31°30' E 121°25'1 6.2
2017-Jun-18 07:29N 31°29' E 121°23'1762.5
2017-Jun-18 07:29N 31°30' E 121°24'127.2
2017-Jun-18 07:27N 31°30' E 121°25'197.8
2017-Jun-18 07:27N 31°30' E 121°23'11132.3
2017-Jun-18 07:22N 31°25' E 121°34'514.9
2017-Jun-18 07:01N 31°22' E 121°39'0 0.0
2017-Jun-18 07:00N 31°22' E 121°39'581.5
2017-Jun-18 06:56N 31°25' E 121°34'112117.2
2017-Jun-18 06:56N 31°29' E 121°23'184.3
2017-Jun-18 06:55N 31°30' E 121°23'116.9
2017-Jun-18 06:50N 31°30' E 121°25'110.9
2017-Jun-18 06:46N 31°30' E 121°24'0 2.2
2017-Jun-18 06:36N 31°30' E 121°24'1 5.7
2017-Jun-18 06:30N 31°30' E 121°25'1151.4
2017-Jun-18 06:29N 31°29' E 121°23'161256.3
2017-Jun-18 06:29N 31°22' E 121°39'16742.9
2017-Jun-18 06:27N 31°30' E 121°23'3820.7
2017-Jun-18 06:27N 31°32' E 121°20'4225.2
2017-Jun-18 06:26N 31°30' E 121°24'103391.3
2017-Jun-18 06:26N 31°25' E 121°34'1046.6
2017-Jun-18 06:13N 31°30' E 121°24'727.9
2017-Jun-18 05:58N 31°34' E 121°18'71244.2
2017-Jun-18 05:58N 31°30' E 121°24'0697.3
2017-Jun-18 05:58N 31°30' E 121°24'10234.9
2017-Jun-18 05:55N 31°25' E 121°34'11681.8
2017-Jun-18 05:54N 31°30' E 121°23'1204.2
2017-Jun-18 05:54N 31°30' E 121°25'1 5.3
2017-Jun-18 05:38N 31°29' E 121°23'1 8.4
2017-Jun-18 05:28N 31°30' E 121°24'10226.1
2017-Jun-18 05:26N 31°24' E 121°33'11498.0
2017-Jun-18 05:24N 31°30' E 121°23'1121.9
2017-Jun-18 05:24N 31°30' E 121°24'16132.0
2017-Jun-18 05:17N 31°22' E 121°39'827.8
2017-Jun-18 05:00N 31°23' E 121°30'83121.8
2017-Jun-18 05:00N 31°22' E 121°39'1731331.6
2017-Jun-18 05:00N 31°31' E 121°22'128.8
2017-Jun-18 04:57N 31°30' E 121°23'1879.6
2017-Jun-18 04:57N 31°29' E 121°23'153.7
2017-Jun-18 04:56N 31°30' E 121°24'3882320.4
2017-Jun-18 04:46N 37°58' E 120°56'3971547.0
2017-Jun-18 04:30N 31°22' E 121°39'16399.3
2017-Jun-18 04:28N 31°29' E 121°23'41717.7
2017-Jun-18 04:28N 31°33' E 121°20'460.3
2017-Jun-18 04:24N 31°30' E 121°24'3899666.2
2017-Jun-18 04:21N 37°59' E 120°53'3894219.2
2017-Jun-18 04:16N 31°30' E 121°23'1 3.5
2017-Jun-18 03:59N 31°29' E 121°23'1614174.1
2017-Jun-18 03:59N 31°22' E 121°39'16286.4
2017-Jun-18 03:56N 31°30' E 121°24'1121.9
2017-Jun-18 03:55N 31°30' E 121°23'61341.1
2017-Jun-18 03:55N 31°35' E 121°18'1645.4
2017-Jun-18 03:34N 31°22' E 121°30'40071980.2
2017-Jun-18 03:33N 38°00' E 120°45'4018637.5
2017-Jun-18 03:30N 31°22' E 121°39'1613961.4
2017-Jun-18 03:30N 31°30' E 121°24'39258728.5
2017-Jun-18 03:30N 38°00' E 120°45'385197888.0
2017-Jun-18 03:30N 31°37' E 121°16'9701.7
2017-Jun-18 03:29N 31°29' E 121°23'928.4
2017-Jun-18 03:09N 31°22' E 121°30'4022471.0
2017-Jun-18 02:59N 38°01' E 120°40'38481335.7
2017-Jun-18 02:59N 31°38' E 121°14'27887.0
2017-Jun-18 02:57N 31°22' E 121°39'163102.5
2017-Jun-18 02:57N 31°30' E 121°24'1050.4
2017-Jun-18 02:46N 31°22' E 121°30'4031540.8
2017-Jun-18 02:30N 38°02' E 120°36'4047771.5
2017-Jun-18 02:27N 31°22' E 121°39'161382.8
2017-Jun-18 02:26N 31°29' E 121°23'15461.1
2017-Jun-18 02:24N 31°40' E 121°11'15201.9
2017-Jun-18 02:20N 31°30' E 121°24'10292.3
2017-Jun-18 02:18N 31°22' E 121°30'1036277.0
2017-Jun-18 02:18N 31°30' E 121°23'1654.6
2017-Jun-18 02:00N 31°22' E 121°39'163102.5
2017-Jun-18 02:00N 31°30' E 121°24'150.8
2017-Jun-18 01:59N 31°29' E 121°23'1 2.2
2017-Jun-18 01:32N 31°30' E 121°23'16333.7
2017-Jun-18 01:29N 31°22' E 121°39'16981.9
2017-Jun-18 01:28N 31°30' E 121°24'124.9
2017-Jun-18 01:26N 31°29' E 121°23'115.0
2017-Jun-18 01:22N 31°30' E 121°23'1 1.7
2017-Jun-18 01:00N 31°30' E 121°24'1611185.0
2017-Jun-18 01:00N 31°22' E 121°39'162699.4
2017-Jun-18 01:00N 31°29' E 121°23'1632.2
2017-Jun-18 00:30N 31°22' E 121°39'16101.5
2017-Jun-18 00:21N 31°30' E 121°24'119.9
2017-Jun-18 00:19N 31°30' E 121°23'114.8
2017-Jun-18 00:15N 31°29' E 121°23'91770.9
2017-Jun-18 00:15N 31°23' E 121°30'829.7
2017-Jun-17 23:59N 31°22' E 121°39'16573.9
2017-Jun-17 23:57N 31°30' E 121°24'10114.3
2017-Jun-17 23:52N 31°24' E 121°32'1090.0
2017-Jun-17 23:45N 31°30' E 121°23'130.4
2017-Jun-17 23:43N 31°29' E 121°23'0 0.0
2017-Jun-17 23:30N 31°29' E 121°23'164722.2
2017-Jun-17 23:30N 31°22' E 121°39'16839.2
2017-Jun-17 23:29N 31°30' E 121°24'113.5
2017-Jun-17 23:26N 31°30' E 121°23'11238.1
2017-Jun-17 23:23N 31°25' E 121°33'614.6
2017-Jun-17 23:00N 31°22' E 121°39'6499.6
2017-Jun-17 23:00N 31°25' E 121°33'111459.4
2017-Jun-17 22:59N 31°30' E 121°23'1 5.4
2017-Jun-17 22:48N 31°29' E 121°23'151.1
2017-Jun-17 22:47N 31°30' E 121°24'1 1.8
2017-Jun-17 22:27N 31°30' E 121°23'1235.6
2017-Jun-17 22:27N 31°30' E 121°24'10536.3
2017-Jun-17 22:26N 31°25' E 121°33'10209.3
2017-Jun-17 22:23N 31°29' E 121°23'0 0.0
2017-Jun-17 22:00N 31°29' E 121°23'10377.2
2017-Jun-17 21:59N 31°25' E 121°33'11188.8
2017-Jun-17 21:55N 31°30' E 121°23'130.8
2017-Jun-17 21:54N 31°30' E 121°24'21138.4
2017-Jun-17 21:45N 31°45' E 121°06'31120.1
2017-Jun-17 21:30N 31°25' E 121°33'28559.1
2017-Jun-17 21:27N 31°43' E 121°08'194448.2
2017-Jun-17 21:26N 31°29' E 121°23'127.6
2017-Jun-17 21:24N 31°30' E 121°24'1 4.0
2017-Jun-17 21:15N 31°30' E 121°23'1455.2
2017-Jun-17 21:00N 31°41' E 121°12'141416.7
2017-Jun-17 20:59N 31°30' E 121°23'153.0
2017-Jun-17 20:58N 31°29' E 121°23'101248.7
2017-Jun-17 20:58N 31°25' E 121°33'2144.4
2017-Jun-17 20:30N 31°38' E 121°15'211045.1
2017-Jun-17 20:29N 31°25' E 121°33'10323.3
2017-Jun-17 20:27N 31°29' E 121°23'113.7
2017-Jun-17 20:22N 31°30' E 121°23'1 2.2
2017-Jun-17 20:06N 31°30' E 121°24'772.7
2017-Jun-17 20:00N 31°35' E 121°18'7173.0
2017-Jun-17 19:58N 31°30' E 121°24'114.0
2017-Jun-17 19:53N 31°29' E 121°23'1 5.0
2017-Jun-17 19:42N 31°30' E 121°23'0 0.0
2017-Jun-17 19:30N 31°30' E 121°23'170.8
2017-Jun-17 19:30N 31°30' E 121°24'31420.4
2017-Jun-17 19:30N 31°32' E 121°21'1386.1
2017-Jun-17 19:21N 31°25' E 121°33'10139.1
2017-Jun-17 19:16N 31°29' E 121°23'0 0.0
2017-Jun-17 19:00N 31°29' E 121°23'177.6
2017-Jun-17 18:59N 31°30' E 121°23'  

Dump ship's entire track history